<?xml version="1.0" encoding="utf-8"?>
<gpx xmlns:xsi="http://www.w3.org/2001/XMLSchema-instance" xmlns:xsd="http://www.w3.org/2001/XMLSchema" version="1.1" creator="Shapelink.com" xmlns="http://www.topografix.com/GPX/1/1" xmlns:gpxtpx="http://www.garmin.com/xmlschemas/TrackPointExtension/v1">
  <metadata>
    <name>Löpning 9.50 km, 2017-12-23</name>
    <desc></desc>
    <author><name>Bengt-Åke Forslund</name></author> 
    <time>2017-12-23T10:40:11Z</time>
  </metadata>
  <trk>
    <name>Löpning 9.50 km, 2017-12-23</name>
    <trkseg>
      <trkpt lat="62.63601170119" lon="17.967733116853">
        <ele>177.6</ele>
        <time>2017-12-23T10:40:11Z</time>
      </trkpt>
      <trkpt lat="62.636017065606" lon="17.967723812944">
        <ele>176.2</ele>
        <time>2017-12-23T10:40:12Z</time>
      </trkpt>
      <trkpt lat="62.635991081716" lon="17.96774007383">
        <ele>176.2</ele>
        <time>2017-12-23T10:40:13Z</time>
      </trkpt>
      <trkpt lat="62.63598823187" lon="17.967750802662">
        <ele>173.8</ele>
        <time>2017-12-23T10:40:14Z</time>
      </trkpt>
      <trkpt lat="62.635998709245" lon="17.967802267528">
        <ele>174</ele>
        <time>2017-12-23T10:40:15Z</time>
      </trkpt>
      <trkpt lat="62.636005414765" lon="17.967845099037">
        <ele>174</ele>
        <time>2017-12-23T10:40:16Z</time>
      </trkpt>
      <trkpt lat="62.636008599887" lon="17.967881644121">
        <ele>173.8</ele>
        <time>2017-12-23T10:40:17Z</time>
      </trkpt>
      <trkpt lat="62.636017149425" lon="17.967921709603">
        <ele>173.8</ele>
        <time>2017-12-23T10:40:18Z</time>
      </trkpt>
      <trkpt lat="62.636026118058" lon="17.967951968262">
        <ele>173.8</ele>
        <time>2017-12-23T10:40:19Z</time>
      </trkpt>
      <trkpt lat="62.636035002872" lon="17.967985244405">
        <ele>173.8</ele>
        <time>2017-12-23T10:40:20Z</time>
      </trkpt>
      <trkpt lat="62.636045144971" lon="17.968026483353">
        <ele>173.8</ele>
        <time>2017-12-23T10:40:21Z</time>
      </trkpt>
      <trkpt lat="62.636057717821" lon="17.968035619624">
        <ele>173.8</ele>
        <time>2017-12-23T10:40:22Z</time>
      </trkpt>
      <trkpt lat="62.636071045042" lon="17.968059005125">
        <ele>173.8</ele>
        <time>2017-12-23T10:40:23Z</time>
      </trkpt>
      <trkpt lat="62.636068027558" lon="17.968098400055">
        <ele>173.8</ele>
        <time>2017-12-23T10:40:24Z</time>
      </trkpt>
      <trkpt lat="62.636086048643" lon="17.9681700653">
        <ele>173.8</ele>
        <time>2017-12-23T10:40:25Z</time>
      </trkpt>
      <trkpt lat="62.636094682" lon="17.968209627868">
        <ele>173.8</ele>
        <time>2017-12-23T10:40:26Z</time>
      </trkpt>
      <trkpt lat="62.636105997565" lon="17.968233683921">
        <ele>173.8</ele>
        <time>2017-12-23T10:40:27Z</time>
      </trkpt>
      <trkpt lat="62.636117983682" lon="17.968284478235">
        <ele>174</ele>
        <time>2017-12-23T10:40:28Z</time>
      </trkpt>
      <trkpt lat="62.636130305075" lon="17.968324208441">
        <ele>174</ele>
        <time>2017-12-23T10:40:29Z</time>
      </trkpt>
      <trkpt lat="62.636136256224" lon="17.968322448242">
        <ele>174</ele>
        <time>2017-12-23T10:40:30Z</time>
      </trkpt>
      <trkpt lat="62.636160144639" lon="17.968390425451">
        <ele>174.2</ele>
        <time>2017-12-23T10:40:31Z</time>
      </trkpt>
      <trkpt lat="62.636180261199" lon="17.968416912255">
        <ele>174.2</ele>
        <time>2017-12-23T10:40:32Z</time>
      </trkpt>
      <trkpt lat="62.636193839877" lon="17.968451194226">
        <ele>174.2</ele>
        <time>2017-12-23T10:40:33Z</time>
      </trkpt>
      <trkpt lat="62.636211358048" lon="17.968473154804">
        <ele>174.4</ele>
        <time>2017-12-23T10:40:34Z</time>
      </trkpt>
      <trkpt lat="62.636230804056" lon="17.968487655491">
        <ele>174.4</ele>
        <time>2017-12-23T10:40:35Z</time>
      </trkpt>
      <trkpt lat="62.636251255892" lon="17.968497713771">
        <ele>174.6</ele>
        <time>2017-12-23T10:40:36Z</time>
      </trkpt>
      <trkpt lat="62.636269612253" lon="17.968509699888">
        <ele>174.6</ele>
        <time>2017-12-23T10:40:37Z</time>
      </trkpt>
      <trkpt lat="62.636293249211" lon="17.968524954946">
        <ele>174.6</ele>
        <time>2017-12-23T10:40:38Z</time>
      </trkpt>
      <trkpt lat="62.63631512597" lon="17.968535180864">
        <ele>174.8</ele>
        <time>2017-12-23T10:40:39Z</time>
      </trkpt>
      <trkpt lat="62.636337002729" lon="17.968542976031">
        <ele>174.8</ele>
        <time>2017-12-23T10:40:40Z</time>
      </trkpt>
      <trkpt lat="62.636354017986" lon="17.968555884157">
        <ele>175</ele>
        <time>2017-12-23T10:40:41Z</time>
      </trkpt>
      <trkpt lat="62.636377487306" lon="17.968570133387">
        <ele>175</ele>
        <time>2017-12-23T10:40:42Z</time>
      </trkpt>
      <trkpt lat="62.636402213911" lon="17.968601397874">
        <ele>175</ele>
        <time>2017-12-23T10:40:43Z</time>
      </trkpt>
      <trkpt lat="62.636418139521" lon="17.968620592425">
        <ele>175</ele>
        <time>2017-12-23T10:40:44Z</time>
      </trkpt>
      <trkpt lat="62.636438088443" lon="17.968670129454">
        <ele>175</ele>
        <time>2017-12-23T10:40:45Z</time>
      </trkpt>
      <trkpt lat="62.63645342732" lon="17.9686897431">
        <ele>175</ele>
        <time>2017-12-23T10:40:46Z</time>
      </trkpt>
      <trkpt lat="62.636463737057" lon="17.968729221849">
        <ele>175</ele>
        <time>2017-12-23T10:40:47Z</time>
      </trkpt>
      <trkpt lat="62.636486703463" lon="17.968779932344">
        <ele>175</ele>
        <time>2017-12-23T10:40:48Z</time>
      </trkpt>
      <trkpt lat="62.636497348476" lon="17.968824859328">
        <ele>175</ele>
        <time>2017-12-23T10:40:49Z</time>
      </trkpt>
      <trkpt lat="62.636513525543" lon="17.968857632557">
        <ele>175</ele>
        <time>2017-12-23T10:40:50Z</time>
      </trkpt>
      <trkpt lat="62.636528110049" lon="17.968903565369">
        <ele>175</ele>
        <time>2017-12-23T10:40:51Z</time>
      </trkpt>
      <trkpt lat="62.636539174157" lon="17.968943882308">
        <ele>175</ele>
        <time>2017-12-23T10:40:52Z</time>
      </trkpt>
      <trkpt lat="62.636553255749" lon="17.968981684677">
        <ele>175.2</ele>
        <time>2017-12-23T10:40:53Z</time>
      </trkpt>
      <trkpt lat="62.636567840255" lon="17.969022001616">
        <ele>175.2</ele>
        <time>2017-12-23T10:40:54Z</time>
      </trkpt>
      <trkpt lat="62.636580329286" lon="17.969055696854">
        <ele>175.2</ele>
        <time>2017-12-23T10:40:55Z</time>
      </trkpt>
      <trkpt lat="62.636597009267" lon="17.969092493395">
        <ele>175.2</ele>
        <time>2017-12-23T10:40:56Z</time>
      </trkpt>
      <trkpt lat="62.636608157194" lon="17.969126943004">
        <ele>175.4</ele>
        <time>2017-12-23T10:40:57Z</time>
      </trkpt>
      <trkpt lat="62.636625172451" lon="17.969194920213">
        <ele>175.4</ele>
        <time>2017-12-23T10:40:58Z</time>
      </trkpt>
      <trkpt lat="62.636636739473" lon="17.969224340682">
        <ele>175.4</ele>
        <time>2017-12-23T10:40:59Z</time>
      </trkpt>
      <trkpt lat="62.636649982875" lon="17.969293323719">
        <ele>175.4</ele>
        <time>2017-12-23T10:41:00Z</time>
      </trkpt>
      <trkpt lat="62.636663477734" lon="17.969329365889">
        <ele>175.4</ele>
        <time>2017-12-23T10:41:01Z</time>
      </trkpt>
      <trkpt lat="62.636674290385" lon="17.969383848239">
        <ele>175.6</ele>
        <time>2017-12-23T10:41:02Z</time>
      </trkpt>
      <trkpt lat="62.636686192683" lon="17.969435145467">
        <ele>175.4</ele>
        <time>2017-12-23T10:41:03Z</time>
      </trkpt>
      <trkpt lat="62.636696586239" lon="17.969491136559">
        <ele>175.4</ele>
        <time>2017-12-23T10:41:04Z</time>
      </trkpt>
      <trkpt lat="62.636707482709" lon="17.969534051887">
        <ele>175.4</ele>
        <time>2017-12-23T10:41:05Z</time>
      </trkpt>
      <trkpt lat="62.636714523505" lon="17.969573614455">
        <ele>175.6</ele>
        <time>2017-12-23T10:41:06Z</time>
      </trkpt>
      <trkpt lat="62.636722737767" lon="17.969615775412">
        <ele>175.6</ele>
        <time>2017-12-23T10:41:07Z</time>
      </trkpt>
      <trkpt lat="62.636728856554" lon="17.969651314668">
        <ele>175.8</ele>
        <time>2017-12-23T10:41:08Z</time>
      </trkpt>
      <trkpt lat="62.636742519051" lon="17.969706886665">
        <ele>175.8</ele>
        <time>2017-12-23T10:41:09Z</time>
      </trkpt>
      <trkpt lat="62.636750733313" lon="17.969734379297">
        <ele>176</ele>
        <time>2017-12-23T10:41:10Z</time>
      </trkpt>
      <trkpt lat="62.636761378326" lon="17.969785173611">
        <ele>176</ele>
        <time>2017-12-23T10:41:11Z</time>
      </trkpt>
      <trkpt lat="62.636771352787" lon="17.969822053971">
        <ele>176</ele>
        <time>2017-12-23T10:41:12Z</time>
      </trkpt>
      <trkpt lat="62.636784177094" lon="17.969879302348">
        <ele>176.2</ele>
        <time>2017-12-23T10:41:13Z</time>
      </trkpt>
      <trkpt lat="62.636798174867" lon="17.969915009242">
        <ele>176.2</ele>
        <time>2017-12-23T10:41:14Z</time>
      </trkpt>
      <trkpt lat="62.636808568423" lon="17.969957421656">
        <ele>176.4</ele>
        <time>2017-12-23T10:41:15Z</time>
      </trkpt>
      <trkpt lat="62.636823152929" lon="17.969994469654">
        <ele>176.4</ele>
        <time>2017-12-23T10:41:16Z</time>
      </trkpt>
      <trkpt lat="62.636832121562" lon="17.970018693345">
        <ele>176.6</ele>
        <time>2017-12-23T10:41:17Z</time>
      </trkpt>
      <trkpt lat="62.636857015805" lon="17.970063117415">
        <ele>176.6</ele>
        <time>2017-12-23T10:41:18Z</time>
      </trkpt>
      <trkpt lat="62.636874869252" lon="17.970077701921">
        <ele>176.6</ele>
        <time>2017-12-23T10:41:19Z</time>
      </trkpt>
      <trkpt lat="62.636894063803" lon="17.97011131334">
        <ele>176.6</ele>
        <time>2017-12-23T10:41:20Z</time>
      </trkpt>
      <trkpt lat="62.636918371313" lon="17.970125897846">
        <ele>176.4</ele>
        <time>2017-12-23T10:41:21Z</time>
      </trkpt>
      <trkpt lat="62.636934296923" lon="17.970149115709">
        <ele>176.6</ele>
        <time>2017-12-23T10:41:22Z</time>
      </trkpt>
      <trkpt lat="62.636944858117" lon="17.970155653591">
        <ele>176.4</ele>
        <time>2017-12-23T10:41:23Z</time>
      </trkpt>
      <trkpt lat="62.636979140088" lon="17.970177697988">
        <ele>176.6</ele>
        <time>2017-12-23T10:41:24Z</time>
      </trkpt>
      <trkpt lat="62.637014763163" lon="17.970197060177">
        <ele>176.6</ele>
        <time>2017-12-23T10:41:25Z</time>
      </trkpt>
      <trkpt lat="62.637033119524" lon="17.970201083489">
        <ele>176.6</ele>
        <time>2017-12-23T10:41:26Z</time>
      </trkpt>
      <trkpt lat="62.637065389839" lon="17.970208459561">
        <ele>176.6</ele>
        <time>2017-12-23T10:41:27Z</time>
      </trkpt>
      <trkpt lat="62.637097660154" lon="17.970212901968">
        <ele>176.4</ele>
        <time>2017-12-23T10:41:28Z</time>
      </trkpt>
      <trkpt lat="62.637122722035" lon="17.970202843688">
        <ele>176.2</ele>
        <time>2017-12-23T10:41:29Z</time>
      </trkpt>
      <trkpt lat="62.637146358993" lon="17.970191611942">
        <ele>176</ele>
        <time>2017-12-23T10:41:30Z</time>
      </trkpt>
      <trkpt lat="62.637176114738" lon="17.970181050748">
        <ele>176</ele>
        <time>2017-12-23T10:41:31Z</time>
      </trkpt>
      <trkpt lat="62.637208133596" lon="17.970168142622">
        <ele>176.2</ele>
        <time>2017-12-23T10:41:32Z</time>
      </trkpt>
      <trkpt lat="62.637241828834" lon="17.97014484094">
        <ele>176</ele>
        <time>2017-12-23T10:41:33Z</time>
      </trkpt>
      <trkpt lat="62.637273093321" lon="17.970130172615">
        <ele>176</ele>
        <time>2017-12-23T10:41:34Z</time>
      </trkpt>
      <trkpt lat="62.637304441627" lon="17.970116761575">
        <ele>176</ele>
        <time>2017-12-23T10:41:35Z</time>
      </trkpt>
      <trkpt lat="62.637341824901" lon="17.970091029142">
        <ele>175.8</ele>
        <time>2017-12-23T10:41:36Z</time>
      </trkpt>
      <trkpt lat="62.637376525967" lon="17.970074349161">
        <ele>175.8</ele>
        <time>2017-12-23T10:41:37Z</time>
      </trkpt>
      <trkpt lat="62.637408041911" lon="17.970051215117">
        <ele>175.8</ele>
        <time>2017-12-23T10:41:38Z</time>
      </trkpt>
      <trkpt lat="62.637447688298" lon="17.970034870412">
        <ele>175.6</ele>
        <time>2017-12-23T10:41:39Z</time>
      </trkpt>
      <trkpt lat="62.637481634993" lon="17.970026823788">
        <ele>175.2</ele>
        <time>2017-12-23T10:41:40Z</time>
      </trkpt>
      <trkpt lat="62.637516168421" lon="17.970031098557">
        <ele>175</ele>
        <time>2017-12-23T10:41:41Z</time>
      </trkpt>
      <trkpt lat="62.637552462048" lon="17.970062279225">
        <ele>174.8</ele>
        <time>2017-12-23T10:41:42Z</time>
      </trkpt>
      <trkpt lat="62.637586073467" lon="17.970084239803">
        <ele>174.4</ele>
        <time>2017-12-23T10:41:43Z</time>
      </trkpt>
      <trkpt lat="62.637613063185" lon="17.970126149303">
        <ele>174.2</ele>
        <time>2017-12-23T10:41:44Z</time>
      </trkpt>
      <trkpt lat="62.637637119238" lon="17.970165376595">
        <ele>174.2</ele>
        <time>2017-12-23T10:41:45Z</time>
      </trkpt>
      <trkpt lat="62.63766125911" lon="17.970205861172">
        <ele>174.2</ele>
        <time>2017-12-23T10:41:46Z</time>
      </trkpt>
      <trkpt lat="62.637681627127" lon="17.970258667142">
        <ele>174</ele>
        <time>2017-12-23T10:41:47Z</time>
      </trkpt>
      <trkpt lat="62.637706940465" lon="17.970304013221">
        <ele>174</ele>
        <time>2017-12-23T10:41:48Z</time>
      </trkpt>
      <trkpt lat="62.63772244698" lon="17.970363357073">
        <ele>174</ele>
        <time>2017-12-23T10:41:49Z</time>
      </trkpt>
      <trkpt lat="62.637736444753" lon="17.970410714808">
        <ele>174</ele>
        <time>2017-12-23T10:41:50Z</time>
      </trkpt>
      <trkpt lat="62.637749520517" lon="17.970462347312">
        <ele>174</ele>
        <time>2017-12-23T10:41:51Z</time>
      </trkpt>
      <trkpt lat="62.637761255177" lon="17.970510627056">
        <ele>174</ele>
        <time>2017-12-23T10:41:52Z</time>
      </trkpt>
      <trkpt lat="62.63776938562" lon="17.970551111633">
        <ele>174</ele>
        <time>2017-12-23T10:41:53Z</time>
      </trkpt>
      <trkpt lat="62.637782377565" lon="17.970603247051">
        <ele>174</ele>
        <time>2017-12-23T10:41:54Z</time>
      </trkpt>
      <trkpt lat="62.637792352026" lon="17.970641636153">
        <ele>174</ele>
        <time>2017-12-23T10:41:55Z</time>
      </trkpt>
      <trkpt lat="62.63780291322" lon="17.970683042739">
        <ele>174</ele>
        <time>2017-12-23T10:41:56Z</time>
      </trkpt>
      <trkpt lat="62.63780961874" lon="17.970717408529">
        <ele>174</ele>
        <time>2017-12-23T10:41:57Z</time>
      </trkpt>
      <trkpt lat="62.63781800064" lon="17.970783960815">
        <ele>174</ele>
        <time>2017-12-23T10:41:58Z</time>
      </trkpt>
      <trkpt lat="62.637822778323" lon="17.970804328832">
        <ele>174.2</ele>
        <time>2017-12-23T10:41:59Z</time>
      </trkpt>
      <trkpt lat="62.637828561834" lon="17.970874820611">
        <ele>174.2</ele>
        <time>2017-12-23T10:42:00Z</time>
      </trkpt>
      <trkpt lat="62.637838871571" lon="17.970903151433">
        <ele>174.2</ele>
        <time>2017-12-23T10:42:01Z</time>
      </trkpt>
      <trkpt lat="62.637847253471" lon="17.970961824733">
        <ele>174.4</ele>
        <time>2017-12-23T10:42:02Z</time>
      </trkpt>
      <trkpt lat="62.637855300095" lon="17.970999208007">
        <ele>174.4</ele>
        <time>2017-12-23T10:42:03Z</time>
      </trkpt>
      <trkpt lat="62.637861167425" lon="17.971059892963">
        <ele>174.6</ele>
        <time>2017-12-23T10:42:04Z</time>
      </trkpt>
      <trkpt lat="62.637872315352" lon="17.971097946789">
        <ele>174.6</ele>
        <time>2017-12-23T10:42:05Z</time>
      </trkpt>
      <trkpt lat="62.637879523786" lon="17.971162235962">
        <ele>174.8</ele>
        <time>2017-12-23T10:42:06Z</time>
      </trkpt>
      <trkpt lat="62.637892767188" lon="17.971193165173">
        <ele>174.6</ele>
        <time>2017-12-23T10:42:07Z</time>
      </trkpt>
      <trkpt lat="62.637898215423" lon="17.971254436862">
        <ele>174.8</ele>
        <time>2017-12-23T10:42:08Z</time>
      </trkpt>
      <trkpt lat="62.637908022246" lon="17.97129399943">
        <ele>174.6</ele>
        <time>2017-12-23T10:42:09Z</time>
      </trkpt>
      <trkpt lat="62.637912883748" lon="17.971340016061">
        <ele>174.6</ele>
        <time>2017-12-23T10:42:10Z</time>
      </trkpt>
      <trkpt lat="62.637919002535" lon="17.9713719511">
        <ele>174.6</ele>
        <time>2017-12-23T10:42:11Z</time>
      </trkpt>
      <trkpt lat="62.637924199313" lon="17.971414279695">
        <ele>174.6</ele>
        <time>2017-12-23T10:42:12Z</time>
      </trkpt>
      <trkpt lat="62.637932329756" lon="17.971460128688">
        <ele>174.8</ele>
        <time>2017-12-23T10:42:13Z</time>
      </trkpt>
      <trkpt lat="62.637936604525" lon="17.971496757591">
        <ele>174.8</ele>
        <time>2017-12-23T10:42:14Z</time>
      </trkpt>
      <trkpt lat="62.63794205276" lon="17.971545791706">
        <ele>174.8</ele>
        <time>2017-12-23T10:42:15Z</time>
      </trkpt>
      <trkpt lat="62.637947333357" lon="17.971579989858">
        <ele>175</ele>
        <time>2017-12-23T10:42:16Z</time>
      </trkpt>
      <trkpt lat="62.637951608126" lon="17.97162927543">
        <ele>175</ele>
        <time>2017-12-23T10:42:17Z</time>
      </trkpt>
      <trkpt lat="62.637955296162" lon="17.971672358396">
        <ele>175.2</ele>
        <time>2017-12-23T10:42:18Z</time>
      </trkpt>
      <trkpt lat="62.637959235655" lon="17.971728265669">
        <ele>175.2</ele>
        <time>2017-12-23T10:42:19Z</time>
      </trkpt>
      <trkpt lat="62.637963594243" lon="17.971772186825">
        <ele>175.2</ele>
        <time>2017-12-23T10:42:20Z</time>
      </trkpt>
      <trkpt lat="62.637966527908" lon="17.971819628379">
        <ele>175.4</ele>
        <time>2017-12-23T10:42:21Z</time>
      </trkpt>
      <trkpt lat="62.637968539564" lon="17.971856927834">
        <ele>175.4</ele>
        <time>2017-12-23T10:42:22Z</time>
      </trkpt>
      <trkpt lat="62.637969293935" lon="17.971920630274">
        <ele>175.4</ele>
        <time>2017-12-23T10:42:23Z</time>
      </trkpt>
      <trkpt lat="62.637976502369" lon="17.971951727123">
        <ele>175.4</ele>
        <time>2017-12-23T10:42:24Z</time>
      </trkpt>
      <trkpt lat="62.63797725674" lon="17.972013334088">
        <ele>175.4</ele>
        <time>2017-12-23T10:42:25Z</time>
      </trkpt>
      <trkpt lat="62.637987734115" lon="17.972040994358">
        <ele>175.4</ele>
        <time>2017-12-23T10:42:26Z</time>
      </trkpt>
      <trkpt lat="62.63799066778" lon="17.972103271875">
        <ele>175.4</ele>
        <time>2017-12-23T10:42:27Z</time>
      </trkpt>
      <trkpt lat="62.637995948377" lon="17.972155407293">
        <ele>175.4</ele>
        <time>2017-12-23T10:42:28Z</time>
      </trkpt>
      <trkpt lat="62.637994942549" lon="17.972206033969">
        <ele>175.4</ele>
        <time>2017-12-23T10:42:29Z</time>
      </trkpt>
      <trkpt lat="62.637998798223" lon="17.972266551287">
        <ele>175.4</ele>
        <time>2017-12-23T10:42:30Z</time>
      </trkpt>
      <trkpt lat="62.638005419924" lon="17.972301000896">
        <ele>175.6</ele>
        <time>2017-12-23T10:42:31Z</time>
      </trkpt>
      <trkpt lat="62.638002989173" lon="17.972350873201">
        <ele>175.6</ele>
        <time>2017-12-23T10:42:32Z</time>
      </trkpt>
      <trkpt lat="62.638013466548" lon="17.972386328638">
        <ele>175.6</ele>
        <time>2017-12-23T10:42:33Z</time>
      </trkpt>
      <trkpt lat="62.638014388557" lon="17.972441230083">
        <ele>175.8</ele>
        <time>2017-12-23T10:42:34Z</time>
      </trkpt>
      <trkpt lat="62.638017992774" lon="17.972480205918">
        <ele>175.8</ele>
        <time>2017-12-23T10:42:35Z</time>
      </trkpt>
      <trkpt lat="62.638023692466" lon="17.972526054911">
        <ele>176</ele>
        <time>2017-12-23T10:42:36Z</time>
      </trkpt>
      <trkpt lat="62.638023441009" lon="17.972573831741">
        <ele>176.2</ele>
        <time>2017-12-23T10:42:37Z</time>
      </trkpt>
      <trkpt lat="62.638030984719" lon="17.972611382653">
        <ele>176.4</ele>
        <time>2017-12-23T10:42:38Z</time>
      </trkpt>
      <trkpt lat="62.638029811253" lon="17.972669720677">
        <ele>176.6</ele>
        <time>2017-12-23T10:42:39Z</time>
      </trkpt>
      <trkpt lat="62.638039366619" lon="17.972705343752">
        <ele>176.6</ele>
        <time>2017-12-23T10:42:40Z</time>
      </trkpt>
      <trkpt lat="62.638037774058" lon="17.972749767822">
        <ele>176.6</ele>
        <time>2017-12-23T10:42:41Z</time>
      </trkpt>
      <trkpt lat="62.638048335252" lon="17.972787737829">
        <ele>176.8</ele>
        <time>2017-12-23T10:42:42Z</time>
      </trkpt>
      <trkpt lat="62.638044814854" lon="17.972847333138">
        <ele>176.8</ele>
        <time>2017-12-23T10:42:43Z</time>
      </trkpt>
      <trkpt lat="62.638051436555" lon="17.972887063344">
        <ele>176.8</ele>
        <time>2017-12-23T10:42:44Z</time>
      </trkpt>
      <trkpt lat="62.638046323596" lon="17.972933918165">
        <ele>176.8</ele>
        <time>2017-12-23T10:42:45Z</time>
      </trkpt>
      <trkpt lat="62.63804850289" lon="17.972975743846">
        <ele>176.8</ele>
        <time>2017-12-23T10:42:46Z</time>
      </trkpt>
      <trkpt lat="62.638051436555" lon="17.973005667229">
        <ele>177</ele>
        <time>2017-12-23T10:42:47Z</time>
      </trkpt>
      <trkpt lat="62.638046910329" lon="17.97305838938">
        <ele>177</ele>
        <time>2017-12-23T10:42:48Z</time>
      </trkpt>
      <trkpt lat="62.638054034944" lon="17.973093509541">
        <ele>177</ele>
        <time>2017-12-23T10:42:49Z</time>
      </trkpt>
      <trkpt lat="62.638050430727" lon="17.973146734606">
        <ele>177.2</ele>
        <time>2017-12-23T10:42:50Z</time>
      </trkpt>
      <trkpt lat="62.638049760175" lon="17.97318914702">
        <ele>177.2</ele>
        <time>2017-12-23T10:42:51Z</time>
      </trkpt>
      <trkpt lat="62.638053699668" lon="17.973222423163">
        <ele>177.2</ele>
        <time>2017-12-23T10:42:52Z</time>
      </trkpt>
      <trkpt lat="62.638047916157" lon="17.973263075378">
        <ele>177.4</ele>
        <time>2017-12-23T10:42:53Z</time>
      </trkpt>
      <trkpt lat="62.638054873134" lon="17.973292579666">
        <ele>177.4</ele>
        <time>2017-12-23T10:42:54Z</time>
      </trkpt>
      <trkpt lat="62.638046658872" lon="17.973342200514">
        <ele>177.6</ele>
        <time>2017-12-23T10:42:55Z</time>
      </trkpt>
      <trkpt lat="62.638055627505" lon="17.973369190232">
        <ele>177.8</ele>
        <time>2017-12-23T10:42:56Z</time>
      </trkpt>
      <trkpt lat="62.638047832338" lon="17.973419062537">
        <ele>177.8</ele>
        <time>2017-12-23T10:42:57Z</time>
      </trkpt>
      <trkpt lat="62.638050682184" lon="17.973455775259">
        <ele>177.8</ele>
        <time>2017-12-23T10:42:58Z</time>
      </trkpt>
      <trkpt lat="62.638045485406" lon="17.973496259836">
        <ele>178</ele>
        <time>2017-12-23T10:42:59Z</time>
      </trkpt>
      <trkpt lat="62.638047329424" lon="17.973538839888">
        <ele>178.2</ele>
        <time>2017-12-23T10:43:00Z</time>
      </trkpt>
      <trkpt lat="62.638043389931" lon="17.973579827379">
        <ele>178.2</ele>
        <time>2017-12-23T10:43:01Z</time>
      </trkpt>
      <trkpt lat="62.638046407415" lon="17.97362919677">
        <ele>178.2</ele>
        <time>2017-12-23T10:43:02Z</time>
      </trkpt>
      <trkpt lat="62.638043976664" lon="17.973674710487">
        <ele>178.4</ele>
        <time>2017-12-23T10:43:03Z</time>
      </trkpt>
      <trkpt lat="62.638047999976" lon="17.973732964692">
        <ele>178.4</ele>
        <time>2017-12-23T10:43:04Z</time>
      </trkpt>
      <trkpt lat="62.638043222293" lon="17.973776466753">
        <ele>178.4</ele>
        <time>2017-12-23T10:43:05Z</time>
      </trkpt>
      <trkpt lat="62.63804850289" lon="17.973836481157">
        <ele>178.2</ele>
        <time>2017-12-23T10:43:06Z</time>
      </trkpt>
      <trkpt lat="62.638043976664" lon="17.973882916883">
        <ele>178.2</ele>
        <time>2017-12-23T10:43:07Z</time>
      </trkpt>
      <trkpt lat="62.638057303885" lon="17.973935471396">
        <ele>178.2</ele>
        <time>2017-12-23T10:43:08Z</time>
      </trkpt>
      <trkpt lat="62.638050514546" lon="17.973990205203">
        <ele>178.2</ele>
        <time>2017-12-23T10:43:09Z</time>
      </trkpt>
      <trkpt lat="62.638064596138" lon="17.974035802739">
        <ele>178.2</ele>
        <time>2017-12-23T10:43:10Z</time>
      </trkpt>
      <trkpt lat="62.638058896446" lon="17.974087435243">
        <ele>178.2</ele>
        <time>2017-12-23T10:43:11Z</time>
      </trkpt>
      <trkpt lat="62.63806945764" lon="17.974129260924">
        <ele>178.2</ele>
        <time>2017-12-23T10:43:12Z</time>
      </trkpt>
      <trkpt lat="62.638069709097" lon="17.974193047183">
        <ele>178.2</ele>
        <time>2017-12-23T10:43:13Z</time>
      </trkpt>
      <trkpt lat="62.638079851196" lon="17.974235375778">
        <ele>178.2</ele>
        <time>2017-12-23T10:43:14Z</time>
      </trkpt>
      <trkpt lat="62.638074738237" lon="17.974301760426">
        <ele>178.2</ele>
        <time>2017-12-23T10:43:15Z</time>
      </trkpt>
      <trkpt lat="62.638084293603" lon="17.974340652442">
        <ele>178.2</ele>
        <time>2017-12-23T10:43:16Z</time>
      </trkpt>
      <trkpt lat="62.638080605567" lon="17.974391698213">
        <ele>178.2</ele>
        <time>2017-12-23T10:43:17Z</time>
      </trkpt>
      <trkpt lat="62.638086808173" lon="17.974459926879">
        <ele>178.2</ele>
        <time>2017-12-23T10:43:18Z</time>
      </trkpt>
      <trkpt lat="62.638078174816" lon="17.974529831925">
        <ele>178.2</ele>
        <time>2017-12-23T10:43:19Z</time>
      </trkpt>
      <trkpt lat="62.638086975811" lon="17.974581715886">
        <ele>178.2</ele>
        <time>2017-12-23T10:43:20Z</time>
      </trkpt>
      <trkpt lat="62.638072978038" lon="17.974647932896">
        <ele>178.2</ele>
        <time>2017-12-23T10:43:21Z</time>
      </trkpt>
      <trkpt lat="62.638075408789" lon="17.974703421074">
        <ele>178.2</ele>
        <time>2017-12-23T10:43:22Z</time>
      </trkpt>
      <trkpt lat="62.638064177043" lon="17.97475488594">
        <ele>178.2</ele>
        <time>2017-12-23T10:43:23Z</time>
      </trkpt>
      <trkpt lat="62.638046491234" lon="17.97481439743">
        <ele>178.2</ele>
        <time>2017-12-23T10:43:24Z</time>
      </trkpt>
      <trkpt lat="62.638036684411" lon="17.974850523419">
        <ele>178.4</ele>
        <time>2017-12-23T10:43:25Z</time>
      </trkpt>
      <trkpt lat="62.638015645842" lon="17.974884889209">
        <ele>178.4</ele>
        <time>2017-12-23T10:43:26Z</time>
      </trkpt>
      <trkpt lat="62.638008605046" lon="17.974928475089">
        <ele>178.6</ele>
        <time>2017-12-23T10:43:27Z</time>
      </trkpt>
      <trkpt lat="62.63798815321" lon="17.974965858363">
        <ele>178.6</ele>
        <time>2017-12-23T10:43:28Z</time>
      </trkpt>
      <trkpt lat="62.637973736342" lon="17.974992345167">
        <ele>178.6</ele>
        <time>2017-12-23T10:43:29Z</time>
      </trkpt>
      <trkpt lat="62.637965019166" lon="17.975025788948">
        <ele>178.8</ele>
        <time>2017-12-23T10:43:30Z</time>
      </trkpt>
      <trkpt lat="62.637945573158" lon="17.975055963788">
        <ele>178.8</ele>
        <time>2017-12-23T10:43:31Z</time>
      </trkpt>
      <trkpt lat="62.637944986425" lon="17.97507842728">
        <ele>179</ele>
        <time>2017-12-23T10:43:32Z</time>
      </trkpt>
      <trkpt lat="62.637923696399" lon="17.975114050355">
        <ele>179</ele>
        <time>2017-12-23T10:43:33Z</time>
      </trkpt>
      <trkpt lat="62.637919253992" lon="17.975146488308">
        <ele>179</ele>
        <time>2017-12-23T10:43:34Z</time>
      </trkpt>
      <trkpt lat="62.637902071097" lon="17.975171047275">
        <ele>179.2</ele>
        <time>2017-12-23T10:43:35Z</time>
      </trkpt>
      <trkpt lat="62.637883882374" lon="17.97520080302">
        <ele>179.4</ele>
        <time>2017-12-23T10:43:36Z</time>
      </trkpt>
      <trkpt lat="62.637877679768" lon="17.975226954548">
        <ele>179.6</ele>
        <time>2017-12-23T10:43:37Z</time>
      </trkpt>
      <trkpt lat="62.637855300095" lon="17.975258219035">
        <ele>179.6</ele>
        <time>2017-12-23T10:43:38Z</time>
      </trkpt>
      <trkpt lat="62.637850354774" lon="17.97528546021">
        <ele>179.6</ele>
        <time>2017-12-23T10:43:39Z</time>
      </trkpt>
      <trkpt lat="62.637829483843" lon="17.975317730525">
        <ele>179.8</ele>
        <time>2017-12-23T10:43:40Z</time>
      </trkpt>
      <trkpt lat="62.637818671192" lon="17.975337344171">
        <ele>179.8</ele>
        <time>2017-12-23T10:43:41Z</time>
      </trkpt>
      <trkpt lat="62.637806601256" lon="17.975363076604">
        <ele>179.8</ele>
        <time>2017-12-23T10:43:42Z</time>
      </trkpt>
      <trkpt lat="62.637787406705" lon="17.975377828748">
        <ele>180</ele>
        <time>2017-12-23T10:43:43Z</time>
      </trkpt>
      <trkpt lat="62.637781707013" lon="17.975397107118">
        <ele>180.2</ele>
        <time>2017-12-23T10:43:44Z</time>
      </trkpt>
      <trkpt lat="62.63776603286" lon="17.975421749904">
        <ele>180.2</ele>
        <time>2017-12-23T10:43:45Z</time>
      </trkpt>
      <trkpt lat="62.637751280716" lon="17.975443291387">
        <ele>180.4</ele>
        <time>2017-12-23T10:43:46Z</time>
      </trkpt>
      <trkpt lat="62.637743569368" lon="17.975450332183">
        <ele>180.4</ele>
        <time>2017-12-23T10:43:47Z</time>
      </trkpt>
      <trkpt lat="62.637730074509" lon="17.975469359096">
        <ele>180.6</ele>
        <time>2017-12-23T10:43:48Z</time>
      </trkpt>
      <trkpt lat="62.637714232718" lon="17.975478160091">
        <ele>180.8</ele>
        <time>2017-12-23T10:43:49Z</time>
      </trkpt>
      <trkpt lat="62.637697971832" lon="17.97549752228">
        <ele>180.8</ele>
        <time>2017-12-23T10:43:50Z</time>
      </trkpt>
      <trkpt lat="62.637686153353" lon="17.975513280252">
        <ele>181</ele>
        <time>2017-12-23T10:43:51Z</time>
      </trkpt>
      <trkpt lat="62.637662684033" lon="17.975507329103">
        <ele>181.4</ele>
        <time>2017-12-23T10:43:52Z</time>
      </trkpt>
      <trkpt lat="62.637648602441" lon="17.975534067364">
        <ele>181.6</ele>
        <time>2017-12-23T10:43:53Z</time>
      </trkpt>
      <trkpt lat="62.637625384578" lon="17.975540521427">
        <ele>181.8</ele>
        <time>2017-12-23T10:43:54Z</time>
      </trkpt>
      <trkpt lat="62.637605435656" lon="17.975550998802">
        <ele>182</ele>
        <time>2017-12-23T10:43:55Z</time>
      </trkpt>
      <trkpt lat="62.637593952453" lon="17.975566170041">
        <ele>182.2</ele>
        <time>2017-12-23T10:43:56Z</time>
      </trkpt>
      <trkpt lat="62.637569477305" lon="17.975573713751">
        <ele>182.4</ele>
        <time>2017-12-23T10:43:57Z</time>
      </trkpt>
      <trkpt lat="62.637553803152" lon="17.975587543886">
        <ele>182.4</ele>
        <time>2017-12-23T10:43:58Z</time>
      </trkpt>
      <trkpt lat="62.637539051008" lon="17.975601038745">
        <ele>182.8</ele>
        <time>2017-12-23T10:43:59Z</time>
      </trkpt>
      <trkpt lat="62.637520191733" lon="17.975610258835">
        <ele>183</ele>
        <time>2017-12-23T10:44:00Z</time>
      </trkpt>
      <trkpt lat="62.637511390738" lon="17.975628950472">
        <ele>183</ele>
        <time>2017-12-23T10:44:01Z</time>
      </trkpt>
      <trkpt lat="62.637487083228" lon="17.975632387051">
        <ele>183.2</ele>
        <time>2017-12-23T10:44:02Z</time>
      </trkpt>
      <trkpt lat="62.637475264749" lon="17.975651330145">
        <ele>183.2</ele>
        <time>2017-12-23T10:44:03Z</time>
      </trkpt>
      <trkpt lat="62.637454645275" lon="17.975667004298">
        <ele>183.2</ele>
        <time>2017-12-23T10:44:04Z</time>
      </trkpt>
      <trkpt lat="62.637439641674" lon="17.97566767485">
        <ele>183.2</ele>
        <time>2017-12-23T10:44:05Z</time>
      </trkpt>
      <trkpt lat="62.637426230634" lon="17.975690473618">
        <ele>183.4</ele>
        <time>2017-12-23T10:44:06Z</time>
      </trkpt>
      <trkpt lat="62.637403599504" lon="17.975693742559">
        <ele>183.6</ele>
        <time>2017-12-23T10:44:07Z</time>
      </trkpt>
      <trkpt lat="62.637392451577" lon="17.975720648458">
        <ele>183.6</ele>
        <time>2017-12-23T10:44:08Z</time>
      </trkpt>
      <trkpt lat="62.63736621623" lon="17.975731796385">
        <ele>183.8</ele>
        <time>2017-12-23T10:44:09Z</time>
      </trkpt>
      <trkpt lat="62.637351799362" lon="17.97575149385">
        <ele>184</ele>
        <time>2017-12-23T10:44:10Z</time>
      </trkpt>
      <trkpt lat="62.637340819073" lon="17.975769431116">
        <ele>184</ele>
        <time>2017-12-23T10:44:11Z</time>
      </trkpt>
      <trkpt lat="62.637319109952" lon="17.975787116925">
        <ele>184.2</ele>
        <time>2017-12-23T10:44:12Z</time>
      </trkpt>
      <trkpt lat="62.63731257207" lon="17.975813184634">
        <ele>184.2</ele>
        <time>2017-12-23T10:44:13Z</time>
      </trkpt>
      <trkpt lat="62.637300753591" lon="17.975845706406">
        <ele>184.4</ele>
        <time>2017-12-23T10:44:14Z</time>
      </trkpt>
      <trkpt lat="62.637285414714" lon="17.975870265373">
        <ele>184.4</ele>
        <time>2017-12-23T10:44:15Z</time>
      </trkpt>
      <trkpt lat="62.637272925683" lon="17.975892896503">
        <ele>184.6</ele>
        <time>2017-12-23T10:44:16Z</time>
      </trkpt>
      <trkpt lat="62.637268148" lon="17.975917120194">
        <ele>184.8</ele>
        <time>2017-12-23T10:44:17Z</time>
      </trkpt>
      <trkpt lat="62.637248534354" lon="17.975947546491">
        <ele>185</ele>
        <time>2017-12-23T10:44:18Z</time>
      </trkpt>
      <trkpt lat="62.63724467868" lon="17.975980906453">
        <ele>185.2</ele>
        <time>2017-12-23T10:44:19Z</time>
      </trkpt>
      <trkpt lat="62.637232441106" lon="17.976015858976">
        <ele>185.6</ele>
        <time>2017-12-23T10:44:20Z</time>
      </trkpt>
      <trkpt lat="62.637222131369" lon="17.976045195626">
        <ele>185.6</ele>
        <time>2017-12-23T10:44:21Z</time>
      </trkpt>
      <trkpt lat="62.637221460817" lon="17.976076376294">
        <ele>185.8</ele>
        <time>2017-12-23T10:44:22Z</time>
      </trkpt>
      <trkpt lat="62.637204864655" lon="17.976110574446">
        <ele>185.8</ele>
        <time>2017-12-23T10:44:23Z</time>
      </trkpt>
      <trkpt lat="62.637204613198" lon="17.976151897213">
        <ele>186</ele>
        <time>2017-12-23T10:44:24Z</time>
      </trkpt>
      <trkpt lat="62.637189022864" lon="17.976190956867">
        <ele>186.2</ele>
        <time>2017-12-23T10:44:25Z</time>
      </trkpt>
      <trkpt lat="62.63718516719" lon="17.976236302946">
        <ele>186.2</ele>
        <time>2017-12-23T10:44:26Z</time>
      </trkpt>
      <trkpt lat="62.637176952928" lon="17.976270836374">
        <ele>186.2</ele>
        <time>2017-12-23T10:44:27Z</time>
      </trkpt>
      <trkpt lat="62.637163793345" lon="17.976311153313">
        <ele>186.4</ele>
        <time>2017-12-23T10:44:28Z</time>
      </trkpt>
      <trkpt lat="62.637167229924" lon="17.976340825239">
        <ele>186.4</ele>
        <time>2017-12-23T10:44:29Z</time>
      </trkpt>
      <trkpt lat="62.637150214667" lon="17.976388769707">
        <ele>186.4</ele>
        <time>2017-12-23T10:44:30Z</time>
      </trkpt>
      <trkpt lat="62.637153567427" lon="17.976417268167">
        <ele>186.6</ele>
        <time>2017-12-23T10:44:31Z</time>
      </trkpt>
      <trkpt lat="62.637141832767" lon="17.976458423296">
        <ele>186.6</ele>
        <time>2017-12-23T10:44:32Z</time>
      </trkpt>
      <trkpt lat="62.637144179699" lon="17.976494381647">
        <ele>186.8</ele>
        <time>2017-12-23T10:44:33Z</time>
      </trkpt>
      <trkpt lat="62.637131355392" lon="17.976543164305">
        <ele>187</ele>
        <time>2017-12-23T10:44:34Z</time>
      </trkpt>
      <trkpt lat="62.637131271573" lon="17.976557162078">
        <ele>187</ele>
        <time>2017-12-23T10:44:35Z</time>
      </trkpt>
      <trkpt lat="62.637115848877" lon="17.976623630545">
        <ele>187.2</ele>
        <time>2017-12-23T10:44:36Z</time>
      </trkpt>
      <trkpt lat="62.637112077022" lon="17.976650201168">
        <ele>187.2</ele>
        <time>2017-12-23T10:44:37Z</time>
      </trkpt>
      <trkpt lat="62.637111071194" lon="17.976691691573">
        <ele>187.2</ele>
        <time>2017-12-23T10:44:38Z</time>
      </trkpt>
      <trkpt lat="62.637115681239" lon="17.976725889725">
        <ele>187.4</ele>
        <time>2017-12-23T10:44:39Z</time>
      </trkpt>
      <trkpt lat="62.637108556624" lon="17.9767782766">
        <ele>187.4</ele>
        <time>2017-12-23T10:44:40Z</time>
      </trkpt>
      <trkpt lat="62.637113418126" lon="17.976808199983">
        <ele>187.4</ele>
        <time>2017-12-23T10:44:41Z</time>
      </trkpt>
      <trkpt lat="62.637111574108" lon="17.976858826659">
        <ele>187.4</ele>
        <time>2017-12-23T10:44:42Z</time>
      </trkpt>
      <trkpt lat="62.637111574108" lon="17.976905262385">
        <ele>187.4</ele>
        <time>2017-12-23T10:44:43Z</time>
      </trkpt>
      <trkpt lat="62.637114004859" lon="17.97694759098">
        <ele>187.4</ele>
        <time>2017-12-23T10:44:44Z</time>
      </trkpt>
      <trkpt lat="62.637111322651" lon="17.977006599556">
        <ele>187.4</ele>
        <time>2017-12-23T10:44:45Z</time>
      </trkpt>
      <trkpt lat="62.637114172497" lon="17.977039121328">
        <ele>187.4</ele>
        <time>2017-12-23T10:44:46Z</time>
      </trkpt>
      <trkpt lat="62.637112077022" lon="17.977097291714">
        <ele>187.4</ele>
        <time>2017-12-23T10:44:47Z</time>
      </trkpt>
      <trkpt lat="62.637112328479" lon="17.977135513178">
        <ele>187.4</ele>
        <time>2017-12-23T10:44:48Z</time>
      </trkpt>
      <trkpt lat="62.637104198036" lon="17.977206675509">
        <ele>187.4</ele>
        <time>2017-12-23T10:44:49Z</time>
      </trkpt>
      <trkpt lat="62.637105036226" lon="17.977252189226">
        <ele>187.4</ele>
        <time>2017-12-23T10:44:50Z</time>
      </trkpt>
      <trkpt lat="62.637096151412" lon="17.977302899721">
        <ele>187.4</ele>
        <time>2017-12-23T10:44:51Z</time>
      </trkpt>
      <trkpt lat="62.637087853331" lon="17.977349503085">
        <ele>187.4</ele>
        <time>2017-12-23T10:44:52Z</time>
      </trkpt>
      <trkpt lat="62.637082488915" lon="17.977387305454">
        <ele>187.4</ele>
        <time>2017-12-23T10:44:53Z</time>
      </trkpt>
      <trkpt lat="62.637066647124" lon="17.977444805288">
        <ele>187.4</ele>
        <time>2017-12-23T10:44:54Z</time>
      </trkpt>
      <trkpt lat="62.637063042907" lon="17.977479673992">
        <ele>187.4</ele>
        <time>2017-12-23T10:44:55Z</time>
      </trkpt>
      <trkpt lat="62.637040914691" lon="17.977533066695">
        <ele>187.4</ele>
        <time>2017-12-23T10:44:56Z</time>
      </trkpt>
      <trkpt lat="62.637033370981" lon="17.977562151888">
        <ele>187.4</ele>
        <time>2017-12-23T10:44:57Z</time>
      </trkpt>
      <trkpt lat="62.637016439543" lon="17.97762149574">
        <ele>187.4</ele>
        <time>2017-12-23T10:44:58Z</time>
      </trkpt>
      <trkpt lat="62.637008225281" lon="17.977661058308">
        <ele>187.4</ele>
        <time>2017-12-23T10:44:59Z</time>
      </trkpt>
      <trkpt lat="62.636998418458" lon="17.977704225093">
        <ele>187.4</ele>
        <time>2017-12-23T10:45:00Z</time>
      </trkpt>
      <trkpt lat="62.636988108721" lon="17.977754600312">
        <ele>187.2</ele>
        <time>2017-12-23T10:45:01Z</time>
      </trkpt>
      <trkpt lat="62.636988779273" lon="17.977784858971">
        <ele>187.4</ele>
        <time>2017-12-23T10:45:02Z</time>
      </trkpt>
      <trkpt lat="62.636977379889" lon="17.977857446225">
        <ele>187.4</ele>
        <time>2017-12-23T10:45:03Z</time>
      </trkpt>
      <trkpt lat="62.636980229735" lon="17.977887872522">
        <ele>187.2</ele>
        <time>2017-12-23T10:45:04Z</time>
      </trkpt>
      <trkpt lat="62.636970925826" lon="17.977946210546">
        <ele>187.2</ele>
        <time>2017-12-23T10:45:05Z</time>
      </trkpt>
      <trkpt lat="62.636966231962" lon="17.977992227177">
        <ele>187.2</ele>
        <time>2017-12-23T10:45:06Z</time>
      </trkpt>
      <trkpt lat="62.636958688252" lon="17.978036818885">
        <ele>187.2</ele>
        <time>2017-12-23T10:45:07Z</time>
      </trkpt>
      <trkpt lat="62.636950138714" lon="17.978088451389">
        <ele>187.2</ele>
        <time>2017-12-23T10:45:08Z</time>
      </trkpt>
      <trkpt lat="62.636944355203" lon="17.978123906826">
        <ele>187.2</ele>
        <time>2017-12-23T10:45:09Z</time>
      </trkpt>
      <trkpt lat="62.636933207276" lon="17.978180903746">
        <ele>187.2</ele>
        <time>2017-12-23T10:45:10Z</time>
      </trkpt>
      <trkpt lat="62.63692951924" lon="17.978204456885">
        <ele>187.4</ele>
        <time>2017-12-23T10:45:11Z</time>
      </trkpt>
      <trkpt lat="62.636916694933" lon="17.978259023054">
        <ele>187.4</ele>
        <time>2017-12-23T10:45:12Z</time>
      </trkpt>
      <trkpt lat="62.636910995241" lon="17.978278217605">
        <ele>187.4</ele>
        <time>2017-12-23T10:45:13Z</time>
      </trkpt>
      <trkpt lat="62.636893812346" lon="17.978330772118">
        <ele>187.6</ele>
        <time>2017-12-23T10:45:14Z</time>
      </trkpt>
      <trkpt lat="62.636881407134" lon="17.978362707157">
        <ele>187.6</ele>
        <time>2017-12-23T10:45:15Z</time>
      </trkpt>
      <trkpt lat="62.636868499008" lon="17.978403107915">
        <ele>187.6</ele>
        <time>2017-12-23T10:45:16Z</time>
      </trkpt>
      <trkpt lat="62.636859362737" lon="17.978429929995">
        <ele>187.6</ele>
        <time>2017-12-23T10:45:17Z</time>
      </trkpt>
      <trkpt lat="62.636842850394" lon="17.978469492563">
        <ele>187.6</ele>
        <time>2017-12-23T10:45:18Z</time>
      </trkpt>
      <trkpt lat="62.636825751318" lon="17.978516179746">
        <ele>187.4</ele>
        <time>2017-12-23T10:45:19Z</time>
      </trkpt>
      <trkpt lat="62.636816698866" lon="17.978539146152">
        <ele>187.6</ele>
        <time>2017-12-23T10:45:20Z</time>
      </trkpt>
      <trkpt lat="62.63679373246" lon="17.978586839163">
        <ele>187.6</ele>
        <time>2017-12-23T10:45:21Z</time>
      </trkpt>
      <trkpt lat="62.636784093275" lon="17.978606704266">
        <ele>187.6</ele>
        <time>2017-12-23T10:45:22Z</time>
      </trkpt>
      <trkpt lat="62.636772358615" lon="17.978643333169">
        <ele>187.6</ele>
        <time>2017-12-23T10:45:23Z</time>
      </trkpt>
      <trkpt lat="62.636752493512" lon="17.978671663991">
        <ele>187.8</ele>
        <time>2017-12-23T10:45:24Z</time>
      </trkpt>
      <trkpt lat="62.636736567902" lon="17.978689936533">
        <ele>187.8</ele>
        <time>2017-12-23T10:45:25Z</time>
      </trkpt>
      <trkpt lat="62.636722737767" lon="17.978711813292">
        <ele>187.8</ele>
        <time>2017-12-23T10:45:26Z</time>
      </trkpt>
      <trkpt lat="62.636697927343" lon="17.9787228774">
        <ele>187.8</ele>
        <time>2017-12-23T10:45:27Z</time>
      </trkpt>
      <trkpt lat="62.636675212394" lon="17.978742742503">
        <ele>187.8</ele>
        <time>2017-12-23T10:45:28Z</time>
      </trkpt>
      <trkpt lat="62.63665710749" lon="17.978749448023">
        <ele>188</ele>
        <time>2017-12-23T10:45:29Z</time>
      </trkpt>
      <trkpt lat="62.636631291238" lon="17.978752968421">
        <ele>188.2</ele>
        <time>2017-12-23T10:45:30Z</time>
      </trkpt>
      <trkpt lat="62.636611258497" lon="17.978759841579">
        <ele>188.4</ele>
        <time>2017-12-23T10:45:31Z</time>
      </trkpt>
      <trkpt lat="62.636589549376" lon="17.978759338665">
        <ele>188.6</ele>
        <time>2017-12-23T10:45:32Z</time>
      </trkpt>
      <trkpt lat="62.636570019549" lon="17.978753555154">
        <ele>188.6</ele>
        <time>2017-12-23T10:45:33Z</time>
      </trkpt>
      <trkpt lat="62.636552249921" lon="17.97875975776">
        <ele>188.8</ele>
        <time>2017-12-23T10:45:34Z</time>
      </trkpt>
      <trkpt lat="62.636533558284" lon="17.978755399172">
        <ele>189</ele>
        <time>2017-12-23T10:45:35Z</time>
      </trkpt>
      <trkpt lat="62.636513357905" lon="17.978761266502">
        <ele>189.2</ele>
        <time>2017-12-23T10:45:36Z</time>
      </trkpt>
      <trkpt lat="62.636496426467" lon="17.978762439968">
        <ele>189.4</ele>
        <time>2017-12-23T10:45:37Z</time>
      </trkpt>
      <trkpt lat="62.636475471717" lon="17.978761182683">
        <ele>189.6</ele>
        <time>2017-12-23T10:45:38Z</time>
      </trkpt>
      <trkpt lat="62.636457953546" lon="17.978766630918">
        <ele>189.6</ele>
        <time>2017-12-23T10:45:39Z</time>
      </trkpt>
      <trkpt lat="62.636438675176" lon="17.978773587895">
        <ele>189.8</ele>
        <time>2017-12-23T10:45:40Z</time>
      </trkpt>
      <trkpt lat="62.636426437602" lon="17.978771240963">
        <ele>189.8</ele>
        <time>2017-12-23T10:45:41Z</time>
      </trkpt>
      <trkpt lat="62.636408584155" lon="17.97877484518">
        <ele>190</ele>
        <time>2017-12-23T10:45:42Z</time>
      </trkpt>
      <trkpt lat="62.636394083468" lon="17.978788591496">
        <ele>190</ele>
        <time>2017-12-23T10:45:43Z</time>
      </trkpt>
      <trkpt lat="62.636378241677" lon="17.978789513505">
        <ele>190.2</ele>
        <time>2017-12-23T10:45:44Z</time>
      </trkpt>
      <trkpt lat="62.636367848121" lon="17.978801499622">
        <ele>190.2</ele>
        <time>2017-12-23T10:45:45Z</time>
      </trkpt>
      <trkpt lat="62.636353263615" lon="17.978808205142">
        <ele>190.4</ele>
        <time>2017-12-23T10:45:46Z</time>
      </trkpt>
      <trkpt lat="62.636343792068" lon="17.978805942029">
        <ele>190.4</ele>
        <time>2017-12-23T10:45:47Z</time>
      </trkpt>
      <trkpt lat="62.636327866458" lon="17.978809797703">
        <ele>190.6</ele>
        <time>2017-12-23T10:45:48Z</time>
      </trkpt>
      <trkpt lat="62.636315880341" lon="17.978828070245">
        <ele>190.8</ele>
        <time>2017-12-23T10:45:49Z</time>
      </trkpt>
      <trkpt lat="62.63629752398" lon="17.978838799077">
        <ele>191</ele>
        <time>2017-12-23T10:45:50Z</time>
      </trkpt>
      <trkpt lat="62.636281095456" lon="17.978843325303">
        <ele>191.2</ele>
        <time>2017-12-23T10:45:51Z</time>
      </trkpt>
      <trkpt lat="62.63627237828" lon="17.978865453519">
        <ele>191.6</ele>
        <time>2017-12-23T10:45:52Z</time>
      </trkpt>
      <trkpt lat="62.636250166245" lon="17.978882887871">
        <ele>192</ele>
        <time>2017-12-23T10:45:53Z</time>
      </trkpt>
      <trkpt lat="62.636234995006" lon="17.978908033571">
        <ele>192.2</ele>
        <time>2017-12-23T10:45:54Z</time>
      </trkpt>
      <trkpt lat="62.636220326681" lon="17.978944075741">
        <ele>192.4</ele>
        <time>2017-12-23T10:45:55Z</time>
      </trkpt>
      <trkpt lat="62.636206831822" lon="17.97895924698">
        <ele>192.6</ele>
        <time>2017-12-23T10:45:56Z</time>
      </trkpt>
      <trkpt lat="62.636195935352" lon="17.978977184246">
        <ele>192.6</ele>
        <time>2017-12-23T10:45:57Z</time>
      </trkpt>
      <trkpt lat="62.636185541796" lon="17.978997552263">
        <ele>192.8</ele>
        <time>2017-12-23T10:45:58Z</time>
      </trkpt>
      <trkpt lat="62.636180261199" lon="17.979006939991">
        <ele>193</ele>
        <time>2017-12-23T10:45:59Z</time>
      </trkpt>
      <trkpt lat="62.636168107444" lon="17.979021105402">
        <ele>193.4</ele>
        <time>2017-12-23T10:46:00Z</time>
      </trkpt>
      <trkpt lat="62.636157965345" lon="17.979043317437">
        <ele>193.4</ele>
        <time>2017-12-23T10:46:01Z</time>
      </trkpt>
      <trkpt lat="62.636143716115" lon="17.979070810069">
        <ele>193.8</ele>
        <time>2017-12-23T10:46:02Z</time>
      </trkpt>
      <trkpt lat="62.636136926776" lon="17.979086400403">
        <ele>194.2</ele>
        <time>2017-12-23T10:46:03Z</time>
      </trkpt>
      <trkpt lat="62.636127203772" lon="17.979097632149">
        <ele>194.4</ele>
        <time>2017-12-23T10:46:04Z</time>
      </trkpt>
      <trkpt lat="62.636114295646" lon="17.979125711514">
        <ele>194.6</ele>
        <time>2017-12-23T10:46:05Z</time>
      </trkpt>
      <trkpt lat="62.636105243194" lon="17.979144822246">
        <ele>194.8</ele>
        <time>2017-12-23T10:46:06Z</time>
      </trkpt>
      <trkpt lat="62.636099208226" lon="17.979151360128">
        <ele>195</ele>
        <time>2017-12-23T10:46:07Z</time>
      </trkpt>
      <trkpt lat="62.636086048643" lon="17.979195448922">
        <ele>195.4</ele>
        <time>2017-12-23T10:46:08Z</time>
      </trkpt>
      <trkpt lat="62.636074313983" lon="17.979207518858">
        <ele>195.6</ele>
        <time>2017-12-23T10:46:09Z</time>
      </trkpt>
      <trkpt lat="62.636068195196" lon="17.979228725065">
        <ele>195.8</ele>
        <time>2017-12-23T10:46:10Z</time>
      </trkpt>
      <trkpt lat="62.636059980934" lon="17.979246997607">
        <ele>196</ele>
        <time>2017-12-23T10:46:11Z</time>
      </trkpt>
      <trkpt lat="62.636063501332" lon="17.979237609879">
        <ele>196</ele>
        <time>2017-12-23T10:46:12Z</time>
      </trkpt>
      <trkpt lat="62.63605444888" lon="17.979259738095">
        <ele>196.2</ele>
        <time>2017-12-23T10:46:13Z</time>
      </trkpt>
      <trkpt lat="62.636057382545" lon="17.979256888249">
        <ele>196.4</ele>
        <time>2017-12-23T10:46:15Z</time>
      </trkpt>
      <trkpt lat="62.636059394201" lon="17.979258816086">
        <ele>196.6</ele>
        <time>2017-12-23T10:46:16Z</time>
      </trkpt>
      <trkpt lat="62.636032236845" lon="17.979684532787">
        <ele>196.4</ele>
        <time>2017-12-23T10:46:24Z</time>
      </trkpt>
      <trkpt lat="62.636033242673" lon="17.979812189124">
        <ele>196.4</ele>
        <time>2017-12-23T10:46:25Z</time>
      </trkpt>
      <trkpt lat="62.636031733931" lon="17.979928781353">
        <ele>195.8</ele>
        <time>2017-12-23T10:46:26Z</time>
      </trkpt>
      <trkpt lat="62.636041792211" lon="17.980065909237">
        <ele>195</ele>
        <time>2017-12-23T10:46:27Z</time>
      </trkpt>
      <trkpt lat="62.636047994817" lon="17.980209491184">
        <ele>193.8</ele>
        <time>2017-12-23T10:46:28Z</time>
      </trkpt>
      <trkpt lat="62.63605863983" lon="17.980327759793">
        <ele>192.8</ele>
        <time>2017-12-23T10:46:29Z</time>
      </trkpt>
      <trkpt lat="62.636075822725" lon="17.980453236836">
        <ele>191.6</ele>
        <time>2017-12-23T10:46:30Z</time>
      </trkpt>
      <trkpt lat="62.636098118579" lon="17.980561698622">
        <ele>191</ele>
        <time>2017-12-23T10:46:31Z</time>
      </trkpt>
      <trkpt lat="62.636121001166" lon="17.980669238399">
        <ele>190.6</ele>
        <time>2017-12-23T10:46:32Z</time>
      </trkpt>
      <trkpt lat="62.636137345871" lon="17.980776359081">
        <ele>190.2</ele>
        <time>2017-12-23T10:46:33Z</time>
      </trkpt>
      <trkpt lat="62.636156037508" lon="17.980867554153">
        <ele>190</ele>
        <time>2017-12-23T10:46:34Z</time>
      </trkpt>
      <trkpt lat="62.636171963118" lon="17.980952798076">
        <ele>190</ele>
        <time>2017-12-23T10:46:35Z</time>
      </trkpt>
      <trkpt lat="62.636180093561" lon="17.981057739464">
        <ele>189.8</ele>
        <time>2017-12-23T10:46:36Z</time>
      </trkpt>
      <trkpt lat="62.636195432438" lon="17.981140133541">
        <ele>189.6</ele>
        <time>2017-12-23T10:46:37Z</time>
      </trkpt>
      <trkpt lat="62.636214291713" lon="17.981240967798">
        <ele>189.6</ele>
        <time>2017-12-23T10:46:38Z</time>
      </trkpt>
      <trkpt lat="62.636228540943" lon="17.981333503974">
        <ele>189.4</ele>
        <time>2017-12-23T10:46:39Z</time>
      </trkpt>
      <trkpt lat="62.636232731893" lon="17.981404917762">
        <ele>189.4</ele>
        <time>2017-12-23T10:46:40Z</time>
      </trkpt>
      <trkpt lat="62.636235917015" lon="17.981479181396">
        <ele>189.4</ele>
        <time>2017-12-23T10:46:41Z</time>
      </trkpt>
      <trkpt lat="62.636257374679" lon="17.981545230768">
        <ele>189.6</ele>
        <time>2017-12-23T10:46:42Z</time>
      </trkpt>
      <trkpt lat="62.636267265321" lon="17.981619745859">
        <ele>189.6</ele>
        <time>2017-12-23T10:46:43Z</time>
      </trkpt>
      <trkpt lat="62.636276150135" lon="17.981688477439">
        <ele>189.8</ele>
        <time>2017-12-23T10:46:44Z</time>
      </trkpt>
      <trkpt lat="62.636279502895" lon="17.981766932023">
        <ele>189.8</ele>
        <time>2017-12-23T10:46:45Z</time>
      </trkpt>
      <trkpt lat="62.636285286406" lon="17.981828036074">
        <ele>190</ele>
        <time>2017-12-23T10:46:46Z</time>
      </trkpt>
      <trkpt lat="62.636307666079" lon="17.981872879239">
        <ele>190.2</ele>
        <time>2017-12-23T10:46:47Z</time>
      </trkpt>
      <trkpt lat="62.63632183149" lon="17.981964828682">
        <ele>190</ele>
        <time>2017-12-23T10:46:48Z</time>
      </trkpt>
      <trkpt lat="62.63632602244" lon="17.982030961873">
        <ele>190</ele>
        <time>2017-12-23T10:46:49Z</time>
      </trkpt>
      <trkpt lat="62.636326106259" lon="17.982097597978">
        <ele>189.8</ele>
        <time>2017-12-23T10:46:50Z</time>
      </trkpt>
      <trkpt lat="62.6363209933" lon="17.98218041115">
        <ele>189.8</ele>
        <time>2017-12-23T10:46:51Z</time>
      </trkpt>
      <trkpt lat="62.636321915309" lon="17.982232965663">
        <ele>189.8</ele>
        <time>2017-12-23T10:46:52Z</time>
      </trkpt>
      <trkpt lat="62.636320825662" lon="17.982306726383">
        <ele>189.8</ele>
        <time>2017-12-23T10:46:53Z</time>
      </trkpt>
      <trkpt lat="62.636325435707" lon="17.982378643085">
        <ele>190</ele>
        <time>2017-12-23T10:46:54Z</time>
      </trkpt>
      <trkpt lat="62.636324597517" lon="17.982443686629">
        <ele>190</ele>
        <time>2017-12-23T10:46:55Z</time>
      </trkpt>
      <trkpt lat="62.636323926965" lon="17.982507975802">
        <ele>190</ele>
        <time>2017-12-23T10:46:56Z</time>
      </trkpt>
      <trkpt lat="62.636324765155" lon="17.982548041284">
        <ele>190</ele>
        <time>2017-12-23T10:46:57Z</time>
      </trkpt>
      <trkpt lat="62.636312695219" lon="17.982629261895">
        <ele>190.2</ele>
        <time>2017-12-23T10:46:58Z</time>
      </trkpt>
      <trkpt lat="62.636315545065" lon="17.982673183051">
        <ele>190.2</ele>
        <time>2017-12-23T10:46:59Z</time>
      </trkpt>
      <trkpt lat="62.636315628884" lon="17.982743171916">
        <ele>190.2</ele>
        <time>2017-12-23T10:47:00Z</time>
      </trkpt>
      <trkpt lat="62.636311689391" lon="17.982802934863">
        <ele>190.2</ele>
        <time>2017-12-23T10:47:01Z</time>
      </trkpt>
      <trkpt lat="62.636313281952" lon="17.982849035313">
        <ele>190.2</ele>
        <time>2017-12-23T10:47:02Z</time>
      </trkpt>
      <trkpt lat="62.636305570604" lon="17.982901757464">
        <ele>190.2</ele>
        <time>2017-12-23T10:47:03Z</time>
      </trkpt>
      <trkpt lat="62.636305319147" lon="17.982934195417">
        <ele>190.4</ele>
        <time>2017-12-23T10:47:04Z</time>
      </trkpt>
      <trkpt lat="62.636302636939" lon="17.983000747703">
        <ele>190.2</ele>
        <time>2017-12-23T10:47:05Z</time>
      </trkpt>
      <trkpt lat="62.636303978043" lon="17.983050536189">
        <ele>190.4</ele>
        <time>2017-12-23T10:47:06Z</time>
      </trkpt>
      <trkpt lat="62.636307330803" lon="17.983098648295">
        <ele>190.4</ele>
        <time>2017-12-23T10:47:07Z</time>
      </trkpt>
      <trkpt lat="62.636308588088" lon="17.983178443983">
        <ele>190.4</ele>
        <time>2017-12-23T10:47:08Z</time>
      </trkpt>
      <trkpt lat="62.636306324975" lon="17.983240218586">
        <ele>190.4</ele>
        <time>2017-12-23T10:47:09Z</time>
      </trkpt>
      <trkpt lat="62.636310599744" lon="17.983309285442">
        <ele>190.4</ele>
        <time>2017-12-23T10:47:10Z</time>
      </trkpt>
      <trkpt lat="62.636309929192" lon="17.983349602381">
        <ele>190.4</ele>
        <time>2017-12-23T10:47:11Z</time>
      </trkpt>
      <trkpt lat="62.636305822061" lon="17.983397043935">
        <ele>190.4</ele>
        <time>2017-12-23T10:47:12Z</time>
      </trkpt>
      <trkpt lat="62.636289393537" lon="17.983448927896">
        <ele>190.4</ele>
        <time>2017-12-23T10:47:13Z</time>
      </trkpt>
      <trkpt lat="62.636291991926" lon="17.983497459097">
        <ele>190.4</ele>
        <time>2017-12-23T10:47:14Z</time>
      </trkpt>
      <trkpt lat="62.636281179275" lon="17.983540709701">
        <ele>190.6</ele>
        <time>2017-12-23T10:47:15Z</time>
      </trkpt>
      <trkpt lat="62.636272294461" lon="17.983588318893">
        <ele>190.6</ele>
        <time>2017-12-23T10:47:16Z</time>
      </trkpt>
      <trkpt lat="62.636269947529" lon="17.98361455424">
        <ele>190.8</ele>
        <time>2017-12-23T10:47:17Z</time>
      </trkpt>
      <trkpt lat="62.636256787946" lon="17.983673646635">
        <ele>190.8</ele>
        <time>2017-12-23T10:47:18Z</time>
      </trkpt>
      <trkpt lat="62.636261230353" lon="17.983712454832">
        <ele>190.8</ele>
        <time>2017-12-23T10:47:19Z</time>
      </trkpt>
      <trkpt lat="62.636255111566" lon="17.983771714865">
        <ele>191</ele>
        <time>2017-12-23T10:47:20Z</time>
      </trkpt>
      <trkpt lat="62.636256285032" lon="17.983810103967">
        <ele>191</ele>
        <time>2017-12-23T10:47:21Z</time>
      </trkpt>
      <trkpt lat="62.636250836797" lon="17.983852348743">
        <ele>191</ele>
        <time>2017-12-23T10:47:22Z</time>
      </trkpt>
      <trkpt lat="62.636245640019" lon="17.983912614604">
        <ele>191.2</ele>
        <time>2017-12-23T10:47:23Z</time>
      </trkpt>
      <trkpt lat="62.636245807657" lon="17.983948908231">
        <ele>191.4</ele>
        <time>2017-12-23T10:47:24Z</time>
      </trkpt>
      <trkpt lat="62.636238096309" lon="17.984009425549">
        <ele>191.4</ele>
        <time>2017-12-23T10:47:25Z</time>
      </trkpt>
      <trkpt lat="62.636240610879" lon="17.98403951657">
        <ele>191.6</ele>
        <time>2017-12-23T10:47:26Z</time>
      </trkpt>
      <trkpt lat="62.636241532888" lon="17.984092825454">
        <ele>191.8</ele>
        <time>2017-12-23T10:47:27Z</time>
      </trkpt>
      <trkpt lat="62.636237593395" lon="17.984147307804">
        <ele>192</ele>
        <time>2017-12-23T10:47:28Z</time>
      </trkpt>
      <trkpt lat="62.636238431585" lon="17.984191312779">
        <ele>192</ele>
        <time>2017-12-23T10:47:29Z</time>
      </trkpt>
      <trkpt lat="62.636238263947" lon="17.984241101265">
        <ele>192</ele>
        <time>2017-12-23T10:47:30Z</time>
      </trkpt>
      <trkpt lat="62.636229127676" lon="17.984301283307">
        <ele>192.2</ele>
        <time>2017-12-23T10:47:31Z</time>
      </trkpt>
      <trkpt lat="62.63624052706" lon="17.984338163667">
        <ele>192.2</ele>
        <time>2017-12-23T10:47:32Z</time>
      </trkpt>
      <trkpt lat="62.63622963059" lon="17.984387113963">
        <ele>192.2</ele>
        <time>2017-12-23T10:47:33Z</time>
      </trkpt>
      <trkpt lat="62.636239437413" lon="17.984455007353">
        <ele>192.2</ele>
        <time>2017-12-23T10:47:34Z</time>
      </trkpt>
      <trkpt lat="62.636231977522" lon="17.984489205505">
        <ele>192.2</ele>
        <time>2017-12-23T10:47:35Z</time>
      </trkpt>
      <trkpt lat="62.63623382154" lon="17.984541760018">
        <ele>192.2</ele>
        <time>2017-12-23T10:47:36Z</time>
      </trkpt>
      <trkpt lat="62.636223260346" lon="17.984573024505">
        <ele>192.2</ele>
        <time>2017-12-23T10:47:37Z</time>
      </trkpt>
      <trkpt lat="62.636219488491" lon="17.98460948577">
        <ele>192.2</ele>
        <time>2017-12-23T10:47:38Z</time>
      </trkpt>
      <trkpt lat="62.636211358048" lon="17.984654580392">
        <ele>192.2</ele>
        <time>2017-12-23T10:47:39Z</time>
      </trkpt>
      <trkpt lat="62.636210436039" lon="17.9846991721">
        <ele>192.2</ele>
        <time>2017-12-23T10:47:40Z</time>
      </trkpt>
      <trkpt lat="62.636208340564" lon="17.984730520406">
        <ele>192.2</ele>
        <time>2017-12-23T10:47:41Z</time>
      </trkpt>
      <trkpt lat="62.636199874845" lon="17.984789948077">
        <ele>192.2</ele>
        <time>2017-12-23T10:47:42Z</time>
      </trkpt>
      <trkpt lat="62.636194678067" lon="17.984823056582">
        <ele>192.4</ele>
        <time>2017-12-23T10:47:43Z</time>
      </trkpt>
      <trkpt lat="62.636184033054" lon="17.984882568072">
        <ele>192.4</ele>
        <time>2017-12-23T10:47:44Z</time>
      </trkpt>
      <trkpt lat="62.636185038882" lon="17.984916850043">
        <ele>192.6</ele>
        <time>2017-12-23T10:47:45Z</time>
      </trkpt>
      <trkpt lat="62.636173807136" lon="17.984975104248">
        <ele>192.8</ele>
        <time>2017-12-23T10:47:46Z</time>
      </trkpt>
      <trkpt lat="62.636178920095" lon="17.985004524717">
        <ele>192.8</ele>
        <time>2017-12-23T10:47:47Z</time>
      </trkpt>
      <trkpt lat="62.63617095729" lon="17.985063114198">
        <ele>193</ele>
        <time>2017-12-23T10:47:48Z</time>
      </trkpt>
      <trkpt lat="62.636168023625" lon="17.985111645399">
        <ele>193.2</ele>
        <time>2017-12-23T10:47:49Z</time>
      </trkpt>
      <trkpt lat="62.636162407752" lon="17.985157410573">
        <ele>193.4</ele>
        <time>2017-12-23T10:47:50Z</time>
      </trkpt>
      <trkpt lat="62.63616760453" lon="17.985201918462">
        <ele>193.6</ele>
        <time>2017-12-23T10:47:51Z</time>
      </trkpt>
      <trkpt lat="62.636153942033" lon="17.985239720831">
        <ele>193.6</ele>
        <time>2017-12-23T10:47:52Z</time>
      </trkpt>
      <trkpt lat="62.636154780223" lon="17.985288084394">
        <ele>193.6</ele>
        <time>2017-12-23T10:47:53Z</time>
      </trkpt>
      <trkpt lat="62.636147320332" lon="17.985327144048">
        <ele>193.6</ele>
        <time>2017-12-23T10:47:54Z</time>
      </trkpt>
      <trkpt lat="62.636149918721" lon="17.985383386597">
        <ele>193.6</ele>
        <time>2017-12-23T10:47:55Z</time>
      </trkpt>
      <trkpt lat="62.636145224857" lon="17.985422278613">
        <ele>193.6</ele>
        <time>2017-12-23T10:47:56Z</time>
      </trkpt>
      <trkpt lat="62.636143129382" lon="17.985477682972">
        <ele>193.6</ele>
        <time>2017-12-23T10:47:57Z</time>
      </trkpt>
      <trkpt lat="62.636141788278" lon="17.985513306047">
        <ele>193.8</ele>
        <time>2017-12-23T10:47:58Z</time>
      </trkpt>
      <trkpt lat="62.636133909292" lon="17.9855541259">
        <ele>193.8</ele>
        <time>2017-12-23T10:47:59Z</time>
      </trkpt>
      <trkpt lat="62.636128712514" lon="17.985601651273">
        <ele>193.8</ele>
        <time>2017-12-23T10:48:00Z</time>
      </trkpt>
      <trkpt lat="62.636110020877" lon="17.98565722327">
        <ele>193.8</ele>
        <time>2017-12-23T10:48:01Z</time>
      </trkpt>
      <trkpt lat="62.636097112751" lon="17.985697540209">
        <ele>194</ele>
        <time>2017-12-23T10:48:02Z</time>
      </trkpt>
      <trkpt lat="62.636084791358" lon="17.985742048098">
        <ele>194</ele>
        <time>2017-12-23T10:48:03Z</time>
      </trkpt>
      <trkpt lat="62.636073391974" lon="17.985785801616">
        <ele>194</ele>
        <time>2017-12-23T10:48:04Z</time>
      </trkpt>
      <trkpt lat="62.636065596807" lon="17.985823855442">
        <ele>194.2</ele>
        <time>2017-12-23T10:48:05Z</time>
      </trkpt>
      <trkpt lat="62.636039445279" lon="17.985862663639">
        <ele>194.4</ele>
        <time>2017-12-23T10:48:06Z</time>
      </trkpt>
      <trkpt lat="62.636018825805" lon="17.985898957266">
        <ele>194.4</ele>
        <time>2017-12-23T10:48:07Z</time>
      </trkpt>
      <trkpt lat="62.636001559091" lon="17.985940280033">
        <ele>194.4</ele>
        <time>2017-12-23T10:48:08Z</time>
      </trkpt>
      <trkpt lat="62.635976832486" lon="17.985957211471">
        <ele>194.6</ele>
        <time>2017-12-23T10:48:09Z</time>
      </trkpt>
      <trkpt lat="62.635969456414" lon="17.985983446818">
        <ele>194.8</ele>
        <time>2017-12-23T10:48:10Z</time>
      </trkpt>
      <trkpt lat="62.635944226895" lon="17.986000964989">
        <ele>195</ele>
        <time>2017-12-23T10:48:11Z</time>
      </trkpt>
      <trkpt lat="62.635924361792" lon="17.986017812608">
        <ele>195</ele>
        <time>2017-12-23T10:48:12Z</time>
      </trkpt>
      <trkpt lat="62.63592117667" lon="17.986030553096">
        <ele>195</ele>
        <time>2017-12-23T10:48:13Z</time>
      </trkpt>
      <trkpt lat="62.635890498916" lon="17.986058800099">
        <ele>195</ele>
        <time>2017-12-23T10:48:14Z</time>
      </trkpt>
      <trkpt lat="62.635878177523" lon="17.986089645491">
        <ele>195.2</ele>
        <time>2017-12-23T10:48:15Z</time>
      </trkpt>
      <trkpt lat="62.635853367099" lon="17.986106576929">
        <ele>195.2</ele>
        <time>2017-12-23T10:48:16Z</time>
      </trkpt>
      <trkpt lat="62.635853786194" lon="17.986119568874">
        <ele>195.4</ele>
        <time>2017-12-23T10:48:17Z</time>
      </trkpt>
      <trkpt lat="62.635826545019" lon="17.986151084818">
        <ele>195.2</ele>
        <time>2017-12-23T10:48:18Z</time>
      </trkpt>
      <trkpt lat="62.635821767336" lon="17.986178745088">
        <ele>195.4</ele>
        <time>2017-12-23T10:48:19Z</time>
      </trkpt>
      <trkpt lat="62.635801650776" lon="17.986200789485">
        <ele>195.4</ele>
        <time>2017-12-23T10:48:20Z</time>
      </trkpt>
      <trkpt lat="62.635784384062" lon="17.986232137791">
        <ele>195.4</ele>
        <time>2017-12-23T10:48:21Z</time>
      </trkpt>
      <trkpt lat="62.635777510904" lon="17.986254768921">
        <ele>195.6</ele>
        <time>2017-12-23T10:48:22Z</time>
      </trkpt>
      <trkpt lat="62.635760411828" lon="17.986282177734">
        <ele>195.8</ele>
        <time>2017-12-23T10:48:23Z</time>
      </trkpt>
      <trkpt lat="62.635747168426" lon="17.986312017298">
        <ele>195.8</ele>
        <time>2017-12-23T10:48:24Z</time>
      </trkpt>
      <trkpt lat="62.635739959992" lon="17.986350993133">
        <ele>196</ele>
        <time>2017-12-23T10:48:25Z</time>
      </trkpt>
      <trkpt lat="62.635718167052" lon="17.986389885149">
        <ele>196.2</ele>
        <time>2017-12-23T10:48:26Z</time>
      </trkpt>
      <trkpt lat="62.635710371885" lon="17.986416204315">
        <ele>196.2</ele>
        <time>2017-12-23T10:48:27Z</time>
      </trkpt>
      <trkpt lat="62.635684723271" lon="17.986463394412">
        <ele>196.4</ele>
        <time>2017-12-23T10:48:28Z</time>
      </trkpt>
      <trkpt lat="62.635673323887" lon="17.986487199008">
        <ele>196.6</ele>
        <time>2017-12-23T10:48:29Z</time>
      </trkpt>
      <trkpt lat="62.635664019978" lon="17.986548554516">
        <ele>196.8</ele>
        <time>2017-12-23T10:48:30Z</time>
      </trkpt>
      <trkpt lat="62.635641137391" lon="17.986571437103">
        <ele>197</ele>
        <time>2017-12-23T10:48:31Z</time>
      </trkpt>
      <trkpt lat="62.635635521518" lon="17.986616867001">
        <ele>196.8</ele>
        <time>2017-12-23T10:48:32Z</time>
      </trkpt>
      <trkpt lat="62.635614566768" lon="17.98664880204">
        <ele>197</ele>
        <time>2017-12-23T10:48:33Z</time>
      </trkpt>
      <trkpt lat="62.635607442153" lon="17.986693477567">
        <ele>197.2</ele>
        <time>2017-12-23T10:48:34Z</time>
      </trkpt>
      <trkpt lat="62.635595707493" lon="17.986717449801">
        <ele>197.2</ele>
        <time>2017-12-23T10:48:35Z</time>
      </trkpt>
      <trkpt lat="62.635576261485" lon="17.986753324333">
        <ele>197.2</ele>
        <time>2017-12-23T10:48:36Z</time>
      </trkpt>
      <trkpt lat="62.635574082191" lon="17.986783163897">
        <ele>197.4</ele>
        <time>2017-12-23T10:48:37Z</time>
      </trkpt>
      <trkpt lat="62.635556731658" lon="17.986822642646">
        <ele>197.4</ele>
        <time>2017-12-23T10:48:38Z</time>
      </trkpt>
      <trkpt lat="62.635540973686" lon="17.986864887422">
        <ele>197.6</ele>
        <time>2017-12-23T10:48:39Z</time>
      </trkpt>
      <trkpt lat="62.635525383352" lon="17.986898666479">
        <ele>197.6</ele>
        <time>2017-12-23T10:48:40Z</time>
      </trkpt>
      <trkpt lat="62.635505769706" lon="17.986941246531">
        <ele>197.8</ele>
        <time>2017-12-23T10:48:41Z</time>
      </trkpt>
      <trkpt lat="62.635496801073" lon="17.98698323985">
        <ele>197.8</ele>
        <time>2017-12-23T10:48:42Z</time>
      </trkpt>
      <trkpt lat="62.635470565726" lon="17.987019784934">
        <ele>198</ele>
        <time>2017-12-23T10:48:43Z</time>
      </trkpt>
      <trkpt lat="62.635460842722" lon="17.987060520968">
        <ele>198.2</ele>
        <time>2017-12-23T10:48:44Z</time>
      </trkpt>
      <trkpt lat="62.635446677311" lon="17.987097401328">
        <ele>198.2</ele>
        <time>2017-12-23T10:48:45Z</time>
      </trkpt>
      <trkpt lat="62.635425722561" lon="17.987127827625">
        <ele>198.2</ele>
        <time>2017-12-23T10:48:46Z</time>
      </trkpt>
      <trkpt lat="62.635418346489" lon="17.987166468184">
        <ele>198.4</ele>
        <time>2017-12-23T10:48:47Z</time>
      </trkpt>
      <trkpt lat="62.635394374255" lon="17.987202677992">
        <ele>198.4</ele>
        <time>2017-12-23T10:48:48Z</time>
      </trkpt>
      <trkpt lat="62.635386579088" lon="17.9872556516">
        <ele>198.4</ele>
        <time>2017-12-23T10:48:49Z</time>
      </trkpt>
      <trkpt lat="62.635362690673" lon="17.98728498825">
        <ele>198.6</ele>
        <time>2017-12-23T10:48:50Z</time>
      </trkpt>
      <trkpt lat="62.635356320429" lon="17.987323125895">
        <ele>198.6</ele>
        <time>2017-12-23T10:48:51Z</time>
      </trkpt>
      <trkpt lat="62.635348357624" lon="17.987350953803">
        <ele>198.8</ele>
        <time>2017-12-23T10:48:52Z</time>
      </trkpt>
      <trkpt lat="62.635345591597" lon="17.987400826108">
        <ele>198.8</ele>
        <time>2017-12-23T10:48:53Z</time>
      </trkpt>
      <trkpt lat="62.635316757861" lon="17.987435946269">
        <ele>198.8</ele>
        <time>2017-12-23T10:48:54Z</time>
      </trkpt>
      <trkpt lat="62.635301418984" lon="17.987451704241">
        <ele>198.8</ele>
        <time>2017-12-23T10:48:55Z</time>
      </trkpt>
      <trkpt lat="62.635276776198" lon="17.987481879081">
        <ele>199</ele>
        <time>2017-12-23T10:48:56Z</time>
      </trkpt>
      <trkpt lat="62.635273674895" lon="17.98751129955">
        <ele>199</ele>
        <time>2017-12-23T10:48:57Z</time>
      </trkpt>
      <trkpt lat="62.635245511711" lon="17.987544743331">
        <ele>199.2</ele>
        <time>2017-12-23T10:48:58Z</time>
      </trkpt>
      <trkpt lat="62.63524391915" lon="17.987581288415">
        <ele>199.2</ele>
        <time>2017-12-23T10:48:59Z</time>
      </trkpt>
      <trkpt lat="62.635216091242" lon="17.987626215399">
        <ele>199.2</ele>
        <time>2017-12-23T10:49:00Z</time>
      </trkpt>
      <trkpt lat="62.635197986338" lon="17.987669382184">
        <ele>199.4</ele>
        <time>2017-12-23T10:49:01Z</time>
      </trkpt>
      <trkpt lat="62.63518440766" lon="17.987699389386">
        <ele>199.4</ele>
        <time>2017-12-23T10:49:02Z</time>
      </trkpt>
      <trkpt lat="62.635161105978" lon="17.987725624733">
        <ele>199.6</ele>
        <time>2017-12-23T10:49:03Z</time>
      </trkpt>
      <trkpt lat="62.635150796241" lon="17.987761750722">
        <ele>199.6</ele>
        <time>2017-12-23T10:49:04Z</time>
      </trkpt>
      <trkpt lat="62.635128751844" lon="17.987773904477">
        <ele>199.6</ele>
        <time>2017-12-23T10:49:05Z</time>
      </trkpt>
      <trkpt lat="62.635117520098" lon="17.987815897796">
        <ele>199.8</ele>
        <time>2017-12-23T10:49:06Z</time>
      </trkpt>
      <trkpt lat="62.635092877312" lon="17.987841294953">
        <ele>200</ele>
        <time>2017-12-23T10:49:07Z</time>
      </trkpt>
      <trkpt lat="62.635082902851" lon="17.987874990191">
        <ele>200</ele>
        <time>2017-12-23T10:49:08Z</time>
      </trkpt>
      <trkpt lat="62.63506035554" lon="17.987900135891">
        <ele>200.2</ele>
        <time>2017-12-23T10:49:09Z</time>
      </trkpt>
      <trkpt lat="62.635043172645" lon="17.987977836104">
        <ele>200.4</ele>
        <time>2017-12-23T10:49:10Z</time>
      </trkpt>
      <trkpt lat="62.635026073569" lon="17.98797900957">
        <ele>200.6</ele>
        <time>2017-12-23T10:49:11Z</time>
      </trkpt>
      <trkpt lat="62.635001263145" lon="17.988022343993">
        <ele>200.6</ele>
        <time>2017-12-23T10:49:12Z</time>
      </trkpt>
      <trkpt lat="62.634984247888" lon="17.988048076426">
        <ele>200.8</ele>
        <time>2017-12-23T10:49:13Z</time>
      </trkpt>
      <trkpt lat="62.63495893455" lon="17.988066013692">
        <ele>201</ele>
        <time>2017-12-23T10:49:14Z</time>
      </trkpt>
      <trkpt lat="62.634949211546" lon="17.98809048884">
        <ele>201.2</ele>
        <time>2017-12-23T10:49:15Z</time>
      </trkpt>
      <trkpt lat="62.634927586244" lon="17.988102307319">
        <ele>201.4</ele>
        <time>2017-12-23T10:49:16Z</time>
      </trkpt>
      <trkpt lat="62.63491115772" lon="17.988109851029">
        <ele>201.4</ele>
        <time>2017-12-23T10:49:17Z</time>
      </trkpt>
      <trkpt lat="62.634890286789" lon="17.988127201562">
        <ele>201.6</ele>
        <time>2017-12-23T10:49:18Z</time>
      </trkpt>
      <trkpt lat="62.63486338089" lon="17.988137259842">
        <ele>201.8</ele>
        <time>2017-12-23T10:49:19Z</time>
      </trkpt>
      <trkpt lat="62.634846030357" lon="17.988159388058">
        <ele>202</ele>
        <time>2017-12-23T10:49:20Z</time>
      </trkpt>
      <trkpt lat="62.634818621544" lon="17.988165590664">
        <ele>202.2</ele>
        <time>2017-12-23T10:49:21Z</time>
      </trkpt>
      <trkpt lat="62.634809233816" lon="17.988172547641">
        <ele>202.2</ele>
        <time>2017-12-23T10:49:22Z</time>
      </trkpt>
      <trkpt lat="62.634780567718" lon="17.988170619804">
        <ele>202.2</ele>
        <time>2017-12-23T10:49:23Z</time>
      </trkpt>
      <trkpt lat="62.634758942416" lon="17.988187215966">
        <ele>202.4</ele>
        <time>2017-12-23T10:49:24Z</time>
      </trkpt>
      <trkpt lat="62.634740837512" lon="17.988187215966">
        <ele>202.4</ele>
        <time>2017-12-23T10:49:25Z</time>
      </trkpt>
      <trkpt lat="62.634722145875" lon="17.988183276473">
        <ele>202.6</ele>
        <time>2017-12-23T10:49:26Z</time>
      </trkpt>
      <trkpt lat="62.634703789514" lon="17.988190149631">
        <ele>202.8</ele>
        <time>2017-12-23T10:49:27Z</time>
      </trkpt>
      <trkpt lat="62.634687109533" lon="17.988188976165">
        <ele>202.8</ele>
        <time>2017-12-23T10:49:28Z</time>
      </trkpt>
      <trkpt lat="62.634678727633" lon="17.988192831839">
        <ele>202.8</ele>
        <time>2017-12-23T10:49:29Z</time>
      </trkpt>
      <trkpt lat="62.634648636612" lon="17.98819190983">
        <ele>203</ele>
        <time>2017-12-23T10:49:30Z</time>
      </trkpt>
      <trkpt lat="62.63464042235" lon="17.988214121865">
        <ele>203.2</ele>
        <time>2017-12-23T10:49:31Z</time>
      </trkpt>
      <trkpt lat="62.634611169519" lon="17.988200124092">
        <ele>203.2</ele>
        <time>2017-12-23T10:49:32Z</time>
      </trkpt>
      <trkpt lat="62.634599099583" lon="17.988209595639">
        <ele>203.2</ele>
        <time>2017-12-23T10:49:33Z</time>
      </trkpt>
      <trkpt lat="62.634573450969" lon="17.988198112436">
        <ele>203.4</ele>
        <time>2017-12-23T10:49:34Z</time>
      </trkpt>
      <trkpt lat="62.634564063241" lon="17.988214121865">
        <ele>203.4</ele>
        <time>2017-12-23T10:49:35Z</time>
      </trkpt>
      <trkpt lat="62.63454570688" lon="17.988209176544">
        <ele>203.6</ele>
        <time>2017-12-23T10:49:36Z</time>
      </trkpt>
      <trkpt lat="62.634533888401" lon="17.988219318643">
        <ele>203.6</ele>
        <time>2017-12-23T10:49:37Z</time>
      </trkpt>
      <trkpt lat="62.634508323606" lon="17.988206075241">
        <ele>203.6</ele>
        <time>2017-12-23T10:49:38Z</time>
      </trkpt>
      <trkpt lat="62.634496337489" lon="17.988214373322">
        <ele>203.6</ele>
        <time>2017-12-23T10:49:39Z</time>
      </trkpt>
      <trkpt lat="62.634479154594" lon="17.988225856525">
        <ele>203.6</ele>
        <time>2017-12-23T10:49:40Z</time>
      </trkpt>
      <trkpt lat="62.634454595627" lon="17.98822459924">
        <ele>203.8</ele>
        <time>2017-12-23T10:49:41Z</time>
      </trkpt>
      <trkpt lat="62.634434311429" lon="17.988230801846">
        <ele>203.8</ele>
        <time>2017-12-23T10:49:42Z</time>
      </trkpt>
      <trkpt lat="62.634410590652" lon="17.988215211512">
        <ele>203.8</ele>
        <time>2017-12-23T10:49:43Z</time>
      </trkpt>
      <trkpt lat="62.634392653386" lon="17.988228706371">
        <ele>203.8</ele>
        <time>2017-12-23T10:49:44Z</time>
      </trkpt>
      <trkpt lat="62.634356192121" lon="17.988228957828">
        <ele>204</ele>
        <time>2017-12-23T10:49:46Z</time>
      </trkpt>
      <trkpt lat="62.634325179091" lon="17.988226862353">
        <ele>204</ele>
        <time>2017-12-23T10:49:47Z</time>
      </trkpt>
      <trkpt lat="62.634301374495" lon="17.988223509593">
        <ele>204.2</ele>
        <time>2017-12-23T10:49:48Z</time>
      </trkpt>
      <trkpt lat="62.634274300958" lon="17.988218648091">
        <ele>204.2</ele>
        <time>2017-12-23T10:49:49Z</time>
      </trkpt>
      <trkpt lat="62.634250077267" lon="17.988231640036">
        <ele>204.2</ele>
        <time>2017-12-23T10:49:50Z</time>
      </trkpt>
      <trkpt lat="62.634220824436" lon="17.988223006679">
        <ele>204.2</ele>
        <time>2017-12-23T10:49:51Z</time>
      </trkpt>
      <trkpt lat="62.634195594917" lon="17.988212529304">
        <ele>204.2</ele>
        <time>2017-12-23T10:49:52Z</time>
      </trkpt>
      <trkpt lat="62.634162318774" lon="17.988196771332">
        <ele>204</ele>
        <time>2017-12-23T10:49:53Z</time>
      </trkpt>
      <trkpt lat="62.634145554974" lon="17.988198699169">
        <ele>204</ele>
        <time>2017-12-23T10:49:54Z</time>
      </trkpt>
      <trkpt lat="62.63411822998" lon="17.988181683912">
        <ele>204.2</ele>
        <time>2017-12-23T10:49:55Z</time>
      </trkpt>
      <trkpt lat="62.634088390416" lon="17.988162405542">
        <ele>204.4</ele>
        <time>2017-12-23T10:49:56Z</time>
      </trkpt>
      <trkpt lat="62.634062490345" lon="17.988160477705">
        <ele>204.4</ele>
        <time>2017-12-23T10:49:57Z</time>
      </trkpt>
      <trkpt lat="62.634033824247" lon="17.988142624258">
        <ele>204.4</ele>
        <time>2017-12-23T10:49:58Z</time>
      </trkpt>
      <trkpt lat="62.634002978855" lon="17.988145390285">
        <ele>204.6</ele>
        <time>2017-12-23T10:49:59Z</time>
      </trkpt>
      <trkpt lat="62.633981688829" lon="17.988117897653">
        <ele>204.6</ele>
        <time>2017-12-23T10:50:00Z</time>
      </trkpt>
      <trkpt lat="62.633962745735" lon="17.988111275952">
        <ele>204.6</ele>
        <time>2017-12-23T10:50:01Z</time>
      </trkpt>
      <trkpt lat="62.633943132089" lon="17.988091829944">
        <ele>204.6</ele>
        <time>2017-12-23T10:50:02Z</time>
      </trkpt>
      <trkpt lat="62.633922512615" lon="17.988069701728">
        <ele>204.8</ele>
        <time>2017-12-23T10:50:03Z</time>
      </trkpt>
      <trkpt lat="62.633902479874" lon="17.988051261548">
        <ele>205.2</ele>
        <time>2017-12-23T10:50:04Z</time>
      </trkpt>
      <trkpt lat="62.633878759097" lon="17.98803013916">
        <ele>205.2</ele>
        <time>2017-12-23T10:50:05Z</time>
      </trkpt>
      <trkpt lat="62.633852775207" lon="17.988011531342">
        <ele>205.4</ele>
        <time>2017-12-23T10:50:06Z</time>
      </trkpt>
      <trkpt lat="62.63383492176" lon="17.987981021226">
        <ele>205.4</ele>
        <time>2017-12-23T10:50:07Z</time>
      </trkpt>
      <trkpt lat="62.633801477979" lon="17.987972136412">
        <ele>205.4</ele>
        <time>2017-12-23T10:50:08Z</time>
      </trkpt>
      <trkpt lat="62.633787815482" lon="17.987939949916">
        <ele>205.4</ele>
        <time>2017-12-23T10:50:09Z</time>
      </trkpt>
      <trkpt lat="62.633768620931" lon="17.987915558587">
        <ele>205.4</ele>
        <time>2017-12-23T10:50:10Z</time>
      </trkpt>
      <trkpt lat="62.63374523543" lon="17.98789938152">
        <ele>205.4</ele>
        <time>2017-12-23T10:50:11Z</time>
      </trkpt>
      <trkpt lat="62.63372428068" lon="17.987882701539">
        <ele>205.4</ele>
        <time>2017-12-23T10:50:12Z</time>
      </trkpt>
      <trkpt lat="62.633701817188" lon="17.987855711821">
        <ele>205.6</ele>
        <time>2017-12-23T10:50:13Z</time>
      </trkpt>
      <trkpt lat="62.633686143035" lon="17.987830566121">
        <ele>205.6</ele>
        <time>2017-12-23T10:50:14Z</time>
      </trkpt>
      <trkpt lat="62.633667535217" lon="17.987823190049">
        <ele>205.8</ele>
        <time>2017-12-23T10:50:15Z</time>
      </trkpt>
      <trkpt lat="62.633644987906" lon="17.987788908078">
        <ele>206</ele>
        <time>2017-12-23T10:50:16Z</time>
      </trkpt>
      <trkpt lat="62.633629229934" lon="17.987774155934">
        <ele>206</ele>
        <time>2017-12-23T10:50:17Z</time>
      </trkpt>
      <trkpt lat="62.633610705935" lon="17.98776108017">
        <ele>206.2</ele>
        <time>2017-12-23T10:50:18Z</time>
      </trkpt>
      <trkpt lat="62.633585560235" lon="17.98773006714">
        <ele>206.4</ele>
        <time>2017-12-23T10:50:19Z</time>
      </trkpt>
      <trkpt lat="62.633556726499" lon="17.987717745747">
        <ele>206.6</ele>
        <time>2017-12-23T10:50:20Z</time>
      </trkpt>
      <trkpt lat="62.633534598283" lon="17.987692180952">
        <ele>206.8</ele>
        <time>2017-12-23T10:50:21Z</time>
      </trkpt>
      <trkpt lat="62.633514984637" lon="17.987655216773">
        <ele>206.8</ele>
        <time>2017-12-23T10:50:22Z</time>
      </trkpt>
      <trkpt lat="62.633495790086" lon="17.987639710258">
        <ele>207</ele>
        <time>2017-12-23T10:50:23Z</time>
      </trkpt>
      <trkpt lat="62.633474751517" lon="17.987599477138">
        <ele>207</ele>
        <time>2017-12-23T10:50:24Z</time>
      </trkpt>
      <trkpt lat="62.633457903898" lon="17.987566033357">
        <ele>207.2</ele>
        <time>2017-12-23T10:50:25Z</time>
      </trkpt>
      <trkpt lat="62.633448432351" lon="17.987538456906">
        <ele>207.2</ele>
        <time>2017-12-23T10:50:26Z</time>
      </trkpt>
      <trkpt lat="62.633435440406" lon="17.987528398626">
        <ele>207.2</ele>
        <time>2017-12-23T10:50:27Z</time>
      </trkpt>
      <trkpt lat="62.633415407665" lon="17.987493529922">
        <ele>207.4</ele>
        <time>2017-12-23T10:50:28Z</time>
      </trkpt>
      <trkpt lat="62.633407780136" lon="17.987466540204">
        <ele>207.4</ele>
        <time>2017-12-23T10:50:29Z</time>
      </trkpt>
      <trkpt lat="62.633395794019" lon="17.987430665672">
        <ele>207.6</ele>
        <time>2017-12-23T10:50:30Z</time>
      </trkpt>
      <trkpt lat="62.63338397554" lon="17.987388420896">
        <ele>207.8</ele>
        <time>2017-12-23T10:50:31Z</time>
      </trkpt>
      <trkpt lat="62.633370983595" lon="17.987350702346">
        <ele>207.8</ele>
        <time>2017-12-23T10:50:32Z</time>
      </trkpt>
      <trkpt lat="62.633351453768" lon="17.987292699598">
        <ele>208</ele>
        <time>2017-12-23T10:50:33Z</time>
      </trkpt>
      <trkpt lat="62.633327984448" lon="17.987225057665">
        <ele>208</ele>
        <time>2017-12-23T10:50:34Z</time>
      </trkpt>
      <trkpt lat="62.633318009987" lon="17.987154984981">
        <ele>208.2</ele>
        <time>2017-12-23T10:50:35Z</time>
      </trkpt>
      <trkpt lat="62.633300240359" lon="17.987046187919">
        <ele>208.2</ele>
        <time>2017-12-23T10:50:36Z</time>
      </trkpt>
      <trkpt lat="62.633280626713" lon="17.986947532956">
        <ele>208</ele>
        <time>2017-12-23T10:50:37Z</time>
      </trkpt>
      <trkpt lat="62.633264701103" lon="17.986839741722">
        <ele>207.4</ele>
        <time>2017-12-23T10:50:38Z</time>
      </trkpt>
      <trkpt lat="62.633251290063" lon="17.986748965745">
        <ele>206.6</ele>
        <time>2017-12-23T10:50:39Z</time>
      </trkpt>
      <trkpt lat="62.633241315602" lon="17.986675037387">
        <ele>205.8</ele>
        <time>2017-12-23T10:50:40Z</time>
      </trkpt>
      <trkpt lat="62.633235699729" lon="17.986604294151">
        <ele>205.2</ele>
        <time>2017-12-23T10:50:41Z</time>
      </trkpt>
      <trkpt lat="62.633217343368" lon="17.986504130446">
        <ele>204.8</ele>
        <time>2017-12-23T10:50:42Z</time>
      </trkpt>
      <trkpt lat="62.633195885704" lon="17.986420981998">
        <ele>204.6</ele>
        <time>2017-12-23T10:50:43Z</time>
      </trkpt>
      <trkpt lat="62.633191527116" lon="17.98632609889">
        <ele>205</ele>
        <time>2017-12-23T10:50:44Z</time>
      </trkpt>
      <trkpt lat="62.633186665614" lon="17.986230377592">
        <ele>205</ele>
        <time>2017-12-23T10:50:45Z</time>
      </trkpt>
      <trkpt lat="62.633185911243" lon="17.986090399862">
        <ele>205.2</ele>
        <time>2017-12-23T10:50:47Z</time>
      </trkpt>
      <trkpt lat="62.633181552655" lon="17.985981099886">
        <ele>205.2</ele>
        <time>2017-12-23T10:50:48Z</time>
      </trkpt>
      <trkpt lat="62.633177613162" lon="17.985869620616">
        <ele>204.8</ele>
        <time>2017-12-23T10:50:49Z</time>
      </trkpt>
      <trkpt lat="62.633174092764" lon="17.985771803843">
        <ele>204.6</ele>
        <time>2017-12-23T10:50:50Z</time>
      </trkpt>
      <trkpt lat="62.633168057796" lon="17.985681614599">
        <ele>204.2</ele>
        <time>2017-12-23T10:50:51Z</time>
      </trkpt>
      <trkpt lat="62.633163699208" lon="17.98559435902">
        <ele>203.8</ele>
        <time>2017-12-23T10:50:52Z</time>
      </trkpt>
      <trkpt lat="62.633156909869" lon="17.985516491169">
        <ele>203.4</ele>
        <time>2017-12-23T10:50:53Z</time>
      </trkpt>
      <trkpt lat="62.633153557109" lon="17.985411801238">
        <ele>203.2</ele>
        <time>2017-12-23T10:50:54Z</time>
      </trkpt>
      <trkpt lat="62.633161017" lon="17.985299819054">
        <ele>203.2</ele>
        <time>2017-12-23T10:50:55Z</time>
      </trkpt>
      <trkpt lat="62.633166800511" lon="17.985180796074">
        <ele>203.2</ele>
        <time>2017-12-23T10:50:56Z</time>
      </trkpt>
      <trkpt lat="62.633172500203" lon="17.985063617112">
        <ele>203</ele>
        <time>2017-12-23T10:50:57Z</time>
      </trkpt>
      <trkpt lat="62.633185240691" lon="17.984930931635">
        <ele>202.8</ele>
        <time>2017-12-23T10:50:58Z</time>
      </trkpt>
      <trkpt lat="62.633202675043" lon="17.984823643315">
        <ele>202.2</ele>
        <time>2017-12-23T10:50:59Z</time>
      </trkpt>
      <trkpt lat="62.633223797431" lon="17.984713672787">
        <ele>201.6</ele>
        <time>2017-12-23T10:51:00Z</time>
      </trkpt>
      <trkpt lat="62.633242991982" lon="17.98461870586">
        <ele>200.6</ele>
        <time>2017-12-23T10:51:01Z</time>
      </trkpt>
      <trkpt lat="62.633260258696" lon="17.984538658715">
        <ele>199.8</ele>
        <time>2017-12-23T10:51:02Z</time>
      </trkpt>
      <trkpt lat="62.633275765211" lon="17.984478309035">
        <ele>199.4</ele>
        <time>2017-12-23T10:51:03Z</time>
      </trkpt>
      <trkpt lat="62.63329177464" lon="17.984383928841">
        <ele>199.4</ele>
        <time>2017-12-23T10:51:04Z</time>
      </trkpt>
      <trkpt lat="62.633300240359" lon="17.984303294963">
        <ele>199.6</ele>
        <time>2017-12-23T10:51:05Z</time>
      </trkpt>
      <trkpt lat="62.63331524396" lon="17.984227690225">
        <ele>199.8</ele>
        <time>2017-12-23T10:51:06Z</time>
      </trkpt>
      <trkpt lat="62.633316417426" lon="17.984165412708">
        <ele>200</ele>
        <time>2017-12-23T10:51:07Z</time>
      </trkpt>
      <trkpt lat="62.633314992503" lon="17.984100452983">
        <ele>200.2</ele>
        <time>2017-12-23T10:51:08Z</time>
      </trkpt>
      <trkpt lat="62.633324799326" lon="17.984030883213">
        <ele>200.4</ele>
        <time>2017-12-23T10:51:09Z</time>
      </trkpt>
      <trkpt lat="62.633322117118" lon="17.983968018963">
        <ele>200</ele>
        <time>2017-12-23T10:51:10Z</time>
      </trkpt>
      <trkpt lat="62.633328822638" lon="17.983915548269">
        <ele>200</ele>
        <time>2017-12-23T10:51:11Z</time>
      </trkpt>
      <trkpt lat="62.633338294185" lon="17.983854863313">
        <ele>200</ele>
        <time>2017-12-23T10:51:12Z</time>
      </trkpt>
      <trkpt lat="62.633350112664" lon="17.983804236637">
        <ele>200</ele>
        <time>2017-12-23T10:51:13Z</time>
      </trkpt>
      <trkpt lat="62.633362769333" lon="17.983744138414">
        <ele>200</ele>
        <time>2017-12-23T10:51:14Z</time>
      </trkpt>
      <trkpt lat="62.633377018563" lon="17.983695774851">
        <ele>200.2</ele>
        <time>2017-12-23T10:51:15Z</time>
      </trkpt>
      <trkpt lat="62.63339068106" lon="17.983640286673">
        <ele>200.2</ele>
        <time>2017-12-23T10:51:16Z</time>
      </trkpt>
      <trkpt lat="62.633398476227" lon="17.983587899798">
        <ele>200.6</ele>
        <time>2017-12-23T10:51:17Z</time>
      </trkpt>
      <trkpt lat="62.633410462344" lon="17.983525622281">
        <ele>200.6</ele>
        <time>2017-12-23T10:51:18Z</time>
      </trkpt>
      <trkpt lat="62.633425968859" lon="17.983456387787">
        <ele>200.6</ele>
        <time>2017-12-23T10:51:19Z</time>
      </trkpt>
      <trkpt lat="62.633437535881" lon="17.983398468858">
        <ele>200.6</ele>
        <time>2017-12-23T10:51:20Z</time>
      </trkpt>
      <trkpt lat="62.633451533654" lon="17.983347506906">
        <ele>200.8</ele>
        <time>2017-12-23T10:51:21Z</time>
      </trkpt>
      <trkpt lat="62.633458406812" lon="17.983296377316">
        <ele>200.6</ele>
        <time>2017-12-23T10:51:22Z</time>
      </trkpt>
      <trkpt lat="62.633469554739" lon="17.983240134767">
        <ele>200.6</ele>
        <time>2017-12-23T10:51:23Z</time>
      </trkpt>
      <trkpt lat="62.63348204377" lon="17.983175761775">
        <ele>200.8</ele>
        <time>2017-12-23T10:51:24Z</time>
      </trkpt>
      <trkpt lat="62.63349880757" lon="17.983115495914">
        <ele>200.8</ele>
        <time>2017-12-23T10:51:25Z</time>
      </trkpt>
      <trkpt lat="62.633518505035" lon="17.983052883121">
        <ele>200.8</ele>
        <time>2017-12-23T10:51:26Z</time>
      </trkpt>
      <trkpt lat="62.633534933559" lon="17.982996137658">
        <ele>200.8</ele>
        <time>2017-12-23T10:51:27Z</time>
      </trkpt>
      <trkpt lat="62.633549601884" lon="17.982933273408">
        <ele>200.8</ele>
        <time>2017-12-23T10:51:28Z</time>
      </trkpt>
      <trkpt lat="62.633558151422" lon="17.982867224036">
        <ele>201</ele>
        <time>2017-12-23T10:51:29Z</time>
      </trkpt>
      <trkpt lat="62.633571478643" lon="17.982805197976">
        <ele>201</ele>
        <time>2017-12-23T10:51:30Z</time>
      </trkpt>
      <trkpt lat="62.633586649882" lon="17.982748787789">
        <ele>201</ele>
        <time>2017-12-23T10:51:31Z</time>
      </trkpt>
      <trkpt lat="62.633596624343" lon="17.982705621004">
        <ele>201</ele>
        <time>2017-12-23T10:51:32Z</time>
      </trkpt>
      <trkpt lat="62.633606514985" lon="17.98264895936">
        <ele>201</ele>
        <time>2017-12-23T10:51:33Z</time>
      </trkpt>
      <trkpt lat="62.63361950693" lon="17.982594812286">
        <ele>201</ele>
        <time>2017-12-23T10:51:34Z</time>
      </trkpt>
      <trkpt lat="62.63363124159" lon="17.982537396271">
        <ele>200.8</ele>
        <time>2017-12-23T10:51:35Z</time>
      </trkpt>
      <trkpt lat="62.633646245191" lon="17.982476962772">
        <ele>201</ele>
        <time>2017-12-23T10:51:36Z</time>
      </trkpt>
      <trkpt lat="62.633659069498" lon="17.982423402431">
        <ele>201</ele>
        <time>2017-12-23T10:51:37Z</time>
      </trkpt>
      <trkpt lat="62.633668792502" lon="17.982352743014">
        <ele>200.8</ele>
        <time>2017-12-23T10:51:38Z</time>
      </trkpt>
      <trkpt lat="62.633665942656" lon="17.982289711126">
        <ele>201</ele>
        <time>2017-12-23T10:51:39Z</time>
      </trkpt>
      <trkpt lat="62.633671893805" lon="17.982213184379">
        <ele>201</ele>
        <time>2017-12-23T10:51:40Z</time>
      </trkpt>
      <trkpt lat="62.633678264049" lon="17.982158534391">
        <ele>201</ele>
        <time>2017-12-23T10:51:41Z</time>
      </trkpt>
      <trkpt lat="62.633682622637" lon="17.982108913543">
        <ele>201.2</ele>
        <time>2017-12-23T10:51:42Z</time>
      </trkpt>
      <trkpt lat="62.633688070872" lon="17.982046636026">
        <ele>201</ele>
        <time>2017-12-23T10:51:43Z</time>
      </trkpt>
      <trkpt lat="62.633691675089" lon="17.982001206128">
        <ele>201.2</ele>
        <time>2017-12-23T10:51:44Z</time>
      </trkpt>
      <trkpt lat="62.633697961514" lon="17.981955273316">
        <ele>201.4</ele>
        <time>2017-12-23T10:51:45Z</time>
      </trkpt>
      <trkpt lat="62.63369662041" lon="17.981918560594">
        <ele>201.4</ele>
        <time>2017-12-23T10:51:46Z</time>
      </trkpt>
      <trkpt lat="62.633701062817" lon="17.981871035221">
        <ele>201.4</ele>
        <time>2017-12-23T10:51:47Z</time>
      </trkpt>
      <trkpt lat="62.633707852156" lon="17.98181328393">
        <ele>201.4</ele>
        <time>2017-12-23T10:51:48Z</time>
      </trkpt>
      <trkpt lat="62.633715647323" lon="17.981762405797">
        <ele>201.6</ele>
        <time>2017-12-23T10:51:49Z</time>
      </trkpt>
      <trkpt lat="62.633722436662" lon="17.981703145764">
        <ele>201.8</ele>
        <time>2017-12-23T10:51:50Z</time>
      </trkpt>
      <trkpt lat="62.633739116643" lon="17.981651345622">
        <ele>201.8</ele>
        <time>2017-12-23T10:51:51Z</time>
      </trkpt>
      <trkpt lat="62.633748923466" lon="17.981595103073">
        <ele>201.8</ele>
        <time>2017-12-23T10:51:52Z</time>
      </trkpt>
      <trkpt lat="62.633756550995" lon="17.981531400633">
        <ele>202</ele>
        <time>2017-12-23T10:51:53Z</time>
      </trkpt>
      <trkpt lat="62.63376619018" lon="17.981472894971">
        <ele>201.8</ele>
        <time>2017-12-23T10:51:54Z</time>
      </trkpt>
      <trkpt lat="62.633771638415" lon="17.981418580259">
        <ele>201.8</ele>
        <time>2017-12-23T10:51:55Z</time>
      </trkpt>
      <trkpt lat="62.633782367247" lon="17.981366863936">
        <ele>201.8</ele>
        <time>2017-12-23T10:51:56Z</time>
      </trkpt>
      <trkpt lat="62.633797287029" lon="17.981308777369">
        <ele>201.8</ele>
        <time>2017-12-23T10:51:57Z</time>
      </trkpt>
      <trkpt lat="62.63381312882" lon="17.981245661662">
        <ele>201.8</ele>
        <time>2017-12-23T10:51:58Z</time>
      </trkpt>
      <trkpt lat="62.633821845996" lon="17.981200818497">
        <ele>201.8</ele>
        <time>2017-12-23T10:51:59Z</time>
      </trkpt>
      <trkpt lat="62.633834837941" lon="17.981153879857">
        <ele>201.8</ele>
        <time>2017-12-23T10:52:00Z</time>
      </trkpt>
      <trkpt lat="62.633847410791" lon="17.98111926261">
        <ele>201.8</ele>
        <time>2017-12-23T10:52:01Z</time>
      </trkpt>
      <trkpt lat="62.633858223442" lon="17.981072743065">
        <ele>201.8</ele>
        <time>2017-12-23T10:52:02Z</time>
      </trkpt>
      <trkpt lat="62.633869371369" lon="17.981027564624">
        <ele>201.8</ele>
        <time>2017-12-23T10:52:03Z</time>
      </trkpt>
      <trkpt lat="62.633888398282" lon="17.980990265169">
        <ele>201.8</ele>
        <time>2017-12-23T10:52:04Z</time>
      </trkpt>
      <trkpt lat="62.633899210933" lon="17.980940225226">
        <ele>202</ele>
        <time>2017-12-23T10:52:05Z</time>
      </trkpt>
      <trkpt lat="62.633916812923" lon="17.980893370405">
        <ele>202</ele>
        <time>2017-12-23T10:52:06Z</time>
      </trkpt>
      <trkpt lat="62.633935085465" lon="17.980854143113">
        <ele>202.2</ele>
        <time>2017-12-23T10:52:07Z</time>
      </trkpt>
      <trkpt lat="62.633955369663" lon="17.980816089287">
        <ele>202.2</ele>
        <time>2017-12-23T10:52:08Z</time>
      </trkpt>
      <trkpt lat="62.633977833155" lon="17.980775520891">
        <ele>202.4</ele>
        <time>2017-12-23T10:52:09Z</time>
      </trkpt>
      <trkpt lat="62.633990657462" lon="17.980726067681">
        <ele>202.4</ele>
        <time>2017-12-23T10:52:10Z</time>
      </trkpt>
      <trkpt lat="62.634002895036" lon="17.980694048823">
        <ele>202.4</ele>
        <time>2017-12-23T10:52:11Z</time>
      </trkpt>
      <trkpt lat="62.634020580845" lon="17.98063478879">
        <ele>202.4</ele>
        <time>2017-12-23T10:52:12Z</time>
      </trkpt>
      <trkpt lat="62.634039775396" lon="17.980588855978">
        <ele>202.6</ele>
        <time>2017-12-23T10:52:13Z</time>
      </trkpt>
      <trkpt lat="62.634053354074" lon="17.980537391112">
        <ele>202.6</ele>
        <time>2017-12-23T10:52:14Z</time>
      </trkpt>
      <trkpt lat="62.634067268028" lon="17.980498666734">
        <ele>202.6</ele>
        <time>2017-12-23T10:52:15Z</time>
      </trkpt>
      <trkpt lat="62.634084367104" lon="17.980455667587">
        <ele>202.8</ele>
        <time>2017-12-23T10:52:16Z</time>
      </trkpt>
      <trkpt lat="62.634097526687" lon="17.980421134159">
        <ele>202.6</ele>
        <time>2017-12-23T10:52:17Z</time>
      </trkpt>
      <trkpt lat="62.634113536116" lon="17.980368831103">
        <ele>202.6</ele>
        <time>2017-12-23T10:52:18Z</time>
      </trkpt>
      <trkpt lat="62.634128958812" lon="17.98032465849">
        <ele>202.6</ele>
        <time>2017-12-23T10:52:19Z</time>
      </trkpt>
      <trkpt lat="62.634149578286" lon="17.980282162257">
        <ele>202.8</ele>
        <time>2017-12-23T10:52:20Z</time>
      </trkpt>
      <trkpt lat="62.634161312946" lon="17.98023329578">
        <ele>202.8</ele>
        <time>2017-12-23T10:52:21Z</time>
      </trkpt>
      <trkpt lat="62.634185536637" lon="17.980194906678">
        <ele>202.8</ele>
        <time>2017-12-23T10:52:22Z</time>
      </trkpt>
      <trkpt lat="62.634207245758" lon="17.980155008834">
        <ele>202.6</ele>
        <time>2017-12-23T10:52:23Z</time>
      </trkpt>
      <trkpt lat="62.634229122517" lon="17.980112428782">
        <ele>202.6</ele>
        <time>2017-12-23T10:52:24Z</time>
      </trkpt>
      <trkpt lat="62.634255274045" lon="17.980070854558">
        <ele>202.6</ele>
        <time>2017-12-23T10:52:25Z</time>
      </trkpt>
      <trkpt lat="62.63427748608" lon="17.98003296837">
        <ele>202.4</ele>
        <time>2017-12-23T10:52:26Z</time>
      </trkpt>
      <trkpt lat="62.634294585156" lon="17.979988963395">
        <ele>202.4</ele>
        <time>2017-12-23T10:52:27Z</time>
      </trkpt>
      <trkpt lat="62.634314785535" lon="17.979939342547">
        <ele>202.4</ele>
        <time>2017-12-23T10:52:28Z</time>
      </trkpt>
      <trkpt lat="62.634331465516" lon="17.979896427219">
        <ele>202.4</ele>
        <time>2017-12-23T10:52:29Z</time>
      </trkpt>
      <trkpt lat="62.634352336447" lon="17.979837502462">
        <ele>202.6</ele>
        <time>2017-12-23T10:52:30Z</time>
      </trkpt>
      <trkpt lat="62.634362813822" lon="17.979781176094">
        <ele>202.6</ele>
        <time>2017-12-23T10:52:31Z</time>
      </trkpt>
      <trkpt lat="62.63437723069" lon="17.979725185002">
        <ele>202.4</ele>
        <time>2017-12-23T10:52:32Z</time>
      </trkpt>
      <trkpt lat="62.634387456608" lon="17.979661314924">
        <ele>202.6</ele>
        <time>2017-12-23T10:52:33Z</time>
      </trkpt>
      <trkpt lat="62.634405477693" lon="17.979602222529">
        <ele>202.4</ele>
        <time>2017-12-23T10:52:34Z</time>
      </trkpt>
      <trkpt lat="62.634418721095" lon="17.979556708812">
        <ele>202.4</ele>
        <time>2017-12-23T10:52:35Z</time>
      </trkpt>
      <trkpt lat="62.634434646705" lon="17.979498538426">
        <ele>202.6</ele>
        <time>2017-12-23T10:52:36Z</time>
      </trkpt>
      <trkpt lat="62.634449734125" lon="17.979447241198">
        <ele>202.4</ele>
        <time>2017-12-23T10:52:37Z</time>
      </trkpt>
      <trkpt lat="62.634467252296" lon="17.979396446884">
        <ele>202.4</ele>
        <time>2017-12-23T10:52:38Z</time>
      </trkpt>
      <trkpt lat="62.634474544549" lon="17.979337941222">
        <ele>202.4</ele>
        <time>2017-12-23T10:52:39Z</time>
      </trkpt>
      <trkpt lat="62.634485441019" lon="17.979285219071">
        <ele>202.4</ele>
        <time>2017-12-23T10:52:40Z</time>
      </trkpt>
      <trkpt lat="62.634502037181" lon="17.979233586567">
        <ele>202.4</ele>
        <time>2017-12-23T10:52:41Z</time>
      </trkpt>
      <trkpt lat="62.634514861488" lon="17.979187653755">
        <ele>202.4</ele>
        <time>2017-12-23T10:52:42Z</time>
      </trkpt>
      <trkpt lat="62.634529613632" lon="17.979126801161">
        <ele>202.4</ele>
        <time>2017-12-23T10:52:43Z</time>
      </trkpt>
      <trkpt lat="62.634542940853" lon="17.979072737906">
        <ele>202.4</ele>
        <time>2017-12-23T10:52:44Z</time>
      </trkpt>
      <trkpt lat="62.634551490391" lon="17.979020602488">
        <ele>202.6</ele>
        <time>2017-12-23T10:52:45Z</time>
      </trkpt>
      <trkpt lat="62.634562219223" lon="17.978972155106">
        <ele>202.6</ele>
        <time>2017-12-23T10:52:46Z</time>
      </trkpt>
      <trkpt lat="62.63459013095" lon="17.978896718006">
        <ele>202.4</ele>
        <time>2017-12-23T10:52:48Z</time>
      </trkpt>
      <trkpt lat="62.634611253338" lon="17.978864866786">
        <ele>202.4</ele>
        <time>2017-12-23T10:52:49Z</time>
      </trkpt>
      <trkpt lat="62.634628352414" lon="17.978839134353">
        <ele>202.4</ele>
        <time>2017-12-23T10:52:50Z</time>
      </trkpt>
      <trkpt lat="62.634648720431" lon="17.978818347241">
        <ele>202.4</ele>
        <time>2017-12-23T10:52:51Z</time>
      </trkpt>
      <trkpt lat="62.634669423724" lon="17.978804098011">
        <ele>202.4</ele>
        <time>2017-12-23T10:52:52Z</time>
      </trkpt>
      <trkpt lat="62.634690462293" lon="17.97879915269">
        <ele>202.4</ele>
        <time>2017-12-23T10:52:53Z</time>
      </trkpt>
      <trkpt lat="62.634715775631" lon="17.978804768563">
        <ele>202.6</ele>
        <time>2017-12-23T10:52:54Z</time>
      </trkpt>
      <trkpt lat="62.634741256607" lon="17.978817006137">
        <ele>202.6</ele>
        <time>2017-12-23T10:52:55Z</time>
      </trkpt>
      <trkpt lat="62.634771347628" lon="17.978835027222">
        <ele>202.6</ele>
        <time>2017-12-23T10:52:56Z</time>
      </trkpt>
      <trkpt lat="62.634793559663" lon="17.978847432434">
        <ele>202.6</ele>
        <time>2017-12-23T10:52:57Z</time>
      </trkpt>
      <trkpt lat="62.634829182738" lon="17.978860172922">
        <ele>202.6</ele>
        <time>2017-12-23T10:52:58Z</time>
      </trkpt>
      <trkpt lat="62.634858100293" lon="17.978871656125">
        <ele>202.6</ele>
        <time>2017-12-23T10:52:59Z</time>
      </trkpt>
      <trkpt lat="62.634895064472" lon="17.978886575907">
        <ele>202.4</ele>
        <time>2017-12-23T10:53:00Z</time>
      </trkpt>
      <trkpt lat="62.634923311475" lon="17.978892610875">
        <ele>202.4</ele>
        <time>2017-12-23T10:53:01Z</time>
      </trkpt>
      <trkpt lat="62.634954659781" lon="17.978909626132">
        <ele>202.4</ele>
        <time>2017-12-23T10:53:02Z</time>
      </trkpt>
      <trkpt lat="62.634985840449" lon="17.978922618077">
        <ele>202.2</ele>
        <time>2017-12-23T10:53:03Z</time>
      </trkpt>
      <trkpt lat="62.635014590366" lon="17.978936448212">
        <ele>202</ele>
        <time>2017-12-23T10:53:04Z</time>
      </trkpt>
      <trkpt lat="62.635039484609" lon="17.978942818456">
        <ele>201.8</ele>
        <time>2017-12-23T10:53:05Z</time>
      </trkpt>
      <trkpt lat="62.635064630309" lon="17.978948434329">
        <ele>201.6</ele>
        <time>2017-12-23T10:53:06Z</time>
      </trkpt>
      <trkpt lat="62.635091787665" lon="17.978957402962">
        <ele>201.6</ele>
        <time>2017-12-23T10:53:07Z</time>
      </trkpt>
      <trkpt lat="62.635118274469" lon="17.978966287776">
        <ele>201.4</ele>
        <time>2017-12-23T10:53:08Z</time>
      </trkpt>
      <trkpt lat="62.635146521472" lon="17.978977268065">
        <ele>201.4</ele>
        <time>2017-12-23T10:53:09Z</time>
      </trkpt>
      <trkpt lat="62.635172337724" lon="17.978985733784">
        <ele>201.4</ele>
        <time>2017-12-23T10:53:10Z</time>
      </trkpt>
      <trkpt lat="62.635204021306" lon="17.978994199503">
        <ele>201.4</ele>
        <time>2017-12-23T10:53:11Z</time>
      </trkpt>
      <trkpt lat="62.635236962173" lon="17.979004425421">
        <ele>201.4</ele>
        <time>2017-12-23T10:53:12Z</time>
      </trkpt>
      <trkpt lat="62.635259593303" lon="17.979001910851">
        <ele>201.2</ele>
        <time>2017-12-23T10:53:13Z</time>
      </trkpt>
      <trkpt lat="62.635299574966" lon="17.978999647738">
        <ele>201</ele>
        <time>2017-12-23T10:53:14Z</time>
      </trkpt>
      <trkpt lat="62.635331677643" lon="17.979002246127">
        <ele>201</ele>
        <time>2017-12-23T10:53:15Z</time>
      </trkpt>
      <trkpt lat="62.635362858311" lon="17.979002665222">
        <ele>200.8</ele>
        <time>2017-12-23T10:53:16Z</time>
      </trkpt>
      <trkpt lat="62.63538641145" lon="17.979000905023">
        <ele>200.8</ele>
        <time>2017-12-23T10:53:17Z</time>
      </trkpt>
      <trkpt lat="62.635420190507" lon="17.979001659394">
        <ele>200.6</ele>
        <time>2017-12-23T10:53:18Z</time>
      </trkpt>
      <trkpt lat="62.635451622632" lon="17.978996546435">
        <ele>200.6</ele>
        <time>2017-12-23T10:53:19Z</time>
      </trkpt>
      <trkpt lat="62.635486072241" lon="17.978990092372">
        <ele>200.6</ele>
        <time>2017-12-23T10:53:20Z</time>
      </trkpt>
      <trkpt lat="62.635522449687" lon="17.978984225042">
        <ele>200.6</ele>
        <time>2017-12-23T10:53:21Z</time>
      </trkpt>
      <trkpt lat="62.635556061106" lon="17.978978190074">
        <ele>200.4</ele>
        <time>2017-12-23T10:53:22Z</time>
      </trkpt>
      <trkpt lat="62.63558925343" lon="17.978972993296">
        <ele>200.2</ele>
        <time>2017-12-23T10:53:23Z</time>
      </trkpt>
      <trkpt lat="62.635621356107" lon="17.978972155106">
        <ele>200</ele>
        <time>2017-12-23T10:53:24Z</time>
      </trkpt>
      <trkpt lat="62.635655135164" lon="17.978970814002">
        <ele>199.8</ele>
        <time>2017-12-23T10:53:25Z</time>
      </trkpt>
      <trkpt lat="62.635692602257" lon="17.978971233097">
        <ele>199.4</ele>
        <time>2017-12-23T10:53:26Z</time>
      </trkpt>
      <trkpt lat="62.635723196192" lon="17.978968047975">
        <ele>199.2</ele>
        <time>2017-12-23T10:53:27Z</time>
      </trkpt>
      <trkpt lat="62.635758986905" lon="17.97896930526">
        <ele>199.2</ele>
        <time>2017-12-23T10:53:28Z</time>
      </trkpt>
      <trkpt lat="62.635791005763" lon="17.978968383251">
        <ele>199</ele>
        <time>2017-12-23T10:53:29Z</time>
      </trkpt>
      <trkpt lat="62.635828221399" lon="17.978977184246">
        <ele>198.8</ele>
        <time>2017-12-23T10:53:30Z</time>
      </trkpt>
      <trkpt lat="62.635860575533" lon="17.978984811775">
        <ele>198.6</ele>
        <time>2017-12-23T10:53:31Z</time>
      </trkpt>
      <trkpt lat="62.635884966862" lon="17.978989002725">
        <ele>198.6</ele>
        <time>2017-12-23T10:53:32Z</time>
      </trkpt>
      <trkpt lat="62.635911537485" lon="17.978993696589">
        <ele>198.6</ele>
        <time>2017-12-23T10:53:33Z</time>
      </trkpt>
      <trkpt lat="62.635931570226" lon="17.97899864191">
        <ele>198.8</ele>
        <time>2017-12-23T10:53:34Z</time>
      </trkpt>
      <trkpt lat="62.635946909103" lon="17.979010208932">
        <ele>198.8</ele>
        <time>2017-12-23T10:53:35Z</time>
      </trkpt>
      <trkpt lat="62.635963169989" lon="17.979019429022">
        <ele>198.8</ele>
        <time>2017-12-23T10:53:36Z</time>
      </trkpt>
      <trkpt lat="62.63597565902" lon="17.979024458162">
        <ele>198.8</ele>
        <time>2017-12-23T10:53:37Z</time>
      </trkpt>
      <trkpt lat="62.63599493739" lon="17.97903216951">
        <ele>198.8</ele>
        <time>2017-12-23T10:53:38Z</time>
      </trkpt>
      <trkpt lat="62.636013796665" lon="17.979042060152">
        <ele>198.8</ele>
        <time>2017-12-23T10:53:39Z</time>
      </trkpt>
      <trkpt lat="62.636029806094" lon="17.979055555011">
        <ele>198.8</ele>
        <time>2017-12-23T10:53:40Z</time>
      </trkpt>
      <trkpt lat="62.636042295125" lon="17.979085394575">
        <ele>198.8</ele>
        <time>2017-12-23T10:53:41Z</time>
      </trkpt>
      <trkpt lat="62.636047659541" lon="17.979121604383">
        <ele>198.8</ele>
        <time>2017-12-23T10:53:42Z</time>
      </trkpt>
      <trkpt lat="62.636045731704" lon="17.979164016797">
        <ele>198.8</ele>
        <time>2017-12-23T10:53:43Z</time>
      </trkpt>
      <trkpt lat="62.63603936146" lon="17.97919813113">
        <ele>198.8</ele>
        <time>2017-12-23T10:53:44Z</time>
      </trkpt>
      <trkpt lat="62.63602678861" lon="17.979256301516">
        <ele>199</ele>
        <time>2017-12-23T10:53:46Z</time>
      </trkpt>
      <trkpt lat="62.636023268212" lon="17.979282201587">
        <ele>199</ele>
        <time>2017-12-23T10:53:47Z</time>
      </trkpt>
      <trkpt lat="62.636014551036" lon="17.979332744444">
        <ele>198.8</ele>
        <time>2017-12-23T10:53:48Z</time>
      </trkpt>
      <trkpt lat="62.63600834843" lon="17.979378258161">
        <ele>198.8</ele>
        <time>2017-12-23T10:53:49Z</time>
      </trkpt>
      <trkpt lat="62.636010443905" lon="17.979442212058">
        <ele>198.8</ele>
        <time>2017-12-23T10:53:50Z</time>
      </trkpt>
      <trkpt lat="62.636013712846" lon="17.979536089338">
        <ele>198.4</ele>
        <time>2017-12-23T10:53:51Z</time>
      </trkpt>
      <trkpt lat="62.636015724502" lon="17.979638767613">
        <ele>198.4</ele>
        <time>2017-12-23T10:53:52Z</time>
      </trkpt>
      <trkpt lat="62.63601673033" lon="17.979769525253">
        <ele>198.2</ele>
        <time>2017-12-23T10:53:53Z</time>
      </trkpt>
      <trkpt lat="62.63601589214" lon="17.979905228214">
        <ele>197.8</ele>
        <time>2017-12-23T10:53:54Z</time>
      </trkpt>
      <trkpt lat="62.636014131941" lon="17.980030034705">
        <ele>197.2</ele>
        <time>2017-12-23T10:53:55Z</time>
      </trkpt>
      <trkpt lat="62.636016311235" lon="17.980162301087">
        <ele>196.2</ele>
        <time>2017-12-23T10:53:56Z</time>
      </trkpt>
      <trkpt lat="62.6360192449" lon="17.980303787559">
        <ele>195.6</ele>
        <time>2017-12-23T10:53:57Z</time>
      </trkpt>
      <trkpt lat="62.636026285696" lon="17.980437478864">
        <ele>194.6</ele>
        <time>2017-12-23T10:53:58Z</time>
      </trkpt>
      <trkpt lat="62.6360360087" lon="17.980547281754">
        <ele>194</ele>
        <time>2017-12-23T10:53:59Z</time>
      </trkpt>
      <trkpt lat="62.636047827179" lon="17.980669657494">
        <ele>193.4</ele>
        <time>2017-12-23T10:54:00Z</time>
      </trkpt>
      <trkpt lat="62.636064004246" lon="17.980777784004">
        <ele>192.8</ele>
        <time>2017-12-23T10:54:01Z</time>
      </trkpt>
      <trkpt lat="62.636082276788" lon="17.980867889429">
        <ele>192.6</ele>
        <time>2017-12-23T10:54:02Z</time>
      </trkpt>
      <trkpt lat="62.636100800787" lon="17.980977859957">
        <ele>192.4</ele>
        <time>2017-12-23T10:54:03Z</time>
      </trkpt>
      <trkpt lat="62.636115217655" lon="17.981079280947">
        <ele>192.2</ele>
        <time>2017-12-23T10:54:04Z</time>
      </trkpt>
      <trkpt lat="62.636129299247" lon="17.981166285069">
        <ele>192</ele>
        <time>2017-12-23T10:54:05Z</time>
      </trkpt>
      <trkpt lat="62.636146398323" lon="17.981247757137">
        <ele>191.8</ele>
        <time>2017-12-23T10:54:06Z</time>
      </trkpt>
      <trkpt lat="62.636153020024" lon="17.981328893929">
        <ele>191.6</ele>
        <time>2017-12-23T10:54:07Z</time>
      </trkpt>
      <trkpt lat="62.636159138811" lon="17.981411288006">
        <ele>191.4</ele>
        <time>2017-12-23T10:54:08Z</time>
      </trkpt>
      <trkpt lat="62.636169113272" lon="17.981491335151">
        <ele>191.6</ele>
        <time>2017-12-23T10:54:09Z</time>
      </trkpt>
      <trkpt lat="62.636182105217" lon="17.981554199401">
        <ele>191.8</ele>
        <time>2017-12-23T10:54:10Z</time>
      </trkpt>
      <trkpt lat="62.636198030827" lon="17.981630223234">
        <ele>192</ele>
        <time>2017-12-23T10:54:11Z</time>
      </trkpt>
      <trkpt lat="62.636212782971" lon="17.981701050289">
        <ele>192</ele>
        <time>2017-12-23T10:54:12Z</time>
      </trkpt>
      <trkpt lat="62.636225020545" lon="17.981756622286">
        <ele>192.2</ele>
        <time>2017-12-23T10:54:13Z</time>
      </trkpt>
      <trkpt lat="62.636226194011" lon="17.981826611151">
        <ele>192.4</ele>
        <time>2017-12-23T10:54:14Z</time>
      </trkpt>
      <trkpt lat="62.636221081052" lon="17.981873046877">
        <ele>192.4</ele>
        <time>2017-12-23T10:54:15Z</time>
      </trkpt>
      <trkpt lat="62.636238934499" lon="17.981919817879">
        <ele>192.4</ele>
        <time>2017-12-23T10:54:16Z</time>
      </trkpt>
      <trkpt lat="62.636249076598" lon="17.982067674595">
        <ele>192.2</ele>
        <time>2017-12-23T10:54:17Z</time>
      </trkpt>
      <trkpt lat="62.636258464326" lon="17.982117714538">
        <ele>192.2</ele>
        <time>2017-12-23T10:54:18Z</time>
      </trkpt>
      <trkpt lat="62.636265002208" lon="17.98219466038">
        <ele>192.2</ele>
        <time>2017-12-23T10:54:19Z</time>
      </trkpt>
      <trkpt lat="62.636273551746" lon="17.982254758603">
        <ele>192.4</ele>
        <time>2017-12-23T10:54:20Z</time>
      </trkpt>
      <trkpt lat="62.636283777664" lon="17.982329189875">
        <ele>192.2</ele>
        <time>2017-12-23T10:54:21Z</time>
      </trkpt>
      <trkpt lat="62.636296182876" lon="17.982397250903">
        <ele>192.2</ele>
        <time>2017-12-23T10:54:22Z</time>
      </trkpt>
      <trkpt lat="62.63629668579" lon="17.982471011623">
        <ele>192.2</ele>
        <time>2017-12-23T10:54:23Z</time>
      </trkpt>
      <trkpt lat="62.636297943075" lon="17.982551477863">
        <ele>192.2</ele>
        <time>2017-12-23T10:54:24Z</time>
      </trkpt>
      <trkpt lat="62.636293416849" lon="17.982619035977">
        <ele>192.2</ele>
        <time>2017-12-23T10:54:25Z</time>
      </trkpt>
      <trkpt lat="62.636291321374" lon="17.982679385657">
        <ele>192.4</ele>
        <time>2017-12-23T10:54:26Z</time>
      </trkpt>
      <trkpt lat="62.636288890623" lon="17.982733700369">
        <ele>192.4</ele>
        <time>2017-12-23T10:54:27Z</time>
      </trkpt>
      <trkpt lat="62.636286292234" lon="17.982801007026">
        <ele>192.4</ele>
        <time>2017-12-23T10:54:28Z</time>
      </trkpt>
      <trkpt lat="62.636286878967" lon="17.982852555711">
        <ele>192.4</ele>
        <time>2017-12-23T10:54:29Z</time>
      </trkpt>
      <trkpt lat="62.636286711329" lon="17.982905613138">
        <ele>192.2</ele>
        <time>2017-12-23T10:54:30Z</time>
      </trkpt>
      <trkpt lat="62.636286292234" lon="17.982959592574">
        <ele>192.4</ele>
        <time>2017-12-23T10:54:31Z</time>
      </trkpt>
      <trkpt lat="62.636286292234" lon="17.983015080752">
        <ele>192.2</ele>
        <time>2017-12-23T10:54:32Z</time>
      </trkpt>
      <trkpt lat="62.636287549519" lon="17.983089512024">
        <ele>192.2</ele>
        <time>2017-12-23T10:54:33Z</time>
      </trkpt>
      <trkpt lat="62.636290650822" lon="17.983148269143">
        <ele>192.2</ele>
        <time>2017-12-23T10:54:34Z</time>
      </trkpt>
      <trkpt lat="62.636291740469" lon="17.9832155758">
        <ele>192.2</ele>
        <time>2017-12-23T10:54:35Z</time>
      </trkpt>
      <trkpt lat="62.636295428505" lon="17.983279948792">
        <ele>192.2</ele>
        <time>2017-12-23T10:54:36Z</time>
      </trkpt>
      <trkpt lat="62.636295260867" lon="17.983327474165">
        <ele>192.2</ele>
        <time>2017-12-23T10:54:37Z</time>
      </trkpt>
      <trkpt lat="62.636287549519" lon="17.983385476913">
        <ele>192.2</ele>
        <time>2017-12-23T10:54:38Z</time>
      </trkpt>
      <trkpt lat="62.636282352741" lon="17.983447419154">
        <ele>192.2</ele>
        <time>2017-12-23T10:54:39Z</time>
      </trkpt>
      <trkpt lat="62.636274389936" lon="17.983499386934">
        <ele>192.2</ele>
        <time>2017-12-23T10:54:40Z</time>
      </trkpt>
      <trkpt lat="62.636268774063" lon="17.983547666678">
        <ele>192.2</ele>
        <time>2017-12-23T10:54:41Z</time>
      </trkpt>
      <trkpt lat="62.636257374679" lon="17.983591336377">
        <ele>192.4</ele>
        <time>2017-12-23T10:54:42Z</time>
      </trkpt>
      <trkpt lat="62.636248489865" lon="17.983633078239">
        <ele>192.4</ele>
        <time>2017-12-23T10:54:43Z</time>
      </trkpt>
      <trkpt lat="62.636236922843" lon="17.983681525621">
        <ele>192.4</ele>
        <time>2017-12-23T10:54:44Z</time>
      </trkpt>
      <trkpt lat="62.636228624762" lon="17.983736762342">
        <ele>192.6</ele>
        <time>2017-12-23T10:54:45Z</time>
      </trkpt>
      <trkpt lat="62.636225020545" lon="17.983788730122">
        <ele>192.8</ele>
        <time>2017-12-23T10:54:46Z</time>
      </trkpt>
      <trkpt lat="62.636217979749" lon="17.983834662934">
        <ele>192.8</ele>
        <time>2017-12-23T10:54:47Z</time>
      </trkpt>
      <trkpt lat="62.636204317252" lon="17.983890234931">
        <ele>193.2</ele>
        <time>2017-12-23T10:54:48Z</time>
      </trkpt>
      <trkpt lat="62.636198114646" lon="17.983934994277">
        <ele>193.4</ele>
        <time>2017-12-23T10:54:49Z</time>
      </trkpt>
      <trkpt lat="62.636187301995" lon="17.983985956229">
        <ele>193.4</ele>
        <time>2017-12-23T10:54:50Z</time>
      </trkpt>
      <trkpt lat="62.636187050538" lon="17.984035074163">
        <ele>193.6</ele>
        <time>2017-12-23T10:54:51Z</time>
      </trkpt>
      <trkpt lat="62.636180428837" lon="17.984082180441">
        <ele>193.8</ele>
        <time>2017-12-23T10:54:52Z</time>
      </trkpt>
      <trkpt lat="62.636179925923" lon="17.984131633651">
        <ele>194</ele>
        <time>2017-12-23T10:54:53Z</time>
      </trkpt>
      <trkpt lat="62.636180009742" lon="17.984180919223">
        <ele>194</ele>
        <time>2017-12-23T10:54:54Z</time>
      </trkpt>
      <trkpt lat="62.636184033054" lon="17.984235317754">
        <ele>194.2</ele>
        <time>2017-12-23T10:54:55Z</time>
      </trkpt>
      <trkpt lat="62.636189062194" lon="17.984276556702">
        <ele>194.4</ele>
        <time>2017-12-23T10:54:56Z</time>
      </trkpt>
      <trkpt lat="62.63619191204" lon="17.984324752627">
        <ele>194.4</ele>
        <time>2017-12-23T10:54:57Z</time>
      </trkpt>
      <trkpt lat="62.636190319479" lon="17.984361130073">
        <ele>194.6</ele>
        <time>2017-12-23T10:54:58Z</time>
      </trkpt>
      <trkpt lat="62.636192079678" lon="17.984407230523">
        <ele>194.6</ele>
        <time>2017-12-23T10:54:59Z</time>
      </trkpt>
      <trkpt lat="62.636194175153" lon="17.98446615528">
        <ele>194.6</ele>
        <time>2017-12-23T10:55:00Z</time>
      </trkpt>
      <trkpt lat="62.636187972547" lon="17.984513261558">
        <ele>194.6</ele>
        <time>2017-12-23T10:55:01Z</time>
      </trkpt>
      <trkpt lat="62.636194342791" lon="17.984541173285">
        <ele>194.6</ele>
        <time>2017-12-23T10:55:02Z</time>
      </trkpt>
      <trkpt lat="62.636189732746" lon="17.984586687002">
        <ele>194.8</ele>
        <time>2017-12-23T10:55:03Z</time>
      </trkpt>
      <trkpt lat="62.636189732746" lon="17.984621555706">
        <ele>194.8</ele>
        <time>2017-12-23T10:55:04Z</time>
      </trkpt>
      <trkpt lat="62.636182608131" lon="17.98466480631">
        <ele>194.8</ele>
        <time>2017-12-23T10:55:05Z</time>
      </trkpt>
      <trkpt lat="62.636180847932" lon="17.984708978923">
        <ele>195</ele>
        <time>2017-12-23T10:55:06Z</time>
      </trkpt>
      <trkpt lat="62.63617766281" lon="17.984748960586">
        <ele>195</ele>
        <time>2017-12-23T10:55:07Z</time>
      </trkpt>
      <trkpt lat="62.636176740801" lon="17.984787852602">
        <ele>195.2</ele>
        <time>2017-12-23T10:55:08Z</time>
      </trkpt>
      <trkpt lat="62.636172046937" lon="17.984835377975">
        <ele>195.2</ele>
        <time>2017-12-23T10:55:09Z</time>
      </trkpt>
      <trkpt lat="62.636171292566" lon="17.984876281647">
        <ele>195.2</ele>
        <time>2017-12-23T10:55:10Z</time>
      </trkpt>
      <trkpt lat="62.636173890955" lon="17.984914084016">
        <ele>195.4</ele>
        <time>2017-12-23T10:55:11Z</time>
      </trkpt>
      <trkpt lat="62.636163497399" lon="17.984948533625">
        <ele>195.6</ele>
        <time>2017-12-23T10:55:12Z</time>
      </trkpt>
      <trkpt lat="62.636159390268" lon="17.984994466437">
        <ele>195.6</ele>
        <time>2017-12-23T10:55:13Z</time>
      </trkpt>
      <trkpt lat="62.636160563734" lon="17.985031262978">
        <ele>195.8</ele>
        <time>2017-12-23T10:55:14Z</time>
      </trkpt>
      <trkpt lat="62.636157043336" lon="17.985082392568">
        <ele>196</ele>
        <time>2017-12-23T10:55:15Z</time>
      </trkpt>
      <trkpt lat="62.636157713888" lon="17.985130923769">
        <ele>196</ele>
        <time>2017-12-23T10:55:16Z</time>
      </trkpt>
      <trkpt lat="62.636154864042" lon="17.985166379206">
        <ele>196</ele>
        <time>2017-12-23T10:55:17Z</time>
      </trkpt>
      <trkpt lat="62.636153690576" lon="17.985222286479">
        <ele>196.2</ele>
        <time>2017-12-23T10:55:18Z</time>
      </trkpt>
      <trkpt lat="62.636149667264" lon="17.985268386929">
        <ele>196.2</ele>
        <time>2017-12-23T10:55:19Z</time>
      </trkpt>
      <trkpt lat="62.636149331988" lon="17.985316666673">
        <ele>196.2</ele>
        <time>2017-12-23T10:55:20Z</time>
      </trkpt>
      <trkpt lat="62.636144386667" lon="17.985362599485">
        <ele>196.2</ele>
        <time>2017-12-23T10:55:21Z</time>
      </trkpt>
      <trkpt lat="62.636142207373" lon="17.985411885057">
        <ele>196.2</ele>
        <time>2017-12-23T10:55:22Z</time>
      </trkpt>
      <trkpt lat="62.636138435518" lon="17.985456979679">
        <ele>196.2</ele>
        <time>2017-12-23T10:55:23Z</time>
      </trkpt>
      <trkpt lat="62.63613323874" lon="17.985499978826">
        <ele>196.4</ele>
        <time>2017-12-23T10:55:24Z</time>
      </trkpt>
      <trkpt lat="62.636124102469" lon="17.98554490581">
        <ele>196.2</ele>
        <time>2017-12-23T10:55:25Z</time>
      </trkpt>
      <trkpt lat="62.63611563675" lon="17.985590000432">
        <ele>196.2</ele>
        <time>2017-12-23T10:55:26Z</time>
      </trkpt>
      <trkpt lat="62.63610557847" lon="17.985631742294">
        <ele>196.2</ele>
        <time>2017-12-23T10:55:27Z</time>
      </trkpt>
      <trkpt lat="62.636090742507" lon="17.985678261839">
        <ele>196.4</ele>
        <time>2017-12-23T10:55:28Z</time>
      </trkpt>
      <trkpt lat="62.636078253476" lon="17.985708688136">
        <ele>196.4</ele>
        <time>2017-12-23T10:55:29Z</time>
      </trkpt>
      <trkpt lat="62.636061238219" lon="17.985745819953">
        <ele>196.4</ele>
        <time>2017-12-23T10:55:30Z</time>
      </trkpt>
      <trkpt lat="62.636047575722" lon="17.985780772476">
        <ele>196.4</ele>
        <time>2017-12-23T10:55:31Z</time>
      </trkpt>
      <trkpt lat="62.636031733931" lon="17.985810863497">
        <ele>196.6</ele>
        <time>2017-12-23T10:55:32Z</time>
      </trkpt>
      <trkpt lat="62.636011533552" lon="17.985845396925">
        <ele>196.8</ele>
        <time>2017-12-23T10:55:33Z</time>
      </trkpt>
      <trkpt lat="62.635996949046" lon="17.985866854589">
        <ele>196.8</ele>
        <time>2017-12-23T10:55:34Z</time>
      </trkpt>
      <trkpt lat="62.63597649721" lon="17.985889820995">
        <ele>196.8</ele>
        <time>2017-12-23T10:55:35Z</time>
      </trkpt>
      <trkpt lat="62.635959565772" lon="17.98590868027">
        <ele>197</ele>
        <time>2017-12-23T10:55:36Z</time>
      </trkpt>
      <trkpt lat="62.635942215239" lon="17.985921504577">
        <ele>197</ele>
        <time>2017-12-23T10:55:37Z</time>
      </trkpt>
      <trkpt lat="62.635925954353" lon="17.985947320829">
        <ele>197.2</ele>
        <time>2017-12-23T10:55:38Z</time>
      </trkpt>
      <trkpt lat="62.635909777286" lon="17.985966850656">
        <ele>197.2</ele>
        <time>2017-12-23T10:55:39Z</time>
      </trkpt>
      <trkpt lat="62.635899635187" lon="17.985981938076">
        <ele>197.4</ele>
        <time>2017-12-23T10:55:40Z</time>
      </trkpt>
      <trkpt lat="62.635882117016" lon="17.985996438763">
        <ele>197.4</ele>
        <time>2017-12-23T10:55:41Z</time>
      </trkpt>
      <trkpt lat="62.635871136727" lon="17.986020662454">
        <ele>197.4</ele>
        <time>2017-12-23T10:55:42Z</time>
      </trkpt>
      <trkpt lat="62.635849595244" lon="17.986041449566">
        <ele>197.4</ele>
        <time>2017-12-23T10:55:43Z</time>
      </trkpt>
      <trkpt lat="62.635838531136" lon="17.986063913058">
        <ele>197.4</ele>
        <time>2017-12-23T10:55:44Z</time>
      </trkpt>
      <trkpt lat="62.63582143206" lon="17.986092579156">
        <ele>197.6</ele>
        <time>2017-12-23T10:55:45Z</time>
      </trkpt>
      <trkpt lat="62.635805338812" lon="17.986120658521">
        <ele>197.6</ele>
        <time>2017-12-23T10:55:46Z</time>
      </trkpt>
      <trkpt lat="62.635794023247" lon="17.986140607443">
        <ele>197.6</ele>
        <time>2017-12-23T10:55:47Z</time>
      </trkpt>
      <trkpt lat="62.635773739049" lon="17.986169860274">
        <ele>197.6</ele>
        <time>2017-12-23T10:55:48Z</time>
      </trkpt>
      <trkpt lat="62.635762088208" lon="17.986209925756">
        <ele>197.6</ele>
        <time>2017-12-23T10:55:49Z</time>
      </trkpt>
      <trkpt lat="62.635746581693" lon="17.986241693157">
        <ele>197.8</ele>
        <time>2017-12-23T10:55:50Z</time>
      </trkpt>
      <trkpt lat="62.63572923116" lon="17.986275639852">
        <ele>197.8</ele>
        <time>2017-12-23T10:55:51Z</time>
      </trkpt>
      <trkpt lat="62.635713640826" lon="17.986300617914">
        <ele>197.8</ele>
        <time>2017-12-23T10:55:52Z</time>
      </trkpt>
      <trkpt lat="62.63569067442" lon="17.986334396971">
        <ele>198</ele>
        <time>2017-12-23T10:55:53Z</time>
      </trkpt>
      <trkpt lat="62.63568229252" lon="17.986385191285">
        <ele>198</ele>
        <time>2017-12-23T10:55:54Z</time>
      </trkpt>
      <trkpt lat="62.635664355254" lon="17.986428274251">
        <ele>198.4</ele>
        <time>2017-12-23T10:55:55Z</time>
      </trkpt>
      <trkpt lat="62.635651028033" lon="17.986471357217">
        <ele>198.6</ele>
        <time>2017-12-23T10:55:56Z</time>
      </trkpt>
      <trkpt lat="62.635641640305" lon="17.986516870934">
        <ele>198.8</ele>
        <time>2017-12-23T10:55:57Z</time>
      </trkpt>
      <trkpt lat="62.635634180414" lon="17.986561881737">
        <ele>199</ele>
        <time>2017-12-23T10:55:58Z</time>
      </trkpt>
      <trkpt lat="62.635622194297" lon="17.986604880884">
        <ele>199</ele>
        <time>2017-12-23T10:55:59Z</time>
      </trkpt>
      <trkpt lat="62.635609034714" lon="17.986650897515">
        <ele>199.2</ele>
        <time>2017-12-23T10:56:00Z</time>
      </trkpt>
      <trkpt lat="62.635591432724" lon="17.986688867522">
        <ele>199.2</ele>
        <time>2017-12-23T10:56:01Z</time>
      </trkpt>
      <trkpt lat="62.635577854046" lon="17.986716360154">
        <ele>199.4</ele>
        <time>2017-12-23T10:56:02Z</time>
      </trkpt>
      <trkpt lat="62.635567628128" lon="17.986754665437">
        <ele>199.4</ele>
        <time>2017-12-23T10:56:03Z</time>
      </trkpt>
      <trkpt lat="62.635551953975" lon="17.986786935752">
        <ele>199.4</ele>
        <time>2017-12-23T10:56:04Z</time>
      </trkpt>
      <trkpt lat="62.635544996998" lon="17.986821301542">
        <ele>199.6</ele>
        <time>2017-12-23T10:56:05Z</time>
      </trkpt>
      <trkpt lat="62.635530244854" lon="17.986859020092">
        <ele>199.8</ele>
        <time>2017-12-23T10:56:06Z</time>
      </trkpt>
      <trkpt lat="62.635521695316" lon="17.986900091402">
        <ele>199.8</ele>
        <time>2017-12-23T10:56:07Z</time>
      </trkpt>
      <trkpt lat="62.635506859353" lon="17.986937893771">
        <ele>199.8</ele>
        <time>2017-12-23T10:56:08Z</time>
      </trkpt>
      <trkpt lat="62.635493867408" lon="17.986988520447">
        <ele>200</ele>
        <time>2017-12-23T10:56:09Z</time>
      </trkpt>
      <trkpt lat="62.63548196511" lon="17.987026406635">
        <ele>200</ele>
        <time>2017-12-23T10:56:10Z</time>
      </trkpt>
      <trkpt lat="62.635467212966" lon="17.987059347502">
        <ele>200.2</ele>
        <time>2017-12-23T10:56:11Z</time>
      </trkpt>
      <trkpt lat="62.635458244333" lon="17.987087762143">
        <ele>200.2</ele>
        <time>2017-12-23T10:56:12Z</time>
      </trkpt>
      <trkpt lat="62.635438882144" lon="17.987133443498">
        <ele>200.4</ele>
        <time>2017-12-23T10:56:13Z</time>
      </trkpt>
      <trkpt lat="62.635422956534" lon="17.987164205071">
        <ele>200.4</ele>
        <time>2017-12-23T10:56:14Z</time>
      </trkpt>
      <trkpt lat="62.635404181078" lon="17.987195218101">
        <ele>200.6</ele>
        <time>2017-12-23T10:56:15Z</time>
      </trkpt>
      <trkpt lat="62.635391021495" lon="17.987230086805">
        <ele>200.8</ele>
        <time>2017-12-23T10:56:16Z</time>
      </trkpt>
      <trkpt lat="62.635379873568" lon="17.987264787871">
        <ele>200.8</ele>
        <time>2017-12-23T10:56:17Z</time>
      </trkpt>
      <trkpt lat="62.635355817515" lon="17.987280713481">
        <ele>200.8</ele>
        <time>2017-12-23T10:56:18Z</time>
      </trkpt>
      <trkpt lat="62.635332012919" lon="17.987331759252">
        <ele>201</ele>
        <time>2017-12-23T10:56:19Z</time>
      </trkpt>
      <trkpt lat="62.635316674042" lon="17.987367047051">
        <ele>201</ele>
        <time>2017-12-23T10:56:20Z</time>
      </trkpt>
      <trkpt lat="62.635298904414" lon="17.987403675954">
        <ele>201</ele>
        <time>2017-12-23T10:56:21Z</time>
      </trkpt>
      <trkpt lat="62.635281553881" lon="17.987438293201">
        <ele>201.2</ele>
        <time>2017-12-23T10:56:22Z</time>
      </trkpt>
      <trkpt lat="62.635259341846" lon="17.98746268453">
        <ele>201.2</ele>
        <time>2017-12-23T10:56:23Z</time>
      </trkpt>
      <trkpt lat="62.635238135639" lon="17.987495122483">
        <ele>201.2</ele>
        <time>2017-12-23T10:56:24Z</time>
      </trkpt>
      <trkpt lat="62.635223215857" lon="17.987533176309">
        <ele>201.2</ele>
        <time>2017-12-23T10:56:25Z</time>
      </trkpt>
      <trkpt lat="62.635201087641" lon="17.98756242914">
        <ele>201.2</ele>
        <time>2017-12-23T10:56:26Z</time>
      </trkpt>
      <trkpt lat="62.635186754592" lon="17.987594615636">
        <ele>201.4</ele>
        <time>2017-12-23T10:56:27Z</time>
      </trkpt>
      <trkpt lat="62.635166470394" lon="17.98762026425">
        <ele>201.6</ele>
        <time>2017-12-23T10:56:28Z</time>
      </trkpt>
      <trkpt lat="62.635160435426" lon="17.987654210945">
        <ele>201.6</ele>
        <time>2017-12-23T10:56:29Z</time>
      </trkpt>
      <trkpt lat="62.635141492332" lon="17.987682038853">
        <ele>201.6</ele>
        <time>2017-12-23T10:56:30Z</time>
      </trkpt>
      <trkpt lat="62.63512908712" lon="17.987711291684">
        <ele>201.8</ele>
        <time>2017-12-23T10:56:31Z</time>
      </trkpt>
      <trkpt lat="62.635119950849" lon="17.987733838995">
        <ele>201.8</ele>
        <time>2017-12-23T10:56:32Z</time>
      </trkpt>
      <trkpt lat="62.635104863429" lon="17.987765941672">
        <ele>201.8</ele>
        <time>2017-12-23T10:56:33Z</time>
      </trkpt>
      <trkpt lat="62.635088937819" lon="17.987793350485">
        <ele>201.8</ele>
        <time>2017-12-23T10:56:34Z</time>
      </trkpt>
      <trkpt lat="62.635073515123" lon="17.987818328547">
        <ele>201.8</ele>
        <time>2017-12-23T10:56:35Z</time>
      </trkpt>
      <trkpt lat="62.635055913133" lon="17.98785160469">
        <ele>201.8</ele>
        <time>2017-12-23T10:56:36Z</time>
      </trkpt>
      <trkpt lat="62.635039652247" lon="17.987877756218">
        <ele>202</ele>
        <time>2017-12-23T10:56:37Z</time>
      </trkpt>
      <trkpt lat="62.635029929243" lon="17.987908098696">
        <ele>202</ele>
        <time>2017-12-23T10:56:38Z</time>
      </trkpt>
      <trkpt lat="62.635013081624" lon="17.98793039455">
        <ele>202.2</ele>
        <time>2017-12-23T10:56:39Z</time>
      </trkpt>
      <trkpt lat="62.634997407471" lon="17.987954366784">
        <ele>202.6</ele>
        <time>2017-12-23T10:56:40Z</time>
      </trkpt>
      <trkpt lat="62.634980056938" lon="17.987972136412">
        <ele>202.8</ele>
        <time>2017-12-23T10:56:41Z</time>
      </trkpt>
      <trkpt lat="62.634960946206" lon="17.987987894384">
        <ele>203</ele>
        <time>2017-12-23T10:56:42Z</time>
      </trkpt>
      <trkpt lat="62.6349463617" lon="17.988015303197">
        <ele>203.4</ele>
        <time>2017-12-23T10:56:43Z</time>
      </trkpt>
      <trkpt lat="62.634927837701" lon="17.988033659558">
        <ele>203.4</ele>
        <time>2017-12-23T10:56:44Z</time>
      </trkpt>
      <trkpt lat="62.634916522136" lon="17.988053776118">
        <ele>203.8</ele>
        <time>2017-12-23T10:56:45Z</time>
      </trkpt>
      <trkpt lat="62.634899506879" lon="17.98807121047">
        <ele>203.8</ele>
        <time>2017-12-23T10:56:46Z</time>
      </trkpt>
      <trkpt lat="62.634884754735" lon="17.988086465528">
        <ele>204</ele>
        <time>2017-12-23T10:56:47Z</time>
      </trkpt>
      <trkpt lat="62.634860950139" lon="17.988097781093">
        <ele>204.2</ele>
        <time>2017-12-23T10:56:48Z</time>
      </trkpt>
      <trkpt lat="62.634842845235" lon="17.988103396966">
        <ele>204.2</ele>
        <time>2017-12-23T10:56:49Z</time>
      </trkpt>
      <trkpt lat="62.634824656512" lon="17.988117646196">
        <ele>204.4</ele>
        <time>2017-12-23T10:56:50Z</time>
      </trkpt>
      <trkpt lat="62.634802444477" lon="17.988118316748">
        <ele>204.4</ele>
        <time>2017-12-23T10:56:51Z</time>
      </trkpt>
      <trkpt lat="62.634787440876" lon="17.988125609001">
        <ele>204.4</ele>
        <time>2017-12-23T10:56:52Z</time>
      </trkpt>
      <trkpt lat="62.634769252153" lon="17.988130302865">
        <ele>204.4</ele>
        <time>2017-12-23T10:56:53Z</time>
      </trkpt>
      <trkpt lat="62.634757433674" lon="17.988133739444">
        <ele>204.4</ele>
        <time>2017-12-23T10:56:54Z</time>
      </trkpt>
      <trkpt lat="62.634739496408" lon="17.988127285381">
        <ele>204.4</ele>
        <time>2017-12-23T10:56:55Z</time>
      </trkpt>
      <trkpt lat="62.634728683757" lon="17.988127201562">
        <ele>204.6</ele>
        <time>2017-12-23T10:56:56Z</time>
      </trkpt>
      <trkpt lat="62.634711919957" lon="17.988123848802">
        <ele>204.6</ele>
        <time>2017-12-23T10:56:57Z</time>
      </trkpt>
      <trkpt lat="62.634691719578" lon="17.988130889598">
        <ele>204.6</ele>
        <time>2017-12-23T10:56:58Z</time>
      </trkpt>
      <trkpt lat="62.634675793968" lon="17.988143210991">
        <ele>204.6</ele>
        <time>2017-12-23T10:56:59Z</time>
      </trkpt>
      <trkpt lat="62.634653917209" lon="17.988140361145">
        <ele>204.6</ele>
        <time>2017-12-23T10:57:00Z</time>
      </trkpt>
      <trkpt lat="62.634637740142" lon="17.988145557923">
        <ele>204.6</ele>
        <time>2017-12-23T10:57:01Z</time>
      </trkpt>
      <trkpt lat="62.634621814532" lon="17.988149581235">
        <ele>204.6</ele>
        <time>2017-12-23T10:57:02Z</time>
      </trkpt>
      <trkpt lat="62.63460521837" lon="17.988155700022">
        <ele>204.8</ele>
        <time>2017-12-23T10:57:03Z</time>
      </trkpt>
      <trkpt lat="62.634582503421" lon="17.988159388058">
        <ele>204.8</ele>
        <time>2017-12-23T10:57:04Z</time>
      </trkpt>
      <trkpt lat="62.634565152888" lon="17.988159555696">
        <ele>205</ele>
        <time>2017-12-23T10:57:05Z</time>
      </trkpt>
      <trkpt lat="62.634546125975" lon="17.988166345035">
        <ele>205</ele>
        <time>2017-12-23T10:57:06Z</time>
      </trkpt>
      <trkpt lat="62.63452391394" lon="17.988173888745">
        <ele>205</ele>
        <time>2017-12-23T10:57:07Z</time>
      </trkpt>
      <trkpt lat="62.63450295919" lon="17.988175229849">
        <ele>205</ele>
        <time>2017-12-23T10:57:08Z</time>
      </trkpt>
      <trkpt lat="62.634486782123" lon="17.988179672256">
        <ele>205.2</ele>
        <time>2017-12-23T10:57:09Z</time>
      </trkpt>
      <trkpt lat="62.634473035807" lon="17.988186796871">
        <ele>205.2</ele>
        <time>2017-12-23T10:57:10Z</time>
      </trkpt>
      <trkpt lat="62.634453841256" lon="17.988190484907">
        <ele>205.4</ele>
        <time>2017-12-23T10:57:11Z</time>
      </trkpt>
      <trkpt lat="62.634436993637" lon="17.988191490735">
        <ele>205.4</ele>
        <time>2017-12-23T10:57:12Z</time>
      </trkpt>
      <trkpt lat="62.634416457982" lon="17.988196771332">
        <ele>205.4</ele>
        <time>2017-12-23T10:57:13Z</time>
      </trkpt>
      <trkpt lat="62.634400280915" lon="17.98820951182">
        <ele>205.4</ele>
        <time>2017-12-23T10:57:14Z</time>
      </trkpt>
      <trkpt lat="62.634374045568" lon="17.988215798245">
        <ele>205.4</ele>
        <time>2017-12-23T10:57:15Z</time>
      </trkpt>
      <trkpt lat="62.634358539053" lon="17.988214373322">
        <ele>205.6</ele>
        <time>2017-12-23T10:57:16Z</time>
      </trkpt>
      <trkpt lat="62.634334483" lon="17.988203812128">
        <ele>205.6</ele>
        <time>2017-12-23T10:57:17Z</time>
      </trkpt>
      <trkpt lat="62.634301877409" lon="17.988208841268">
        <ele>205.6</ele>
        <time>2017-12-23T10:57:18Z</time>
      </trkpt>
      <trkpt lat="62.634270026189" lon="17.98819693897">
        <ele>205.8</ele>
        <time>2017-12-23T10:57:19Z</time>
      </trkpt>
      <trkpt lat="62.634242952652" lon="17.98820448268">
        <ele>206</ele>
        <time>2017-12-23T10:57:20Z</time>
      </trkpt>
      <trkpt lat="62.634214873287" lon="17.988195094952">
        <ele>206</ele>
        <time>2017-12-23T10:57:21Z</time>
      </trkpt>
      <trkpt lat="62.634193834718" lon="17.988197106608">
        <ele>206</ele>
        <time>2017-12-23T10:57:22Z</time>
      </trkpt>
      <trkpt lat="62.634165336258" lon="17.988190987821">
        <ele>206</ele>
        <time>2017-12-23T10:57:23Z</time>
      </trkpt>
      <trkpt lat="62.634140358196" lon="17.988183444111">
        <ele>206.2</ele>
        <time>2017-12-23T10:57:24Z</time>
      </trkpt>
      <trkpt lat="62.634114290487" lon="17.988174056383">
        <ele>206</ele>
        <time>2017-12-23T10:57:25Z</time>
      </trkpt>
      <trkpt lat="62.634089060968" lon="17.988161651171">
        <ele>206</ele>
        <time>2017-12-23T10:57:26Z</time>
      </trkpt>
      <trkpt lat="62.634066765114" lon="17.988158717506">
        <ele>206</ele>
        <time>2017-12-23T10:57:27Z</time>
      </trkpt>
      <trkpt lat="62.634038266654" lon="17.98813742748">
        <ele>206.2</ele>
        <time>2017-12-23T10:57:28Z</time>
      </trkpt>
      <trkpt lat="62.634016306076" lon="17.98812485463">
        <ele>206.2</ele>
        <time>2017-12-23T10:57:29Z</time>
      </trkpt>
      <trkpt lat="62.633991328014" lon="17.988112197961">
        <ele>206.4</ele>
        <time>2017-12-23T10:57:30Z</time>
      </trkpt>
      <trkpt lat="62.633968613065" lon="17.988096439989">
        <ele>206.4</ele>
        <time>2017-12-23T10:57:31Z</time>
      </trkpt>
      <trkpt lat="62.633949334695" lon="17.988087387537">
        <ele>206.4</ele>
        <time>2017-12-23T10:57:32Z</time>
      </trkpt>
      <trkpt lat="62.633926535927" lon="17.988068612081">
        <ele>206.6</ele>
        <time>2017-12-23T10:57:33Z</time>
      </trkpt>
      <trkpt lat="62.633904072435" lon="17.988060900733">
        <ele>206.6</ele>
        <time>2017-12-23T10:57:34Z</time>
      </trkpt>
      <trkpt lat="62.633884710246" lon="17.988039526888">
        <ele>206.8</ele>
        <time>2017-12-23T10:57:35Z</time>
      </trkpt>
      <trkpt lat="62.633864174591" lon="17.988023014545">
        <ele>206.8</ele>
        <time>2017-12-23T10:57:36Z</time>
      </trkpt>
      <trkpt lat="62.633845902049" lon="17.98799996432">
        <ele>207</ele>
        <time>2017-12-23T10:57:37Z</time>
      </trkpt>
      <trkpt lat="62.633821594539" lon="17.987975740629">
        <ele>207</ele>
        <time>2017-12-23T10:57:38Z</time>
      </trkpt>
      <trkpt lat="62.633804495463" lon="17.987958557734">
        <ele>207</ele>
        <time>2017-12-23T10:57:39Z</time>
      </trkpt>
      <trkpt lat="62.633781696695" lon="17.987930897464">
        <ele>207</ele>
        <time>2017-12-23T10:57:40Z</time>
      </trkpt>
      <trkpt lat="62.63376199923" lon="17.987921090641">
        <ele>207</ele>
        <time>2017-12-23T10:57:41Z</time>
      </trkpt>
      <trkpt lat="62.63374607362" lon="17.9879010579">
        <ele>207</ele>
        <time>2017-12-23T10:57:42Z</time>
      </trkpt>
      <trkpt lat="62.63372679525" lon="17.987886724851">
        <ele>207</ele>
        <time>2017-12-23T10:57:43Z</time>
      </trkpt>
      <trkpt lat="62.633707181604" lon="17.987866943567">
        <ele>207</ele>
        <time>2017-12-23T10:57:44Z</time>
      </trkpt>
      <trkpt lat="62.63369075308" lon="17.987846240274">
        <ele>207.2</ele>
        <time>2017-12-23T10:57:45Z</time>
      </trkpt>
      <trkpt lat="62.633672061443" lon="17.987831069035">
        <ele>207.4</ele>
        <time>2017-12-23T10:57:46Z</time>
      </trkpt>
      <trkpt lat="62.63365890186" lon="17.987817155081">
        <ele>207.4</ele>
        <time>2017-12-23T10:57:47Z</time>
      </trkpt>
      <trkpt lat="62.63363627073" lon="17.987790081544">
        <ele>207.6</ele>
        <time>2017-12-23T10:57:48Z</time>
      </trkpt>
      <trkpt lat="62.633614310152" lon="17.987768037147">
        <ele>207.8</ele>
        <time>2017-12-23T10:57:49Z</time>
      </trkpt>
      <trkpt lat="62.633594528868" lon="17.987737275574">
        <ele>208</ele>
        <time>2017-12-23T10:57:50Z</time>
      </trkpt>
      <trkpt lat="62.633577848887" lon="17.987718081023">
        <ele>208.2</ele>
        <time>2017-12-23T10:57:51Z</time>
      </trkpt>
      <trkpt lat="62.633558486698" lon="17.987690420753">
        <ele>208.4</ele>
        <time>2017-12-23T10:57:52Z</time>
      </trkpt>
      <trkpt lat="62.633540381794" lon="17.987666448519">
        <ele>208.4</ele>
        <time>2017-12-23T10:57:53Z</time>
      </trkpt>
      <trkpt lat="62.633521941614" lon="17.987638452973">
        <ele>208.4</ele>
        <time>2017-12-23T10:57:54Z</time>
      </trkpt>
      <trkpt lat="62.633501070683" lon="17.987612469083">
        <ele>208.6</ele>
        <time>2017-12-23T10:57:55Z</time>
      </trkpt>
      <trkpt lat="62.633480199752" lon="17.987595872921">
        <ele>208.4</ele>
        <time>2017-12-23T10:57:56Z</time>
      </trkpt>
      <trkpt lat="62.633464274142" lon="17.987566703909">
        <ele>208.6</ele>
        <time>2017-12-23T10:57:57Z</time>
      </trkpt>
      <trkpt lat="62.633448767627" lon="17.987538792182">
        <ele>208.6</ele>
        <time>2017-12-23T10:57:58Z</time>
      </trkpt>
      <trkpt lat="62.633436949148" lon="17.987523788581">
        <ele>208.8</ele>
        <time>2017-12-23T10:57:59Z</time>
      </trkpt>
      <trkpt lat="62.633418089873" lon="17.987488500782">
        <ele>208.8</ele>
        <time>2017-12-23T10:58:00Z</time>
      </trkpt>
      <trkpt lat="62.633408366869" lon="17.98745262625">
        <ele>208.8</ele>
        <time>2017-12-23T10:58:01Z</time>
      </trkpt>
      <trkpt lat="62.633398392408" lon="17.987422702867">
        <ele>209</ele>
        <time>2017-12-23T10:58:02Z</time>
      </trkpt>
      <trkpt lat="62.633383472626" lon="17.98738389467">
        <ele>209.2</ele>
        <time>2017-12-23T10:58:03Z</time>
      </trkpt>
      <trkpt lat="62.633365367722" lon="17.987333854727">
        <ele>209.6</ele>
        <time>2017-12-23T10:58:04Z</time>
      </trkpt>
      <trkpt lat="62.633344832067" lon="17.987287083725">
        <ele>209.8</ele>
        <time>2017-12-23T10:58:05Z</time>
      </trkpt>
      <trkpt lat="62.633324631688" lon="17.987226650226">
        <ele>210</ele>
        <time>2017-12-23T10:58:06Z</time>
      </trkpt>
      <trkpt lat="62.633310717734" lon="17.987157667189">
        <ele>209.8</ele>
        <time>2017-12-23T10:58:07Z</time>
      </trkpt>
      <trkpt lat="62.633284063292" lon="17.98705113324">
        <ele>209.6</ele>
        <time>2017-12-23T10:58:08Z</time>
      </trkpt>
      <trkpt lat="62.633266293664" lon="17.986954238476">
        <ele>209</ele>
        <time>2017-12-23T10:58:09Z</time>
      </trkpt>
      <trkpt lat="62.633246931475" lon="17.986862708128">
        <ele>208</ele>
        <time>2017-12-23T10:58:10Z</time>
      </trkpt>
      <trkpt lat="62.633233185159" lon="17.986775704006">
        <ele>207</ele>
        <time>2017-12-23T10:58:11Z</time>
      </trkpt>
      <trkpt lat="62.633224216526" lon="17.986714013222">
        <ele>206.6</ele>
        <time>2017-12-23T10:58:12Z</time>
      </trkpt>
      <trkpt lat="62.633217846282" lon="17.986607227816">
        <ele>206.2</ele>
        <time>2017-12-23T10:58:13Z</time>
      </trkpt>
      <trkpt lat="62.63322220487" lon="17.986512512346">
        <ele>205.8</ele>
        <time>2017-12-23T10:58:14Z</time>
      </trkpt>
      <trkpt lat="62.633220277033" lon="17.986428022794">
        <ele>205.6</ele>
        <time>2017-12-23T10:58:15Z</time>
      </trkpt>
      <trkpt lat="62.633214325884" lon="17.986341270129">
        <ele>205.8</ele>
        <time>2017-12-23T10:58:16Z</time>
      </trkpt>
      <trkpt lat="62.633209883477" lon="17.986261642079">
        <ele>206.2</ele>
        <time>2017-12-23T10:58:17Z</time>
      </trkpt>
      <trkpt lat="62.633205943984" lon="17.986136416493">
        <ele>206.2</ele>
        <time>2017-12-23T10:58:18Z</time>
      </trkpt>
      <trkpt lat="62.633203848509" lon="17.986023428481">
        <ele>206</ele>
        <time>2017-12-23T10:58:19Z</time>
      </trkpt>
      <trkpt lat="62.633200160473" lon="17.985917229808">
        <ele>205.6</ele>
        <time>2017-12-23T10:58:20Z</time>
      </trkpt>
      <trkpt lat="62.633195215152" lon="17.985815557361">
        <ele>205</ele>
        <time>2017-12-23T10:58:21Z</time>
      </trkpt>
      <trkpt lat="62.633199070826" lon="17.985734001474">
        <ele>204.4</ele>
        <time>2017-12-23T10:58:22Z</time>
      </trkpt>
      <trkpt lat="62.633200663387" lon="17.985647584085">
        <ele>203.6</ele>
        <time>2017-12-23T10:58:23Z</time>
      </trkpt>
      <trkpt lat="62.633209883477" lon="17.985581199437">
        <ele>203.4</ele>
        <time>2017-12-23T10:58:24Z</time>
      </trkpt>
      <trkpt lat="62.633217259549" lon="17.985496877523">
        <ele>203.4</ele>
        <time>2017-12-23T10:58:25Z</time>
      </trkpt>
      <trkpt lat="62.633234274806" lon="17.985400485673">
        <ele>203.6</ele>
        <time>2017-12-23T10:58:26Z</time>
      </trkpt>
      <trkpt lat="62.63324148324" lon="17.985295460466">
        <ele>203.8</ele>
        <time>2017-12-23T10:58:27Z</time>
      </trkpt>
      <trkpt lat="62.633249781321" lon="17.985162188256">
        <ele>203.8</ele>
        <time>2017-12-23T10:58:28Z</time>
      </trkpt>
      <trkpt lat="62.633258666135" lon="17.985060180533">
        <ele>203.4</ele>
        <time>2017-12-23T10:58:29Z</time>
      </trkpt>
      <trkpt lat="62.63326746713" lon="17.984926153952">
        <ele>202.8</ele>
        <time>2017-12-23T10:58:30Z</time>
      </trkpt>
      <trkpt lat="62.633279620885" lon="17.984812495388">
        <ele>201.8</ele>
        <time>2017-12-23T10:58:31Z</time>
      </trkpt>
      <trkpt lat="62.633292026097" lon="17.984724485438">
        <ele>201.2</ele>
        <time>2017-12-23T10:58:32Z</time>
      </trkpt>
      <trkpt lat="62.633307867888" lon="17.984616358928">
        <ele>200.6</ele>
        <time>2017-12-23T10:58:33Z</time>
      </trkpt>
      <trkpt lat="62.63332697862" lon="17.984531701738">
        <ele>200.4</ele>
        <time>2017-12-23T10:58:34Z</time>
      </trkpt>
      <trkpt lat="62.633339467651" lon="17.984451319317">
        <ele>200.4</ele>
        <time>2017-12-23T10:58:35Z</time>
      </trkpt>
      <trkpt lat="62.633351705225" lon="17.984385856678">
        <ele>200.6</ele>
        <time>2017-12-23T10:58:36Z</time>
      </trkpt>
      <trkpt lat="62.633369391034" lon="17.984319807306">
        <ele>200.6</ele>
        <time>2017-12-23T10:58:37Z</time>
      </trkpt>
      <trkpt lat="62.633380287504" lon="17.98425241683">
        <ele>200.8</ele>
        <time>2017-12-23T10:58:38Z</time>
      </trkpt>
      <trkpt lat="62.633386406291" lon="17.984188798209">
        <ele>201</ele>
        <time>2017-12-23T10:58:39Z</time>
      </trkpt>
      <trkpt lat="62.633388753223" lon="17.984118557887">
        <ele>201.2</ele>
        <time>2017-12-23T10:58:40Z</time>
      </trkpt>
      <trkpt lat="62.633394955829" lon="17.984065835736">
        <ele>201.4</ele>
        <time>2017-12-23T10:58:41Z</time>
      </trkpt>
      <trkpt lat="62.633402331901" lon="17.983999031993">
        <ele>201.6</ele>
        <time>2017-12-23T10:58:42Z</time>
      </trkpt>
      <trkpt lat="62.633400404064" lon="17.983930216594">
        <ele>201.6</ele>
        <time>2017-12-23T10:58:43Z</time>
      </trkpt>
      <trkpt lat="62.6334040921" lon="17.983868190534">
        <ele>201.8</ele>
        <time>2017-12-23T10:58:44Z</time>
      </trkpt>
      <trkpt lat="62.633415491484" lon="17.983807589397">
        <ele>201.8</ele>
        <time>2017-12-23T10:58:45Z</time>
      </trkpt>
      <trkpt lat="62.633409456516" lon="17.983733325763">
        <ele>202</ele>
        <time>2017-12-23T10:58:46Z</time>
      </trkpt>
      <trkpt lat="62.633411551991" lon="17.983684040191">
        <ele>202</ele>
        <time>2017-12-23T10:58:47Z</time>
      </trkpt>
      <trkpt lat="62.633426471773" lon="17.983624361063">
        <ele>202.2</ele>
        <time>2017-12-23T10:58:48Z</time>
      </trkpt>
      <trkpt lat="62.633440469546" lon="17.983566358315">
        <ele>202.2</ele>
        <time>2017-12-23T10:58:49Z</time>
      </trkpt>
      <trkpt lat="62.633453964405" lon="17.983504248436">
        <ele>202.4</ele>
        <time>2017-12-23T10:58:50Z</time>
      </trkpt>
      <trkpt lat="62.633467207807" lon="17.983452448294">
        <ele>202.4</ele>
        <time>2017-12-23T10:58:51Z</time>
      </trkpt>
      <trkpt lat="62.633481373218" lon="17.98339830122">
        <ele>202.2</ele>
        <time>2017-12-23T10:58:52Z</time>
      </trkpt>
      <trkpt lat="62.633493191697" lon="17.983344237965">
        <ele>202.2</ele>
        <time>2017-12-23T10:58:53Z</time>
      </trkpt>
      <trkpt lat="62.633507440927" lon="17.983284139742">
        <ele>202.2</ele>
        <time>2017-12-23T10:58:54Z</time>
      </trkpt>
      <trkpt lat="62.633518840311" lon="17.983221694587">
        <ele>202</ele>
        <time>2017-12-23T10:58:55Z</time>
      </trkpt>
      <trkpt lat="62.633529988238" lon="17.983164110934">
        <ele>202.2</ele>
        <time>2017-12-23T10:58:56Z</time>
      </trkpt>
      <trkpt lat="62.633545075658" lon="17.983112646068">
        <ele>202.2</ele>
        <time>2017-12-23T10:58:57Z</time>
      </trkpt>
      <trkpt lat="62.633553709015" lon="17.98305715789">
        <ele>202.2</ele>
        <time>2017-12-23T10:58:58Z</time>
      </trkpt>
      <trkpt lat="62.633570221358" lon="17.983004603377">
        <ele>202.4</ele>
        <time>2017-12-23T10:58:59Z</time>
      </trkpt>
      <trkpt lat="62.633586901339" lon="17.982953976701">
        <ele>202.4</ele>
        <time>2017-12-23T10:59:00Z</time>
      </trkpt>
      <trkpt lat="62.63360190494" lon="17.982895722496">
        <ele>202.6</ele>
        <time>2017-12-23T10:59:01Z</time>
      </trkpt>
      <trkpt lat="62.633611795582" lon="17.982847861847">
        <ele>202.4</ele>
        <time>2017-12-23T10:59:02Z</time>
      </trkpt>
      <trkpt lat="62.633625038984" lon="17.98278223157">
        <ele>202.4</ele>
        <time>2017-12-23T10:59:03Z</time>
      </trkpt>
      <trkpt lat="62.633639874947" lon="17.982731856351">
        <ele>202.4</ele>
        <time>2017-12-23T10:59:04Z</time>
      </trkpt>
      <trkpt lat="62.633649430313" lon="17.982688941023">
        <ele>202.4</ele>
        <time>2017-12-23T10:59:05Z</time>
      </trkpt>
      <trkpt lat="62.633661164973" lon="17.982632614655">
        <ele>202.2</ele>
        <time>2017-12-23T10:59:06Z</time>
      </trkpt>
      <trkpt lat="62.633667870493" lon="17.982585340739">
        <ele>202.2</ele>
        <time>2017-12-23T10:59:07Z</time>
      </trkpt>
      <trkpt lat="62.633672229081" lon="17.982526164525">
        <ele>202.2</ele>
        <time>2017-12-23T10:59:08Z</time>
      </trkpt>
      <trkpt lat="62.633679688972" lon="17.982479980256">
        <ele>202.2</ele>
        <time>2017-12-23T10:59:09Z</time>
      </trkpt>
      <trkpt lat="62.633686310673" lon="17.982418540929">
        <ele>202.2</ele>
        <time>2017-12-23T10:59:10Z</time>
      </trkpt>
      <trkpt lat="62.633685137207" lon="17.98234721096">
        <ele>202.2</ele>
        <time>2017-12-23T10:59:11Z</time>
      </trkpt>
      <trkpt lat="62.633688406148" lon="17.98228769947">
        <ele>202.2</ele>
        <time>2017-12-23T10:59:12Z</time>
      </trkpt>
      <trkpt lat="62.6336890767" lon="17.982209496343">
        <ele>202.2</ele>
        <time>2017-12-23T10:59:13Z</time>
      </trkpt>
      <trkpt lat="62.633686143035" lon="17.982150655405">
        <ele>202.2</ele>
        <time>2017-12-23T10:59:14Z</time>
      </trkpt>
      <trkpt lat="62.633688825243" lon="17.982087288241">
        <ele>202.2</ele>
        <time>2017-12-23T10:59:15Z</time>
      </trkpt>
      <trkpt lat="62.633692261822" lon="17.982021071231">
        <ele>202.2</ele>
        <time>2017-12-23T10:59:16Z</time>
      </trkpt>
      <trkpt lat="62.633696201315" lon="17.981983352681">
        <ele>202.2</ele>
        <time>2017-12-23T10:59:17Z</time>
      </trkpt>
      <trkpt lat="62.633708271251" lon="17.98192560139">
        <ele>202.4</ele>
        <time>2017-12-23T10:59:18Z</time>
      </trkpt>
      <trkpt lat="62.633709277079" lon="17.981880422949">
        <ele>202.4</ele>
        <time>2017-12-23T10:59:19Z</time>
      </trkpt>
      <trkpt lat="62.633711288735" lon="17.981826275875">
        <ele>202.4</ele>
        <time>2017-12-23T10:59:20Z</time>
      </trkpt>
      <trkpt lat="62.633708103613" lon="17.981774475733">
        <ele>202.6</ele>
        <time>2017-12-23T10:59:21Z</time>
      </trkpt>
      <trkpt lat="62.63371003145" lon="17.981722340315">
        <ele>202.6</ele>
        <time>2017-12-23T10:59:22Z</time>
      </trkpt>
      <trkpt lat="62.633714892952" lon="17.981676742779">
        <ele>202.6</ele>
        <time>2017-12-23T10:59:23Z</time>
      </trkpt>
      <trkpt lat="62.633721514653" lon="17.981618069479">
        <ele>202.8</ele>
        <time>2017-12-23T10:59:24Z</time>
      </trkpt>
      <trkpt lat="62.633720005911" lon="17.981555624324">
        <ele>202.8</ele>
        <time>2017-12-23T10:59:25Z</time>
      </trkpt>
      <trkpt lat="62.63372008973" lon="17.981501058155">
        <ele>202.8</ele>
        <time>2017-12-23T10:59:26Z</time>
      </trkpt>
      <trkpt lat="62.633722269024" lon="17.981440205561">
        <ele>202.8</ele>
        <time>2017-12-23T10:59:27Z</time>
      </trkpt>
      <trkpt lat="62.633728387811" lon="17.981385052659">
        <ele>203</ele>
        <time>2017-12-23T10:59:28Z</time>
      </trkpt>
      <trkpt lat="62.633734674236" lon="17.981327385187">
        <ele>203</ele>
        <time>2017-12-23T10:59:29Z</time>
      </trkpt>
      <trkpt lat="62.63374355905" lon="17.981265778222">
        <ele>203</ele>
        <time>2017-12-23T10:59:30Z</time>
      </trkpt>
      <trkpt lat="62.63375529371" lon="17.981201656687">
        <ele>203</ele>
        <time>2017-12-23T10:59:31Z</time>
      </trkpt>
      <trkpt lat="62.633771973691" lon="17.981149185993">
        <ele>203</ele>
        <time>2017-12-23T10:59:32Z</time>
      </trkpt>
      <trkpt lat="62.633786977292" lon="17.981093362539">
        <ele>203</ele>
        <time>2017-12-23T10:59:33Z</time>
      </trkpt>
      <trkpt lat="62.633801310341" lon="17.981053297057">
        <ele>203</ele>
        <time>2017-12-23T10:59:34Z</time>
      </trkpt>
      <trkpt lat="62.633823354738" lon="17.981019601819">
        <ele>203</ele>
        <time>2017-12-23T10:59:35Z</time>
      </trkpt>
      <trkpt lat="62.633845734411" lon="17.980980709803">
        <ele>203</ele>
        <time>2017-12-23T10:59:36Z</time>
      </trkpt>
      <trkpt lat="62.633858810175" lon="17.980944751452">
        <ele>203</ele>
        <time>2017-12-23T10:59:37Z</time>
      </trkpt>
      <trkpt lat="62.633878675278" lon="17.980906529988">
        <ele>203</ele>
        <time>2017-12-23T10:59:38Z</time>
      </trkpt>
      <trkpt lat="62.633895019983" lon="17.980875014044">
        <ele>203.2</ele>
        <time>2017-12-23T10:59:39Z</time>
      </trkpt>
      <trkpt lat="62.633907676652" lon="17.980839474788">
        <ele>203</ele>
        <time>2017-12-23T10:59:40Z</time>
      </trkpt>
      <trkpt lat="62.633923183167" lon="17.980799493125">
        <ele>203.2</ele>
        <time>2017-12-23T10:59:41Z</time>
      </trkpt>
      <trkpt lat="62.63394137189" lon="17.980771497579">
        <ele>203</ele>
        <time>2017-12-23T10:59:42Z</time>
      </trkpt>
      <trkpt lat="62.633960147346" lon="17.980731767373">
        <ele>203</ele>
        <time>2017-12-23T10:59:43Z</time>
      </trkpt>
      <trkpt lat="62.633979509535" lon="17.980690193149">
        <ele>203.2</ele>
        <time>2017-12-23T10:59:44Z</time>
      </trkpt>
      <trkpt lat="62.633994261679" lon="17.980654234798">
        <ele>203.2</ele>
        <time>2017-12-23T10:59:45Z</time>
      </trkpt>
      <trkpt lat="62.63401680899" lon="17.980616683886">
        <ele>203.4</ele>
        <time>2017-12-23T10:59:46Z</time>
      </trkpt>
      <trkpt lat="62.634040948862" lon="17.98059371748">
        <ele>203.8</ele>
        <time>2017-12-23T10:59:47Z</time>
      </trkpt>
      <trkpt lat="62.634060143413" lon="17.980544096632">
        <ele>203.8</ele>
        <time>2017-12-23T10:59:48Z</time>
      </trkpt>
      <trkpt lat="62.63407883505" lon="17.980510988127">
        <ele>204</ele>
        <time>2017-12-23T10:59:49Z</time>
      </trkpt>
      <trkpt lat="62.634088558054" lon="17.980468491894">
        <ele>204.2</ele>
        <time>2017-12-23T10:59:50Z</time>
      </trkpt>
      <trkpt lat="62.634105740949" lon="17.980419038684">
        <ele>204.2</ele>
        <time>2017-12-23T10:59:51Z</time>
      </trkpt>
      <trkpt lat="62.634119487265" lon="17.980381990686">
        <ele>204.2</ele>
        <time>2017-12-23T10:59:52Z</time>
      </trkpt>
      <trkpt lat="62.634141364024" lon="17.980342428118">
        <ele>204.2</ele>
        <time>2017-12-23T10:59:53Z</time>
      </trkpt>
      <trkpt lat="62.634164246611" lon="17.980301775903">
        <ele>204.2</ele>
        <time>2017-12-23T10:59:54Z</time>
      </trkpt>
      <trkpt lat="62.634183105886" lon="17.980262380973">
        <ele>204.4</ele>
        <time>2017-12-23T10:59:55Z</time>
      </trkpt>
      <trkpt lat="62.634202132799" lon="17.980210413193">
        <ele>204.4</ele>
        <time>2017-12-23T10:59:56Z</time>
      </trkpt>
      <trkpt lat="62.634220153884" lon="17.98017043153">
        <ele>204.4</ele>
        <time>2017-12-23T10:59:57Z</time>
      </trkpt>
      <trkpt lat="62.634246389231" lon="17.980128689668">
        <ele>204.4</ele>
        <time>2017-12-23T10:59:58Z</time>
      </trkpt>
      <trkpt lat="62.634264997049" lon="17.980080912838">
        <ele>204.4</ele>
        <time>2017-12-23T10:59:59Z</time>
      </trkpt>
      <trkpt lat="62.634289472197" lon="17.980040595899">
        <ele>204.4</ele>
        <time>2017-12-23T11:00:00Z</time>
      </trkpt>
      <trkpt lat="62.634310426947" lon="17.979987119377">
        <ele>204.2</ele>
        <time>2017-12-23T11:00:01Z</time>
      </trkpt>
      <trkpt lat="62.634324173263" lon="17.979950574293">
        <ele>204.2</ele>
        <time>2017-12-23T11:00:02Z</time>
      </trkpt>
      <trkpt lat="62.634342697262" lon="17.979892487726">
        <ele>204.2</ele>
        <time>2017-12-23T11:00:03Z</time>
      </trkpt>
      <trkpt lat="62.634358455234" lon="17.979842280145">
        <ele>204.2</ele>
        <time>2017-12-23T11:00:04Z</time>
      </trkpt>
      <trkpt lat="62.634375302853" lon="17.979786037596">
        <ele>204.2</ele>
        <time>2017-12-23T11:00:05Z</time>
      </trkpt>
      <trkpt lat="62.634389468264" lon="17.97974044006">
        <ele>204</ele>
        <time>2017-12-23T11:00:06Z</time>
      </trkpt>
      <trkpt lat="62.634402879304" lon="17.979693249963">
        <ele>204.2</ele>
        <time>2017-12-23T11:00:07Z</time>
      </trkpt>
      <trkpt lat="62.634417379991" lon="17.979635247215">
        <ele>204.2</ele>
        <time>2017-12-23T11:00:08Z</time>
      </trkpt>
      <trkpt lat="62.634430623393" lon="17.979587302747">
        <ele>204</ele>
        <time>2017-12-23T11:00:09Z</time>
      </trkpt>
      <trkpt lat="62.634440262578" lon="17.979524438497">
        <ele>203.8</ele>
        <time>2017-12-23T11:00:10Z</time>
      </trkpt>
      <trkpt lat="62.634445878451" lon="17.979476913124">
        <ele>204</ele>
        <time>2017-12-23T11:00:11Z</time>
      </trkpt>
      <trkpt lat="62.634459289491" lon="17.979423855697">
        <ele>203.8</ele>
        <time>2017-12-23T11:00:12Z</time>
      </trkpt>
      <trkpt lat="62.63447194616" lon="17.979364260388">
        <ele>203.8</ele>
        <time>2017-12-23T11:00:13Z</time>
      </trkpt>
      <trkpt lat="62.634479741327" lon="17.979314723359">
        <ele>203.8</ele>
        <time>2017-12-23T11:00:14Z</time>
      </trkpt>
      <trkpt lat="62.634488290865" lon="17.979260827742">
        <ele>203.8</ele>
        <time>2017-12-23T11:00:15Z</time>
      </trkpt>
      <trkpt lat="62.634498013869" lon="17.979208105591">
        <ele>203.8</ele>
        <time>2017-12-23T11:00:16Z</time>
      </trkpt>
      <trkpt lat="62.634506228131" lon="17.979160161123">
        <ele>203.8</ele>
        <time>2017-12-23T11:00:17Z</time>
      </trkpt>
      <trkpt lat="62.634516454049" lon="17.979106936058">
        <ele>203.8</ele>
        <time>2017-12-23T11:00:18Z</time>
      </trkpt>
      <trkpt lat="62.63452642851" lon="17.979051280242">
        <ele>203.8</ele>
        <time>2017-12-23T11:00:19Z</time>
      </trkpt>
      <trkpt lat="62.63453481041" lon="17.978994115684">
        <ele>203.6</ele>
        <time>2017-12-23T11:00:20Z</time>
      </trkpt>
      <trkpt lat="62.634545623061" lon="17.978944494836">
        <ele>203.6</ele>
        <time>2017-12-23T11:00:21Z</time>
      </trkpt>
      <trkpt lat="62.63456414706" lon="17.978859921465">
        <ele>203.6</ele>
        <time>2017-12-23T11:00:23Z</time>
      </trkpt>
      <trkpt lat="62.634576384634" lon="17.97882429839">
        <ele>203.6</ele>
        <time>2017-12-23T11:00:24Z</time>
      </trkpt>
      <trkpt lat="62.634594908633" lon="17.97879328536">
        <ele>203.6</ele>
        <time>2017-12-23T11:00:25Z</time>
      </trkpt>
      <trkpt lat="62.63461611484" lon="17.978764032529">
        <ele>203.6</ele>
        <time>2017-12-23T11:00:26Z</time>
      </trkpt>
      <trkpt lat="62.634631872812" lon="17.978747436367">
        <ele>203.6</ele>
        <time>2017-12-23T11:00:27Z</time>
      </trkpt>
      <trkpt lat="62.634653330476" lon="17.978730002015">
        <ele>203.6</ele>
        <time>2017-12-23T11:00:28Z</time>
      </trkpt>
      <trkpt lat="62.634673363217" lon="17.978726481617">
        <ele>203.6</ele>
        <time>2017-12-23T11:00:29Z</time>
      </trkpt>
      <trkpt lat="62.634695826709" lon="17.978734947336">
        <ele>203.6</ele>
        <time>2017-12-23T11:00:30Z</time>
      </trkpt>
      <trkpt lat="62.63471921221" lon="17.978748106919">
        <ele>203.6</ele>
        <time>2017-12-23T11:00:31Z</time>
      </trkpt>
      <trkpt lat="62.634742849168" lon="17.978765205995">
        <ele>203.6</ele>
        <time>2017-12-23T11:00:32Z</time>
      </trkpt>
      <trkpt lat="62.63476698904" lon="17.978777192112">
        <ele>203.8</ele>
        <time>2017-12-23T11:00:33Z</time>
      </trkpt>
      <trkpt lat="62.634800768097" lon="17.978793536817">
        <ele>203.8</ele>
        <time>2017-12-23T11:00:34Z</time>
      </trkpt>
      <trkpt lat="62.634830859118" lon="17.97881004916">
        <ele>203.8</ele>
        <time>2017-12-23T11:00:35Z</time>
      </trkpt>
      <trkpt lat="62.634852652058" lon="17.978815832671">
        <ele>203.6</ele>
        <time>2017-12-23T11:00:36Z</time>
      </trkpt>
      <trkpt lat="62.634883581269" lon="17.978825388037">
        <ele>203.4</ele>
        <time>2017-12-23T11:00:37Z</time>
      </trkpt>
      <trkpt lat="62.634917444145" lon="17.97884273857">
        <ele>203.2</ele>
        <time>2017-12-23T11:00:38Z</time>
      </trkpt>
      <trkpt lat="62.634942422207" lon="17.978851036651">
        <ele>203</ele>
        <time>2017-12-23T11:00:39Z</time>
      </trkpt>
      <trkpt lat="62.634972597047" lon="17.978870985573">
        <ele>202.6</ele>
        <time>2017-12-23T11:00:40Z</time>
      </trkpt>
      <trkpt lat="62.634997323652" lon="17.97887961893">
        <ele>202.2</ele>
        <time>2017-12-23T11:00:41Z</time>
      </trkpt>
      <trkpt lat="62.63501844604" lon="17.978888419925">
        <ele>202</ele>
        <time>2017-12-23T11:00:42Z</time>
      </trkpt>
      <trkpt lat="62.635043927016" lon="17.978898226748">
        <ele>202</ele>
        <time>2017-12-23T11:00:43Z</time>
      </trkpt>
      <trkpt lat="62.635063875938" lon="17.978904932268">
        <ele>202</ele>
        <time>2017-12-23T11:00:44Z</time>
      </trkpt>
      <trkpt lat="62.635090362742" lon="17.978916583109">
        <ele>202</ele>
        <time>2017-12-23T11:00:45Z</time>
      </trkpt>
      <trkpt lat="62.635113664424" lon="17.978924210638">
        <ele>202</ele>
        <time>2017-12-23T11:00:46Z</time>
      </trkpt>
      <trkpt lat="62.635139899771" lon="17.978934352737">
        <ele>201.8</ele>
        <time>2017-12-23T11:00:47Z</time>
      </trkpt>
      <trkpt lat="62.635172840638" lon="17.978947344682">
        <ele>201.8</ele>
        <time>2017-12-23T11:00:48Z</time>
      </trkpt>
      <trkpt lat="62.635203015478" lon="17.97895673241">
        <ele>202</ele>
        <time>2017-12-23T11:00:49Z</time>
      </trkpt>
      <trkpt lat="62.635229753739" lon="17.978959833713">
        <ele>202</ele>
        <time>2017-12-23T11:00:50Z</time>
      </trkpt>
      <trkpt lat="62.635260263855" lon="17.97896762888">
        <ele>201.8</ele>
        <time>2017-12-23T11:00:51Z</time>
      </trkpt>
      <trkpt lat="62.635284068451" lon="17.978967461242">
        <ele>201.8</ele>
        <time>2017-12-23T11:00:52Z</time>
      </trkpt>
      <trkpt lat="62.635314578567" lon="17.978973999124">
        <ele>201.8</ele>
        <time>2017-12-23T11:00:53Z</time>
      </trkpt>
      <trkpt lat="62.63534282557" lon="17.978975926961">
        <ele>201.6</ele>
        <time>2017-12-23T11:00:54Z</time>
      </trkpt>
      <trkpt lat="62.635371826944" lon="17.97897852535">
        <ele>201.4</ele>
        <time>2017-12-23T11:00:55Z</time>
      </trkpt>
      <trkpt lat="62.635398062291" lon="17.978974585857">
        <ele>201.4</ele>
        <time>2017-12-23T11:00:56Z</time>
      </trkpt>
      <trkpt lat="62.635420693421" lon="17.978970897821">
        <ele>201.4</ele>
        <time>2017-12-23T11:00:57Z</time>
      </trkpt>
      <trkpt lat="62.635455394487" lon="17.978965701043">
        <ele>201.6</ele>
        <time>2017-12-23T11:00:58Z</time>
      </trkpt>
      <trkpt lat="62.635482635662" lon="17.978958157333">
        <ele>201.4</ele>
        <time>2017-12-23T11:00:59Z</time>
      </trkpt>
      <trkpt lat="62.635520102755" lon="17.978953044374">
        <ele>201.6</ele>
        <time>2017-12-23T11:01:00Z</time>
      </trkpt>
      <trkpt lat="62.635554217088" lon="17.978955223668">
        <ele>201.6</ele>
        <time>2017-12-23T11:01:01Z</time>
      </trkpt>
      <trkpt lat="62.635585733032" lon="17.978956648591">
        <ele>201.2</ele>
        <time>2017-12-23T11:01:02Z</time>
      </trkpt>
      <trkpt lat="62.635621356107" lon="17.978958995523">
        <ele>201</ele>
        <time>2017-12-23T11:01:03Z</time>
      </trkpt>
      <trkpt lat="62.635657482096" lon="17.978957738238">
        <ele>200.6</ele>
        <time>2017-12-23T11:01:04Z</time>
      </trkpt>
      <trkpt lat="62.635691847886" lon="17.978962767378">
        <ele>200.4</ele>
        <time>2017-12-23T11:01:05Z</time>
      </trkpt>
      <trkpt lat="62.635725710762" lon="17.978961007179">
        <ele>200</ele>
        <time>2017-12-23T11:01:06Z</time>
      </trkpt>
      <trkpt lat="62.635755550326" lon="17.978958827885">
        <ele>199.8</ele>
        <time>2017-12-23T11:01:07Z</time>
      </trkpt>
      <trkpt lat="62.635795783446" lon="17.978953966383">
        <ele>199.6</ele>
        <time>2017-12-23T11:01:08Z</time>
      </trkpt>
      <trkpt lat="62.635824533363" lon="17.978955810401">
        <ele>199.4</ele>
        <time>2017-12-23T11:01:09Z</time>
      </trkpt>
      <trkpt lat="62.635856384583" lon="17.978966958328">
        <ele>199.4</ele>
        <time>2017-12-23T11:01:10Z</time>
      </trkpt>
      <trkpt lat="62.63587926717" lon="17.978969975812">
        <ele>199.4</ele>
        <time>2017-12-23T11:01:11Z</time>
      </trkpt>
      <trkpt lat="62.635906759802" lon="17.978976597513">
        <ele>199.4</ele>
        <time>2017-12-23T11:01:12Z</time>
      </trkpt>
      <trkpt lat="62.63592872038" lon="17.978985566146">
        <ele>199.4</ele>
        <time>2017-12-23T11:01:13Z</time>
      </trkpt>
      <trkpt lat="62.635954788089" lon="17.978979614997">
        <ele>199.6</ele>
        <time>2017-12-23T11:01:14Z</time>
      </trkpt>
      <trkpt lat="62.635974066459" lon="17.978988332173">
        <ele>199.6</ele>
        <time>2017-12-23T11:01:15Z</time>
      </trkpt>
      <trkpt lat="62.635987142223" lon="17.978995792064">
        <ele>199.8</ele>
        <time>2017-12-23T11:01:16Z</time>
      </trkpt>
      <trkpt lat="62.635999379797" lon="17.979005263611">
        <ele>200</ele>
        <time>2017-12-23T11:01:17Z</time>
      </trkpt>
      <trkpt lat="62.636015221588" lon="17.979017752642">
        <ele>200.4</ele>
        <time>2017-12-23T11:01:18Z</time>
      </trkpt>
      <trkpt lat="62.636031063379" lon="17.979029990216">
        <ele>200.6</ele>
        <time>2017-12-23T11:01:19Z</time>
      </trkpt>
      <trkpt lat="62.636044474419" lon="17.979057901943">
        <ele>200.8</ele>
        <time>2017-12-23T11:01:20Z</time>
      </trkpt>
      <trkpt lat="62.636051263758" lon="17.979089082611">
        <ele>201</ele>
        <time>2017-12-23T11:01:21Z</time>
      </trkpt>
      <trkpt lat="62.636050928482" lon="17.97912437041">
        <ele>201</ele>
        <time>2017-12-23T11:01:22Z</time>
      </trkpt>
      <trkpt lat="62.636047659541" lon="17.979161334589">
        <ele>201.2</ele>
        <time>2017-12-23T11:01:23Z</time>
      </trkpt>
      <trkpt lat="62.636029806094" lon="17.979228892703">
        <ele>201.2</ele>
        <time>2017-12-23T11:01:25Z</time>
      </trkpt>
      <trkpt lat="62.636025363687" lon="17.979251691471">
        <ele>201.2</ele>
        <time>2017-12-23T11:01:26Z</time>
      </trkpt>
      <trkpt lat="62.636020418366" lon="17.979287566003">
        <ele>201</ele>
        <time>2017-12-23T11:01:27Z</time>
      </trkpt>
      <trkpt lat="62.636021591832" lon="17.979343557095">
        <ele>200.8</ele>
        <time>2017-12-23T11:01:28Z</time>
      </trkpt>
      <trkpt lat="62.636024022583" lon="17.979396111608">
        <ele>200.8</ele>
        <time>2017-12-23T11:01:29Z</time>
      </trkpt>
      <trkpt lat="62.636017736158" lon="17.97943785347">
        <ele>200.8</ele>
        <time>2017-12-23T11:01:30Z</time>
      </trkpt>
      <trkpt lat="62.636015473045" lon="17.979607419307">
        <ele>200.6</ele>
        <time>2017-12-23T11:01:31Z</time>
      </trkpt>
      <trkpt lat="62.636007594059" lon="17.979716551645">
        <ele>200.4</ele>
        <time>2017-12-23T11:01:32Z</time>
      </trkpt>
      <trkpt lat="62.636003654566" lon="17.979849320941">
        <ele>200</ele>
        <time>2017-12-23T11:01:33Z</time>
      </trkpt>
      <trkpt lat="62.636008599887" lon="17.979968763016">
        <ele>199</ele>
        <time>2017-12-23T11:01:34Z</time>
      </trkpt>
      <trkpt lat="62.636021927108" lon="17.980074207318">
        <ele>198.4</ele>
        <time>2017-12-23T11:01:35Z</time>
      </trkpt>
      <trkpt lat="62.636047408084" lon="17.980217286351">
        <ele>197.2</ele>
        <time>2017-12-23T11:01:36Z</time>
      </trkpt>
      <trkpt lat="62.636067524644" lon="17.980327256879">
        <ele>196.2</ele>
        <time>2017-12-23T11:01:37Z</time>
      </trkpt>
      <trkpt lat="62.636089066127" lon="17.980449045886">
        <ele>195.2</ele>
        <time>2017-12-23T11:01:38Z</time>
      </trkpt>
      <trkpt lat="62.63610557847" lon="17.980544599546">
        <ele>194.6</ele>
        <time>2017-12-23T11:01:39Z</time>
      </trkpt>
      <trkpt lat="62.636116391121" lon="17.980642667776">
        <ele>194.4</ele>
        <time>2017-12-23T11:01:40Z</time>
      </trkpt>
      <trkpt lat="62.636131143265" lon="17.980730845364">
        <ele>194.2</ele>
        <time>2017-12-23T11:01:41Z</time>
      </trkpt>
      <trkpt lat="62.636149918721" lon="17.98082002878">
        <ele>194</ele>
        <time>2017-12-23T11:01:42Z</time>
      </trkpt>
      <trkpt lat="62.636167101616" lon="17.980921533589">
        <ele>194</ele>
        <time>2017-12-23T11:01:43Z</time>
      </trkpt>
      <trkpt lat="62.636183781597" lon="17.981001496915">
        <ele>193.8</ele>
        <time>2017-12-23T11:01:44Z</time>
      </trkpt>
      <trkpt lat="62.636198366103" lon="17.98107148578">
        <ele>193.8</ele>
        <time>2017-12-23T11:01:45Z</time>
      </trkpt>
      <trkpt lat="62.63620783765" lon="17.981131332546">
        <ele>193.6</ele>
        <time>2017-12-23T11:01:46Z</time>
      </trkpt>
      <trkpt lat="62.636214040256" lon="17.981183635602">
        <ele>193.6</ele>
        <time>2017-12-23T11:01:47Z</time>
      </trkpt>
      <trkpt lat="62.636222505975" lon="17.981263515109">
        <ele>193.6</ele>
        <time>2017-12-23T11:01:48Z</time>
      </trkpt>
      <trkpt lat="62.636228289486" lon="17.981347753204">
        <ele>193.6</ele>
        <time>2017-12-23T11:01:49Z</time>
      </trkpt>
      <trkpt lat="62.636240191784" lon="17.981440624656">
        <ele>193.4</ele>
        <time>2017-12-23T11:01:50Z</time>
      </trkpt>
      <trkpt lat="62.63624974715" lon="17.981515475023">
        <ele>193.4</ele>
        <time>2017-12-23T11:01:51Z</time>
      </trkpt>
      <trkpt lat="62.636259470154" lon="17.981615219633">
        <ele>193.4</ele>
        <time>2017-12-23T11:01:52Z</time>
      </trkpt>
      <trkpt lat="62.63626567276" lon="17.981661487721">
        <ele>193.6</ele>
        <time>2017-12-23T11:01:53Z</time>
      </trkpt>
      <trkpt lat="62.636283107112" lon="17.981734326432">
        <ele>193.6</ele>
        <time>2017-12-23T11:01:54Z</time>
      </trkpt>
      <trkpt lat="62.636294841772" lon="17.981889810677">
        <ele>193.8</ele>
        <time>2017-12-23T11:01:55Z</time>
      </trkpt>
      <trkpt lat="62.636299116541" lon="17.981975641333">
        <ele>193.8</ele>
        <time>2017-12-23T11:01:56Z</time>
      </trkpt>
      <trkpt lat="62.636307163165" lon="17.982051832804">
        <ele>194</ele>
        <time>2017-12-23T11:01:57Z</time>
      </trkpt>
      <trkpt lat="62.636313701047" lon="17.982119893832">
        <ele>194</ele>
        <time>2017-12-23T11:01:58Z</time>
      </trkpt>
      <trkpt lat="62.63631596416" lon="17.982192229629">
        <ele>194.2</ele>
        <time>2017-12-23T11:01:59Z</time>
      </trkpt>
      <trkpt lat="62.636319652196" lon="17.982264397788">
        <ele>194.2</ele>
        <time>2017-12-23T11:02:00Z</time>
      </trkpt>
      <trkpt lat="62.636327112087" lon="17.982327848771">
        <ele>194.2</ele>
        <time>2017-12-23T11:02:01Z</time>
      </trkpt>
      <trkpt lat="62.636320658024" lon="17.982389204279">
        <ele>194.2</ele>
        <time>2017-12-23T11:02:02Z</time>
      </trkpt>
      <trkpt lat="62.636318646368" lon="17.982454164004">
        <ele>194.2</ele>
        <time>2017-12-23T11:02:03Z</time>
      </trkpt>
      <trkpt lat="62.636318311092" lon="17.982517866444">
        <ele>194.2</ele>
        <time>2017-12-23T11:02:04Z</time>
      </trkpt>
      <trkpt lat="62.636315377427" lon="17.98259028606">
        <ele>194.2</ele>
        <time>2017-12-23T11:02:05Z</time>
      </trkpt>
      <trkpt lat="62.636313617228" lon="17.982649462274">
        <ele>194.2</ele>
        <time>2017-12-23T11:02:06Z</time>
      </trkpt>
      <trkpt lat="62.636311437934" lon="17.982709225221">
        <ele>194.2</ele>
        <time>2017-12-23T11:02:07Z</time>
      </trkpt>
      <trkpt lat="62.63630925864" lon="17.982764964856">
        <ele>194.2</ele>
        <time>2017-12-23T11:02:08Z</time>
      </trkpt>
      <trkpt lat="62.636308085174" lon="17.982824308708">
        <ele>194.2</ele>
        <time>2017-12-23T11:02:09Z</time>
      </trkpt>
      <trkpt lat="62.636307666079" lon="17.982885915673">
        <ele>194.2</ele>
        <time>2017-12-23T11:02:10Z</time>
      </trkpt>
      <trkpt lat="62.636308252812" lon="17.982940146566">
        <ele>194.2</ele>
        <time>2017-12-23T11:02:11Z</time>
      </trkpt>
      <trkpt lat="62.636307749898" lon="17.982998568409">
        <ele>194.4</ele>
        <time>2017-12-23T11:02:12Z</time>
      </trkpt>
      <trkpt lat="62.636310683563" lon="17.983053469854">
        <ele>194.4</ele>
        <time>2017-12-23T11:02:13Z</time>
      </trkpt>
      <trkpt lat="62.636311521753" lon="17.983115244457">
        <ele>194.4</ele>
        <time>2017-12-23T11:02:14Z</time>
      </trkpt>
      <trkpt lat="62.636311354115" lon="17.983170816454">
        <ele>194.4</ele>
        <time>2017-12-23T11:02:15Z</time>
      </trkpt>
      <trkpt lat="62.636311186477" lon="17.983207864452">
        <ele>194.4</ele>
        <time>2017-12-23T11:02:16Z</time>
      </trkpt>
      <trkpt lat="62.636311018839" lon="17.983275003471">
        <ele>194.4</ele>
        <time>2017-12-23T11:02:17Z</time>
      </trkpt>
      <trkpt lat="62.636308671907" lon="17.98332118774">
        <ele>194.4</ele>
        <time>2017-12-23T11:02:18Z</time>
      </trkpt>
      <trkpt lat="62.636304313319" lon="17.983361504679">
        <ele>194.4</ele>
        <time>2017-12-23T11:02:19Z</time>
      </trkpt>
      <trkpt lat="62.636299367998" lon="17.983410706432">
        <ele>194.4</ele>
        <time>2017-12-23T11:02:20Z</time>
      </trkpt>
      <trkpt lat="62.636295093229" lon="17.983449179353">
        <ele>194.4</ele>
        <time>2017-12-23T11:02:21Z</time>
      </trkpt>
      <trkpt lat="62.636285621682" lon="17.983514474354">
        <ele>194.2</ele>
        <time>2017-12-23T11:02:22Z</time>
      </trkpt>
      <trkpt lat="62.636278077972" lon="17.983568705247">
        <ele>194.4</ele>
        <time>2017-12-23T11:02:23Z</time>
      </trkpt>
      <trkpt lat="62.636271791547" lon="17.983620589208">
        <ele>194.4</ele>
        <time>2017-12-23T11:02:24Z</time>
      </trkpt>
      <trkpt lat="62.636264247837" lon="17.983676412662">
        <ele>194.4</ele>
        <time>2017-12-23T11:02:25Z</time>
      </trkpt>
      <trkpt lat="62.636255698299" lon="17.983722429293">
        <ele>194.4</ele>
        <time>2017-12-23T11:02:26Z</time>
      </trkpt>
      <trkpt lat="62.636247567856" lon="17.983773055969">
        <ele>194.6</ele>
        <time>2017-12-23T11:02:27Z</time>
      </trkpt>
      <trkpt lat="62.636240107965" lon="17.98381571984">
        <ele>194.6</ele>
        <time>2017-12-23T11:02:28Z</time>
      </trkpt>
      <trkpt lat="62.636235078825" lon="17.983860898281">
        <ele>194.8</ele>
        <time>2017-12-23T11:02:29Z</time>
      </trkpt>
      <trkpt lat="62.636233989178" lon="17.983915548269">
        <ele>195</ele>
        <time>2017-12-23T11:02:30Z</time>
      </trkpt>
      <trkpt lat="62.636233486264" lon="17.983969276248">
        <ele>195</ele>
        <time>2017-12-23T11:02:31Z</time>
      </trkpt>
      <trkpt lat="62.636225607278" lon="17.984015628155">
        <ele>195.2</ele>
        <time>2017-12-23T11:02:32Z</time>
      </trkpt>
      <trkpt lat="62.6362204105" lon="17.984063656442">
        <ele>195.2</ele>
        <time>2017-12-23T11:02:33Z</time>
      </trkpt>
      <trkpt lat="62.636214878446" lon="17.984097267861">
        <ele>195.2</ele>
        <time>2017-12-23T11:02:34Z</time>
      </trkpt>
      <trkpt lat="62.63621621955" lon="17.984119647534">
        <ele>195.4</ele>
        <time>2017-12-23T11:02:35Z</time>
      </trkpt>
      <trkpt lat="62.636213369704" lon="17.984203131258">
        <ele>195.4</ele>
        <time>2017-12-23T11:02:36Z</time>
      </trkpt>
      <trkpt lat="62.636211358048" lon="17.984251159545">
        <ele>195.6</ele>
        <time>2017-12-23T11:02:37Z</time>
      </trkpt>
      <trkpt lat="62.636209765487" lon="17.984294074873">
        <ele>195.8</ele>
        <time>2017-12-23T11:02:38Z</time>
      </trkpt>
      <trkpt lat="62.636209011116" lon="17.984340929694">
        <ele>196</ele>
        <time>2017-12-23T11:02:39Z</time>
      </trkpt>
      <trkpt lat="62.63620783765" lon="17.984385186126">
        <ele>196</ele>
        <time>2017-12-23T11:02:40Z</time>
      </trkpt>
      <trkpt lat="62.636205071623" lon="17.98443262768">
        <ele>196.2</ele>
        <time>2017-12-23T11:02:41Z</time>
      </trkpt>
      <trkpt lat="62.636201886501" lon="17.984483002899">
        <ele>196.4</ele>
        <time>2017-12-23T11:02:42Z</time>
      </trkpt>
      <trkpt lat="62.63620448489" lon="17.984524660942">
        <ele>196.4</ele>
        <time>2017-12-23T11:02:43Z</time>
      </trkpt>
      <trkpt lat="62.636203479062" lon="17.984572437772">
        <ele>196.4</ele>
        <time>2017-12-23T11:02:44Z</time>
      </trkpt>
      <trkpt lat="62.636201299768" lon="17.984617951489">
        <ele>196.4</ele>
        <time>2017-12-23T11:02:45Z</time>
      </trkpt>
      <trkpt lat="62.636200629216" lon="17.984658436066">
        <ele>196.4</ele>
        <time>2017-12-23T11:02:46Z</time>
      </trkpt>
      <trkpt lat="62.636195683895" lon="17.984705709982">
        <ele>196.4</ele>
        <time>2017-12-23T11:02:47Z</time>
      </trkpt>
      <trkpt lat="62.636191995859" lon="17.98474359617">
        <ele>196.4</ele>
        <time>2017-12-23T11:02:48Z</time>
      </trkpt>
      <trkpt lat="62.636186296167" lon="17.984786930593">
        <ele>196.6</ele>
        <time>2017-12-23T11:02:49Z</time>
      </trkpt>
      <trkpt lat="62.63618269195" lon="17.984836048527">
        <ele>196.6</ele>
        <time>2017-12-23T11:02:50Z</time>
      </trkpt>
      <trkpt lat="62.636182440493" lon="17.984882316615">
        <ele>196.6</ele>
        <time>2017-12-23T11:02:51Z</time>
      </trkpt>
      <trkpt lat="62.636179674466" lon="17.98493218892">
        <ele>196.8</ele>
        <time>2017-12-23T11:02:52Z</time>
      </trkpt>
      <trkpt lat="62.636177746629" lon="17.984977786456">
        <ele>196.8</ele>
        <time>2017-12-23T11:02:53Z</time>
      </trkpt>
      <trkpt lat="62.63617682462" lon="17.985026652933">
        <ele>197</ele>
        <time>2017-12-23T11:02:54Z</time>
      </trkpt>
      <trkpt lat="62.636175232059" lon="17.985077111971">
        <ele>197</ele>
        <time>2017-12-23T11:02:55Z</time>
      </trkpt>
      <trkpt lat="62.636172885127" lon="17.985118937652">
        <ele>197.2</ele>
        <time>2017-12-23T11:02:56Z</time>
      </trkpt>
      <trkpt lat="62.636171879299" lon="17.985164870464">
        <ele>197.4</ele>
        <time>2017-12-23T11:02:57Z</time>
      </trkpt>
      <trkpt lat="62.636173304222" lon="17.985199320073">
        <ele>197.4</ele>
        <time>2017-12-23T11:02:58Z</time>
      </trkpt>
      <trkpt lat="62.636173890955" lon="17.985241816306">
        <ele>197.6</ele>
        <time>2017-12-23T11:02:59Z</time>
      </trkpt>
      <trkpt lat="62.63617263367" lon="17.985285988919">
        <ele>197.6</ele>
        <time>2017-12-23T11:03:00Z</time>
      </trkpt>
      <trkpt lat="62.636173220403" lon="17.985323791288">
        <ele>197.6</ele>
        <time>2017-12-23T11:03:01Z</time>
      </trkpt>
      <trkpt lat="62.636168275082" lon="17.985382716045">
        <ele>197.6</ele>
        <time>2017-12-23T11:03:02Z</time>
      </trkpt>
      <trkpt lat="62.6361701191" lon="17.985434851463">
        <ele>197.6</ele>
        <time>2017-12-23T11:03:03Z</time>
      </trkpt>
      <trkpt lat="62.636171041109" lon="17.985485310501">
        <ele>197.6</ele>
        <time>2017-12-23T11:03:04Z</time>
      </trkpt>
      <trkpt lat="62.636171208747" lon="17.985545241086">
        <ele>197.6</ele>
        <time>2017-12-23T11:03:05Z</time>
      </trkpt>
      <trkpt lat="62.636163162123" lon="17.985591928269">
        <ele>197.6</ele>
        <time>2017-12-23T11:03:06Z</time>
      </trkpt>
      <trkpt lat="62.636151427463" lon="17.985651439759">
        <ele>197.8</ele>
        <time>2017-12-23T11:03:07Z</time>
      </trkpt>
      <trkpt lat="62.636141369183" lon="17.985699719503">
        <ele>197.8</ele>
        <time>2017-12-23T11:03:08Z</time>
      </trkpt>
      <trkpt lat="62.636129969799" lon="17.985742131917">
        <ele>197.8</ele>
        <time>2017-12-23T11:03:09Z</time>
      </trkpt>
      <trkpt lat="62.636117396949" lon="17.985777671173">
        <ele>197.8</ele>
        <time>2017-12-23T11:03:10Z</time>
      </trkpt>
      <trkpt lat="62.636104907918" lon="17.985815305904">
        <ele>198</ele>
        <time>2017-12-23T11:03:11Z</time>
      </trkpt>
      <trkpt lat="62.636096777475" lon="17.985847743857">
        <ele>198</ele>
        <time>2017-12-23T11:03:12Z</time>
      </trkpt>
      <trkpt lat="62.636067524644" lon="17.98588353457">
        <ele>198.2</ele>
        <time>2017-12-23T11:03:13Z</time>
      </trkpt>
      <trkpt lat="62.636055873803" lon="17.985912284487">
        <ele>198.4</ele>
        <time>2017-12-23T11:03:14Z</time>
      </trkpt>
      <trkpt lat="62.636041959849" lon="17.985932652504">
        <ele>198.6</ele>
        <time>2017-12-23T11:03:15Z</time>
      </trkpt>
      <trkpt lat="62.636027962076" lon="17.985945979725">
        <ele>198.8</ele>
        <time>2017-12-23T11:03:16Z</time>
      </trkpt>
      <trkpt lat="62.636013209932" lon="17.98597825004">
        <ele>198.8</ele>
        <time>2017-12-23T11:03:17Z</time>
      </trkpt>
      <trkpt lat="62.635996110856" lon="17.985998198962">
        <ele>199</ele>
        <time>2017-12-23T11:03:18Z</time>
      </trkpt>
      <trkpt lat="62.635981191074" lon="17.986015633314">
        <ele>199</ele>
        <time>2017-12-23T11:03:19Z</time>
      </trkpt>
      <trkpt lat="62.635965684559" lon="17.986030804553">
        <ele>199</ele>
        <time>2017-12-23T11:03:20Z</time>
      </trkpt>
      <trkpt lat="62.635954285175" lon="17.986043377403">
        <ele>199.2</ele>
        <time>2017-12-23T11:03:21Z</time>
      </trkpt>
      <trkpt lat="62.635937353737" lon="17.986059470651">
        <ele>199.2</ele>
        <time>2017-12-23T11:03:22Z</time>
      </trkpt>
      <trkpt lat="62.635919919385" lon="17.98608302379">
        <ele>199.2</ele>
        <time>2017-12-23T11:03:23Z</time>
      </trkpt>
      <trkpt lat="62.635902820309" lon="17.986104313816">
        <ele>199.4</ele>
        <time>2017-12-23T11:03:24Z</time>
      </trkpt>
      <trkpt lat="62.635888571079" lon="17.986126022937">
        <ele>199.4</ele>
        <time>2017-12-23T11:03:25Z</time>
      </trkpt>
      <trkpt lat="62.635873986573" lon="17.986140523624">
        <ele>199.6</ele>
        <time>2017-12-23T11:03:26Z</time>
      </trkpt>
      <trkpt lat="62.635853199461" lon="17.986175140871">
        <ele>199.6</ele>
        <time>2017-12-23T11:03:27Z</time>
      </trkpt>
      <trkpt lat="62.635837776765" lon="17.986205483349">
        <ele>199.8</ele>
        <time>2017-12-23T11:03:28Z</time>
      </trkpt>
      <trkpt lat="62.635819923318" lon="17.986238843311">
        <ele>199.8</ele>
        <time>2017-12-23T11:03:29Z</time>
      </trkpt>
      <trkpt lat="62.635807601925" lon="17.986265833029">
        <ele>199.8</ele>
        <time>2017-12-23T11:03:30Z</time>
      </trkpt>
      <trkpt lat="62.635799303844" lon="17.986288547978">
        <ele>199.8</ele>
        <time>2017-12-23T11:03:31Z</time>
      </trkpt>
      <trkpt lat="62.635783126777" lon="17.986322410854">
        <ele>199.8</ele>
        <time>2017-12-23T11:03:32Z</time>
      </trkpt>
      <trkpt lat="62.635768123176" lon="17.986349735848">
        <ele>199.8</ele>
        <time>2017-12-23T11:03:33Z</time>
      </trkpt>
      <trkpt lat="62.635755131231" lon="17.986375468281">
        <ele>199.8</ele>
        <time>2017-12-23T11:03:34Z</time>
      </trkpt>
      <trkpt lat="62.635752281385" lon="17.986387538217">
        <ele>199.8</ele>
        <time>2017-12-23T11:03:35Z</time>
      </trkpt>
      <trkpt lat="62.635723866744" lon="17.98643757816">
        <ele>199.6</ele>
        <time>2017-12-23T11:03:36Z</time>
      </trkpt>
      <trkpt lat="62.63570492365" lon="17.986476805452">
        <ele>199.8</ele>
        <time>2017-12-23T11:03:37Z</time>
      </trkpt>
      <trkpt lat="62.635690087687" lon="17.98651552983">
        <ele>199.8</ele>
        <time>2017-12-23T11:03:38Z</time>
      </trkpt>
      <trkpt lat="62.635675922276" lon="17.986551404362">
        <ele>200</ele>
        <time>2017-12-23T11:03:39Z</time>
      </trkpt>
      <trkpt lat="62.635666283091" lon="17.986591050749">
        <ele>200.2</ele>
        <time>2017-12-23T11:03:40Z</time>
      </trkpt>
      <trkpt lat="62.63565463225" lon="17.986626506186">
        <ele>200.4</ele>
        <time>2017-12-23T11:03:41Z</time>
      </trkpt>
      <trkpt lat="62.635640466839" lon="17.986671014075">
        <ele>200.4</ele>
        <time>2017-12-23T11:03:42Z</time>
      </trkpt>
      <trkpt lat="62.635626217609" lon="17.986706301874">
        <ele>200.6</ele>
        <time>2017-12-23T11:03:43Z</time>
      </trkpt>
      <trkpt lat="62.635608615619" lon="17.986733040135">
        <ele>200.4</ele>
        <time>2017-12-23T11:03:44Z</time>
      </trkpt>
      <trkpt lat="62.635590845991" lon="17.986756760912">
        <ele>200.6</ele>
        <time>2017-12-23T11:03:45Z</time>
      </trkpt>
      <trkpt lat="62.635589840163" lon="17.986787773942">
        <ele>200.6</ele>
        <time>2017-12-23T11:03:46Z</time>
      </trkpt>
      <trkpt lat="62.635571986716" lon="17.986821888275">
        <ele>200.8</ele>
        <time>2017-12-23T11:03:47Z</time>
      </trkpt>
      <trkpt lat="62.63555907859" lon="17.986852398391">
        <ele>200.8</ele>
        <time>2017-12-23T11:03:48Z</time>
      </trkpt>
      <trkpt lat="62.635548936491" lon="17.986891290407">
        <ele>201</ele>
        <time>2017-12-23T11:03:49Z</time>
      </trkpt>
      <trkpt lat="62.635533346157" lon="17.986932445536">
        <ele>201</ele>
        <time>2017-12-23T11:03:50Z</time>
      </trkpt>
      <trkpt lat="62.635521108583" lon="17.986974355036">
        <ele>201</ele>
        <time>2017-12-23T11:03:51Z</time>
      </trkpt>
      <trkpt lat="62.635506691715" lon="17.987018779106">
        <ele>201</ele>
        <time>2017-12-23T11:03:52Z</time>
      </trkpt>
      <trkpt lat="62.635492358666" lon="17.987068148497">
        <ele>201.2</ele>
        <time>2017-12-23T11:03:53Z</time>
      </trkpt>
      <trkpt lat="62.63547945054" lon="17.987100502631">
        <ele>201.2</ele>
        <time>2017-12-23T11:03:54Z</time>
      </trkpt>
      <trkpt lat="62.63546771588" lon="17.987137299172">
        <ele>201.4</ele>
        <time>2017-12-23T11:03:55Z</time>
      </trkpt>
      <trkpt lat="62.635455897401" lon="17.987164037433">
        <ele>201.4</ele>
        <time>2017-12-23T11:03:56Z</time>
      </trkpt>
      <trkpt lat="62.635435780841" lon="17.987194547549">
        <ele>201.6</ele>
        <time>2017-12-23T11:03:57Z</time>
      </trkpt>
      <trkpt lat="62.635421783068" lon="17.987224554751">
        <ele>201.8</ele>
        <time>2017-12-23T11:03:58Z</time>
      </trkpt>
      <trkpt lat="62.635406025096" lon="17.987265542242">
        <ele>202</ele>
        <time>2017-12-23T11:03:59Z</time>
      </trkpt>
      <trkpt lat="62.635394290436" lon="17.987307954656">
        <ele>202.4</ele>
        <time>2017-12-23T11:04:00Z</time>
      </trkpt>
      <trkpt lat="62.635384986527" lon="17.987354390382">
        <ele>202.4</ele>
        <time>2017-12-23T11:04:01Z</time>
      </trkpt>
      <trkpt lat="62.635361014293" lon="17.987388420896">
        <ele>202.8</ele>
        <time>2017-12-23T11:04:02Z</time>
      </trkpt>
      <trkpt lat="62.635345675416" lon="17.987418511917">
        <ele>202.8</ele>
        <time>2017-12-23T11:04:03Z</time>
      </trkpt>
      <trkpt lat="62.63533360548" lon="17.987453045345">
        <ele>203</ele>
        <time>2017-12-23T11:04:04Z</time>
      </trkpt>
      <trkpt lat="62.635315249119" lon="17.987489925705">
        <ele>203.2</ele>
        <time>2017-12-23T11:04:05Z</time>
      </trkpt>
      <trkpt lat="62.63530091607" lon="17.987516663966">
        <ele>203.2</ele>
        <time>2017-12-23T11:04:06Z</time>
      </trkpt>
      <trkpt lat="62.635286331564" lon="17.987551113575">
        <ele>203.2</ele>
        <time>2017-12-23T11:04:07Z</time>
      </trkpt>
      <trkpt lat="62.63527241761" lon="17.987579109121">
        <ele>203.2</ele>
        <time>2017-12-23T11:04:08Z</time>
      </trkpt>
      <trkpt lat="62.63526152114" lon="17.987610541246">
        <ele>203.4</ele>
        <time>2017-12-23T11:04:09Z</time>
      </trkpt>
      <trkpt lat="62.635246768996" lon="17.987635519308">
        <ele>203.4</ele>
        <time>2017-12-23T11:04:10Z</time>
      </trkpt>
      <trkpt lat="62.635232016852" lon="17.987670388012">
        <ele>203.4</ele>
        <time>2017-12-23T11:04:11Z</time>
      </trkpt>
      <trkpt lat="62.635215755966" lon="17.987707184553">
        <ele>203.6</ele>
        <time>2017-12-23T11:04:12Z</time>
      </trkpt>
      <trkpt lat="62.635200500908" lon="17.98774012542">
        <ele>203.8</ele>
        <time>2017-12-23T11:04:13Z</time>
      </trkpt>
      <trkpt lat="62.635186754592" lon="17.987770551717">
        <ele>203.8</ele>
        <time>2017-12-23T11:04:14Z</time>
      </trkpt>
      <trkpt lat="62.635168901145" lon="17.987793518123">
        <ele>203.8</ele>
        <time>2017-12-23T11:04:15Z</time>
      </trkpt>
      <trkpt lat="62.635150377146" lon="17.987813467045">
        <ele>203.8</ele>
        <time>2017-12-23T11:04:16Z</time>
      </trkpt>
      <trkpt lat="62.635138558667" lon="17.987851856147">
        <ele>204</ele>
        <time>2017-12-23T11:04:17Z</time>
      </trkpt>
      <trkpt lat="62.635125231446" lon="17.987876079838">
        <ele>204</ele>
        <time>2017-12-23T11:04:18Z</time>
      </trkpt>
      <trkpt lat="62.635107880913" lon="17.987899800615">
        <ele>204</ele>
        <time>2017-12-23T11:04:19Z</time>
      </trkpt>
      <trkpt lat="62.635093380226" lon="17.987928801989">
        <ele>204.2</ele>
        <time>2017-12-23T11:04:20Z</time>
      </trkpt>
      <trkpt lat="62.635077454616" lon="17.987952019852">
        <ele>204.2</ele>
        <time>2017-12-23T11:04:21Z</time>
      </trkpt>
      <trkpt lat="62.635063289205" lon="17.987980937407">
        <ele>204.4</ele>
        <time>2017-12-23T11:04:22Z</time>
      </trkpt>
      <trkpt lat="62.635047447414" lon="17.988007759487">
        <ele>204.6</ele>
        <time>2017-12-23T11:04:23Z</time>
      </trkpt>
      <trkpt lat="62.63503520984" lon="17.988039023974">
        <ele>204.8</ele>
        <time>2017-12-23T11:04:24Z</time>
      </trkpt>
      <trkpt lat="62.63501593147" lon="17.988064002036">
        <ele>204.8</ele>
        <time>2017-12-23T11:04:25Z</time>
      </trkpt>
      <trkpt lat="62.63500335862" lon="17.98808126875">
        <ele>205</ele>
        <time>2017-12-23T11:04:26Z</time>
      </trkpt>
      <trkpt lat="62.634985421354" lon="17.988104905708">
        <ele>205</ele>
        <time>2017-12-23T11:04:27Z</time>
      </trkpt>
      <trkpt lat="62.634967064993" lon="17.988123513526">
        <ele>205.2</ele>
        <time>2017-12-23T11:04:28Z</time>
      </trkpt>
      <trkpt lat="62.634948373356" lon="17.988146563751">
        <ele>205.2</ele>
        <time>2017-12-23T11:04:29Z</time>
      </trkpt>
      <trkpt lat="62.634928340615" lon="17.988164920112">
        <ele>205.2</ele>
        <time>2017-12-23T11:04:30Z</time>
      </trkpt>
      <trkpt lat="62.634911576815" lon="17.98817933698">
        <ele>205.2</ele>
        <time>2017-12-23T11:04:31Z</time>
      </trkpt>
      <trkpt lat="62.634885844382" lon="17.988194508219">
        <ele>205.2</ele>
        <time>2017-12-23T11:04:32Z</time>
      </trkpt>
      <trkpt lat="62.634864638175" lon="17.988208003078">
        <ele>205.2</ele>
        <time>2017-12-23T11:04:33Z</time>
      </trkpt>
      <trkpt lat="62.634847120004" lon="17.988211607295">
        <ele>205.4</ele>
        <time>2017-12-23T11:04:34Z</time>
      </trkpt>
      <trkpt lat="62.634830356204" lon="17.98822376105">
        <ele>205.4</ele>
        <time>2017-12-23T11:04:35Z</time>
      </trkpt>
      <trkpt lat="62.634816609888" lon="17.988227532905">
        <ele>205.4</ele>
        <time>2017-12-23T11:04:36Z</time>
      </trkpt>
      <trkpt lat="62.63479716388" lon="17.98823465752">
        <ele>205.6</ele>
        <time>2017-12-23T11:04:37Z</time>
      </trkpt>
      <trkpt lat="62.634778891338" lon="17.988234406063">
        <ele>205.8</ele>
        <time>2017-12-23T11:04:38Z</time>
      </trkpt>
      <trkpt lat="62.634758020407" lon="17.988237004452">
        <ele>205.8</ele>
        <time>2017-12-23T11:04:39Z</time>
      </trkpt>
      <trkpt lat="62.63474100515" lon="17.988240021936">
        <ele>206</ele>
        <time>2017-12-23T11:04:40Z</time>
      </trkpt>
      <trkpt lat="62.634720469495" lon="17.988239351384">
        <ele>206.2</ele>
        <time>2017-12-23T11:04:41Z</time>
      </trkpt>
      <trkpt lat="62.634698844193" lon="17.988241865954">
        <ele>206.4</ele>
        <time>2017-12-23T11:04:42Z</time>
      </trkpt>
      <trkpt lat="62.634679649642" lon="17.988239099927">
        <ele>206.4</ele>
        <time>2017-12-23T11:04:43Z</time>
      </trkpt>
      <trkpt lat="62.634663221118" lon="17.988244548162">
        <ele>206.6</ele>
        <time>2017-12-23T11:04:44Z</time>
      </trkpt>
      <trkpt lat="62.634642350187" lon="17.98824220123">
        <ele>206.6</ele>
        <time>2017-12-23T11:04:45Z</time>
      </trkpt>
      <trkpt lat="62.634621227799" lon="17.988236752995">
        <ele>206.6</ele>
        <time>2017-12-23T11:04:46Z</time>
      </trkpt>
      <trkpt lat="62.634602452343" lon="17.988262569247">
        <ele>206.6</ele>
        <time>2017-12-23T11:04:47Z</time>
      </trkpt>
      <trkpt lat="62.634580743222" lon="17.988273549536">
        <ele>206.8</ele>
        <time>2017-12-23T11:04:48Z</time>
      </trkpt>
      <trkpt lat="62.634560207567" lon="17.988268352758">
        <ele>206.8</ele>
        <time>2017-12-23T11:04:49Z</time>
      </trkpt>
      <trkpt lat="62.634542270301" lon="17.988271118785">
        <ele>206.8</ele>
        <time>2017-12-23T11:04:50Z</time>
      </trkpt>
      <trkpt lat="62.634522908112" lon="17.9882698615">
        <ele>206.8</ele>
        <time>2017-12-23T11:04:51Z</time>
      </trkpt>
      <trkpt lat="62.634505138484" lon="17.988275980287">
        <ele>207</ele>
        <time>2017-12-23T11:04:52Z</time>
      </trkpt>
      <trkpt lat="62.634488290865" lon="17.988280674151">
        <ele>207</ele>
        <time>2017-12-23T11:04:53Z</time>
      </trkpt>
      <trkpt lat="62.634465575916" lon="17.988281177065">
        <ele>207</ele>
        <time>2017-12-23T11:04:54Z</time>
      </trkpt>
      <trkpt lat="62.634442860967" lon="17.98828578711">
        <ele>207.2</ele>
        <time>2017-12-23T11:04:55Z</time>
      </trkpt>
      <trkpt lat="62.634421068027" lon="17.988290564793">
        <ele>207</ele>
        <time>2017-12-23T11:04:56Z</time>
      </trkpt>
      <trkpt lat="62.634402711666" lon="17.988302215634">
        <ele>207.2</ele>
        <time>2017-12-23T11:04:57Z</time>
      </trkpt>
      <trkpt lat="62.634386199323" lon="17.988304059652">
        <ele>207.4</ele>
        <time>2017-12-23T11:04:58Z</time>
      </trkpt>
      <trkpt lat="62.634361724175" lon="17.988312776828">
        <ele>207.4</ele>
        <time>2017-12-23T11:04:59Z</time>
      </trkpt>
      <trkpt lat="62.634336829932" lon="17.988310765172">
        <ele>207.6</ele>
        <time>2017-12-23T11:05:00Z</time>
      </trkpt>
      <trkpt lat="62.634316378096" lon="17.988304059652">
        <ele>207.4</ele>
        <time>2017-12-23T11:05:01Z</time>
      </trkpt>
      <trkpt lat="62.634286203256" lon="17.988304562566">
        <ele>207.6</ele>
        <time>2017-12-23T11:05:02Z</time>
      </trkpt>
      <trkpt lat="62.634262733936" lon="17.988299114331">
        <ele>207.6</ele>
        <time>2017-12-23T11:05:03Z</time>
      </trkpt>
      <trkpt lat="62.634242449738" lon="17.988296264485">
        <ele>207.6</ele>
        <time>2017-12-23T11:05:04Z</time>
      </trkpt>
      <trkpt lat="62.6342339002" lon="17.988285451834">
        <ele>207.6</ele>
        <time>2017-12-23T11:05:05Z</time>
      </trkpt>
      <trkpt lat="62.634196014012" lon="17.988260389953">
        <ele>207.4</ele>
        <time>2017-12-23T11:05:06Z</time>
      </trkpt>
      <trkpt lat="62.634173299063" lon="17.988246475999">
        <ele>207.4</ele>
        <time>2017-12-23T11:05:07Z</time>
      </trkpt>
      <trkpt lat="62.634152344313" lon="17.988232059131">
        <ele>207.4</ele>
        <time>2017-12-23T11:05:08Z</time>
      </trkpt>
      <trkpt lat="62.634129629364" lon="17.988227952">
        <ele>207.6</ele>
        <time>2017-12-23T11:05:09Z</time>
      </trkpt>
      <trkpt lat="62.634109093709" lon="17.988224683059">
        <ele>207.6</ele>
        <time>2017-12-23T11:05:10Z</time>
      </trkpt>
      <trkpt lat="62.63408721695" lon="17.988212948399">
        <ele>207.6</ele>
        <time>2017-12-23T11:05:11Z</time>
      </trkpt>
      <trkpt lat="62.634061065422" lon="17.988200459368">
        <ele>207.8</ele>
        <time>2017-12-23T11:05:12Z</time>
      </trkpt>
      <trkpt lat="62.634033740428" lon="17.988184785215">
        <ele>207.8</ele>
        <time>2017-12-23T11:05:13Z</time>
      </trkpt>
      <trkpt lat="62.634013372411" lon="17.988174559297">
        <ele>208</ele>
        <time>2017-12-23T11:05:14Z</time>
      </trkpt>
      <trkpt lat="62.63398831053" lon="17.988156286755">
        <ele>208</ele>
        <time>2017-12-23T11:05:15Z</time>
      </trkpt>
      <trkpt lat="62.633963919201" lon="17.988132817435">
        <ele>208</ele>
        <time>2017-12-23T11:05:16Z</time>
      </trkpt>
      <trkpt lat="62.633943215908" lon="17.988127285381">
        <ele>208.2</ele>
        <time>2017-12-23T11:05:17Z</time>
      </trkpt>
      <trkpt lat="62.633926200651" lon="17.988110102486">
        <ele>208.4</ele>
        <time>2017-12-23T11:05:18Z</time>
      </trkpt>
      <trkpt lat="62.633903234245" lon="17.988085878795">
        <ele>208.4</ele>
        <time>2017-12-23T11:05:19Z</time>
      </trkpt>
      <trkpt lat="62.633880603115" lon="17.988075988153">
        <ele>208.6</ele>
        <time>2017-12-23T11:05:20Z</time>
      </trkpt>
      <trkpt lat="62.633861073288" lon="17.988050423358">
        <ele>208.6</ele>
        <time>2017-12-23T11:05:21Z</time>
      </trkpt>
      <trkpt lat="62.633839280348" lon="17.988031564083">
        <ele>208.6</ele>
        <time>2017-12-23T11:05:22Z</time>
      </trkpt>
      <trkpt lat="62.633813715553" lon="17.988006837478">
        <ele>208.6</ele>
        <time>2017-12-23T11:05:23Z</time>
      </trkpt>
      <trkpt lat="62.633794185726" lon="17.98799744975">
        <ele>208.6</ele>
        <time>2017-12-23T11:05:24Z</time>
      </trkpt>
      <trkpt lat="62.633775326451" lon="17.987978003742">
        <ele>208.4</ele>
        <time>2017-12-23T11:05:25Z</time>
      </trkpt>
      <trkpt lat="62.633755628986" lon="17.987953947689">
        <ele>208.6</ele>
        <time>2017-12-23T11:05:26Z</time>
      </trkpt>
      <trkpt lat="62.633733165494" lon="17.987925616867">
        <ele>208.6</ele>
        <time>2017-12-23T11:05:27Z</time>
      </trkpt>
      <trkpt lat="62.633715814961" lon="17.987907344325">
        <ele>208.6</ele>
        <time>2017-12-23T11:05:28Z</time>
      </trkpt>
      <trkpt lat="62.633691088356" lon="17.98787842677">
        <ele>208.8</ele>
        <time>2017-12-23T11:05:29Z</time>
      </trkpt>
      <trkpt lat="62.633673737823" lon="17.98786501573">
        <ele>209.2</ele>
        <time>2017-12-23T11:05:30Z</time>
      </trkpt>
      <trkpt lat="62.633659404774" lon="17.987848335749">
        <ele>209.4</ele>
        <time>2017-12-23T11:05:31Z</time>
      </trkpt>
      <trkpt lat="62.633636606006" lon="17.98781220976">
        <ele>209.6</ele>
        <time>2017-12-23T11:05:32Z</time>
      </trkpt>
      <trkpt lat="62.633613891057" lon="17.987791003553">
        <ele>210</ele>
        <time>2017-12-23T11:05:33Z</time>
      </trkpt>
      <trkpt lat="62.633593858316" lon="17.987776754323">
        <ele>210</ele>
        <time>2017-12-23T11:05:34Z</time>
      </trkpt>
      <trkpt lat="62.633582710389" lon="17.987753117365">
        <ele>210</ele>
        <time>2017-12-23T11:05:35Z</time>
      </trkpt>
      <trkpt lat="62.633550691531" lon="17.987707687467">
        <ele>210.2</ele>
        <time>2017-12-23T11:05:36Z</time>
      </trkpt>
      <trkpt lat="62.633535436473" lon="17.987673405496">
        <ele>210.2</ele>
        <time>2017-12-23T11:05:37Z</time>
      </trkpt>
      <trkpt lat="62.633518840311" lon="17.987652786022">
        <ele>210.4</ele>
        <time>2017-12-23T11:05:38Z</time>
      </trkpt>
      <trkpt lat="62.633498304656" lon="17.987628478512">
        <ele>210.4</ele>
        <time>2017-12-23T11:05:39Z</time>
      </trkpt>
      <trkpt lat="62.633480786485" lon="17.987609703056">
        <ele>210.6</ele>
        <time>2017-12-23T11:05:40Z</time>
      </trkpt>
      <trkpt lat="62.633461591934" lon="17.987587071926">
        <ele>210.8</ele>
        <time>2017-12-23T11:05:41Z</time>
      </trkpt>
      <trkpt lat="62.633440469546" lon="17.987550023928">
        <ele>210.8</ele>
        <time>2017-12-23T11:05:42Z</time>
      </trkpt>
      <trkpt lat="62.633422448461" lon="17.987514149396">
        <ele>211</ele>
        <time>2017-12-23T11:05:43Z</time>
      </trkpt>
      <trkpt lat="62.633406690489" lon="17.987474000095">
        <ele>211.4</ele>
        <time>2017-12-23T11:05:44Z</time>
      </trkpt>
      <trkpt lat="62.633391351612" lon="17.987431084767">
        <ele>211.6</ele>
        <time>2017-12-23T11:05:45Z</time>
      </trkpt>
      <trkpt lat="62.633377437658" lon="17.987390264914">
        <ele>211.6</ele>
        <time>2017-12-23T11:05:46Z</time>
      </trkpt>
      <trkpt lat="62.633353884519" lon="17.987325053732">
        <ele>211.8</ele>
        <time>2017-12-23T11:05:47Z</time>
      </trkpt>
      <trkpt lat="62.633334103235" lon="17.987256322152">
        <ele>211.8</ele>
        <time>2017-12-23T11:05:48Z</time>
      </trkpt>
      <trkpt lat="62.633317423254" lon="17.987168898935">
        <ele>211.8</ele>
        <time>2017-12-23T11:05:49Z</time>
      </trkpt>
      <trkpt lat="62.63329345102" lon="17.987072758542">
        <ele>211.6</ele>
        <time>2017-12-23T11:05:50Z</time>
      </trkpt>
      <trkpt lat="62.633274088831" lon="17.986975193226">
        <ele>210.8</ele>
        <time>2017-12-23T11:05:51Z</time>
      </trkpt>
      <trkpt lat="62.63325405609" lon="17.986883830516">
        <ele>210.4</ele>
        <time>2017-12-23T11:05:52Z</time>
      </trkpt>
      <trkpt lat="62.633231592598" lon="17.986784421182">
        <ele>209.4</ele>
        <time>2017-12-23T11:05:53Z</time>
      </trkpt>
      <trkpt lat="62.633212649504" lon="17.986684257477">
        <ele>208.6</ele>
        <time>2017-12-23T11:05:54Z</time>
      </trkpt>
      <trkpt lat="62.633196388618" lon="17.986587697989">
        <ele>207.8</ele>
        <time>2017-12-23T11:05:55Z</time>
      </trkpt>
      <trkpt lat="62.633192113849" lon="17.986521648617">
        <ele>207.6</ele>
        <time>2017-12-23T11:05:56Z</time>
      </trkpt>
      <trkpt lat="62.633190186012" lon="17.98643171083">
        <ele>207.8</ele>
        <time>2017-12-23T11:05:57Z</time>
      </trkpt>
      <trkpt lat="62.63318532451" lon="17.986354010617">
        <ele>207.8</ele>
        <time>2017-12-23T11:05:58Z</time>
      </trkpt>
      <trkpt lat="62.633188258175" lon="17.986257618767">
        <ele>208</ele>
        <time>2017-12-23T11:05:59Z</time>
      </trkpt>
      <trkpt lat="62.633185827424" lon="17.9861576227">
        <ele>208</ele>
        <time>2017-12-23T11:06:00Z</time>
      </trkpt>
      <trkpt lat="62.633180965922" lon="17.986068523103">
        <ele>208</ele>
        <time>2017-12-23T11:06:01Z</time>
      </trkpt>
      <trkpt lat="62.633176858791" lon="17.985948494295">
        <ele>207.8</ele>
        <time>2017-12-23T11:06:02Z</time>
      </trkpt>
      <trkpt lat="62.63317610442" lon="17.98585000697">
        <ele>207.4</ele>
        <time>2017-12-23T11:06:03Z</time>
      </trkpt>
      <trkpt lat="62.633177026429" lon="17.985759314812">
        <ele>206.8</ele>
        <time>2017-12-23T11:06:04Z</time>
      </trkpt>
      <trkpt lat="62.633181217379" lon="17.985642471126">
        <ele>206.2</ele>
        <time>2017-12-23T11:06:05Z</time>
      </trkpt>
      <trkpt lat="62.633188174356" lon="17.985566531112">
        <ele>205.8</ele>
        <time>2017-12-23T11:06:06Z</time>
      </trkpt>
      <trkpt lat="62.633197478265" lon="17.985473156746">
        <ele>205.8</ele>
        <time>2017-12-23T11:06:07Z</time>
      </trkpt>
      <trkpt lat="62.63320544107" lon="17.985391936135">
        <ele>205.8</ele>
        <time>2017-12-23T11:06:08Z</time>
      </trkpt>
      <trkpt lat="62.633211392219" lon="17.98530183071">
        <ele>206</ele>
        <time>2017-12-23T11:06:09Z</time>
      </trkpt>
      <trkpt lat="62.633217259549" lon="17.985208959258">
        <ele>206.2</ele>
        <time>2017-12-23T11:06:10Z</time>
      </trkpt>
      <trkpt lat="62.633229497123" lon="17.985095887427">
        <ele>205.8</ele>
        <time>2017-12-23T11:06:11Z</time>
      </trkpt>
      <trkpt lat="62.633247099113" lon="17.984960184466">
        <ele>205</ele>
        <time>2017-12-23T11:06:12Z</time>
      </trkpt>
      <trkpt lat="62.633262773266" lon="17.984843173142">
        <ele>204.2</ele>
        <time>2017-12-23T11:06:13Z</time>
      </trkpt>
      <trkpt lat="62.633281129627" lon="17.984743009437">
        <ele>203.4</ele>
        <time>2017-12-23T11:06:14Z</time>
      </trkpt>
      <trkpt lat="62.633299905083" lon="17.984651898184">
        <ele>202.6</ele>
        <time>2017-12-23T11:06:15Z</time>
      </trkpt>
      <trkpt lat="62.633320943652" lon="17.984575455256">
        <ele>202.4</ele>
        <time>2017-12-23T11:06:16Z</time>
      </trkpt>
      <trkpt lat="62.633334689968" lon="17.984498341776">
        <ele>202</ele>
        <time>2017-12-23T11:06:17Z</time>
      </trkpt>
      <trkpt lat="62.633353968338" lon="17.984427849997">
        <ele>202.2</ele>
        <time>2017-12-23T11:06:18Z</time>
      </trkpt>
      <trkpt lat="62.633371318871" lon="17.984361968263">
        <ele>202.4</ele>
        <time>2017-12-23T11:06:19Z</time>
      </trkpt>
      <trkpt lat="62.633378862581" lon="17.984294996882">
        <ele>202.6</ele>
        <time>2017-12-23T11:06:20Z</time>
      </trkpt>
      <trkpt lat="62.633382802074" lon="17.984244454025">
        <ele>202.8</ele>
        <time>2017-12-23T11:06:21Z</time>
      </trkpt>
      <trkpt lat="62.63338816649" lon="17.984170944762">
        <ele>203</ele>
        <time>2017-12-23T11:06:22Z</time>
      </trkpt>
      <trkpt lat="62.633397302761" lon="17.984108080512">
        <ele>203</ele>
        <time>2017-12-23T11:06:23Z</time>
      </trkpt>
      <trkpt lat="62.633399817331" lon="17.984045551538">
        <ele>203</ele>
        <time>2017-12-23T11:06:24Z</time>
      </trkpt>
      <trkpt lat="62.633403673005" lon="17.983988470799">
        <ele>203.2</ele>
        <time>2017-12-23T11:06:25Z</time>
      </trkpt>
      <trkpt lat="62.633403505367" lon="17.983940442512">
        <ele>203.2</ele>
        <time>2017-12-23T11:06:26Z</time>
      </trkpt>
      <trkpt lat="62.633413563647" lon="17.983884367601">
        <ele>203.2</ele>
        <time>2017-12-23T11:06:27Z</time>
      </trkpt>
      <trkpt lat="62.633419514796" lon="17.983837764237">
        <ele>203</ele>
        <time>2017-12-23T11:06:28Z</time>
      </trkpt>
      <trkpt lat="62.633428483429" lon="17.983783365706">
        <ele>203.2</ele>
        <time>2017-12-23T11:06:29Z</time>
      </trkpt>
      <trkpt lat="62.633434602216" lon="17.983726536424">
        <ele>203.2</ele>
        <time>2017-12-23T11:06:30Z</time>
      </trkpt>
      <trkpt lat="62.633446336876" lon="17.983684794562">
        <ele>203.2</ele>
        <time>2017-12-23T11:06:31Z</time>
      </trkpt>
      <trkpt lat="62.633462849219" lon="17.983616146801">
        <ele>203.6</ele>
        <time>2017-12-23T11:06:32Z</time>
      </trkpt>
      <trkpt lat="62.633476846992" lon="17.983558814605">
        <ele>204</ele>
        <time>2017-12-23T11:06:33Z</time>
      </trkpt>
      <trkpt lat="62.633491599136" lon="17.983502572056">
        <ele>204</ele>
        <time>2017-12-23T11:06:34Z</time>
      </trkpt>
      <trkpt lat="62.633502579425" lon="17.983437779969">
        <ele>204.2</ele>
        <time>2017-12-23T11:06:35Z</time>
      </trkpt>
      <trkpt lat="62.63351221861" lon="17.983384722542">
        <ele>204.4</ele>
        <time>2017-12-23T11:06:36Z</time>
      </trkpt>
      <trkpt lat="62.633520181415" lon="17.98331196765">
        <ele>204.2</ele>
        <time>2017-12-23T11:06:37Z</time>
      </trkpt>
      <trkpt lat="62.633529652962" lon="17.983251198875">
        <ele>204.2</ele>
        <time>2017-12-23T11:06:38Z</time>
      </trkpt>
      <trkpt lat="62.63353317336" lon="17.983191771204">
        <ele>204.2</ele>
        <time>2017-12-23T11:06:39Z</time>
      </trkpt>
      <trkpt lat="62.633534598283" lon="17.983142150356">
        <ele>204.2</ele>
        <time>2017-12-23T11:06:40Z</time>
      </trkpt>
      <trkpt lat="62.633539711242" lon="17.98308062721">
        <ele>204.2</ele>
        <time>2017-12-23T11:06:41Z</time>
      </trkpt>
      <trkpt lat="62.633550523893" lon="17.983020864263">
        <ele>204.2</ele>
        <time>2017-12-23T11:06:42Z</time>
      </trkpt>
      <trkpt lat="62.633568209702" lon="17.982966046637">
        <ele>204.2</ele>
        <time>2017-12-23T11:06:43Z</time>
      </trkpt>
      <trkpt lat="62.633579022353" lon="17.982906367509">
        <ele>204.2</ele>
        <time>2017-12-23T11:06:44Z</time>
      </trkpt>
      <trkpt lat="62.633594193592" lon="17.982845766372">
        <ele>204.2</ele>
        <time>2017-12-23T11:06:45Z</time>
      </trkpt>
      <trkpt lat="62.633611544125" lon="17.982790278194">
        <ele>204.2</ele>
        <time>2017-12-23T11:06:46Z</time>
      </trkpt>
      <trkpt lat="62.633618501102" lon="17.98273361655">
        <ele>204.2</ele>
        <time>2017-12-23T11:06:47Z</time>
      </trkpt>
      <trkpt lat="62.633627218278" lon="17.982671674309">
        <ele>204.2</ele>
        <time>2017-12-23T11:06:48Z</time>
      </trkpt>
      <trkpt lat="62.633635767816" lon="17.982609983525">
        <ele>204.4</ele>
        <time>2017-12-23T11:06:49Z</time>
      </trkpt>
      <trkpt lat="62.633651190512" lon="17.982555333537">
        <ele>204.4</ele>
        <time>2017-12-23T11:06:50Z</time>
      </trkpt>
      <trkpt lat="62.633661919344" lon="17.982504539223">
        <ele>204.4</ele>
        <time>2017-12-23T11:06:51Z</time>
      </trkpt>
      <trkpt lat="62.633669127778" lon="17.982442429344">
        <ele>204.4</ele>
        <time>2017-12-23T11:06:52Z</time>
      </trkpt>
      <trkpt lat="62.63368153299" lon="17.982392137944">
        <ele>204.4</ele>
        <time>2017-12-23T11:06:53Z</time>
      </trkpt>
      <trkpt lat="62.633692513279" lon="17.982335727757">
        <ele>204.4</ele>
        <time>2017-12-23T11:06:54Z</time>
      </trkpt>
      <trkpt lat="62.633700392265" lon="17.982279233751">
        <ele>204.6</ele>
        <time>2017-12-23T11:06:55Z</time>
      </trkpt>
      <trkpt lat="62.633705421405" lon="17.982220308994">
        <ele>204.4</ele>
        <time>2017-12-23T11:06:56Z</time>
      </trkpt>
      <trkpt lat="62.633710534364" lon="17.982158115296">
        <ele>204.6</ele>
        <time>2017-12-23T11:06:57Z</time>
      </trkpt>
      <trkpt lat="62.633711959287" lon="17.982120815841">
        <ele>204.6</ele>
        <time>2017-12-23T11:06:58Z</time>
      </trkpt>
      <trkpt lat="62.633709612355" lon="17.982078738703">
        <ele>204.6</ele>
        <time>2017-12-23T11:06:59Z</time>
      </trkpt>
      <trkpt lat="62.633706846328" lon="17.982031464787">
        <ele>204.6</ele>
        <time>2017-12-23T11:07:00Z</time>
      </trkpt>
      <trkpt lat="62.633710366726" lon="17.981985867251">
        <ele>204.6</ele>
        <time>2017-12-23T11:07:01Z</time>
      </trkpt>
      <trkpt lat="62.633730231829" lon="17.981931552539">
        <ele>204.6</ele>
        <time>2017-12-23T11:07:02Z</time>
      </trkpt>
      <trkpt lat="62.633744900154" lon="17.981881428777">
        <ele>204.6</ele>
        <time>2017-12-23T11:07:03Z</time>
      </trkpt>
      <trkpt lat="62.633755964262" lon="17.98183591506">
        <ele>204.8</ele>
        <time>2017-12-23T11:07:04Z</time>
      </trkpt>
      <trkpt lat="62.633765100533" lon="17.981778750502">
        <ele>204.8</ele>
        <time>2017-12-23T11:07:05Z</time>
      </trkpt>
      <trkpt lat="62.633771889872" lon="17.981724268152">
        <ele>205</ele>
        <time>2017-12-23T11:07:06Z</time>
      </trkpt>
      <trkpt lat="62.633779265944" lon="17.981653944011">
        <ele>204.8</ele>
        <time>2017-12-23T11:07:07Z</time>
      </trkpt>
      <trkpt lat="62.633783875989" lon="17.981591079761">
        <ele>204.8</ele>
        <time>2017-12-23T11:07:08Z</time>
      </trkpt>
      <trkpt lat="62.633797538486" lon="17.981544392578">
        <ele>204.8</ele>
        <time>2017-12-23T11:07:09Z</time>
      </trkpt>
      <trkpt lat="62.633809943698" lon="17.981493346807">
        <ele>204.8</ele>
        <time>2017-12-23T11:07:10Z</time>
      </trkpt>
      <trkpt lat="62.633812039173" lon="17.981438277724">
        <ele>204.8</ele>
        <time>2017-12-23T11:07:11Z</time>
      </trkpt>
      <trkpt lat="62.633821845996" lon="17.981372060714">
        <ele>204.8</ele>
        <time>2017-12-23T11:07:12Z</time>
      </trkpt>
      <trkpt lat="62.633831149905" lon="17.981314057966">
        <ele>204.8</ele>
        <time>2017-12-23T11:07:13Z</time>
      </trkpt>
      <trkpt lat="62.633841878737" lon="17.981257228684">
        <ele>204.8</ele>
        <time>2017-12-23T11:07:14Z</time>
      </trkpt>
      <trkpt lat="62.633854032492" lon="17.981207440198">
        <ele>204.8</ele>
        <time>2017-12-23T11:07:15Z</time>
      </trkpt>
      <trkpt lat="62.633867108256" lon="17.981167542354">
        <ele>205</ele>
        <time>2017-12-23T11:07:16Z</time>
      </trkpt>
      <trkpt lat="62.633867862627" lon="17.981127979786">
        <ele>205.2</ele>
        <time>2017-12-23T11:07:17Z</time>
      </trkpt>
      <trkpt lat="62.633882950047" lon="17.981089842141">
        <ele>205.2</ele>
        <time>2017-12-23T11:07:18Z</time>
      </trkpt>
      <trkpt lat="62.633893930336" lon="17.981052542686">
        <ele>205.4</ele>
        <time>2017-12-23T11:07:19Z</time>
      </trkpt>
      <trkpt lat="62.633901893141" lon="17.981020859104">
        <ele>205.4</ele>
        <time>2017-12-23T11:07:20Z</time>
      </trkpt>
      <trkpt lat="62.633917734932" lon="17.98097174117">
        <ele>205.6</ele>
        <time>2017-12-23T11:07:21Z</time>
      </trkpt>
      <trkpt lat="62.633929218135" lon="17.980934441715">
        <ele>205.6</ele>
        <time>2017-12-23T11:07:22Z</time>
      </trkpt>
      <trkpt lat="62.633946652487" lon="17.98089211312">
        <ele>205.4</ele>
        <time>2017-12-23T11:07:23Z</time>
      </trkpt>
      <trkpt lat="62.633957884233" lon="17.980850455077">
        <ele>205.6</ele>
        <time>2017-12-23T11:07:24Z</time>
      </trkpt>
      <trkpt lat="62.633972636377" lon="17.980813909993">
        <ele>205.6</ele>
        <time>2017-12-23T11:07:25Z</time>
      </trkpt>
      <trkpt lat="62.633989483996" lon="17.980782561687">
        <ele>205.6</ele>
        <time>2017-12-23T11:07:26Z</time>
      </trkpt>
      <trkpt lat="62.634002224484" lon="17.98072950426">
        <ele>205.6</ele>
        <time>2017-12-23T11:07:27Z</time>
      </trkpt>
      <trkpt lat="62.634013791506" lon="17.980686840389">
        <ele>205.8</ele>
        <time>2017-12-23T11:07:28Z</time>
      </trkpt>
      <trkpt lat="62.63402351451" lon="17.980637135722">
        <ele>205.8</ele>
        <time>2017-12-23T11:07:29Z</time>
      </trkpt>
      <trkpt lat="62.634036003541" lon="17.980584832666">
        <ele>205.8</ele>
        <time>2017-12-23T11:07:30Z</time>
      </trkpt>
      <trkpt lat="62.634045475088" lon="17.980546108288">
        <ele>205.8</ele>
        <time>2017-12-23T11:07:31Z</time>
      </trkpt>
      <trkpt lat="62.634063579992" lon="17.980501265123">
        <ele>205.8</ele>
        <time>2017-12-23T11:07:32Z</time>
      </trkpt>
      <trkpt lat="62.634076571937" lon="17.980464468582">
        <ele>205.8</ele>
        <time>2017-12-23T11:07:33Z</time>
      </trkpt>
      <trkpt lat="62.63408889333" lon="17.980435551027">
        <ele>206</ele>
        <time>2017-12-23T11:07:34Z</time>
      </trkpt>
      <trkpt lat="62.634108087881" lon="17.980386852188">
        <ele>206.2</ele>
        <time>2017-12-23T11:07:35Z</time>
      </trkpt>
      <trkpt lat="62.634120828369" lon="17.980351061475">
        <ele>206.2</ele>
        <time>2017-12-23T11:07:36Z</time>
      </trkpt>
      <trkpt lat="62.634142621309" lon="17.98031124745">
        <ele>206.4</ele>
        <time>2017-12-23T11:07:37Z</time>
      </trkpt>
      <trkpt lat="62.634164581887" lon="17.980276462565">
        <ele>206.4</ele>
        <time>2017-12-23T11:07:38Z</time>
      </trkpt>
      <trkpt lat="62.634188051207" lon="17.980236397083">
        <ele>206.6</ele>
        <time>2017-12-23T11:07:39Z</time>
      </trkpt>
      <trkpt lat="62.634204898826" lon="17.980198846171">
        <ele>206.6</ele>
        <time>2017-12-23T11:07:40Z</time>
      </trkpt>
      <trkpt lat="62.634225015386" lon="17.980159199784">
        <ele>206.4</ele>
        <time>2017-12-23T11:07:41Z</time>
      </trkpt>
      <trkpt lat="62.634247478878" lon="17.980113350791">
        <ele>206.4</ele>
        <time>2017-12-23T11:07:42Z</time>
      </trkpt>
      <trkpt lat="62.634264494135" lon="17.980066328332">
        <ele>206.4</ele>
        <time>2017-12-23T11:07:43Z</time>
      </trkpt>
      <trkpt lat="62.634289136921" lon="17.980016791303">
        <ele>206.4</ele>
        <time>2017-12-23T11:07:44Z</time>
      </trkpt>
      <trkpt lat="62.634307158006" lon="17.979972283414">
        <ele>206.4</ele>
        <time>2017-12-23T11:07:45Z</time>
      </trkpt>
      <trkpt lat="62.634321574874" lon="17.979934229588">
        <ele>206.4</ele>
        <time>2017-12-23T11:07:46Z</time>
      </trkpt>
      <trkpt lat="62.634340517968" lon="17.979879663419">
        <ele>206.2</ele>
        <time>2017-12-23T11:07:47Z</time>
      </trkpt>
      <trkpt lat="62.634351833533" lon="17.979838173014">
        <ele>206.4</ele>
        <time>2017-12-23T11:07:48Z</time>
      </trkpt>
      <trkpt lat="62.634363232917" lon="17.979787211062">
        <ele>206.4</ele>
        <time>2017-12-23T11:07:49Z</time>
      </trkpt>
      <trkpt lat="62.634374045568" lon="17.979744714829">
        <ele>206.4</ele>
        <time>2017-12-23T11:07:50Z</time>
      </trkpt>
      <trkpt lat="62.634384606762" lon="17.979695596895">
        <ele>206.4</ele>
        <time>2017-12-23T11:07:51Z</time>
      </trkpt>
      <trkpt lat="62.634394916499" lon="17.979635833948">
        <ele>206.4</ele>
        <time>2017-12-23T11:07:52Z</time>
      </trkpt>
      <trkpt lat="62.634406483521" lon="17.97957196387">
        <ele>206.4</ele>
        <time>2017-12-23T11:07:53Z</time>
      </trkpt>
      <trkpt lat="62.634418804914" lon="17.97951412876">
        <ele>206.6</ele>
        <time>2017-12-23T11:07:54Z</time>
      </trkpt>
      <trkpt lat="62.634428025004" lon="17.979464424093">
        <ele>206.8</ele>
        <time>2017-12-23T11:07:55Z</time>
      </trkpt>
      <trkpt lat="62.634434981981" lon="17.979410696114">
        <ele>206.8</ele>
        <time>2017-12-23T11:07:56Z</time>
      </trkpt>
      <trkpt lat="62.634440849311" lon="17.979351184624">
        <ele>206.8</ele>
        <time>2017-12-23T11:07:57Z</time>
      </trkpt>
      <trkpt lat="62.634449985582" lon="17.979303240156">
        <ele>206.8</ele>
        <time>2017-12-23T11:07:58Z</time>
      </trkpt>
      <trkpt lat="62.634460295319" lon="17.979243896304">
        <ele>206.8</ele>
        <time>2017-12-23T11:07:59Z</time>
      </trkpt>
      <trkpt lat="62.634468928676" lon="17.979190922696">
        <ele>206.8</ele>
        <time>2017-12-23T11:08:00Z</time>
      </trkpt>
      <trkpt lat="62.634480579517" lon="17.979150857214">
        <ele>206.8</ele>
        <time>2017-12-23T11:08:01Z</time>
      </trkpt>
      <trkpt lat="62.634493320005" lon="17.979094279389">
        <ele>206.8</ele>
        <time>2017-12-23T11:08:02Z</time>
      </trkpt>
      <trkpt lat="62.634507066321" lon="17.979040467591">
        <ele>206.8</ele>
        <time>2017-12-23T11:08:03Z</time>
      </trkpt>
      <trkpt lat="62.634530535641" lon="17.978941142076">
        <ele>207</ele>
        <time>2017-12-23T11:08:05Z</time>
      </trkpt>
      <trkpt lat="62.634542857034" lon="17.978904848449">
        <ele>207</ele>
        <time>2017-12-23T11:08:06Z</time>
      </trkpt>
      <trkpt lat="62.634561883947" lon="17.978871823763">
        <ele>207</ele>
        <time>2017-12-23T11:08:07Z</time>
      </trkpt>
      <trkpt lat="62.634581162317" lon="17.978850617556">
        <ele>207</ele>
        <time>2017-12-23T11:08:08Z</time>
      </trkpt>
      <trkpt lat="62.634597339384" lon="17.978830920091">
        <ele>206.6</ele>
        <time>2017-12-23T11:08:09Z</time>
      </trkpt>
      <trkpt lat="62.634614689917" lon="17.978809965341">
        <ele>206.6</ele>
        <time>2017-12-23T11:08:10Z</time>
      </trkpt>
      <trkpt lat="62.63463287864" lon="17.978801164346">
        <ele>206.2</ele>
        <time>2017-12-23T11:08:11Z</time>
      </trkpt>
      <trkpt lat="62.634651821734" lon="17.978802840726">
        <ele>206</ele>
        <time>2017-12-23T11:08:12Z</time>
      </trkpt>
      <trkpt lat="62.634673447036" lon="17.978811138807">
        <ele>205.6</ele>
        <time>2017-12-23T11:08:13Z</time>
      </trkpt>
      <trkpt lat="62.634697838365" lon="17.978822454372">
        <ele>205.2</ele>
        <time>2017-12-23T11:08:14Z</time>
      </trkpt>
      <trkpt lat="62.634723989893" lon="17.978836368326">
        <ele>205</ele>
        <time>2017-12-23T11:08:15Z</time>
      </trkpt>
      <trkpt lat="62.634747123937" lon="17.978847683891">
        <ele>205</ele>
        <time>2017-12-23T11:08:16Z</time>
      </trkpt>
      <trkpt lat="62.634776041492" lon="17.978852377755">
        <ele>205.2</ele>
        <time>2017-12-23T11:08:17Z</time>
      </trkpt>
      <trkpt lat="62.634807054522" lon="17.978861011112">
        <ele>205.4</ele>
        <time>2017-12-23T11:08:18Z</time>
      </trkpt>
      <trkpt lat="62.634838905742" lon="17.978872326677">
        <ele>205.6</ele>
        <time>2017-12-23T11:08:19Z</time>
      </trkpt>
      <trkpt lat="62.634870337867" lon="17.978884396613">
        <ele>206</ele>
        <time>2017-12-23T11:08:20Z</time>
      </trkpt>
      <trkpt lat="62.634901183259" lon="17.978890431581">
        <ele>206.4</ele>
        <time>2017-12-23T11:08:21Z</time>
      </trkpt>
      <trkpt lat="62.634931525737" lon="17.978894957807">
        <ele>206.4</ele>
        <time>2017-12-23T11:08:22Z</time>
      </trkpt>
      <trkpt lat="62.634933956488" lon="17.978892107961">
        <ele>206.6</ele>
        <time>2017-12-23T11:08:23Z</time>
      </trkpt>
      <trkpt lat="62.634982236232" lon="17.978907111562">
        <ele>206.4</ele>
        <time>2017-12-23T11:08:24Z</time>
      </trkpt>
      <trkpt lat="62.635005454095" lon="17.978917002204">
        <ele>206.6</ele>
        <time>2017-12-23T11:08:25Z</time>
      </trkpt>
      <trkpt lat="62.635028001406" lon="17.978923791543">
        <ele>206.4</ele>
        <time>2017-12-23T11:08:26Z</time>
      </trkpt>
      <trkpt lat="62.635049207613" lon="17.978930580882">
        <ele>206.4</ele>
        <time>2017-12-23T11:08:27Z</time>
      </trkpt>
      <trkpt lat="62.635066558146" lon="17.97893493947">
        <ele>206.2</ele>
        <time>2017-12-23T11:08:28Z</time>
      </trkpt>
      <trkpt lat="62.635081645566" lon="17.978945333026">
        <ele>206.2</ele>
        <time>2017-12-23T11:08:29Z</time>
      </trkpt>
      <trkpt lat="62.635123471247" lon="17.97895924698">
        <ele>206</ele>
        <time>2017-12-23T11:08:30Z</time>
      </trkpt>
      <trkpt lat="62.635150209508" lon="17.978968550889">
        <ele>206</ele>
        <time>2017-12-23T11:08:31Z</time>
      </trkpt>
      <trkpt lat="62.635180719624" lon="17.978978609169">
        <ele>206</ele>
        <time>2017-12-23T11:08:32Z</time>
      </trkpt>
      <trkpt lat="62.635210894464" lon="17.9789827163">
        <ele>205.8</ele>
        <time>2017-12-23T11:08:33Z</time>
      </trkpt>
      <trkpt lat="62.635235704888" lon="17.978982464843">
        <ele>205.8</ele>
        <time>2017-12-23T11:08:34Z</time>
      </trkpt>
      <trkpt lat="62.635268897212" lon="17.978980453187">
        <ele>205.6</ele>
        <time>2017-12-23T11:08:35Z</time>
      </trkpt>
      <trkpt lat="62.63529588693" lon="17.978975004952">
        <ele>205.4</ele>
        <time>2017-12-23T11:08:36Z</time>
      </trkpt>
      <trkpt lat="62.635330504177" lon="17.978975675504">
        <ele>205</ele>
        <time>2017-12-23T11:08:37Z</time>
      </trkpt>
      <trkpt lat="62.635362187759" lon="17.978980117911">
        <ele>204.8</ele>
        <time>2017-12-23T11:08:38Z</time>
      </trkpt>
      <trkpt lat="62.635395547721" lon="17.978980620825">
        <ele>204.6</ele>
        <time>2017-12-23T11:08:39Z</time>
      </trkpt>
      <trkpt lat="62.635426896027" lon="17.978980285549">
        <ele>204.4</ele>
        <time>2017-12-23T11:08:40Z</time>
      </trkpt>
      <trkpt lat="62.635458914885" lon="17.978973831486">
        <ele>204.4</ele>
        <time>2017-12-23T11:08:41Z</time>
      </trkpt>
      <trkpt lat="62.635492358666" lon="17.978965449586">
        <ele>204.2</ele>
        <time>2017-12-23T11:08:42Z</time>
      </trkpt>
      <trkpt lat="62.635527814103" lon="17.978955223668">
        <ele>204.2</ele>
        <time>2017-12-23T11:08:43Z</time>
      </trkpt>
      <trkpt lat="62.635569639784" lon="17.978944327198">
        <ele>204</ele>
        <time>2017-12-23T11:08:44Z</time>
      </trkpt>
      <trkpt lat="62.635611130189" lon="17.978931083796">
        <ele>204</ele>
        <time>2017-12-23T11:08:45Z</time>
      </trkpt>
      <trkpt lat="62.635645831255" lon="17.97892236662">
        <ele>203.8</ele>
        <time>2017-12-23T11:08:46Z</time>
      </trkpt>
      <trkpt lat="62.635691261153" lon="17.978911637788">
        <ele>203.4</ele>
        <time>2017-12-23T11:08:47Z</time>
      </trkpt>
      <trkpt lat="62.635735852861" lon="17.978900154585">
        <ele>203.4</ele>
        <time>2017-12-23T11:08:48Z</time>
      </trkpt>
      <trkpt lat="62.635780193112" lon="17.978895125445">
        <ele>203.4</ele>
        <time>2017-12-23T11:08:49Z</time>
      </trkpt>
      <trkpt lat="62.635823276078" lon="17.978894119617">
        <ele>203.4</ele>
        <time>2017-12-23T11:08:50Z</time>
      </trkpt>
      <trkpt lat="62.635860491714" lon="17.978896801825">
        <ele>203.2</ele>
        <time>2017-12-23T11:08:51Z</time>
      </trkpt>
      <trkpt lat="62.635897958807" lon="17.978905183725">
        <ele>203.2</ele>
        <time>2017-12-23T11:08:52Z</time>
      </trkpt>
      <trkpt lat="62.63593123495" lon="17.978917421299">
        <ele>203.2</ele>
        <time>2017-12-23T11:08:53Z</time>
      </trkpt>
      <trkpt lat="62.635964175817" lon="17.97892823395">
        <ele>203.2</ele>
        <time>2017-12-23T11:08:54Z</time>
      </trkpt>
      <trkpt lat="62.635993847743" lon="17.978936029117">
        <ele>203.2</ele>
        <time>2017-12-23T11:08:55Z</time>
      </trkpt>
      <trkpt lat="62.636026620972" lon="17.9789408068">
        <ele>203</ele>
        <time>2017-12-23T11:08:57Z</time>
      </trkpt>
      <trkpt lat="62.636039864374" lon="17.978972825658">
        <ele>203</ele>
        <time>2017-12-23T11:08:58Z</time>
      </trkpt>
      <trkpt lat="62.636058723649" lon="17.978997384625">
        <ele>203</ele>
        <time>2017-12-23T11:08:59Z</time>
      </trkpt>
      <trkpt lat="62.636050677025" lon="17.979123196944">
        <ele>203</ele>
        <time>2017-12-23T11:09:01Z</time>
      </trkpt>
      <trkpt lat="62.636044474419" lon="17.979170722317">
        <ele>203</ele>
        <time>2017-12-23T11:09:02Z</time>
      </trkpt>
      <trkpt lat="62.636036260157" lon="17.979231574911">
        <ele>202.8</ele>
        <time>2017-12-23T11:09:03Z</time>
      </trkpt>
      <trkpt lat="62.636031733931" lon="17.979301899052">
        <ele>202.8</ele>
        <time>2017-12-23T11:09:04Z</time>
      </trkpt>
      <trkpt lat="62.636028297352" lon="17.979367948424">
        <ele>202.8</ele>
        <time>2017-12-23T11:09:05Z</time>
      </trkpt>
      <trkpt lat="62.636027123886" lon="17.979450677777">
        <ele>202.6</ele>
        <time>2017-12-23T11:09:06Z</time>
      </trkpt>
      <trkpt lat="62.636018658167" lon="17.979542291944">
        <ele>202.6</ele>
        <time>2017-12-23T11:09:07Z</time>
      </trkpt>
      <trkpt lat="62.636010108629" lon="17.979669780643">
        <ele>202.2</ele>
        <time>2017-12-23T11:09:08Z</time>
      </trkpt>
      <trkpt lat="62.636011365914" lon="17.979788887442">
        <ele>201.6</ele>
        <time>2017-12-23T11:09:09Z</time>
      </trkpt>
      <trkpt lat="62.636014551036" lon="17.979923081661">
        <ele>200.6</ele>
        <time>2017-12-23T11:09:10Z</time>
      </trkpt>
      <trkpt lat="62.636022681479" lon="17.980028861239">
        <ele>200</ele>
        <time>2017-12-23T11:09:11Z</time>
      </trkpt>
      <trkpt lat="62.636033745587" lon="17.980137993577">
        <ele>199.2</ele>
        <time>2017-12-23T11:09:12Z</time>
      </trkpt>
      <trkpt lat="62.636050341749" lon="17.980239917481">
        <ele>198.6</ele>
        <time>2017-12-23T11:09:13Z</time>
      </trkpt>
      <trkpt lat="62.636071547956" lon="17.980357180262">
        <ele>197.6</ele>
        <time>2017-12-23T11:09:14Z</time>
      </trkpt>
      <trkpt lat="62.636090742507" lon="17.980463295116">
        <ele>197.2</ele>
        <time>2017-12-23T11:09:15Z</time>
      </trkpt>
      <trkpt lat="62.636109434144" lon="17.980578378603">
        <ele>197</ele>
        <time>2017-12-23T11:09:16Z</time>
      </trkpt>
      <trkpt lat="62.636126784677" lon="17.980690612244">
        <ele>197</ele>
        <time>2017-12-23T11:09:17Z</time>
      </trkpt>
      <trkpt lat="62.636146398323" lon="17.980816927477">
        <ele>196.8</ele>
        <time>2017-12-23T11:09:18Z</time>
      </trkpt>
      <trkpt lat="62.636162659209" lon="17.980928825842">
        <ele>196.8</ele>
        <time>2017-12-23T11:09:19Z</time>
      </trkpt>
      <trkpt lat="62.636176573163" lon="17.981037455266">
        <ele>197</ele>
        <time>2017-12-23T11:09:20Z</time>
      </trkpt>
      <trkpt lat="62.636188978375" lon="17.981143067206">
        <ele>197</ele>
        <time>2017-12-23T11:09:21Z</time>
      </trkpt>
      <trkpt lat="62.636203311424" lon="17.981234010821">
        <ele>196.8</ele>
        <time>2017-12-23T11:09:22Z</time>
      </trkpt>
      <trkpt lat="62.636217309197" lon="17.981318248916">
        <ele>196.8</ele>
        <time>2017-12-23T11:09:23Z</time>
      </trkpt>
      <trkpt lat="62.636225774916" lon="17.981401816459">
        <ele>196.6</ele>
        <time>2017-12-23T11:09:24Z</time>
      </trkpt>
      <trkpt lat="62.636236671386" lon="17.981473062609">
        <ele>196.4</ele>
        <time>2017-12-23T11:09:25Z</time>
      </trkpt>
      <trkpt lat="62.636248154589" lon="17.981555624324">
        <ele>196.4</ele>
        <time>2017-12-23T11:09:26Z</time>
      </trkpt>
      <trkpt lat="62.636254357195" lon="17.981635503831">
        <ele>196.4</ele>
        <time>2017-12-23T11:09:27Z</time>
      </trkpt>
      <trkpt lat="62.636280927818" lon="17.981709935103">
        <ele>196.2</ele>
        <time>2017-12-23T11:09:28Z</time>
      </trkpt>
      <trkpt lat="62.636293165392" lon="17.98179316737">
        <ele>196.2</ele>
        <time>2017-12-23T11:09:29Z</time>
      </trkpt>
      <trkpt lat="62.636304648595" lon="17.981868855927">
        <ele>196.2</ele>
        <time>2017-12-23T11:09:30Z</time>
      </trkpt>
      <trkpt lat="62.63631093502" lon="17.981938090421">
        <ele>196</ele>
        <time>2017-12-23T11:09:31Z</time>
      </trkpt>
      <trkpt lat="62.636319568377" lon="17.982011264408">
        <ele>196</ele>
        <time>2017-12-23T11:09:32Z</time>
      </trkpt>
      <trkpt lat="62.636318897825" lon="17.982116457253">
        <ele>196</ele>
        <time>2017-12-23T11:09:33Z</time>
      </trkpt>
      <trkpt lat="62.636318562549" lon="17.982186027023">
        <ele>195.8</ele>
        <time>2017-12-23T11:09:34Z</time>
      </trkpt>
      <trkpt lat="62.636319484558" lon="17.982263475779">
        <ele>195.8</ele>
        <time>2017-12-23T11:09:35Z</time>
      </trkpt>
      <trkpt lat="62.636325351888" lon="17.982343355286">
        <ele>195.8</ele>
        <time>2017-12-23T11:09:36Z</time>
      </trkpt>
      <trkpt lat="62.63631680235" lon="17.982419211481">
        <ele>196</ele>
        <time>2017-12-23T11:09:37Z</time>
      </trkpt>
      <trkpt lat="62.636323926965" lon="17.982490625269">
        <ele>196</ele>
        <time>2017-12-23T11:09:38Z</time>
      </trkpt>
      <trkpt lat="62.636314958332" lon="17.982552148415">
        <ele>196.2</ele>
        <time>2017-12-23T11:09:39Z</time>
      </trkpt>
      <trkpt lat="62.636310432106" lon="17.982616521407">
        <ele>196.2</ele>
        <time>2017-12-23T11:09:40Z</time>
      </trkpt>
      <trkpt lat="62.636304732414" lon="17.982674440336">
        <ele>196.2</ele>
        <time>2017-12-23T11:09:41Z</time>
      </trkpt>
      <trkpt lat="62.636297021066" lon="17.982740070613">
        <ele>196.2</ele>
        <time>2017-12-23T11:09:42Z</time>
      </trkpt>
      <trkpt lat="62.636291991926" lon="17.982795307334">
        <ele>196.4</ele>
        <time>2017-12-23T11:09:43Z</time>
      </trkpt>
      <trkpt lat="62.636292578659" lon="17.982852304254">
        <ele>196.4</ele>
        <time>2017-12-23T11:09:44Z</time>
      </trkpt>
      <trkpt lat="62.636293668306" lon="17.982912234839">
        <ele>196.4</ele>
        <time>2017-12-23T11:09:45Z</time>
      </trkpt>
      <trkpt lat="62.636298948903" lon="17.982969818492">
        <ele>196.4</ele>
        <time>2017-12-23T11:09:46Z</time>
      </trkpt>
      <trkpt lat="62.636301379654" lon="17.983020445168">
        <ele>196.4</ele>
        <time>2017-12-23T11:09:47Z</time>
      </trkpt>
      <trkpt lat="62.636301882568" lon="17.98305799608">
        <ele>196.4</ele>
        <time>2017-12-23T11:09:48Z</time>
      </trkpt>
      <trkpt lat="62.636305570604" lon="17.98312421309">
        <ele>196.2</ele>
        <time>2017-12-23T11:09:49Z</time>
      </trkpt>
      <trkpt lat="62.636308839545" lon="17.983201410389">
        <ele>196.2</ele>
        <time>2017-12-23T11:09:50Z</time>
      </trkpt>
      <trkpt lat="62.636306157337" lon="17.983266453933">
        <ele>196.4</ele>
        <time>2017-12-23T11:09:51Z</time>
      </trkpt>
      <trkpt lat="62.63630590588" lon="17.983334514961">
        <ele>196.4</ele>
        <time>2017-12-23T11:09:52Z</time>
      </trkpt>
      <trkpt lat="62.636305319147" lon="17.983406515482">
        <ele>196.4</ele>
        <time>2017-12-23T11:09:53Z</time>
      </trkpt>
      <trkpt lat="62.636303475129" lon="17.983462171298">
        <ele>196.4</ele>
        <time>2017-12-23T11:09:54Z</time>
      </trkpt>
      <trkpt lat="62.636303223672" lon="17.983520257865">
        <ele>196.4</ele>
        <time>2017-12-23T11:09:55Z</time>
      </trkpt>
      <trkpt lat="62.636301128197" lon="17.983588654169">
        <ele>196.4</ele>
        <time>2017-12-23T11:09:56Z</time>
      </trkpt>
      <trkpt lat="62.636294925591" lon="17.983638777931">
        <ele>196.4</ele>
        <time>2017-12-23T11:09:57Z</time>
      </trkpt>
      <trkpt lat="62.63629081846" lon="17.983695355756">
        <ele>196.6</ele>
        <time>2017-12-23T11:09:58Z</time>
      </trkpt>
      <trkpt lat="62.636282268922" lon="17.983751514486">
        <ele>196.8</ele>
        <time>2017-12-23T11:09:59Z</time>
      </trkpt>
      <trkpt lat="62.636273635565" lon="17.983811612709">
        <ele>197</ele>
        <time>2017-12-23T11:10:00Z</time>
      </trkpt>
      <trkpt lat="62.636266091855" lon="17.983857545521">
        <ele>197.2</ele>
        <time>2017-12-23T11:10:01Z</time>
      </trkpt>
      <trkpt lat="62.636260559801" lon="17.983913452794">
        <ele>197.4</ele>
        <time>2017-12-23T11:10:02Z</time>
      </trkpt>
      <trkpt lat="62.636259721611" lon="17.98396324128">
        <ele>197.6</ele>
        <time>2017-12-23T11:10:03Z</time>
      </trkpt>
      <trkpt lat="62.636251172073" lon="17.984013616499">
        <ele>197.8</ele>
        <time>2017-12-23T11:10:04Z</time>
      </trkpt>
      <trkpt lat="62.636240191784" lon="17.984060890415">
        <ele>197.6</ele>
        <time>2017-12-23T11:10:05Z</time>
      </trkpt>
      <trkpt lat="62.636231558427" lon="17.984110678901">
        <ele>197.6</ele>
        <time>2017-12-23T11:10:06Z</time>
      </trkpt>
      <trkpt lat="62.636225272002" lon="17.984160970301">
        <ele>197.6</ele>
        <time>2017-12-23T11:10:07Z</time>
      </trkpt>
      <trkpt lat="62.636224014717" lon="17.984210842606">
        <ele>197.6</ele>
        <time>2017-12-23T11:10:08Z</time>
      </trkpt>
      <trkpt lat="62.636217979749" lon="17.984268174802">
        <ele>197.6</ele>
        <time>2017-12-23T11:10:09Z</time>
      </trkpt>
      <trkpt lat="62.636213285885" lon="17.984307485913">
        <ele>197.6</ele>
        <time>2017-12-23T11:10:10Z</time>
      </trkpt>
      <trkpt lat="62.636210519858" lon="17.984348221947">
        <ele>197.8</ele>
        <time>2017-12-23T11:10:11Z</time>
      </trkpt>
      <trkpt lat="62.636211358048" lon="17.98439910008">
        <ele>197.8</ele>
        <time>2017-12-23T11:10:12Z</time>
      </trkpt>
      <trkpt lat="62.636209597849" lon="17.98444687691">
        <ele>197.8</ele>
        <time>2017-12-23T11:10:13Z</time>
      </trkpt>
      <trkpt lat="62.636205155442" lon="17.984492725903">
        <ele>198</ele>
        <time>2017-12-23T11:10:14Z</time>
      </trkpt>
      <trkpt lat="62.636197527913" lon="17.984542598208">
        <ele>198.2</ele>
        <time>2017-12-23T11:10:15Z</time>
      </trkpt>
      <trkpt lat="62.636192834049" lon="17.984604205173">
        <ele>198.2</ele>
        <time>2017-12-23T11:10:16Z</time>
      </trkpt>
      <trkpt lat="62.636189732746" lon="17.984645192664">
        <ele>198.2</ele>
        <time>2017-12-23T11:10:17Z</time>
      </trkpt>
      <trkpt lat="62.636188140185" lon="17.984694645874">
        <ele>198.2</ele>
        <time>2017-12-23T11:10:18Z</time>
      </trkpt>
      <trkpt lat="62.636186128529" lon="17.984751642794">
        <ele>198.4</ele>
        <time>2017-12-23T11:10:19Z</time>
      </trkpt>
      <trkpt lat="62.63618353014" lon="17.984790199534">
        <ele>198.4</ele>
        <time>2017-12-23T11:10:20Z</time>
      </trkpt>
      <trkpt lat="62.636173890955" lon="17.984833785414">
        <ele>198.6</ele>
        <time>2017-12-23T11:10:21Z</time>
      </trkpt>
      <trkpt lat="62.636168526539" lon="17.984877622751">
        <ele>198.8</ele>
        <time>2017-12-23T11:10:22Z</time>
      </trkpt>
      <trkpt lat="62.636163162123" lon="17.984919867527">
        <ele>199</ele>
        <time>2017-12-23T11:10:23Z</time>
      </trkpt>
      <trkpt lat="62.63616006082" lon="17.984970326565">
        <ele>199.2</ele>
        <time>2017-12-23T11:10:24Z</time>
      </trkpt>
      <trkpt lat="62.636154025852" lon="17.985028413132">
        <ele>199.4</ele>
        <time>2017-12-23T11:10:25Z</time>
      </trkpt>
      <trkpt lat="62.636152349472" lon="17.985075770867">
        <ele>199.4</ele>
        <time>2017-12-23T11:10:26Z</time>
      </trkpt>
      <trkpt lat="62.636145727771" lon="17.985108711734">
        <ele>199.4</ele>
        <time>2017-12-23T11:10:27Z</time>
      </trkpt>
      <trkpt lat="62.636148661436" lon="17.985155901831">
        <ele>199.6</ele>
        <time>2017-12-23T11:10:28Z</time>
      </trkpt>
      <trkpt lat="62.636149415807" lon="17.985204935946">
        <ele>199.6</ele>
        <time>2017-12-23T11:10:29Z</time>
      </trkpt>
      <trkpt lat="62.636151008368" lon="17.98525573026">
        <ele>199.6</ele>
        <time>2017-12-23T11:10:30Z</time>
      </trkpt>
      <trkpt lat="62.636149415807" lon="17.985307781859">
        <ele>199.6</ele>
        <time>2017-12-23T11:10:31Z</time>
      </trkpt>
      <trkpt lat="62.636145643952" lon="17.985352876481">
        <ele>199.6</ele>
        <time>2017-12-23T11:10:32Z</time>
      </trkpt>
      <trkpt lat="62.636145308676" lon="17.985388499556">
        <ele>199.6</ele>
        <time>2017-12-23T11:10:33Z</time>
      </trkpt>
      <trkpt lat="62.636144805762" lon="17.985441892259">
        <ele>199.6</ele>
        <time>2017-12-23T11:10:34Z</time>
      </trkpt>
      <trkpt lat="62.63614329702" lon="17.985481622465">
        <ele>199.6</ele>
        <time>2017-12-23T11:10:35Z</time>
      </trkpt>
      <trkpt lat="62.636134496025" lon="17.985535182806">
        <ele>199.6</ele>
        <time>2017-12-23T11:10:36Z</time>
      </trkpt>
      <trkpt lat="62.63612653322" lon="17.985584384559">
        <ele>199.6</ele>
        <time>2017-12-23T11:10:37Z</time>
      </trkpt>
      <trkpt lat="62.636117480768" lon="17.985639705099">
        <ele>199.8</ele>
        <time>2017-12-23T11:10:38Z</time>
      </trkpt>
      <trkpt lat="62.636106500479" lon="17.985683290979">
        <ele>199.8</ele>
        <time>2017-12-23T11:10:39Z</time>
      </trkpt>
      <trkpt lat="62.63609300562" lon="17.985724613746">
        <ele>199.8</ele>
        <time>2017-12-23T11:10:40Z</time>
      </trkpt>
      <trkpt lat="62.636078421114" lon="17.985760572097">
        <ele>199.8</ele>
        <time>2017-12-23T11:10:41Z</time>
      </trkpt>
      <trkpt lat="62.636064926255" lon="17.985803235968">
        <ele>200</ele>
        <time>2017-12-23T11:10:42Z</time>
      </trkpt>
      <trkpt lat="62.636051263758" lon="17.985844055821">
        <ele>200</ele>
        <time>2017-12-23T11:10:43Z</time>
      </trkpt>
      <trkpt lat="62.63603181775" lon="17.985874398299">
        <ele>200</ele>
        <time>2017-12-23T11:10:44Z</time>
      </trkpt>
      <trkpt lat="62.636015389226" lon="17.985906752433">
        <ele>200.2</ele>
        <time>2017-12-23T11:10:45Z</time>
      </trkpt>
      <trkpt lat="62.6360024811" lon="17.985935837626">
        <ele>200.4</ele>
        <time>2017-12-23T11:10:46Z</time>
      </trkpt>
      <trkpt lat="62.635988483327" lon="17.985961150964">
        <ele>200.4</ele>
        <time>2017-12-23T11:10:47Z</time>
      </trkpt>
      <trkpt lat="62.635969037319" lon="17.985990906709">
        <ele>200.6</ele>
        <time>2017-12-23T11:10:48Z</time>
      </trkpt>
      <trkpt lat="62.635949926587" lon="17.986009682165">
        <ele>200.8</ele>
        <time>2017-12-23T11:10:49Z</time>
      </trkpt>
      <trkpt lat="62.635935593538" lon="17.986044634688">
        <ele>200.6</ele>
        <time>2017-12-23T11:10:50Z</time>
      </trkpt>
      <trkpt lat="62.635921092851" lon="17.986067684913">
        <ele>200.8</ele>
        <time>2017-12-23T11:10:51Z</time>
      </trkpt>
      <trkpt lat="62.635901227748" lon="17.986077575555">
        <ele>200.8</ele>
        <time>2017-12-23T11:10:52Z</time>
      </trkpt>
      <trkpt lat="62.635886224147" lon="17.986107163662">
        <ele>200.8</ele>
        <time>2017-12-23T11:10:53Z</time>
      </trkpt>
      <trkpt lat="62.635869460347" lon="17.98612828605">
        <ele>201</ele>
        <time>2017-12-23T11:10:54Z</time>
      </trkpt>
      <trkpt lat="62.635854708203" lon="17.986155694863">
        <ele>201.2</ele>
        <time>2017-12-23T11:10:55Z</time>
      </trkpt>
      <trkpt lat="62.635835262195" lon="17.986179499459">
        <ele>201.4</ele>
        <time>2017-12-23T11:10:56Z</time>
      </trkpt>
      <trkpt lat="62.635811876694" lon="17.986220654588">
        <ele>201.4</ele>
        <time>2017-12-23T11:10:57Z</time>
      </trkpt>
      <trkpt lat="62.635794023247" lon="17.986252841084">
        <ele>201.4</ele>
        <time>2017-12-23T11:10:58Z</time>
      </trkpt>
      <trkpt lat="62.635777175628" lon="17.986279746983">
        <ele>201.4</ele>
        <time>2017-12-23T11:10:59Z</time>
      </trkpt>
      <trkpt lat="62.635762339665" lon="17.986317214076">
        <ele>201.4</ele>
        <time>2017-12-23T11:11:00Z</time>
      </trkpt>
      <trkpt lat="62.635748341892" lon="17.986351328409">
        <ele>201.4</ele>
        <time>2017-12-23T11:11:01Z</time>
      </trkpt>
      <trkpt lat="62.635736104318" lon="17.986382173801">
        <ele>201.4</ele>
        <time>2017-12-23T11:11:02Z</time>
      </trkpt>
      <trkpt lat="62.635720681622" lon="17.986415869039">
        <ele>201.4</ele>
        <time>2017-12-23T11:11:03Z</time>
      </trkpt>
      <trkpt lat="62.635708360229" lon="17.986445205689">
        <ele>201.6</ele>
        <time>2017-12-23T11:11:04Z</time>
      </trkpt>
      <trkpt lat="62.635691344972" lon="17.98647781128">
        <ele>201.8</ele>
        <time>2017-12-23T11:11:05Z</time>
      </trkpt>
      <trkpt lat="62.635672820973" lon="17.986518295857">
        <ele>202.2</ele>
        <time>2017-12-23T11:11:06Z</time>
      </trkpt>
      <trkpt lat="62.635656392449" lon="17.986550398534">
        <ele>202.4</ele>
        <time>2017-12-23T11:11:07Z</time>
      </trkpt>
      <trkpt lat="62.635641305029" lon="17.986602785409">
        <ele>202.6</ele>
        <time>2017-12-23T11:11:08Z</time>
      </trkpt>
      <trkpt lat="62.635624960324" lon="17.986630529498">
        <ele>202.8</ele>
        <time>2017-12-23T11:11:09Z</time>
      </trkpt>
      <trkpt lat="62.635610124361" lon="17.986667912772">
        <ele>202.8</ele>
        <time>2017-12-23T11:11:10Z</time>
      </trkpt>
      <trkpt lat="62.635595456036" lon="17.986699847811">
        <ele>202.8</ele>
        <time>2017-12-23T11:11:11Z</time>
      </trkpt>
      <trkpt lat="62.635587493231" lon="17.986745864442">
        <ele>202.8</ele>
        <time>2017-12-23T11:11:12Z</time>
      </trkpt>
      <trkpt lat="62.635575758571" lon="17.986781319879">
        <ele>202.8</ele>
        <time>2017-12-23T11:11:13Z</time>
      </trkpt>
      <trkpt lat="62.635558827133" lon="17.986812081452">
        <ele>202.8</ele>
        <time>2017-12-23T11:11:14Z</time>
      </trkpt>
      <trkpt lat="62.635551451061" lon="17.986851224925">
        <ele>203</ele>
        <time>2017-12-23T11:11:15Z</time>
      </trkpt>
      <trkpt lat="62.635535441632" lon="17.986884501068">
        <ele>203</ele>
        <time>2017-12-23T11:11:16Z</time>
      </trkpt>
      <trkpt lat="62.635524964257" lon="17.986922554894">
        <ele>203.2</ele>
        <time>2017-12-23T11:11:17Z</time>
      </trkpt>
      <trkpt lat="62.63550291986" lon="17.986965051127">
        <ele>203.4</ele>
        <time>2017-12-23T11:11:18Z</time>
      </trkpt>
      <trkpt lat="62.635490011734" lon="17.987016599812">
        <ele>203.4</ele>
        <time>2017-12-23T11:11:19Z</time>
      </trkpt>
      <trkpt lat="62.635475343409" lon="17.987056497656">
        <ele>203.6</ele>
        <time>2017-12-23T11:11:20Z</time>
      </trkpt>
      <trkpt lat="62.635460758903" lon="17.987095389672">
        <ele>203.8</ele>
        <time>2017-12-23T11:11:21Z</time>
      </trkpt>
      <trkpt lat="62.635452963736" lon="17.987130258376">
        <ele>203.8</ele>
        <time>2017-12-23T11:11:22Z</time>
      </trkpt>
      <trkpt lat="62.635443492189" lon="17.987170575315">
        <ele>203.8</ele>
        <time>2017-12-23T11:11:23Z</time>
      </trkpt>
      <trkpt lat="62.635430248787" lon="17.987211730444">
        <ele>204</ele>
        <time>2017-12-23T11:11:24Z</time>
      </trkpt>
      <trkpt lat="62.63541826267" lon="17.987244838949">
        <ele>204.2</ele>
        <time>2017-12-23T11:11:25Z</time>
      </trkpt>
      <trkpt lat="62.635405606001" lon="17.987279791472">
        <ele>204.4</ele>
        <time>2017-12-23T11:11:26Z</time>
      </trkpt>
      <trkpt lat="62.635396637368" lon="17.987318851126">
        <ele>204.6</ele>
        <time>2017-12-23T11:11:27Z</time>
      </trkpt>
      <trkpt lat="62.635380879396" lon="17.987355982943">
        <ele>204.8</ele>
        <time>2017-12-23T11:11:28Z</time>
      </trkpt>
      <trkpt lat="62.635369060917" lon="17.987395042597">
        <ele>205</ele>
        <time>2017-12-23T11:11:29Z</time>
      </trkpt>
      <trkpt lat="62.635350956013" lon="17.987429073111">
        <ele>205</ele>
        <time>2017-12-23T11:11:30Z</time>
      </trkpt>
      <trkpt lat="62.63533444367" lon="17.987462768349">
        <ele>205.2</ele>
        <time>2017-12-23T11:11:31Z</time>
      </trkpt>
      <trkpt lat="62.635318350422" lon="17.987493529922">
        <ele>205.2</ele>
        <time>2017-12-23T11:11:32Z</time>
      </trkpt>
      <trkpt lat="62.63530343064" lon="17.987534349775">
        <ele>205.4</ele>
        <time>2017-12-23T11:11:33Z</time>
      </trkpt>
      <trkpt lat="62.635289516686" lon="17.987565949538">
        <ele>205.4</ele>
        <time>2017-12-23T11:11:34Z</time>
      </trkpt>
      <trkpt lat="62.635270992687" lon="17.987596375835">
        <ele>205.4</ele>
        <time>2017-12-23T11:11:35Z</time>
      </trkpt>
      <trkpt lat="62.635259593303" lon="17.987633340014">
        <ele>205.8</ele>
        <time>2017-12-23T11:11:36Z</time>
      </trkpt>
      <trkpt lat="62.635241739856" lon="17.98766217375">
        <ele>205.8</ele>
        <time>2017-12-23T11:11:37Z</time>
      </trkpt>
      <trkpt lat="62.635226820074" lon="17.987706262544">
        <ele>205.8</ele>
        <time>2017-12-23T11:11:38Z</time>
      </trkpt>
      <trkpt lat="62.635207374066" lon="17.987731156787">
        <ele>205.8</ele>
        <time>2017-12-23T11:11:39Z</time>
      </trkpt>
      <trkpt lat="62.63519278956" lon="17.987771306088">
        <ele>206</ele>
        <time>2017-12-23T11:11:40Z</time>
      </trkpt>
      <trkpt lat="62.63517686395" lon="17.987798044349">
        <ele>205.8</ele>
        <time>2017-12-23T11:11:41Z</time>
      </trkpt>
      <trkpt lat="62.635158339951" lon="17.987823609144">
        <ele>205.8</ele>
        <time>2017-12-23T11:11:42Z</time>
      </trkpt>
      <trkpt lat="62.635140654142" lon="17.987853951622">
        <ele>205.8</ele>
        <time>2017-12-23T11:11:43Z</time>
      </trkpt>
      <trkpt lat="62.635121627229" lon="17.987884210281">
        <ele>205.8</ele>
        <time>2017-12-23T11:11:44Z</time>
      </trkpt>
      <trkpt lat="62.635110227845" lon="17.987915810044">
        <ele>206</ele>
        <time>2017-12-23T11:11:45Z</time>
      </trkpt>
      <trkpt lat="62.635090362742" lon="17.987945817246">
        <ele>206</ele>
        <time>2017-12-23T11:11:46Z</time>
      </trkpt>
      <trkpt lat="62.635077789892" lon="17.987974399525">
        <ele>206.2</ele>
        <time>2017-12-23T11:11:47Z</time>
      </trkpt>
      <trkpt lat="62.635055494038" lon="17.988006083107">
        <ele>206.4</ele>
        <time>2017-12-23T11:11:48Z</time>
      </trkpt>
      <trkpt lat="62.635045687215" lon="17.988030725893">
        <ele>206.6</ele>
        <time>2017-12-23T11:11:49Z</time>
      </trkpt>
      <trkpt lat="62.635024481008" lon="17.988049920444">
        <ele>206.8</ele>
        <time>2017-12-23T11:11:50Z</time>
      </trkpt>
      <trkpt lat="62.635013668357" lon="17.988076826343">
        <ele>207</ele>
        <time>2017-12-23T11:11:51Z</time>
      </trkpt>
      <trkpt lat="62.63499497672" lon="17.988098535464">
        <ele>207.2</ele>
        <time>2017-12-23T11:11:52Z</time>
      </trkpt>
      <trkpt lat="62.634980392214" lon="17.988116305092">
        <ele>207.4</ele>
        <time>2017-12-23T11:11:53Z</time>
      </trkpt>
      <trkpt lat="62.634964969518" lon="17.988136840747">
        <ele>207.6</ele>
        <time>2017-12-23T11:11:54Z</time>
      </trkpt>
      <trkpt lat="62.634943260397" lon="17.988165842121">
        <ele>207.8</ele>
        <time>2017-12-23T11:11:55Z</time>
      </trkpt>
      <trkpt lat="62.634933705031" lon="17.988193334753">
        <ele>207.8</ele>
        <time>2017-12-23T11:11:56Z</time>
      </trkpt>
      <trkpt lat="62.634912917919" lon="17.988204650318">
        <ele>208</ele>
        <time>2017-12-23T11:11:57Z</time>
      </trkpt>
      <trkpt lat="62.63489774668" lon="17.988226527077">
        <ele>208</ele>
        <time>2017-12-23T11:11:58Z</time>
      </trkpt>
      <trkpt lat="62.634876037559" lon="17.98823130476">
        <ele>208</ele>
        <time>2017-12-23T11:11:59Z</time>
      </trkpt>
      <trkpt lat="62.634852568239" lon="17.988237675004">
        <ele>208</ele>
        <time>2017-12-23T11:12:00Z</time>
      </trkpt>
      <trkpt lat="62.634836474991" lon="17.988247398008">
        <ele>208</ele>
        <time>2017-12-23T11:12:01Z</time>
      </trkpt>
      <trkpt lat="62.634812418938" lon="17.988256618098">
        <ele>208</ele>
        <time>2017-12-23T11:12:02Z</time>
      </trkpt>
      <trkpt lat="62.63478962017" lon="17.988269693862">
        <ele>208</ele>
        <time>2017-12-23T11:12:03Z</time>
      </trkpt>
      <trkpt lat="62.634778304605" lon="17.988262569247">
        <ele>208.2</ele>
        <time>2017-12-23T11:12:04Z</time>
      </trkpt>
      <trkpt lat="62.634760618796" lon="17.988269693862">
        <ele>208</ele>
        <time>2017-12-23T11:12:05Z</time>
      </trkpt>
      <trkpt lat="62.634740669874" lon="17.988268520396">
        <ele>208</ele>
        <time>2017-12-23T11:12:06Z</time>
      </trkpt>
      <trkpt lat="62.634724325169" lon="17.988281177065">
        <ele>208.2</ele>
        <time>2017-12-23T11:12:07Z</time>
      </trkpt>
      <trkpt lat="62.634700352935" lon="17.988284026911">
        <ele>208.2</ele>
        <time>2017-12-23T11:12:08Z</time>
      </trkpt>
      <trkpt lat="62.634683672954" lon="17.988283356359">
        <ele>208.4</ele>
        <time>2017-12-23T11:12:09Z</time>
      </trkpt>
      <trkpt lat="62.634664394584" lon="17.988276483201">
        <ele>208.6</ele>
        <time>2017-12-23T11:12:10Z</time>
      </trkpt>
      <trkpt lat="62.634644948576" lon="17.988283021083">
        <ele>208.6</ele>
        <time>2017-12-23T11:12:11Z</time>
      </trkpt>
      <trkpt lat="62.634624915835" lon="17.9882866253">
        <ele>208.8</ele>
        <time>2017-12-23T11:12:12Z</time>
      </trkpt>
      <trkpt lat="62.634596585013" lon="17.988290480974">
        <ele>209</ele>
        <time>2017-12-23T11:12:13Z</time>
      </trkpt>
      <trkpt lat="62.634575294987" lon="17.988290732431">
        <ele>209.2</ele>
        <time>2017-12-23T11:12:14Z</time>
      </trkpt>
      <trkpt lat="62.634558866463" lon="17.988293833734">
        <ele>209.4</ele>
        <time>2017-12-23T11:12:15Z</time>
      </trkpt>
      <trkpt lat="62.634540593921" lon="17.988297102675">
        <ele>209.4</ele>
        <time>2017-12-23T11:12:16Z</time>
      </trkpt>
      <trkpt lat="62.63452223756" lon="17.988296935037">
        <ele>209.4</ele>
        <time>2017-12-23T11:12:17Z</time>
      </trkpt>
      <trkpt lat="62.634500863715" lon="17.988302047996">
        <ele>209.4</ele>
        <time>2017-12-23T11:12:18Z</time>
      </trkpt>
      <trkpt lat="62.634477562033" lon="17.988301628901">
        <ele>209.6</ele>
        <time>2017-12-23T11:12:19Z</time>
      </trkpt>
      <trkpt lat="62.634456439645" lon="17.988310346077">
        <ele>209.6</ele>
        <time>2017-12-23T11:12:20Z</time>
      </trkpt>
      <trkpt lat="62.634431796859" lon="17.988313698837">
        <ele>209.6</ele>
        <time>2017-12-23T11:12:21Z</time>
      </trkpt>
      <trkpt lat="62.634405226236" lon="17.988324930583">
        <ele>209.6</ele>
        <time>2017-12-23T11:12:22Z</time>
      </trkpt>
      <trkpt lat="62.634381337821" lon="17.988320655814">
        <ele>209.8</ele>
        <time>2017-12-23T11:12:23Z</time>
      </trkpt>
      <trkpt lat="62.634363903469" lon="17.988323840936">
        <ele>210</ele>
        <time>2017-12-23T11:12:24Z</time>
      </trkpt>
      <trkpt lat="62.634332471344" lon="17.988308166783">
        <ele>210.2</ele>
        <time>2017-12-23T11:12:25Z</time>
      </trkpt>
      <trkpt lat="62.634305565445" lon="17.988309675525">
        <ele>210.4</ele>
        <time>2017-12-23T11:12:26Z</time>
      </trkpt>
      <trkpt lat="62.634274049501" lon="17.988297857046">
        <ele>210.4</ele>
        <time>2017-12-23T11:12:27Z</time>
      </trkpt>
      <trkpt lat="62.634248317068" lon="17.988291319164">
        <ele>210.4</ele>
        <time>2017-12-23T11:12:28Z</time>
      </trkpt>
      <trkpt lat="62.634221997902" lon="17.988275980287">
        <ele>210.4</ele>
        <time>2017-12-23T11:12:29Z</time>
      </trkpt>
      <trkpt lat="62.634193331804" lon="17.988272292251">
        <ele>210.4</ele>
        <time>2017-12-23T11:12:30Z</time>
      </trkpt>
      <trkpt lat="62.634166090629" lon="17.988262569247">
        <ele>210.4</ele>
        <time>2017-12-23T11:12:31Z</time>
      </trkpt>
      <trkpt lat="62.634139939101" lon="17.988251924234">
        <ele>210.4</ele>
        <time>2017-12-23T11:12:32Z</time>
      </trkpt>
      <trkpt lat="62.634111943555" lon="17.988238429375">
        <ele>210.4</ele>
        <time>2017-12-23T11:12:33Z</time>
      </trkpt>
      <trkpt lat="62.634085456751" lon="17.988225521249">
        <ele>210.6</ele>
        <time>2017-12-23T11:12:34Z</time>
      </trkpt>
      <trkpt lat="62.634067184209" lon="17.988219318643">
        <ele>210.6</ele>
        <time>2017-12-23T11:12:35Z</time>
      </trkpt>
      <trkpt lat="62.634037679921" lon="17.988202638662">
        <ele>210.6</ele>
        <time>2017-12-23T11:12:36Z</time>
      </trkpt>
      <trkpt lat="62.634014629696" lon="17.988189730536">
        <ele>210.8</ele>
        <time>2017-12-23T11:12:37Z</time>
      </trkpt>
      <trkpt lat="62.633997111525" lon="17.988171206537">
        <ele>211</ele>
        <time>2017-12-23T11:12:38Z</time>
      </trkpt>
      <trkpt lat="62.633976911146" lon="17.988162405542">
        <ele>211</ele>
        <time>2017-12-23T11:12:39Z</time>
      </trkpt>
      <trkpt lat="62.633952771274" lon="17.988136924566">
        <ele>211.2</ele>
        <time>2017-12-23T11:12:40Z</time>
      </trkpt>
      <trkpt lat="62.63393047542" lon="17.988122675336">
        <ele>211.4</ele>
        <time>2017-12-23T11:12:41Z</time>
      </trkpt>
      <trkpt lat="62.633908598661" lon="17.988101888224">
        <ele>211.4</ele>
        <time>2017-12-23T11:12:42Z</time>
      </trkpt>
      <trkpt lat="62.633879932563" lon="17.988075652877">
        <ele>211.4</ele>
        <time>2017-12-23T11:12:43Z</time>
      </trkpt>
      <trkpt lat="62.633860738012" lon="17.988055787774">
        <ele>211.4</ele>
        <time>2017-12-23T11:12:44Z</time>
      </trkpt>
      <trkpt lat="62.633839196529" lon="17.988034413929">
        <ele>211.4</ele>
        <time>2017-12-23T11:12:45Z</time>
      </trkpt>
      <trkpt lat="62.633814721381" lon="17.988018153043">
        <ele>211.2</ele>
        <time>2017-12-23T11:12:46Z</time>
      </trkpt>
      <trkpt lat="62.633794353364" lon="17.987991079506">
        <ele>211.4</ele>
        <time>2017-12-23T11:12:47Z</time>
      </trkpt>
      <trkpt lat="62.633772728062" lon="17.987961910494">
        <ele>211.4</ele>
        <time>2017-12-23T11:12:48Z</time>
      </trkpt>
      <trkpt lat="62.633752276226" lon="17.98793123274">
        <ele>211.2</ele>
        <time>2017-12-23T11:12:49Z</time>
      </trkpt>
      <trkpt lat="62.633731656752" lon="17.98791111618">
        <ele>211.4</ele>
        <time>2017-12-23T11:12:50Z</time>
      </trkpt>
      <trkpt lat="62.633708857984" lon="17.987891167258">
        <ele>211.4</ele>
        <time>2017-12-23T11:12:51Z</time>
      </trkpt>
      <trkpt lat="62.633692010365" lon="17.987867111205">
        <ele>211.4</ele>
        <time>2017-12-23T11:12:52Z</time>
      </trkpt>
      <trkpt lat="62.633678850782" lon="17.987843893342">
        <ele>211.6</ele>
        <time>2017-12-23T11:12:53Z</time>
      </trkpt>
      <trkpt lat="62.633656638747" lon="17.987819837289">
        <ele>211.6</ele>
        <time>2017-12-23T11:12:54Z</time>
      </trkpt>
      <trkpt lat="62.633637025101" lon="17.98778874044">
        <ele>211.8</ele>
        <time>2017-12-23T11:12:55Z</time>
      </trkpt>
      <trkpt lat="62.633618417283" lon="17.987776251409">
        <ele>211.8</ele>
        <time>2017-12-23T11:12:56Z</time>
      </trkpt>
      <trkpt lat="62.633597127257" lon="17.987751524804">
        <ele>211.8</ele>
        <time>2017-12-23T11:12:57Z</time>
      </trkpt>
      <trkpt lat="62.633574831403" lon="17.987731072968">
        <ele>212</ele>
        <time>2017-12-23T11:12:58Z</time>
      </trkpt>
      <trkpt lat="62.633556558861" lon="17.987700981947">
        <ele>212</ele>
        <time>2017-12-23T11:12:59Z</time>
      </trkpt>
      <trkpt lat="62.633536609939" lon="17.987666029424">
        <ele>212.2</ele>
        <time>2017-12-23T11:13:00Z</time>
      </trkpt>
      <trkpt lat="62.633515152275" lon="17.987636441317">
        <ele>212.2</ele>
        <time>2017-12-23T11:13:01Z</time>
      </trkpt>
      <trkpt lat="62.633497634104" lon="17.987609535418">
        <ele>212.2</ele>
        <time>2017-12-23T11:13:02Z</time>
      </trkpt>
      <trkpt lat="62.633478104277" lon="17.98758003113">
        <ele>212.2</ele>
        <time>2017-12-23T11:13:03Z</time>
      </trkpt>
      <trkpt lat="62.633460921382" lon="17.987559663113">
        <ele>212.2</ele>
        <time>2017-12-23T11:13:04Z</time>
      </trkpt>
      <trkpt lat="62.633441056279" lon="17.987534685051">
        <ele>212.2</ele>
        <time>2017-12-23T11:13:05Z</time>
      </trkpt>
      <trkpt lat="62.63342001771" lon="17.987502498555">
        <ele>212</ele>
        <time>2017-12-23T11:13:06Z</time>
      </trkpt>
      <trkpt lat="62.633405684661" lon="17.987465869652">
        <ele>212</ele>
        <time>2017-12-23T11:13:07Z</time>
      </trkpt>
      <trkpt lat="62.633386993024" lon="17.987419517745">
        <ele>212</ele>
        <time>2017-12-23T11:13:08Z</time>
      </trkpt>
      <trkpt lat="62.633369055758" lon="17.987371489458">
        <ele>212.2</ele>
        <time>2017-12-23T11:13:09Z</time>
      </trkpt>
      <trkpt lat="62.633346759904" lon="17.987318348212">
        <ele>212.4</ele>
        <time>2017-12-23T11:13:10Z</time>
      </trkpt>
      <trkpt lat="62.633323039127" lon="17.987255064867">
        <ele>212.6</ele>
        <time>2017-12-23T11:13:11Z</time>
      </trkpt>
      <trkpt lat="62.633303341662" lon="17.987187003839">
        <ele>212.8</ele>
        <time>2017-12-23T11:13:12Z</time>
      </trkpt>
      <trkpt lat="62.633288002785" lon="17.987084325564">
        <ele>212.8</ele>
        <time>2017-12-23T11:13:13Z</time>
      </trkpt>
      <trkpt lat="62.633268724415" lon="17.986982988393">
        <ele>212.2</ele>
        <time>2017-12-23T11:13:14Z</time>
      </trkpt>
      <trkpt lat="62.633256738298" lon="17.98688768619">
        <ele>211</ele>
        <time>2017-12-23T11:13:15Z</time>
      </trkpt>
      <trkpt lat="62.633244500724" lon="17.986792803082">
        <ele>210.2</ele>
        <time>2017-12-23T11:13:16Z</time>
      </trkpt>
      <trkpt lat="62.633233520435" lon="17.986711917747">
        <ele>209.6</ele>
        <time>2017-12-23T11:13:17Z</time>
      </trkpt>
      <trkpt lat="62.633227317829" lon="17.986615609716">
        <ele>209.2</ele>
        <time>2017-12-23T11:13:18Z</time>
      </trkpt>
      <trkpt lat="62.633213068599" lon="17.986522654445">
        <ele>208.8</ele>
        <time>2017-12-23T11:13:19Z</time>
      </trkpt>
      <trkpt lat="62.633216505178" lon="17.986451156838">
        <ele>208.6</ele>
        <time>2017-12-23T11:13:20Z</time>
      </trkpt>
      <trkpt lat="62.633218516834" lon="17.986368678942">
        <ele>209.2</ele>
        <time>2017-12-23T11:13:21Z</time>
      </trkpt>
      <trkpt lat="62.633216253721" lon="17.986273125282">
        <ele>209.6</ele>
        <time>2017-12-23T11:13:22Z</time>
      </trkpt>
      <trkpt lat="62.633210721667" lon="17.98617773926">
        <ele>210.2</ele>
        <time>2017-12-23T11:13:23Z</time>
      </trkpt>
      <trkpt lat="62.633206111622" lon="17.986074977166">
        <ele>210.6</ele>
        <time>2017-12-23T11:13:24Z</time>
      </trkpt>
      <trkpt lat="62.633203848509" lon="17.98597489728">
        <ele>210.8</ele>
        <time>2017-12-23T11:13:25Z</time>
      </trkpt>
      <trkpt lat="62.633202591224" lon="17.985866100218">
        <ele>210.8</ele>
        <time>2017-12-23T11:13:26Z</time>
      </trkpt>
      <trkpt lat="62.633208626192" lon="17.985774486051">
        <ele>210.2</ele>
        <time>2017-12-23T11:13:27Z</time>
      </trkpt>
      <trkpt lat="62.633216840454" lon="17.98567650164">
        <ele>209.4</ele>
        <time>2017-12-23T11:13:28Z</time>
      </trkpt>
      <trkpt lat="62.633217427187" lon="17.985589916613">
        <ele>209.2</ele>
        <time>2017-12-23T11:13:29Z</time>
      </trkpt>
      <trkpt lat="62.633214577341" lon="17.985490842555">
        <ele>208.8</ele>
        <time>2017-12-23T11:13:30Z</time>
      </trkpt>
      <trkpt lat="62.633208877649" lon="17.985381374941">
        <ele>208.8</ele>
        <time>2017-12-23T11:13:31Z</time>
      </trkpt>
      <trkpt lat="62.63321549935" lon="17.985262351961">
        <ele>209</ele>
        <time>2017-12-23T11:13:32Z</time>
      </trkpt>
      <trkpt lat="62.633224887078" lon="17.985126062267">
        <ele>208.6</ele>
        <time>2017-12-23T11:13:33Z</time>
      </trkpt>
      <trkpt lat="62.633239471584" lon="17.985002010147">
        <ele>207.8</ele>
        <time>2017-12-23T11:13:34Z</time>
      </trkpt>
      <trkpt lat="62.633255313375" lon="17.98489363218">
        <ele>207.4</ele>
        <time>2017-12-23T11:13:35Z</time>
      </trkpt>
      <trkpt lat="62.633276100487" lon="17.984778632512">
        <ele>206.4</ele>
        <time>2017-12-23T11:13:36Z</time>
      </trkpt>
      <trkpt lat="62.633294456848" lon="17.984685844879">
        <ele>205.4</ele>
        <time>2017-12-23T11:13:37Z</time>
      </trkpt>
      <trkpt lat="62.633312394114" lon="17.984591967599">
        <ele>204.8</ele>
        <time>2017-12-23T11:13:38Z</time>
      </trkpt>
      <trkpt lat="62.633329996104" lon="17.984516279042">
        <ele>204.6</ele>
        <time>2017-12-23T11:13:39Z</time>
      </trkpt>
      <trkpt lat="62.63335212432" lon="17.984448218014">
        <ele>204.4</ele>
        <time>2017-12-23T11:13:40Z</time>
      </trkpt>
      <trkpt lat="62.633371905604" lon="17.984380324624">
        <ele>204.4</ele>
        <time>2017-12-23T11:13:41Z</time>
      </trkpt>
      <trkpt lat="62.633379114038" lon="17.984302624411">
        <ele>204.6</ele>
        <time>2017-12-23T11:13:42Z</time>
      </trkpt>
      <trkpt lat="62.633384729911" lon="17.984236826496">
        <ele>204.8</ele>
        <time>2017-12-23T11:13:43Z</time>
      </trkpt>
      <trkpt lat="62.633393111811" lon="17.984158288093">
        <ele>205</ele>
        <time>2017-12-23T11:13:44Z</time>
      </trkpt>
      <trkpt lat="62.633395794019" lon="17.984091987264">
        <ele>205.2</ele>
        <time>2017-12-23T11:13:45Z</time>
      </trkpt>
      <trkpt lat="62.633402750996" lon="17.984033230145">
        <ele>205.4</ele>
        <time>2017-12-23T11:13:46Z</time>
      </trkpt>
      <trkpt lat="62.633408702145" lon="17.983971874637">
        <ele>205.8</ele>
        <time>2017-12-23T11:13:47Z</time>
      </trkpt>
      <trkpt lat="62.633413898923" lon="17.983921499418">
        <ele>206</ele>
        <time>2017-12-23T11:13:48Z</time>
      </trkpt>
      <trkpt lat="62.633417838416" lon="17.983861904109">
        <ele>206.2</ele>
        <time>2017-12-23T11:13:49Z</time>
      </trkpt>
      <trkpt lat="62.633420688262" lon="17.983804152818">
        <ele>206</ele>
        <time>2017-12-23T11:13:50Z</time>
      </trkpt>
      <trkpt lat="62.633426974687" lon="17.983755202522">
        <ele>206.4</ele>
        <time>2017-12-23T11:13:51Z</time>
      </trkpt>
      <trkpt lat="62.633441391555" lon="17.983697451231">
        <ele>206.4</ele>
        <time>2017-12-23T11:13:52Z</time>
      </trkpt>
      <trkpt lat="62.633447007428" lon="17.983626959452">
        <ele>206.4</ele>
        <time>2017-12-23T11:13:53Z</time>
      </trkpt>
      <trkpt lat="62.633456227518" lon="17.983557054406">
        <ele>206.4</ele>
        <time>2017-12-23T11:13:54Z</time>
      </trkpt>
      <trkpt lat="62.633463016857" lon="17.983501650047">
        <ele>206.6</ele>
        <time>2017-12-23T11:13:55Z</time>
      </trkpt>
      <trkpt lat="62.633469638558" lon="17.983447000059">
        <ele>206.4</ele>
        <time>2017-12-23T11:13:56Z</time>
      </trkpt>
      <trkpt lat="62.633479696838" lon="17.983391847157">
        <ele>206.4</ele>
        <time>2017-12-23T11:13:57Z</time>
      </trkpt>
      <trkpt lat="62.63349126386" lon="17.983344237965">
        <ele>206.2</ele>
        <time>2017-12-23T11:13:58Z</time>
      </trkpt>
      <trkpt lat="62.63350383671" lon="17.983291180538">
        <ele>206.2</ele>
        <time>2017-12-23T11:13:59Z</time>
      </trkpt>
      <trkpt lat="62.63350802766" lon="17.983227142822">
        <ele>206.2</ele>
        <time>2017-12-23T11:14:00Z</time>
      </trkpt>
      <trkpt lat="62.633520181415" lon="17.983170648816">
        <ele>206</ele>
        <time>2017-12-23T11:14:01Z</time>
      </trkpt>
      <trkpt lat="62.633535771749" lon="17.983114741543">
        <ele>206</ele>
        <time>2017-12-23T11:14:02Z</time>
      </trkpt>
      <trkpt lat="62.633548512237" lon="17.983061265021">
        <ele>205.8</ele>
        <time>2017-12-23T11:14:03Z</time>
      </trkpt>
      <trkpt lat="62.633561168906" lon="17.983009213422">
        <ele>205.8</ele>
        <time>2017-12-23T11:14:04Z</time>
      </trkpt>
      <trkpt lat="62.633569802263" lon="17.982958670565">
        <ele>206</ele>
        <time>2017-12-23T11:14:05Z</time>
      </trkpt>
      <trkpt lat="62.63358514114" lon="17.982899661989">
        <ele>205.8</ele>
        <time>2017-12-23T11:14:06Z</time>
      </trkpt>
      <trkpt lat="62.633593439221" lon="17.982849538227">
        <ele>206</ele>
        <time>2017-12-23T11:14:07Z</time>
      </trkpt>
      <trkpt lat="62.633609700107" lon="17.982785416692">
        <ele>206</ele>
        <time>2017-12-23T11:14:08Z</time>
      </trkpt>
      <trkpt lat="62.63362872702" lon="17.982728671229">
        <ele>206.2</ele>
        <time>2017-12-23T11:14:09Z</time>
      </trkpt>
      <trkpt lat="62.633639288214" lon="17.982671674309">
        <ele>206.4</ele>
        <time>2017-12-23T11:14:10Z</time>
      </trkpt>
      <trkpt lat="62.633644065897" lon="17.982626663506">
        <ele>206.2</ele>
        <time>2017-12-23T11:14:11Z</time>
      </trkpt>
      <trkpt lat="62.633652699254" lon="17.982552148415">
        <ele>206.4</ele>
        <time>2017-12-23T11:14:12Z</time>
      </trkpt>
      <trkpt lat="62.633660829697" lon="17.982481572817">
        <ele>206.4</ele>
        <time>2017-12-23T11:14:13Z</time>
      </trkpt>
      <trkpt lat="62.633664350095" lon="17.982419798214">
        <ele>206.4</ele>
        <time>2017-12-23T11:14:14Z</time>
      </trkpt>
      <trkpt lat="62.633674659832" lon="17.982348971159">
        <ele>206.4</ele>
        <time>2017-12-23T11:14:15Z</time>
      </trkpt>
      <trkpt lat="62.633680527162" lon="17.982294237352">
        <ele>206.4</ele>
        <time>2017-12-23T11:14:16Z</time>
      </trkpt>
      <trkpt lat="62.633688154691" lon="17.982235480233">
        <ele>206.4</ele>
        <time>2017-12-23T11:14:17Z</time>
      </trkpt>
      <trkpt lat="62.633693519107" lon="17.982164234083">
        <ele>206.4</ele>
        <time>2017-12-23T11:14:18Z</time>
      </trkpt>
      <trkpt lat="62.63369997317" lon="17.982110673742">
        <ele>206.4</ele>
        <time>2017-12-23T11:14:19Z</time>
      </trkpt>
      <trkpt lat="62.633705672862" lon="17.982054850288">
        <ele>206.4</ele>
        <time>2017-12-23T11:14:20Z</time>
      </trkpt>
      <trkpt lat="62.633717742798" lon="17.98202115505">
        <ele>206.4</ele>
        <time>2017-12-23T11:14:21Z</time>
      </trkpt>
      <trkpt lat="62.633724615956" lon="17.981988046545">
        <ele>206.4</ele>
        <time>2017-12-23T11:14:22Z</time>
      </trkpt>
      <trkpt lat="62.633728639268" lon="17.981941610819">
        <ele>206.4</ele>
        <time>2017-12-23T11:14:23Z</time>
      </trkpt>
      <trkpt lat="62.633732830218" lon="17.981884781537">
        <ele>206.6</ele>
        <time>2017-12-23T11:14:24Z</time>
      </trkpt>
      <trkpt lat="62.633731070019" lon="17.981824767133">
        <ele>206.4</ele>
        <time>2017-12-23T11:14:25Z</time>
      </trkpt>
      <trkpt lat="62.633735847702" lon="17.98177137443">
        <ele>206.6</ele>
        <time>2017-12-23T11:14:26Z</time>
      </trkpt>
      <trkpt lat="62.633738697548" lon="17.981714712786">
        <ele>206.6</ele>
        <time>2017-12-23T11:14:27Z</time>
      </trkpt>
      <trkpt lat="62.633738278453" lon="17.981652267631">
        <ele>206.6</ele>
        <time>2017-12-23T11:14:28Z</time>
      </trkpt>
      <trkpt lat="62.63374858819" lon="17.981595019254">
        <ele>206.8</ele>
        <time>2017-12-23T11:14:29Z</time>
      </trkpt>
      <trkpt lat="62.633761412497" lon="17.981553947944">
        <ele>206.6</ele>
        <time>2017-12-23T11:14:30Z</time>
      </trkpt>
      <trkpt lat="62.633769040026" lon="17.981510445883">
        <ele>206.8</ele>
        <time>2017-12-23T11:14:31Z</time>
      </trkpt>
      <trkpt lat="62.633781026143" lon="17.981454957705">
        <ele>206.8</ele>
        <time>2017-12-23T11:14:32Z</time>
      </trkpt>
      <trkpt lat="62.633787061111" lon="17.981396200586">
        <ele>206.8</ele>
        <time>2017-12-23T11:14:33Z</time>
      </trkpt>
      <trkpt lat="62.633801142703" lon="17.981338616933">
        <ele>206.8</ele>
        <time>2017-12-23T11:14:34Z</time>
      </trkpt>
      <trkpt lat="62.633814637562" lon="17.981298299994">
        <ele>207</ele>
        <time>2017-12-23T11:14:35Z</time>
      </trkpt>
      <trkpt lat="62.633823019462" lon="17.981254546476">
        <ele>207</ele>
        <time>2017-12-23T11:14:36Z</time>
      </trkpt>
      <trkpt lat="62.633831485181" lon="17.98121984541">
        <ele>207</ele>
        <time>2017-12-23T11:14:37Z</time>
      </trkpt>
      <trkpt lat="62.633846488782" lon="17.981176678625">
        <ele>206.8</ele>
        <time>2017-12-23T11:14:38Z</time>
      </trkpt>
      <trkpt lat="62.633855708872" lon="17.981141139369">
        <ele>207</ele>
        <time>2017-12-23T11:14:39Z</time>
      </trkpt>
      <trkpt lat="62.633872472672" lon="17.981098391679">
        <ele>206.8</ele>
        <time>2017-12-23T11:14:40Z</time>
      </trkpt>
      <trkpt lat="62.633886470445" lon="17.98105975112">
        <ele>207</ele>
        <time>2017-12-23T11:14:41Z</time>
      </trkpt>
      <trkpt lat="62.633900635856" lon="17.981019685638">
        <ele>207</ele>
        <time>2017-12-23T11:14:42Z</time>
      </trkpt>
      <trkpt lat="62.633914130715" lon="17.980978530509">
        <ele>207</ele>
        <time>2017-12-23T11:14:43Z</time>
      </trkpt>
      <trkpt lat="62.633924188995" lon="17.980941817787">
        <ele>207.2</ele>
        <time>2017-12-23T11:14:44Z</time>
      </trkpt>
      <trkpt lat="62.633942545356" lon="17.98090049502">
        <ele>207.4</ele>
        <time>2017-12-23T11:14:45Z</time>
      </trkpt>
      <trkpt lat="62.633956962224" lon="17.980860513357">
        <ele>207.6</ele>
        <time>2017-12-23T11:14:46Z</time>
      </trkpt>
      <trkpt lat="62.633971295273" lon="17.980826063748">
        <ele>207.6</ele>
        <time>2017-12-23T11:14:47Z</time>
      </trkpt>
      <trkpt lat="62.633989819272" lon="17.98077309014">
        <ele>207.8</ele>
        <time>2017-12-23T11:14:48Z</time>
      </trkpt>
      <trkpt lat="62.634000799561" lon="17.980724642758">
        <ele>208</ele>
        <time>2017-12-23T11:14:49Z</time>
      </trkpt>
      <trkpt lat="62.634014797334" lon="17.980670747141">
        <ele>208.2</ele>
        <time>2017-12-23T11:14:50Z</time>
      </trkpt>
      <trkpt lat="62.634027118727" lon="17.980626742166">
        <ele>208.2</ele>
        <time>2017-12-23T11:14:51Z</time>
      </trkpt>
      <trkpt lat="62.634043295794" lon="17.980575528757">
        <ele>208</ele>
        <time>2017-12-23T11:14:52Z</time>
      </trkpt>
      <trkpt lat="62.634061568336" lon="17.980525237357">
        <ele>207.8</ele>
        <time>2017-12-23T11:14:53Z</time>
      </trkpt>
      <trkpt lat="62.634078499774" lon="17.980480310373">
        <ele>207.6</ele>
        <time>2017-12-23T11:14:54Z</time>
      </trkpt>
      <trkpt lat="62.634097191411" lon="17.980432365905">
        <ele>207.6</ele>
        <time>2017-12-23T11:14:55Z</time>
      </trkpt>
      <trkpt lat="62.634118649075" lon="17.980391210776">
        <ele>207.4</ele>
        <time>2017-12-23T11:14:56Z</time>
      </trkpt>
      <trkpt lat="62.634135999608" lon="17.980348211629">
        <ele>207.4</ele>
        <time>2017-12-23T11:14:57Z</time>
      </trkpt>
      <trkpt lat="62.634149494467" lon="17.980301775903">
        <ele>207.6</ele>
        <time>2017-12-23T11:14:58Z</time>
      </trkpt>
      <trkpt lat="62.634168269923" lon="17.980256262186">
        <ele>207.6</ele>
        <time>2017-12-23T11:14:59Z</time>
      </trkpt>
      <trkpt lat="62.634185536637" lon="17.98020312094">
        <ele>207.6</ele>
        <time>2017-12-23T11:15:00Z</time>
      </trkpt>
      <trkpt lat="62.634210179423" lon="17.980157942499">
        <ele>207.6</ele>
        <time>2017-12-23T11:15:01Z</time>
      </trkpt>
      <trkpt lat="62.634231553268" lon="17.980100526484">
        <ele>207.6</ele>
        <time>2017-12-23T11:15:02Z</time>
      </trkpt>
      <trkpt lat="62.634253010932" lon="17.980051660007">
        <ele>207.6</ele>
        <time>2017-12-23T11:15:03Z</time>
      </trkpt>
      <trkpt lat="62.634274384777" lon="17.980013187086">
        <ele>207.6</ele>
        <time>2017-12-23T11:15:04Z</time>
      </trkpt>
      <trkpt lat="62.634292070586" lon="17.979975049441">
        <ele>207.8</ele>
        <time>2017-12-23T11:15:05Z</time>
      </trkpt>
      <trkpt lat="62.634315120811" lon="17.979917801064">
        <ele>207.8</ele>
        <time>2017-12-23T11:15:06Z</time>
      </trkpt>
      <trkpt lat="62.634326352557" lon="17.979866839112">
        <ele>207.8</ele>
        <time>2017-12-23T11:15:07Z</time>
      </trkpt>
      <trkpt lat="62.634343619271" lon="17.97980581888">
        <ele>207.6</ele>
        <time>2017-12-23T11:15:08Z</time>
      </trkpt>
      <trkpt lat="62.634354851017" lon="17.979755108385">
        <ele>207.8</ele>
        <time>2017-12-23T11:15:09Z</time>
      </trkpt>
      <trkpt lat="62.634367088591" lon="17.979703978795">
        <ele>207.8</ele>
        <time>2017-12-23T11:15:10Z</time>
      </trkpt>
      <trkpt lat="62.634371950093" lon="17.979648406798">
        <ele>207.8</ele>
        <time>2017-12-23T11:15:11Z</time>
      </trkpt>
      <trkpt lat="62.634382678925" lon="17.97959878595">
        <ele>207.6</ele>
        <time>2017-12-23T11:15:12Z</time>
      </trkpt>
      <trkpt lat="62.634397179612" lon="17.979541118478">
        <ele>207.6</ele>
        <time>2017-12-23T11:15:13Z</time>
      </trkpt>
      <trkpt lat="62.63440489096" lon="17.979488312508">
        <ele>207.6</ele>
        <time>2017-12-23T11:15:14Z</time>
      </trkpt>
      <trkpt lat="62.634417212353" lon="17.979429555389">
        <ele>207.4</ele>
        <time>2017-12-23T11:15:15Z</time>
      </trkpt>
      <trkpt lat="62.634430120479" lon="17.97938923845">
        <ele>207.4</ele>
        <time>2017-12-23T11:15:16Z</time>
      </trkpt>
      <trkpt lat="62.634438167103" lon="17.979343892371">
        <ele>207.4</ele>
        <time>2017-12-23T11:15:17Z</time>
      </trkpt>
      <trkpt lat="62.634450488496" lon="17.97928530289">
        <ele>207.4</ele>
        <time>2017-12-23T11:15:18Z</time>
      </trkpt>
      <trkpt lat="62.63445266779" lon="17.979237609879">
        <ele>207.4</ele>
        <time>2017-12-23T11:15:19Z</time>
      </trkpt>
      <trkpt lat="62.634465156821" lon="17.979179020398">
        <ele>207.4</ele>
        <time>2017-12-23T11:15:20Z</time>
      </trkpt>
      <trkpt lat="62.634477142938" lon="17.979127220256">
        <ele>208</ele>
        <time>2017-12-23T11:15:21Z</time>
      </trkpt>
      <trkpt lat="62.634487955589" lon="17.9790749172">
        <ele>208</ele>
        <time>2017-12-23T11:15:22Z</time>
      </trkpt>
      <trkpt lat="62.634500276982" lon="17.979011550036">
        <ele>208</ele>
        <time>2017-12-23T11:15:23Z</time>
      </trkpt>
      <trkpt lat="62.634525757958" lon="17.978911218693">
        <ele>208</ele>
        <time>2017-12-23T11:15:25Z</time>
      </trkpt>
      <trkpt lat="62.634547299441" lon="17.978864615329">
        <ele>208</ele>
        <time>2017-12-23T11:15:26Z</time>
      </trkpt>
      <trkpt lat="62.634567080725" lon="17.978838799077">
        <ele>208.2</ele>
        <time>2017-12-23T11:15:27Z</time>
      </trkpt>
      <trkpt lat="62.634587951656" lon="17.978814575386">
        <ele>207.8</ele>
        <time>2017-12-23T11:15:28Z</time>
      </trkpt>
      <trkpt lat="62.634607313845" lon="17.978799487966">
        <ele>207.8</ele>
        <time>2017-12-23T11:15:29Z</time>
      </trkpt>
      <trkpt lat="62.634630615527" lon="17.978791692799">
        <ele>207.6</ele>
        <time>2017-12-23T11:15:30Z</time>
      </trkpt>
      <trkpt lat="62.634652240829" lon="17.97878909441">
        <ele>207.6</ele>
        <time>2017-12-23T11:15:31Z</time>
      </trkpt>
      <trkpt lat="62.634677386529" lon="17.978803008364">
        <ele>207.4</ele>
        <time>2017-12-23T11:15:32Z</time>
      </trkpt>
      <trkpt lat="62.634703118962" lon="17.978824382209">
        <ele>207.4</ele>
        <time>2017-12-23T11:15:33Z</time>
      </trkpt>
      <trkpt lat="62.63472927049" lon="17.978840475457">
        <ele>207</ele>
        <time>2017-12-23T11:15:34Z</time>
      </trkpt>
      <trkpt lat="62.634752236896" lon="17.978851455746">
        <ele>207</ele>
        <time>2017-12-23T11:15:35Z</time>
      </trkpt>
      <trkpt lat="62.63477956189" lon="17.978866124071">
        <ele>206.8</ele>
        <time>2017-12-23T11:15:36Z</time>
      </trkpt>
      <trkpt lat="62.634804791409" lon="17.978876098532">
        <ele>206.6</ele>
        <time>2017-12-23T11:15:37Z</time>
      </trkpt>
      <trkpt lat="62.634833625145" lon="17.978883893699">
        <ele>206.6</ele>
        <time>2017-12-23T11:15:38Z</time>
      </trkpt>
      <trkpt lat="62.634863297071" lon="17.978906105734">
        <ele>206.4</ele>
        <time>2017-12-23T11:15:39Z</time>
      </trkpt>
      <trkpt lat="62.634887101667" lon="17.978911637788">
        <ele>206.4</ele>
        <time>2017-12-23T11:15:40Z</time>
      </trkpt>
      <trkpt lat="62.634911660634" lon="17.978921444611">
        <ele>206.2</ele>
        <time>2017-12-23T11:15:41Z</time>
      </trkpt>
      <trkpt lat="62.63493462704" lon="17.978932257262">
        <ele>206.2</ele>
        <time>2017-12-23T11:15:42Z</time>
      </trkpt>
      <trkpt lat="62.634954659781" lon="17.978937118764">
        <ele>206.2</ele>
        <time>2017-12-23T11:15:43Z</time>
      </trkpt>
      <trkpt lat="62.634978129101" lon="17.978947931415">
        <ele>206.4</ele>
        <time>2017-12-23T11:15:44Z</time>
      </trkpt>
      <trkpt lat="62.63499749129" lon="17.978956313315">
        <ele>206.4</ele>
        <time>2017-12-23T11:15:45Z</time>
      </trkpt>
      <trkpt lat="62.635011489063" lon="17.978961677731">
        <ele>206.4</ele>
        <time>2017-12-23T11:15:46Z</time>
      </trkpt>
      <trkpt lat="62.63502850432" lon="17.978968131794">
        <ele>206.4</ele>
        <time>2017-12-23T11:15:47Z</time>
      </trkpt>
      <trkpt lat="62.635054823486" lon="17.97897768716">
        <ele>206.2</ele>
        <time>2017-12-23T11:15:48Z</time>
      </trkpt>
      <trkpt lat="62.635077873711" lon="17.978988080716">
        <ele>206</ele>
        <time>2017-12-23T11:15:49Z</time>
      </trkpt>
      <trkpt lat="62.63509975047" lon="17.978994702417">
        <ele>205.8</ele>
        <time>2017-12-23T11:15:50Z</time>
      </trkpt>
      <trkpt lat="62.635127494559" lon="17.979006017982">
        <ele>206</ele>
        <time>2017-12-23T11:15:51Z</time>
      </trkpt>
      <trkpt lat="62.635152724078" lon="17.979009035466">
        <ele>206</ele>
        <time>2017-12-23T11:15:52Z</time>
      </trkpt>
      <trkpt lat="62.635184826755" lon="17.979018255556">
        <ele>206</ele>
        <time>2017-12-23T11:15:53Z</time>
      </trkpt>
      <trkpt lat="62.635216426518" lon="17.979018004099">
        <ele>206.2</ele>
        <time>2017-12-23T11:15:54Z</time>
      </trkpt>
      <trkpt lat="62.635246517539" lon="17.979022446506">
        <ele>206.2</ele>
        <time>2017-12-23T11:15:55Z</time>
      </trkpt>
      <trkpt lat="62.63527828494" lon="17.979026888913">
        <ele>206.4</ele>
        <time>2017-12-23T11:15:56Z</time>
      </trkpt>
      <trkpt lat="62.635304520287" lon="17.979030325492">
        <ele>206.2</ele>
        <time>2017-12-23T11:15:57Z</time>
      </trkpt>
      <trkpt lat="62.635336036231" lon="17.979032420967">
        <ele>206.4</ele>
        <time>2017-12-23T11:15:58Z</time>
      </trkpt>
      <trkpt lat="62.635363947958" lon="17.979035270813">
        <ele>206.2</ele>
        <time>2017-12-23T11:15:59Z</time>
      </trkpt>
      <trkpt lat="62.635397140282" lon="17.979029906397">
        <ele>206.2</ele>
        <time>2017-12-23T11:16:00Z</time>
      </trkpt>
      <trkpt lat="62.635427566579" lon="17.97902965494">
        <ele>206.2</ele>
        <time>2017-12-23T11:16:01Z</time>
      </trkpt>
      <trkpt lat="62.635464195482" lon="17.979023871429">
        <ele>206</ele>
        <time>2017-12-23T11:16:02Z</time>
      </trkpt>
      <trkpt lat="62.635503674231" lon="17.979019429022">
        <ele>205.8</ele>
        <time>2017-12-23T11:16:03Z</time>
      </trkpt>
      <trkpt lat="62.635539884039" lon="17.979015740986">
        <ele>205.6</ele>
        <time>2017-12-23T11:16:04Z</time>
      </trkpt>
      <trkpt lat="62.635577267313" lon="17.979001910851">
        <ele>205.4</ele>
        <time>2017-12-23T11:16:05Z</time>
      </trkpt>
      <trkpt lat="62.635619595908" lon="17.979001910851">
        <ele>205.4</ele>
        <time>2017-12-23T11:16:06Z</time>
      </trkpt>
      <trkpt lat="62.635654380793" lon="17.978996043521">
        <ele>205</ele>
        <time>2017-12-23T11:16:07Z</time>
      </trkpt>
      <trkpt lat="62.635698301949" lon="17.978994786236">
        <ele>205</ele>
        <time>2017-12-23T11:16:08Z</time>
      </trkpt>
      <trkpt lat="62.635736607232" lon="17.978998055177">
        <ele>205</ele>
        <time>2017-12-23T11:16:09Z</time>
      </trkpt>
      <trkpt lat="62.635770051013" lon="17.979010963303">
        <ele>204.8</ele>
        <time>2017-12-23T11:16:10Z</time>
      </trkpt>
      <trkpt lat="62.635800142034" lon="17.979005095973">
        <ele>204.6</ele>
        <time>2017-12-23T11:16:11Z</time>
      </trkpt>
      <trkpt lat="62.635832496168" lon="17.97901205295">
        <ele>204.4</ele>
        <time>2017-12-23T11:16:12Z</time>
      </trkpt>
      <trkpt lat="62.635866359044" lon="17.979012555864">
        <ele>204.4</ele>
        <time>2017-12-23T11:16:13Z</time>
      </trkpt>
      <trkpt lat="62.63589603097" lon="17.979021356859">
        <ele>204.4</ele>
        <time>2017-12-23T11:16:14Z</time>
      </trkpt>
      <trkpt lat="62.635923942697" lon="17.979030157854">
        <ele>204.2</ele>
        <time>2017-12-23T11:16:15Z</time>
      </trkpt>
      <trkpt lat="62.635942885791" lon="17.979037785383">
        <ele>204.2</ele>
        <time>2017-12-23T11:16:16Z</time>
      </trkpt>
      <trkpt lat="62.635963421446" lon="17.979047843663">
        <ele>204.2</ele>
        <time>2017-12-23T11:16:17Z</time>
      </trkpt>
      <trkpt lat="62.635982029264" lon="17.979054968278">
        <ele>204.4</ele>
        <time>2017-12-23T11:16:18Z</time>
      </trkpt>
      <trkpt lat="62.635992758096" lon="17.979064691282">
        <ele>204.4</ele>
        <time>2017-12-23T11:16:19Z</time>
      </trkpt>
      <trkpt lat="62.636003906023" lon="17.979073324639">
        <ele>204.6</ele>
        <time>2017-12-23T11:16:20Z</time>
      </trkpt>
      <trkpt lat="62.636016059778" lon="17.979080616892">
        <ele>204.6</ele>
        <time>2017-12-23T11:16:21Z</time>
      </trkpt>
      <trkpt lat="62.636024944592" lon="17.97909754833">
        <ele>204.6</ele>
        <time>2017-12-23T11:16:22Z</time>
      </trkpt>
      <trkpt lat="62.636027962076" lon="17.979112468112">
        <ele>204.6</ele>
        <time>2017-12-23T11:16:23Z</time>
      </trkpt>
      <trkpt lat="62.636027962076" lon="17.979123364582">
        <ele>204.6</ele>
        <time>2017-12-23T11:16:24Z</time>
      </trkpt>
      <trkpt lat="62.636029135542" lon="17.979135099242">
        <ele>204.6</ele>
        <time>2017-12-23T11:16:25Z</time>
      </trkpt>
      <trkpt lat="62.636027291524" lon="17.979129567188">
        <ele>204.4</ele>
        <time>2017-12-23T11:16:26Z</time>
      </trkpt>
      <trkpt lat="62.636014048122" lon="17.979471716346">
        <ele>204.2</ele>
        <time>2017-12-23T11:16:35Z</time>
      </trkpt>
      <trkpt lat="62.636007845516" lon="17.97955436188">
        <ele>204</ele>
        <time>2017-12-23T11:16:36Z</time>
      </trkpt>
      <trkpt lat="62.636001223815" lon="17.97966751753">
        <ele>203.8</ele>
        <time>2017-12-23T11:16:37Z</time>
      </trkpt>
      <trkpt lat="62.635992758096" lon="17.979788719804">
        <ele>203.2</ele>
        <time>2017-12-23T11:16:38Z</time>
      </trkpt>
      <trkpt lat="62.63599074644" lon="17.979890559889">
        <ele>202.6</ele>
        <time>2017-12-23T11:16:39Z</time>
      </trkpt>
      <trkpt lat="62.635985298205" lon="17.980064065219">
        <ele>201.6</ele>
        <time>2017-12-23T11:16:40Z</time>
      </trkpt>
      <trkpt lat="62.635993428648" lon="17.980191637737">
        <ele>200.8</ele>
        <time>2017-12-23T11:16:41Z</time>
      </trkpt>
      <trkpt lat="62.636001223815" lon="17.980326167232">
        <ele>199.8</ele>
        <time>2017-12-23T11:16:42Z</time>
      </trkpt>
      <trkpt lat="62.636011868828" lon="17.980466144962">
        <ele>199</ele>
        <time>2017-12-23T11:16:43Z</time>
      </trkpt>
      <trkpt lat="62.636026537153" lon="17.980584916485">
        <ele>198.6</ele>
        <time>2017-12-23T11:16:44Z</time>
      </trkpt>
      <trkpt lat="62.636047240446" lon="17.980699580877">
        <ele>198.4</ele>
        <time>2017-12-23T11:16:45Z</time>
      </trkpt>
      <trkpt lat="62.636068446653" lon="17.980806953016">
        <ele>198.2</ele>
        <time>2017-12-23T11:16:46Z</time>
      </trkpt>
      <trkpt lat="62.636088060299" lon="17.980915498621">
        <ele>198</ele>
        <time>2017-12-23T11:16:47Z</time>
      </trkpt>
      <trkpt lat="62.636108847411" lon="17.981035024515">
        <ele>197.8</ele>
        <time>2017-12-23T11:16:48Z</time>
      </trkpt>
      <trkpt lat="62.636128963971" lon="17.9811368646">
        <ele>197.6</ele>
        <time>2017-12-23T11:16:49Z</time>
      </trkpt>
      <trkpt lat="62.63614748797" lon="17.981234346097">
        <ele>197.4</ele>
        <time>2017-12-23T11:16:50Z</time>
      </trkpt>
      <trkpt lat="62.63615838444" lon="17.981326463178">
        <ele>197.2</ele>
        <time>2017-12-23T11:16:51Z</time>
      </trkpt>
      <trkpt lat="62.636167436892" lon="17.981396032948">
        <ele>197</ele>
        <time>2017-12-23T11:16:52Z</time>
      </trkpt>
      <trkpt lat="62.636163581218" lon="17.981504746191">
        <ele>197</ele>
        <time>2017-12-23T11:16:53Z</time>
      </trkpt>
      <trkpt lat="62.636156624241" lon="17.981597533824">
        <ele>196.8</ele>
        <time>2017-12-23T11:16:54Z</time>
      </trkpt>
      <trkpt lat="62.636164419408" lon="17.981656710038">
        <ele>196.8</ele>
        <time>2017-12-23T11:16:55Z</time>
      </trkpt>
      <trkpt lat="62.636175818792" lon="17.981726866541">
        <ele>197.2</ele>
        <time>2017-12-23T11:16:56Z</time>
      </trkpt>
      <trkpt lat="62.636194342791" lon="17.981761399969">
        <ele>197.2</ele>
        <time>2017-12-23T11:16:57Z</time>
      </trkpt>
      <trkpt lat="62.636213118247" lon="17.981823593667">
        <ele>197.2</ele>
        <time>2017-12-23T11:16:58Z</time>
      </trkpt>
      <trkpt lat="62.636225523459" lon="17.98189542655">
        <ele>197.2</ele>
        <time>2017-12-23T11:16:59Z</time>
      </trkpt>
      <trkpt lat="62.636234492092" lon="17.981969941641">
        <ele>197.4</ele>
        <time>2017-12-23T11:17:00Z</time>
      </trkpt>
      <trkpt lat="62.636241784345" lon="17.982053676822">
        <ele>197.4</ele>
        <time>2017-12-23T11:17:01Z</time>
      </trkpt>
      <trkpt lat="62.636250166245" lon="17.98212341423">
        <ele>197.2</ele>
        <time>2017-12-23T11:17:02Z</time>
      </trkpt>
      <trkpt lat="62.636250333883" lon="17.982211843275">
        <ele>197</ele>
        <time>2017-12-23T11:17:03Z</time>
      </trkpt>
      <trkpt lat="62.636254189557" lon="17.982289543488">
        <ele>196.8</ele>
        <time>2017-12-23T11:17:04Z</time>
      </trkpt>
      <trkpt lat="62.636261565629" lon="17.982357688335">
        <ele>197</ele>
        <time>2017-12-23T11:17:05Z</time>
      </trkpt>
      <trkpt lat="62.636265002208" lon="17.982440166231">
        <ele>197</ele>
        <time>2017-12-23T11:17:06Z</time>
      </trkpt>
      <trkpt lat="62.636271288633" lon="17.982511999114">
        <ele>197.2</ele>
        <time>2017-12-23T11:17:07Z</time>
      </trkpt>
      <trkpt lat="62.636273467927" lon="17.98259112425">
        <ele>197.4</ele>
        <time>2017-12-23T11:17:08Z</time>
      </trkpt>
      <trkpt lat="62.636277826515" lon="17.982663040952">
        <ele>197.6</ele>
        <time>2017-12-23T11:17:09Z</time>
      </trkpt>
      <trkpt lat="62.636285705501" lon="17.982741914631">
        <ele>197.6</ele>
        <time>2017-12-23T11:17:10Z</time>
      </trkpt>
      <trkpt lat="62.636281179275" lon="17.982816513541">
        <ele>197.6</ele>
        <time>2017-12-23T11:17:11Z</time>
      </trkpt>
      <trkpt lat="62.63628243656" lon="17.982892788831">
        <ele>198</ele>
        <time>2017-12-23T11:17:12Z</time>
      </trkpt>
      <trkpt lat="62.636285286406" lon="17.982965040809">
        <ele>198</ele>
        <time>2017-12-23T11:17:13Z</time>
      </trkpt>
      <trkpt lat="62.636288806804" lon="17.983034359122">
        <ele>198</ele>
        <time>2017-12-23T11:17:14Z</time>
      </trkpt>
      <trkpt lat="62.636297356342" lon="17.983097139553">
        <ele>198</ele>
        <time>2017-12-23T11:17:15Z</time>
      </trkpt>
      <trkpt lat="62.636300709102" lon="17.98315774069">
        <ele>198.2</ele>
        <time>2017-12-23T11:17:16Z</time>
      </trkpt>
      <trkpt lat="62.636306492613" lon="17.983225131166">
        <ele>198</ele>
        <time>2017-12-23T11:17:17Z</time>
      </trkpt>
      <trkpt lat="62.636308671907" lon="17.983306603234">
        <ele>198</ele>
        <time>2017-12-23T11:17:18Z</time>
      </trkpt>
      <trkpt lat="62.636310599744" lon="17.983382962343">
        <ele>198.2</ele>
        <time>2017-12-23T11:17:19Z</time>
      </trkpt>
      <trkpt lat="62.636306911708" lon="17.983452364475">
        <ele>198.2</ele>
        <time>2017-12-23T11:17:20Z</time>
      </trkpt>
      <trkpt lat="62.636304983871" lon="17.983514139078">
        <ele>198.2</ele>
        <time>2017-12-23T11:17:21Z</time>
      </trkpt>
      <trkpt lat="62.636301882568" lon="17.983570633084">
        <ele>198.4</ele>
        <time>2017-12-23T11:17:22Z</time>
      </trkpt>
      <trkpt lat="62.636296853428" lon="17.983630647488">
        <ele>198.6</ele>
        <time>2017-12-23T11:17:23Z</time>
      </trkpt>
      <trkpt lat="62.636291908107" lon="17.98369753505">
        <ele>199</ele>
        <time>2017-12-23T11:17:24Z</time>
      </trkpt>
      <trkpt lat="62.636282771836" lon="17.98376123749">
        <ele>199.2</ele>
        <time>2017-12-23T11:17:25Z</time>
      </trkpt>
      <trkpt lat="62.636270785719" lon="17.98382074898">
        <ele>199.4</ele>
        <time>2017-12-23T11:17:26Z</time>
      </trkpt>
      <trkpt lat="62.636266343312" lon="17.983874476959">
        <ele>199.6</ele>
        <time>2017-12-23T11:17:27Z</time>
      </trkpt>
      <trkpt lat="62.636256871765" lon="17.983936503019">
        <ele>199.8</ele>
        <time>2017-12-23T11:17:28Z</time>
      </trkpt>
      <trkpt lat="62.636247148761" lon="17.9839783287">
        <ele>199.6</ele>
        <time>2017-12-23T11:17:29Z</time>
      </trkpt>
      <trkpt lat="62.636240443241" lon="17.984027278996">
        <ele>199.6</ele>
        <time>2017-12-23T11:17:30Z</time>
      </trkpt>
      <trkpt lat="62.636230384961" lon="17.984084527373">
        <ele>199.8</ele>
        <time>2017-12-23T11:17:31Z</time>
      </trkpt>
      <trkpt lat="62.636222757432" lon="17.984137249524">
        <ele>199.8</ele>
        <time>2017-12-23T11:17:32Z</time>
      </trkpt>
      <trkpt lat="62.636219656129" lon="17.984187624743">
        <ele>199.8</ele>
        <time>2017-12-23T11:17:33Z</time>
      </trkpt>
      <trkpt lat="62.636212363876" lon="17.984245124577">
        <ele>199.8</ele>
        <time>2017-12-23T11:17:34Z</time>
      </trkpt>
      <trkpt lat="62.636206580365" lon="17.984290722113">
        <ele>199.8</ele>
        <time>2017-12-23T11:17:35Z</time>
      </trkpt>
      <trkpt lat="62.636205742175" lon="17.984338666581">
        <ele>200</ele>
        <time>2017-12-23T11:17:36Z</time>
      </trkpt>
      <trkpt lat="62.636205658356" lon="17.984377642416">
        <ele>200</ele>
        <time>2017-12-23T11:17:37Z</time>
      </trkpt>
      <trkpt lat="62.636210436039" lon="17.984431286576">
        <ele>200</ele>
        <time>2017-12-23T11:17:38Z</time>
      </trkpt>
      <trkpt lat="62.636205239261" lon="17.984481913252">
        <ele>200.2</ele>
        <time>2017-12-23T11:17:39Z</time>
      </trkpt>
      <trkpt lat="62.636191660583" lon="17.984524660942">
        <ele>200.2</ele>
        <time>2017-12-23T11:17:40Z</time>
      </trkpt>
      <trkpt lat="62.636189313651" lon="17.984567157175">
        <ele>200.2</ele>
        <time>2017-12-23T11:17:41Z</time>
      </trkpt>
      <trkpt lat="62.636184535968" lon="17.984620549878">
        <ele>200.2</ele>
        <time>2017-12-23T11:17:42Z</time>
      </trkpt>
      <trkpt lat="62.636180093561" lon="17.984681905386">
        <ele>200.4</ele>
        <time>2017-12-23T11:17:43Z</time>
      </trkpt>
      <trkpt lat="62.636179171552" lon="17.98472683237">
        <ele>200.4</ele>
        <time>2017-12-23T11:17:44Z</time>
      </trkpt>
      <trkpt lat="62.636174812964" lon="17.98478550567">
        <ele>200.4</ele>
        <time>2017-12-23T11:17:45Z</time>
      </trkpt>
      <trkpt lat="62.636169197091" lon="17.98483076793">
        <ele>200.4</ele>
        <time>2017-12-23T11:17:46Z</time>
      </trkpt>
      <trkpt lat="62.636164838503" lon="17.984875862552">
        <ele>200.6</ele>
        <time>2017-12-23T11:17:47Z</time>
      </trkpt>
      <trkpt lat="62.636166682521" lon="17.984945013227">
        <ele>200.6</ele>
        <time>2017-12-23T11:17:48Z</time>
      </trkpt>
      <trkpt lat="62.636162323933" lon="17.984992203324">
        <ele>200.8</ele>
        <time>2017-12-23T11:17:49Z</time>
      </trkpt>
      <trkpt lat="62.636158468259" lon="17.985045260751">
        <ele>201</ele>
        <time>2017-12-23T11:17:50Z</time>
      </trkpt>
      <trkpt lat="62.636151930377" lon="17.985094378685">
        <ele>201.2</ele>
        <time>2017-12-23T11:17:51Z</time>
      </trkpt>
      <trkpt lat="62.636152600929" lon="17.985136958737">
        <ele>201.4</ele>
        <time>2017-12-23T11:17:52Z</time>
      </trkpt>
      <trkpt lat="62.636150673092" lon="17.98519957153">
        <ele>201.6</ele>
        <time>2017-12-23T11:17:53Z</time>
      </trkpt>
      <trkpt lat="62.636147404151" lon="17.985253467147">
        <ele>202</ele>
        <time>2017-12-23T11:17:54Z</time>
      </trkpt>
      <trkpt lat="62.636143045563" lon="17.985291940068">
        <ele>202</ele>
        <time>2017-12-23T11:17:55Z</time>
      </trkpt>
      <trkpt lat="62.636133909292" lon="17.985337956699">
        <ele>202.2</ele>
        <time>2017-12-23T11:17:56Z</time>
      </trkpt>
      <trkpt lat="62.636130891808" lon="17.985379028009">
        <ele>202.2</ele>
        <time>2017-12-23T11:17:57Z</time>
      </trkpt>
      <trkpt lat="62.636130556532" lon="17.985429989961">
        <ele>202.4</ele>
        <time>2017-12-23T11:17:58Z</time>
      </trkpt>
      <trkpt lat="62.636125527392" lon="17.985484137035">
        <ele>202.4</ele>
        <time>2017-12-23T11:17:59Z</time>
      </trkpt>
      <trkpt lat="62.636134160749" lon="17.985548929122">
        <ele>202.4</ele>
        <time>2017-12-23T11:18:00Z</time>
      </trkpt>
      <trkpt lat="62.636125443573" lon="17.985605758404">
        <ele>202.4</ele>
        <time>2017-12-23T11:18:01Z</time>
      </trkpt>
      <trkpt lat="62.636120246795" lon="17.985647751723">
        <ele>202.4</ele>
        <time>2017-12-23T11:18:02Z</time>
      </trkpt>
      <trkpt lat="62.636111529619" lon="17.985706927937">
        <ele>202.4</ele>
        <time>2017-12-23T11:18:03Z</time>
      </trkpt>
      <trkpt lat="62.63610138752" lon="17.985754620948">
        <ele>202.6</ele>
        <time>2017-12-23T11:18:04Z</time>
      </trkpt>
      <trkpt lat="62.636088982308" lon="17.985805331443">
        <ele>202.4</ele>
        <time>2017-12-23T11:18:05Z</time>
      </trkpt>
      <trkpt lat="62.636072637603" lon="17.985851180436">
        <ele>202.2</ele>
        <time>2017-12-23T11:18:06Z</time>
      </trkpt>
      <trkpt lat="62.636063166056" lon="17.98588856371">
        <ele>202.2</ele>
        <time>2017-12-23T11:18:07Z</time>
      </trkpt>
      <trkpt lat="62.636045731704" lon="17.985920498749">
        <ele>202</ele>
        <time>2017-12-23T11:18:08Z</time>
      </trkpt>
      <trkpt lat="62.636032320664" lon="17.985954613082">
        <ele>202</ele>
        <time>2017-12-23T11:18:09Z</time>
      </trkpt>
      <trkpt lat="62.636016311235" lon="17.985979507325">
        <ele>202</ele>
        <time>2017-12-23T11:18:10Z</time>
      </trkpt>
      <trkpt lat="62.636005917679" lon="17.986003311921">
        <ele>202.2</ele>
        <time>2017-12-23T11:18:11Z</time>
      </trkpt>
      <trkpt lat="62.635989992069" lon="17.98603273239">
        <ele>202.2</ele>
        <time>2017-12-23T11:18:12Z</time>
      </trkpt>
      <trkpt lat="62.63596811531" lon="17.986050753475">
        <ele>202.4</ele>
        <time>2017-12-23T11:18:13Z</time>
      </trkpt>
      <trkpt lat="62.635950345682" lon="17.986077743193">
        <ele>202.4</ele>
        <time>2017-12-23T11:18:14Z</time>
      </trkpt>
      <trkpt lat="62.63593207314" lon="17.98609727302">
        <ele>202.6</ele>
        <time>2017-12-23T11:18:15Z</time>
      </trkpt>
      <trkpt lat="62.635917740091" lon="17.986106912205">
        <ele>202.8</ele>
        <time>2017-12-23T11:18:16Z</time>
      </trkpt>
      <trkpt lat="62.635903239404" lon="17.986121915806">
        <ele>202.8</ele>
        <time>2017-12-23T11:18:17Z</time>
      </trkpt>
      <trkpt lat="62.635882955206" lon="17.986133734285">
        <ele>203</ele>
        <time>2017-12-23T11:18:18Z</time>
      </trkpt>
      <trkpt lat="62.635873735116" lon="17.986153599388">
        <ele>203</ele>
        <time>2017-12-23T11:18:19Z</time>
      </trkpt>
      <trkpt lat="62.635850181977" lon="17.986185450608">
        <ele>203</ele>
        <time>2017-12-23T11:18:20Z</time>
      </trkpt>
      <trkpt lat="62.635830568331" lon="17.986224761719">
        <ele>203</ele>
        <time>2017-12-23T11:18:21Z</time>
      </trkpt>
      <trkpt lat="62.635810367952" lon="17.986256026206">
        <ele>203</ele>
        <time>2017-12-23T11:18:22Z</time>
      </trkpt>
      <trkpt lat="62.635789329383" lon="17.986292152195">
        <ele>203</ele>
        <time>2017-12-23T11:18:23Z</time>
      </trkpt>
      <trkpt lat="62.635771811212" lon="17.986328110546">
        <ele>203</ele>
        <time>2017-12-23T11:18:24Z</time>
      </trkpt>
      <trkpt lat="62.635755466507" lon="17.986360883775">
        <ele>203</ele>
        <time>2017-12-23T11:18:25Z</time>
      </trkpt>
      <trkpt lat="62.635740211449" lon="17.986396758307">
        <ele>203</ele>
        <time>2017-12-23T11:18:26Z</time>
      </trkpt>
      <trkpt lat="62.635716155396" lon="17.986436572332">
        <ele>203.2</ele>
        <time>2017-12-23T11:18:27Z</time>
      </trkpt>
      <trkpt lat="62.635702660537" lon="17.98648367861">
        <ele>203.2</ele>
        <time>2017-12-23T11:18:28Z</time>
      </trkpt>
      <trkpt lat="62.635684723271" lon="17.986531287802">
        <ele>203.4</ele>
        <time>2017-12-23T11:18:29Z</time>
      </trkpt>
      <trkpt lat="62.635666702186" lon="17.986592559491">
        <ele>203.6</ele>
        <time>2017-12-23T11:18:30Z</time>
      </trkpt>
      <trkpt lat="62.635646753264" lon="17.986634217534">
        <ele>203.8</ele>
        <time>2017-12-23T11:18:31Z</time>
      </trkpt>
      <trkpt lat="62.635630073283" lon="17.986684173658">
        <ele>204</ele>
        <time>2017-12-23T11:18:32Z</time>
      </trkpt>
      <trkpt lat="62.635611716922" lon="17.986726669891">
        <ele>204.2</ele>
        <time>2017-12-23T11:18:33Z</time>
      </trkpt>
      <trkpt lat="62.635589421068" lon="17.986774865816">
        <ele>204.4</ele>
        <time>2017-12-23T11:18:34Z</time>
      </trkpt>
      <trkpt lat="62.635579278969" lon="17.986815685669">
        <ele>204.8</ele>
        <time>2017-12-23T11:18:35Z</time>
      </trkpt>
      <trkpt lat="62.635557653667" lon="17.986855332056">
        <ele>205.2</ele>
        <time>2017-12-23T11:18:36Z</time>
      </trkpt>
      <trkpt lat="62.635544158808" lon="17.986894894624">
        <ele>205.4</ele>
        <time>2017-12-23T11:18:37Z</time>
      </trkpt>
      <trkpt lat="62.635528736112" lon="17.986933702821">
        <ele>205.6</ele>
        <time>2017-12-23T11:18:38Z</time>
      </trkpt>
      <trkpt lat="62.635510044475" lon="17.986983826583">
        <ele>205.8</ele>
        <time>2017-12-23T11:18:39Z</time>
      </trkpt>
      <trkpt lat="62.635494118865" lon="17.98703353125">
        <ele>205.8</ele>
        <time>2017-12-23T11:18:40Z</time>
      </trkpt>
      <trkpt lat="62.635474505219" lon="17.987080805166">
        <ele>205.8</ele>
        <time>2017-12-23T11:18:41Z</time>
      </trkpt>
      <trkpt lat="62.635455897401" lon="17.987123133761">
        <ele>205.8</ele>
        <time>2017-12-23T11:18:42Z</time>
      </trkpt>
      <trkpt lat="62.635443827465" lon="17.987171664962">
        <ele>205.6</ele>
        <time>2017-12-23T11:18:43Z</time>
      </trkpt>
      <trkpt lat="62.635425722561" lon="17.987210473159">
        <ele>205.6</ele>
        <time>2017-12-23T11:18:44Z</time>
      </trkpt>
      <trkpt lat="62.635407282381" lon="17.987242994931">
        <ele>205.6</ele>
        <time>2017-12-23T11:18:45Z</time>
      </trkpt>
      <trkpt lat="62.635389596572" lon="17.987279875291">
        <ele>205.4</ele>
        <time>2017-12-23T11:18:46Z</time>
      </trkpt>
      <trkpt lat="62.635375179704" lon="17.987323461171">
        <ele>205.4</ele>
        <time>2017-12-23T11:18:47Z</time>
      </trkpt>
      <trkpt lat="62.635354308773" lon="17.987373920209">
        <ele>205.6</ele>
        <time>2017-12-23T11:18:48Z</time>
      </trkpt>
      <trkpt lat="62.635341233009" lon="17.987409124189">
        <ele>205.6</ele>
        <time>2017-12-23T11:18:49Z</time>
      </trkpt>
      <trkpt lat="62.635329917444" lon="17.987450866051">
        <ele>205.8</ele>
        <time>2017-12-23T11:18:50Z</time>
      </trkpt>
      <trkpt lat="62.635306699581" lon="17.987488165506">
        <ele>205.8</ele>
        <time>2017-12-23T11:18:51Z</time>
      </trkpt>
      <trkpt lat="62.635294294369" lon="17.987526303151">
        <ele>205.8</ele>
        <time>2017-12-23T11:18:52Z</time>
      </trkpt>
      <trkpt lat="62.635275015999" lon="17.987557902914">
        <ele>206</ele>
        <time>2017-12-23T11:18:53Z</time>
      </trkpt>
      <trkpt lat="62.635254480344" lon="17.987597297844">
        <ele>206.2</ele>
        <time>2017-12-23T11:18:54Z</time>
      </trkpt>
      <trkpt lat="62.635235285793" lon="17.987629819616">
        <ele>206.2</ele>
        <time>2017-12-23T11:18:55Z</time>
      </trkpt>
      <trkpt lat="62.635213911948" lon="17.98766468832">
        <ele>206.2</ele>
        <time>2017-12-23T11:18:56Z</time>
      </trkpt>
      <trkpt lat="62.635198573071" lon="17.987710872589">
        <ele>206.4</ele>
        <time>2017-12-23T11:18:57Z</time>
      </trkpt>
      <trkpt lat="62.63517518757" lon="17.987745238379">
        <ele>206.4</ele>
        <time>2017-12-23T11:18:58Z</time>
      </trkpt>
      <trkpt lat="62.635151802069" lon="17.987776670504">
        <ele>206.4</ele>
        <time>2017-12-23T11:18:59Z</time>
      </trkpt>
      <trkpt lat="62.635131936966" lon="17.987805671878">
        <ele>206.6</ele>
        <time>2017-12-23T11:19:00Z</time>
      </trkpt>
      <trkpt lat="62.635109222017" lon="17.98783735546">
        <ele>206.6</ele>
        <time>2017-12-23T11:19:01Z</time>
      </trkpt>
      <trkpt lat="62.635095224244" lon="17.98787004487">
        <ele>206.8</ele>
        <time>2017-12-23T11:19:02Z</time>
      </trkpt>
      <trkpt lat="62.63507292839" lon="17.987904662117">
        <ele>206.8</ele>
        <time>2017-12-23T11:19:03Z</time>
      </trkpt>
      <trkpt lat="62.635063373024" lon="17.9879429674">
        <ele>207</ele>
        <time>2017-12-23T11:19:04Z</time>
      </trkpt>
      <trkpt lat="62.635041663903" lon="17.987973058421">
        <ele>207</ele>
        <time>2017-12-23T11:19:05Z</time>
      </trkpt>
      <trkpt lat="62.635023558999" lon="17.988012285713">
        <ele>207.2</ele>
        <time>2017-12-23T11:19:06Z</time>
      </trkpt>
      <trkpt lat="62.634999586765" lon="17.988031144988">
        <ele>207.4</ele>
        <time>2017-12-23T11:19:07Z</time>
      </trkpt>
      <trkpt lat="62.634979470205" lon="17.988059978724">
        <ele>207.4</ele>
        <time>2017-12-23T11:19:08Z</time>
      </trkpt>
      <trkpt lat="62.634955749428" lon="17.988085543519">
        <ele>207.4</ele>
        <time>2017-12-23T11:19:09Z</time>
      </trkpt>
      <trkpt lat="62.634940829646" lon="17.988114209617">
        <ele>207.6</ele>
        <time>2017-12-23T11:19:10Z</time>
      </trkpt>
      <trkpt lat="62.634924652579" lon="17.988134745272">
        <ele>207.6</ele>
        <time>2017-12-23T11:19:11Z</time>
      </trkpt>
      <trkpt lat="62.634902272906" lon="17.988152263443">
        <ele>207.8</ele>
        <time>2017-12-23T11:19:12Z</time>
      </trkpt>
      <trkpt lat="62.63488433564" lon="17.988182857378">
        <ele>207.8</ele>
        <time>2017-12-23T11:19:13Z</time>
      </trkpt>
      <trkpt lat="62.634860698682" lon="17.988189814355">
        <ele>208</ele>
        <time>2017-12-23T11:19:14Z</time>
      </trkpt>
      <trkpt lat="62.634838486647" lon="17.988212529304">
        <ele>208</ele>
        <time>2017-12-23T11:19:15Z</time>
      </trkpt>
      <trkpt lat="62.634814514413" lon="17.988218312815">
        <ele>208.2</ele>
        <time>2017-12-23T11:19:16Z</time>
      </trkpt>
      <trkpt lat="62.634795319862" lon="17.988215882064">
        <ele>208.2</ele>
        <time>2017-12-23T11:19:17Z</time>
      </trkpt>
      <trkpt lat="62.634770425619" lon="17.988225772706">
        <ele>208.4</ele>
        <time>2017-12-23T11:19:18Z</time>
      </trkpt>
      <trkpt lat="62.634748045946" lon="17.988215295331">
        <ele>208.4</ele>
        <time>2017-12-23T11:19:19Z</time>
      </trkpt>
      <trkpt lat="62.634729941042" lon="17.988204985594">
        <ele>208.6</ele>
        <time>2017-12-23T11:19:20Z</time>
      </trkpt>
      <trkpt lat="62.634705884989" lon="17.988200878463">
        <ele>208.8</ele>
        <time>2017-12-23T11:19:21Z</time>
      </trkpt>
      <trkpt lat="62.634680990746" lon="17.988206242879">
        <ele>209</ele>
        <time>2017-12-23T11:19:22Z</time>
      </trkpt>
      <trkpt lat="62.634663304937" lon="17.988224683059">
        <ele>209</ele>
        <time>2017-12-23T11:19:23Z</time>
      </trkpt>
      <trkpt lat="62.634631621355" lon="17.988237675004">
        <ele>209.2</ele>
        <time>2017-12-23T11:19:24Z</time>
      </trkpt>
      <trkpt lat="62.634605302189" lon="17.988259635582">
        <ele>209.2</ele>
        <time>2017-12-23T11:19:25Z</time>
      </trkpt>
      <trkpt lat="62.634577977195" lon="17.98827237607">
        <ele>209.4</ele>
        <time>2017-12-23T11:19:26Z</time>
      </trkpt>
      <trkpt lat="62.634549646373" lon="17.988269190948">
        <ele>209.4</ele>
        <time>2017-12-23T11:19:27Z</time>
      </trkpt>
      <trkpt lat="62.634520896456" lon="17.988279668323">
        <ele>209.4</ele>
        <time>2017-12-23T11:19:28Z</time>
      </trkpt>
      <trkpt lat="62.634494409652" lon="17.988279249228">
        <ele>209.6</ele>
        <time>2017-12-23T11:19:29Z</time>
      </trkpt>
      <trkpt lat="62.634455769093" lon="17.988265922007">
        <ele>209.8</ele>
        <time>2017-12-23T11:19:30Z</time>
      </trkpt>
      <trkpt lat="62.634436574542" lon="17.988275561192">
        <ele>209.8</ele>
        <time>2017-12-23T11:19:31Z</time>
      </trkpt>
      <trkpt lat="62.634408830453" lon="17.988273800993">
        <ele>209.8</ele>
        <time>2017-12-23T11:19:32Z</time>
      </trkpt>
      <trkpt lat="62.634382762744" lon="17.988292995544">
        <ele>209.8</ele>
        <time>2017-12-23T11:19:33Z</time>
      </trkpt>
      <trkpt lat="62.63435879051" lon="17.988298276141">
        <ele>209.8</ele>
        <time>2017-12-23T11:19:34Z</time>
      </trkpt>
      <trkpt lat="62.634337500484" lon="17.988293079363">
        <ele>210</ele>
        <time>2017-12-23T11:19:35Z</time>
      </trkpt>
      <trkpt lat="62.634305900721" lon="17.988289307508">
        <ele>210.2</ele>
        <time>2017-12-23T11:19:36Z</time>
      </trkpt>
      <trkpt lat="62.634274803872" lon="17.98829081625">
        <ele>210.2</ele>
        <time>2017-12-23T11:19:37Z</time>
      </trkpt>
      <trkpt lat="62.634253010932" lon="17.988293666096">
        <ele>210.4</ele>
        <time>2017-12-23T11:19:38Z</time>
      </trkpt>
      <trkpt lat="62.634221746445" lon="17.988285368015">
        <ele>210.4</ele>
        <time>2017-12-23T11:19:39Z</time>
      </trkpt>
      <trkpt lat="62.634196852202" lon="17.988278411038">
        <ele>210.4</ele>
        <time>2017-12-23T11:19:40Z</time>
      </trkpt>
      <trkpt lat="62.634170030122" lon="17.988264664722">
        <ele>210.4</ele>
        <time>2017-12-23T11:19:41Z</time>
      </trkpt>
      <trkpt lat="62.634141783119" lon="17.98825477408">
        <ele>210.4</ele>
        <time>2017-12-23T11:19:42Z</time>
      </trkpt>
      <trkpt lat="62.634118565256" lon="17.98824387761">
        <ele>210.4</ele>
        <time>2017-12-23T11:19:43Z</time>
      </trkpt>
      <trkpt lat="62.634085037656" lon="17.988220659747">
        <ele>210.4</ele>
        <time>2017-12-23T11:19:44Z</time>
      </trkpt>
      <trkpt lat="62.634060981603" lon="17.988200207911">
        <ele>210.6</ele>
        <time>2017-12-23T11:19:45Z</time>
      </trkpt>
      <trkpt lat="62.634034075704" lon="17.988188389432">
        <ele>210.6</ele>
        <time>2017-12-23T11:19:46Z</time>
      </trkpt>
      <trkpt lat="62.634008343271" lon="17.988171122718">
        <ele>210.6</ele>
        <time>2017-12-23T11:19:47Z</time>
      </trkpt>
      <trkpt lat="62.633980012449" lon="17.988146731389">
        <ele>210.6</ele>
        <time>2017-12-23T11:19:48Z</time>
      </trkpt>
      <trkpt lat="62.633953441826" lon="17.988144887371">
        <ele>210.6</ele>
        <time>2017-12-23T11:19:49Z</time>
      </trkpt>
      <trkpt lat="62.633922512615" lon="17.988124267897">
        <ele>210.6</ele>
        <time>2017-12-23T11:19:50Z</time>
      </trkpt>
      <trkpt lat="62.633890409938" lon="17.988085292062">
        <ele>210.8</ele>
        <time>2017-12-23T11:19:51Z</time>
      </trkpt>
      <trkpt lat="62.633869036093" lon="17.988065259321">
        <ele>211</ele>
        <time>2017-12-23T11:19:52Z</time>
      </trkpt>
      <trkpt lat="62.633841543461" lon="17.98804019744">
        <ele>211.4</ele>
        <time>2017-12-23T11:19:53Z</time>
      </trkpt>
      <trkpt lat="62.633815559571" lon="17.987998204121">
        <ele>211.6</ele>
        <time>2017-12-23T11:19:54Z</time>
      </trkpt>
      <trkpt lat="62.633789994776" lon="17.987976495">
        <ele>211.8</ele>
        <time>2017-12-23T11:19:55Z</time>
      </trkpt>
      <trkpt lat="62.633758981746" lon="17.987942296848">
        <ele>212.2</ele>
        <time>2017-12-23T11:19:56Z</time>
      </trkpt>
      <trkpt lat="62.633739451919" lon="17.987920503908">
        <ele>212.4</ele>
        <time>2017-12-23T11:19:57Z</time>
      </trkpt>
      <trkpt lat="62.633716234056" lon="17.987889826154">
        <ele>212.2</ele>
        <time>2017-12-23T11:19:58Z</time>
      </trkpt>
      <trkpt lat="62.633695027849" lon="17.987862836436">
        <ele>212.2</ele>
        <time>2017-12-23T11:19:59Z</time>
      </trkpt>
      <trkpt lat="62.633668038131" lon="17.987836098175">
        <ele>212</ele>
        <time>2017-12-23T11:20:00Z</time>
      </trkpt>
      <trkpt lat="62.633643479164" lon="17.987820424022">
        <ele>212.2</ele>
        <time>2017-12-23T11:20:01Z</time>
      </trkpt>
      <trkpt lat="62.633621350948" lon="17.987793350485">
        <ele>212.2</ele>
        <time>2017-12-23T11:20:02Z</time>
      </trkpt>
      <trkpt lat="62.633590086461" lon="17.987766612224">
        <ele>212.4</ele>
        <time>2017-12-23T11:20:03Z</time>
      </trkpt>
      <trkpt lat="62.633565192218" lon="17.987747585311">
        <ele>212.6</ele>
        <time>2017-12-23T11:20:04Z</time>
      </trkpt>
      <trkpt lat="62.633534514464" lon="17.987721601421">
        <ele>212.8</ele>
        <time>2017-12-23T11:20:05Z</time>
      </trkpt>
      <trkpt lat="62.633505848366" lon="17.987684888699">
        <ele>213</ele>
        <time>2017-12-23T11:20:06Z</time>
      </trkpt>
      <trkpt lat="62.633482127589" lon="17.987646499597">
        <ele>213.2</ele>
        <time>2017-12-23T11:20:07Z</time>
      </trkpt>
      <trkpt lat="62.633460669925" lon="17.987608948685">
        <ele>213.2</ele>
        <time>2017-12-23T11:20:08Z</time>
      </trkpt>
      <trkpt lat="62.633439882813" lon="17.987586820469">
        <ele>213.4</ele>
        <time>2017-12-23T11:20:09Z</time>
      </trkpt>
      <trkpt lat="62.633406271394" lon="17.98752890154">
        <ele>213.6</ele>
        <time>2017-12-23T11:20:10Z</time>
      </trkpt>
      <trkpt lat="62.633391770707" lon="17.987483471642">
        <ele>213.8</ele>
        <time>2017-12-23T11:20:11Z</time>
      </trkpt>
      <trkpt lat="62.633369307215" lon="17.987431503862">
        <ele>214</ele>
        <time>2017-12-23T11:20:12Z</time>
      </trkpt>
      <trkpt lat="62.633351369949" lon="17.987391606018">
        <ele>214.2</ele>
        <time>2017-12-23T11:20:13Z</time>
      </trkpt>
      <trkpt lat="62.633318931996" lon="17.987307200285">
        <ele>214.4</ele>
        <time>2017-12-23T11:20:14Z</time>
      </trkpt>
      <trkpt lat="62.63331021482" lon="17.98723385866">
        <ele>214.6</ele>
        <time>2017-12-23T11:20:15Z</time>
      </trkpt>
      <trkpt lat="62.633276771039" lon="17.987129168729">
        <ele>214.4</ele>
        <time>2017-12-23T11:20:16Z</time>
      </trkpt>
      <trkpt lat="62.633244752181" lon="17.987028921205">
        <ele>214.2</ele>
        <time>2017-12-23T11:20:17Z</time>
      </trkpt>
      <trkpt lat="62.633211643676" lon="17.986900761954">
        <ele>213.4</ele>
        <time>2017-12-23T11:20:18Z</time>
      </trkpt>
      <trkpt lat="62.633192616763" lon="17.98681392547">
        <ele>212.6</ele>
        <time>2017-12-23T11:20:19Z</time>
      </trkpt>
      <trkpt lat="62.633186581795" lon="17.986706301874">
        <ele>211.8</ele>
        <time>2017-12-23T11:20:20Z</time>
      </trkpt>
      <trkpt lat="62.633158334792" lon="17.986603623599">
        <ele>211.2</ele>
        <time>2017-12-23T11:20:21Z</time>
      </trkpt>
      <trkpt lat="62.633155065851" lon="17.986534724381">
        <ele>211.2</ele>
        <time>2017-12-23T11:20:22Z</time>
      </trkpt>
      <trkpt lat="62.633151042539" lon="17.986426597871">
        <ele>211.2</ele>
        <time>2017-12-23T11:20:23Z</time>
      </trkpt>
      <trkpt lat="62.633151377815" lon="17.986332720591">
        <ele>211.2</ele>
        <time>2017-12-23T11:20:24Z</time>
      </trkpt>
      <trkpt lat="62.633149869073" lon="17.986252505808">
        <ele>211.6</ele>
        <time>2017-12-23T11:20:25Z</time>
      </trkpt>
      <trkpt lat="62.633147103046" lon="17.986157371243">
        <ele>211.6</ele>
        <time>2017-12-23T11:20:26Z</time>
      </trkpt>
      <trkpt lat="62.633143331191" lon="17.986052346036">
        <ele>211.4</ele>
        <time>2017-12-23T11:20:27Z</time>
      </trkpt>
      <trkpt lat="62.633144672295" lon="17.985928629192">
        <ele>211</ele>
        <time>2017-12-23T11:20:28Z</time>
      </trkpt>
      <trkpt lat="62.633163615389" lon="17.985814300076">
        <ele>210.2</ele>
        <time>2017-12-23T11:20:29Z</time>
      </trkpt>
      <trkpt lat="62.633169063624" lon="17.985678680934">
        <ele>209.4</ele>
        <time>2017-12-23T11:20:30Z</time>
      </trkpt>
      <trkpt lat="62.633177696981" lon="17.985551108416">
        <ele>209</ele>
        <time>2017-12-23T11:20:31Z</time>
      </trkpt>
      <trkpt lat="62.633186330338" lon="17.98542588283">
        <ele>209</ele>
        <time>2017-12-23T11:20:32Z</time>
      </trkpt>
      <trkpt lat="62.633186330338" lon="17.985309039144">
        <ele>209</ele>
        <time>2017-12-23T11:20:33Z</time>
      </trkpt>
      <trkpt lat="62.633195801885" lon="17.985187753051">
        <ele>209</ele>
        <time>2017-12-23T11:20:34Z</time>
      </trkpt>
      <trkpt lat="62.633214744979" lon="17.985049116425">
        <ele>208.6</ele>
        <time>2017-12-23T11:20:35Z</time>
      </trkpt>
      <trkpt lat="62.633233771892" lon="17.984905785935">
        <ele>207.6</ele>
        <time>2017-12-23T11:20:36Z</time>
      </trkpt>
      <trkpt lat="62.633254642823" lon="17.984793971389">
        <ele>206.6</ele>
        <time>2017-12-23T11:20:37Z</time>
      </trkpt>
      <trkpt lat="62.633277273953" lon="17.984685258146">
        <ele>205.8</ele>
        <time>2017-12-23T11:20:38Z</time>
      </trkpt>
      <trkpt lat="62.633293870115" lon="17.984576209627">
        <ele>204.8</ele>
        <time>2017-12-23T11:20:39Z</time>
      </trkpt>
      <trkpt lat="62.633325134602" lon="17.984470262411">
        <ele>204.6</ele>
        <time>2017-12-23T11:20:40Z</time>
      </trkpt>
      <trkpt lat="62.633351369949" lon="17.984388957981">
        <ele>204.8</ele>
        <time>2017-12-23T11:20:41Z</time>
      </trkpt>
      <trkpt lat="62.633364529532" lon="17.984322070419">
        <ele>205</ele>
        <time>2017-12-23T11:20:42Z</time>
      </trkpt>
      <trkpt lat="62.633373498165" lon="17.984234731021">
        <ele>205.2</ele>
        <time>2017-12-23T11:20:43Z</time>
      </trkpt>
      <trkpt lat="62.633374587812" lon="17.984171531495">
        <ele>205.6</ele>
        <time>2017-12-23T11:20:44Z</time>
      </trkpt>
      <trkpt lat="62.633376012735" lon="17.984097016404">
        <ele>205.8</ele>
        <time>2017-12-23T11:20:45Z</time>
      </trkpt>
      <trkpt lat="62.633385400463" lon="17.984016550164">
        <ele>206.2</ele>
        <time>2017-12-23T11:20:46Z</time>
      </trkpt>
      <trkpt lat="62.633383472626" lon="17.983939185227">
        <ele>206.4</ele>
        <time>2017-12-23T11:20:47Z</time>
      </trkpt>
      <trkpt lat="62.63339487201" lon="17.983866346516">
        <ele>206.4</ele>
        <time>2017-12-23T11:20:48Z</time>
      </trkpt>
      <trkpt lat="62.633400823159" lon="17.983796022375">
        <ele>206.6</ele>
        <time>2017-12-23T11:20:49Z</time>
      </trkpt>
      <trkpt lat="62.633403170091" lon="17.983731230288">
        <ele>206.8</ele>
        <time>2017-12-23T11:20:50Z</time>
      </trkpt>
      <trkpt lat="62.633417670778" lon="17.983687728227">
        <ele>206.8</ele>
        <time>2017-12-23T11:20:51Z</time>
      </trkpt>
      <trkpt lat="62.633427812877" lon="17.983635341352">
        <ele>206.8</ele>
        <time>2017-12-23T11:20:52Z</time>
      </trkpt>
      <trkpt lat="62.633437954976" lon="17.983577590061">
        <ele>206.8</ele>
        <time>2017-12-23T11:20:53Z</time>
      </trkpt>
      <trkpt lat="62.63345354531" lon="17.983503242608">
        <ele>206.8</ele>
        <time>2017-12-23T11:20:54Z</time>
      </trkpt>
      <trkpt lat="62.633464274142" lon="17.98344272529">
        <ele>206.6</ele>
        <time>2017-12-23T11:20:55Z</time>
      </trkpt>
      <trkpt lat="62.633477601363" lon="17.98337315552">
        <ele>206.6</ele>
        <time>2017-12-23T11:20:56Z</time>
      </trkpt>
      <trkpt lat="62.633482798141" lon="17.983320181912">
        <ele>206.6</ele>
        <time>2017-12-23T11:20:57Z</time>
      </trkpt>
      <trkpt lat="62.633497634104" lon="17.983235608541">
        <ele>206.6</ele>
        <time>2017-12-23T11:20:58Z</time>
      </trkpt>
      <trkpt lat="62.633509117307" lon="17.983160841993">
        <ele>206.6</ele>
        <time>2017-12-23T11:20:59Z</time>
      </trkpt>
      <trkpt lat="62.633526886935" lon="17.983101162865">
        <ele>206.4</ele>
        <time>2017-12-23T11:21:00Z</time>
      </trkpt>
      <trkpt lat="62.633550607712" lon="17.983036873692">
        <ele>206.6</ele>
        <time>2017-12-23T11:21:01Z</time>
      </trkpt>
      <trkpt lat="62.633555888309" lon="17.982968477388">
        <ele>206.6</ele>
        <time>2017-12-23T11:21:02Z</time>
      </trkpt>
      <trkpt lat="62.633573825575" lon="17.982905110224">
        <ele>206.6</ele>
        <time>2017-12-23T11:21:03Z</time>
      </trkpt>
      <trkpt lat="62.633594025954" lon="17.982837133015">
        <ele>206.8</ele>
        <time>2017-12-23T11:21:04Z</time>
      </trkpt>
      <trkpt lat="62.633597462533" lon="17.982768066159">
        <ele>206.6</ele>
        <time>2017-12-23T11:21:05Z</time>
      </trkpt>
      <trkpt lat="62.633614058695" lon="17.982706207737">
        <ele>207</ele>
        <time>2017-12-23T11:21:06Z</time>
      </trkpt>
      <trkpt lat="62.633624200794" lon="17.98264225384">
        <ele>207</ele>
        <time>2017-12-23T11:21:07Z</time>
      </trkpt>
      <trkpt lat="62.633630738676" lon="17.982573186984">
        <ele>207</ele>
        <time>2017-12-23T11:21:08Z</time>
      </trkpt>
      <trkpt lat="62.633640964594" lon="17.982500180635">
        <ele>207.2</ele>
        <time>2017-12-23T11:21:09Z</time>
      </trkpt>
      <trkpt lat="62.633651777245" lon="17.982429605037">
        <ele>207.2</ele>
        <time>2017-12-23T11:21:10Z</time>
      </trkpt>
      <trkpt lat="62.633663847181" lon="17.982360538181">
        <ele>207.4</ele>
        <time>2017-12-23T11:21:11Z</time>
      </trkpt>
      <trkpt lat="62.633673821642" lon="17.982307396935">
        <ele>207.6</ele>
        <time>2017-12-23T11:21:12Z</time>
      </trkpt>
      <trkpt lat="62.633687903234" lon="17.982237491889">
        <ele>207.8</ele>
        <time>2017-12-23T11:21:13Z</time>
      </trkpt>
      <trkpt lat="62.633706846328" lon="17.98216951468">
        <ele>207.8</ele>
        <time>2017-12-23T11:21:14Z</time>
      </trkpt>
      <trkpt lat="62.633692764736" lon="17.982096256874">
        <ele>207.6</ele>
        <time>2017-12-23T11:21:15Z</time>
      </trkpt>
      <trkpt lat="62.633700140808" lon="17.982024172534">
        <ele>207.6</ele>
        <time>2017-12-23T11:21:16Z</time>
      </trkpt>
      <trkpt lat="62.633709444717" lon="17.981967846166">
        <ele>207.6</ele>
        <time>2017-12-23T11:21:17Z</time>
      </trkpt>
      <trkpt lat="62.633715312047" lon="17.981885955003">
        <ele>207.6</ele>
        <time>2017-12-23T11:21:18Z</time>
      </trkpt>
      <trkpt lat="62.63371673697" lon="17.981809763532">
        <ele>207.2</ele>
        <time>2017-12-23T11:21:19Z</time>
      </trkpt>
      <trkpt lat="62.633719000083" lon="17.981741702504">
        <ele>207.2</ele>
        <time>2017-12-23T11:21:20Z</time>
      </trkpt>
      <trkpt lat="62.633720760282" lon="17.981679592625">
        <ele>207</ele>
        <time>2017-12-23T11:21:21Z</time>
      </trkpt>
      <trkpt lat="62.633726962888" lon="17.981620248773">
        <ele>207</ele>
        <time>2017-12-23T11:21:22Z</time>
      </trkpt>
      <trkpt lat="62.633738697548" lon="17.981567861898">
        <ele>207</ele>
        <time>2017-12-23T11:21:23Z</time>
      </trkpt>
      <trkpt lat="62.633743726688" lon="17.981480857776">
        <ele>206.8</ele>
        <time>2017-12-23T11:21:24Z</time>
      </trkpt>
      <trkpt lat="62.633760825764" lon="17.981419502268">
        <ele>206.8</ele>
        <time>2017-12-23T11:21:25Z</time>
      </trkpt>
      <trkpt lat="62.633771889872" lon="17.981367618307">
        <ele>206.8</ele>
        <time>2017-12-23T11:21:26Z</time>
      </trkpt>
      <trkpt lat="62.633780523229" lon="17.981288996085">
        <ele>206.8</ele>
        <time>2017-12-23T11:21:27Z</time>
      </trkpt>
      <trkpt lat="62.633795275373" lon="17.981214229537">
        <ele>207</ele>
        <time>2017-12-23T11:21:28Z</time>
      </trkpt>
      <trkpt lat="62.633814218467" lon="17.981155640056">
        <ele>207.4</ele>
        <time>2017-12-23T11:21:29Z</time>
      </trkpt>
      <trkpt lat="62.633831988095" lon="17.98108489682">
        <ele>207.6</ele>
        <time>2017-12-23T11:21:30Z</time>
      </trkpt>
      <trkpt lat="62.633854116311" lon="17.981035695067">
        <ele>207.6</ele>
        <time>2017-12-23T11:21:31Z</time>
      </trkpt>
      <trkpt lat="62.633872975586" lon="17.980981631812">
        <ele>208</ele>
        <time>2017-12-23T11:21:32Z</time>
      </trkpt>
      <trkpt lat="62.633899210933" lon="17.980923042331">
        <ele>207.8</ele>
        <time>2017-12-23T11:21:33Z</time>
      </trkpt>
      <trkpt lat="62.633921003873" lon="17.980883563582">
        <ele>207.8</ele>
        <time>2017-12-23T11:21:34Z</time>
      </trkpt>
      <trkpt lat="62.633931481248" lon="17.980829165051">
        <ele>208</ele>
        <time>2017-12-23T11:21:35Z</time>
      </trkpt>
      <trkpt lat="62.633946233392" lon="17.98078147204">
        <ele>208</ele>
        <time>2017-12-23T11:21:36Z</time>
      </trkpt>
      <trkpt lat="62.63396232664" lon="17.980733108477">
        <ele>208.2</ele>
        <time>2017-12-23T11:21:37Z</time>
      </trkpt>
      <trkpt lat="62.633980934458" lon="17.980668064933">
        <ele>208.2</ele>
        <time>2017-12-23T11:21:38Z</time>
      </trkpt>
      <trkpt lat="62.634004152321" lon="17.980615594239">
        <ele>208.2</ele>
        <time>2017-12-23T11:21:39Z</time>
      </trkpt>
      <trkpt lat="62.634019742655" lon="17.980562452993">
        <ele>208.2</ele>
        <time>2017-12-23T11:21:40Z</time>
      </trkpt>
      <trkpt lat="62.634039272482" lon="17.980503863512">
        <ele>208.4</ele>
        <time>2017-12-23T11:21:41Z</time>
      </trkpt>
      <trkpt lat="62.634045055993" lon="17.98044284328">
        <ele>208.2</ele>
        <time>2017-12-23T11:21:42Z</time>
      </trkpt>
      <trkpt lat="62.634063999087" lon="17.980392132785">
        <ele>208.2</ele>
        <time>2017-12-23T11:21:43Z</time>
      </trkpt>
      <trkpt lat="62.634088222778" lon="17.980333710942">
        <ele>208.2</ele>
        <time>2017-12-23T11:21:44Z</time>
      </trkpt>
      <trkpt lat="62.634111775917" lon="17.980283922456">
        <ele>208.2</ele>
        <time>2017-12-23T11:21:45Z</time>
      </trkpt>
      <trkpt lat="62.634131138106" lon="17.980239330748">
        <ele>208.2</ele>
        <time>2017-12-23T11:21:46Z</time>
      </trkpt>
      <trkpt lat="62.634156451444" lon="17.980197002153">
        <ele>208.2</ele>
        <time>2017-12-23T11:21:47Z</time>
      </trkpt>
      <trkpt lat="62.634183189705" lon="17.980167414046">
        <ele>208.2</ele>
        <time>2017-12-23T11:21:48Z</time>
      </trkpt>
      <trkpt lat="62.634205317921" lon="17.980112847877">
        <ele>208.2</ele>
        <time>2017-12-23T11:21:49Z</time>
      </trkpt>
      <trkpt lat="62.63423138563" lon="17.980054509853">
        <ele>208.2</ele>
        <time>2017-12-23T11:21:50Z</time>
      </trkpt>
      <trkpt lat="62.634260303185" lon="17.979998183485">
        <ele>208.2</ele>
        <time>2017-12-23T11:21:51Z</time>
      </trkpt>
      <trkpt lat="62.634288131093" lon="17.979949652284">
        <ele>208.2</ele>
        <time>2017-12-23T11:21:52Z</time>
      </trkpt>
      <trkpt lat="62.634300536305" lon="17.979881507437">
        <ele>208.2</ele>
        <time>2017-12-23T11:21:53Z</time>
      </trkpt>
      <trkpt lat="62.634321155779" lon="17.979813781685">
        <ele>208.2</ele>
        <time>2017-12-23T11:21:54Z</time>
      </trkpt>
      <trkpt lat="62.634348480773" lon="17.979750330702">
        <ele>208.2</ele>
        <time>2017-12-23T11:21:55Z</time>
      </trkpt>
      <trkpt lat="62.634368429695" lon="17.979687717909">
        <ele>208.4</ele>
        <time>2017-12-23T11:21:56Z</time>
      </trkpt>
      <trkpt lat="62.634374213206" lon="17.979638767613">
        <ele>208.4</ele>
        <time>2017-12-23T11:21:57Z</time>
      </trkpt>
      <trkpt lat="62.63438645078" lon="17.97956190559">
        <ele>208.6</ele>
        <time>2017-12-23T11:21:58Z</time>
      </trkpt>
      <trkpt lat="62.634398520716" lon="17.979500214806">
        <ele>208.6</ele>
        <time>2017-12-23T11:21:59Z</time>
      </trkpt>
      <trkpt lat="62.634403968951" lon="17.979436680004">
        <ele>208.6</ele>
        <time>2017-12-23T11:22:00Z</time>
      </trkpt>
      <trkpt lat="62.634411428842" lon="17.979370882089">
        <ele>208.6</ele>
        <time>2017-12-23T11:22:01Z</time>
      </trkpt>
      <trkpt lat="62.634420648932" lon="17.979314052807">
        <ele>208.6</ele>
        <time>2017-12-23T11:22:02Z</time>
      </trkpt>
      <trkpt lat="62.634434730524" lon="17.979254122222">
        <ele>208.6</ele>
        <time>2017-12-23T11:22:03Z</time>
      </trkpt>
      <trkpt lat="62.634447303374" lon="17.979207267401">
        <ele>208.6</ele>
        <time>2017-12-23T11:22:04Z</time>
      </trkpt>
      <trkpt lat="62.6344685934" lon="17.979144906065">
        <ele>208.4</ele>
        <time>2017-12-23T11:22:05Z</time>
      </trkpt>
      <trkpt lat="62.634485860114" lon="17.979092267733">
        <ele>208.2</ele>
        <time>2017-12-23T11:22:06Z</time>
      </trkpt>
      <trkpt lat="62.634495499299" lon="17.97904306598">
        <ele>208.2</ele>
        <time>2017-12-23T11:22:07Z</time>
      </trkpt>
      <trkpt lat="62.634509413253" lon="17.978978106255">
        <ele>208.2</ele>
        <time>2017-12-23T11:22:08Z</time>
      </trkpt>
      <trkpt lat="62.634533385487" lon="17.978867716632">
        <ele>208.4</ele>
        <time>2017-12-23T11:22:10Z</time>
      </trkpt>
      <trkpt lat="62.634548640545" lon="17.978822454372">
        <ele>208.4</ele>
        <time>2017-12-23T11:22:11Z</time>
      </trkpt>
      <trkpt lat="62.634570349666" lon="17.978799487966">
        <ele>208.4</ele>
        <time>2017-12-23T11:22:12Z</time>
      </trkpt>
      <trkpt lat="62.634593818986" lon="17.978780377234">
        <ele>208.4</ele>
        <time>2017-12-23T11:22:13Z</time>
      </trkpt>
      <trkpt lat="62.634615779564" lon="17.978772414429">
        <ele>208.4</ele>
        <time>2017-12-23T11:22:14Z</time>
      </trkpt>
      <trkpt lat="62.634633297735" lon="17.978766798556">
        <ele>208.2</ele>
        <time>2017-12-23T11:22:15Z</time>
      </trkpt>
      <trkpt lat="62.634656264141" lon="17.978767552927">
        <ele>208.2</ele>
        <time>2017-12-23T11:22:16Z</time>
      </trkpt>
      <trkpt lat="62.63467897909" lon="17.978773671714">
        <ele>208.2</ele>
        <time>2017-12-23T11:22:17Z</time>
      </trkpt>
      <trkpt lat="62.634707812826" lon="17.978786998935">
        <ele>208.4</ele>
        <time>2017-12-23T11:22:18Z</time>
      </trkpt>
      <trkpt lat="62.634736981838" lon="17.978810468255">
        <ele>208.6</ele>
        <time>2017-12-23T11:22:19Z</time>
      </trkpt>
      <trkpt lat="62.634759277692" lon="17.978802673088">
        <ele>208.8</ele>
        <time>2017-12-23T11:22:20Z</time>
      </trkpt>
      <trkpt lat="62.634792805292" lon="17.978828154064">
        <ele>208.8</ele>
        <time>2017-12-23T11:22:21Z</time>
      </trkpt>
      <trkpt lat="62.634815017327" lon="17.978828824616">
        <ele>208.6</ele>
        <time>2017-12-23T11:22:22Z</time>
      </trkpt>
      <trkpt lat="62.63484661709" lon="17.978849695547">
        <ele>208.6</ele>
        <time>2017-12-23T11:22:23Z</time>
      </trkpt>
      <trkpt lat="62.634876624292" lon="17.978860089103">
        <ele>208.2</ele>
        <time>2017-12-23T11:22:24Z</time>
      </trkpt>
      <trkpt lat="62.634904116924" lon="17.978876349989">
        <ele>207.8</ele>
        <time>2017-12-23T11:22:25Z</time>
      </trkpt>
      <trkpt lat="62.634931358099" lon="17.978880960034">
        <ele>207.6</ele>
        <time>2017-12-23T11:22:26Z</time>
      </trkpt>
      <trkpt lat="62.634952480487" lon="17.978892107961">
        <ele>207.6</ele>
        <time>2017-12-23T11:22:27Z</time>
      </trkpt>
      <trkpt lat="62.634976117445" lon="17.978911637788">
        <ele>207.4</ele>
        <time>2017-12-23T11:22:28Z</time>
      </trkpt>
      <trkpt lat="62.63499581491" lon="17.978913733263">
        <ele>207.6</ele>
        <time>2017-12-23T11:22:29Z</time>
      </trkpt>
      <trkpt lat="62.635016853479" lon="17.978927060484">
        <ele>207.6</ele>
        <time>2017-12-23T11:22:30Z</time>
      </trkpt>
      <trkpt lat="62.635036131849" lon="17.978931670529">
        <ele>207.6</ele>
        <time>2017-12-23T11:22:31Z</time>
      </trkpt>
      <trkpt lat="62.635055661676" lon="17.978946338854">
        <ele>207.6</ele>
        <time>2017-12-23T11:22:32Z</time>
      </trkpt>
      <trkpt lat="62.635079298634" lon="17.978954888392">
        <ele>207.6</ele>
        <time>2017-12-23T11:22:33Z</time>
      </trkpt>
      <trkpt lat="62.6350972359" lon="17.978952876736">
        <ele>207.4</ele>
        <time>2017-12-23T11:22:34Z</time>
      </trkpt>
      <trkpt lat="62.635123303609" lon="17.978967125966">
        <ele>207.4</ele>
        <time>2017-12-23T11:22:35Z</time>
      </trkpt>
      <trkpt lat="62.635148700766" lon="17.978977100427">
        <ele>207.4</ele>
        <time>2017-12-23T11:22:36Z</time>
      </trkpt>
      <trkpt lat="62.635173846466" lon="17.978985482327">
        <ele>207.2</ele>
        <time>2017-12-23T11:22:37Z</time>
      </trkpt>
      <trkpt lat="62.635201339098" lon="17.978986488155">
        <ele>207</ele>
        <time>2017-12-23T11:22:38Z</time>
      </trkpt>
      <trkpt lat="62.635229921377" lon="17.978994953874">
        <ele>206.8</ele>
        <time>2017-12-23T11:22:39Z</time>
      </trkpt>
      <trkpt lat="62.635256911095" lon="17.979000150652">
        <ele>206.6</ele>
        <time>2017-12-23T11:22:40Z</time>
      </trkpt>
      <trkpt lat="62.635285409555" lon="17.979001659394">
        <ele>206.4</ele>
        <time>2017-12-23T11:22:41Z</time>
      </trkpt>
      <trkpt lat="62.635309968522" lon="17.979005263611">
        <ele>206.2</ele>
        <time>2017-12-23T11:22:42Z</time>
      </trkpt>
      <trkpt lat="62.635340143362" lon="17.979005682706">
        <ele>206.2</ele>
        <time>2017-12-23T11:22:43Z</time>
      </trkpt>
      <trkpt lat="62.635367552175" lon="17.979009203104">
        <ele>206.2</ele>
        <time>2017-12-23T11:22:44Z</time>
      </trkpt>
      <trkpt lat="62.635393871341" lon="17.979006856172">
        <ele>206.2</ele>
        <time>2017-12-23T11:22:45Z</time>
      </trkpt>
      <trkpt lat="62.635423459448" lon="17.979011130941">
        <ele>206.2</ele>
        <time>2017-12-23T11:22:46Z</time>
      </trkpt>
      <trkpt lat="62.635446342035" lon="17.979004844516">
        <ele>206.2</ele>
        <time>2017-12-23T11:22:47Z</time>
      </trkpt>
      <trkpt lat="62.635472577382" lon="17.97899277458">
        <ele>206</ele>
        <time>2017-12-23T11:22:48Z</time>
      </trkpt>
      <trkpt lat="62.63551549271" lon="17.978990092372">
        <ele>206</ele>
        <time>2017-12-23T11:22:49Z</time>
      </trkpt>
      <trkpt lat="62.635536615098" lon="17.978983889766">
        <ele>205.8</ele>
        <time>2017-12-23T11:22:50Z</time>
      </trkpt>
      <trkpt lat="62.635563520997" lon="17.978982800119">
        <ele>205.8</ele>
        <time>2017-12-23T11:22:51Z</time>
      </trkpt>
      <trkpt lat="62.635602915927" lon="17.978962348283">
        <ele>205.6</ele>
        <time>2017-12-23T11:22:52Z</time>
      </trkpt>
      <trkpt lat="62.635642562314" lon="17.978963354111">
        <ele>205.4</ele>
        <time>2017-12-23T11:22:53Z</time>
      </trkpt>
      <trkpt lat="62.635683214529" lon="17.978966120138">
        <ele>205.2</ele>
        <time>2017-12-23T11:22:54Z</time>
      </trkpt>
      <trkpt lat="62.635718250871" lon="17.978955139849">
        <ele>205</ele>
        <time>2017-12-23T11:22:55Z</time>
      </trkpt>
      <trkpt lat="62.63575018591" lon="17.978938376049">
        <ele>204.8</ele>
        <time>2017-12-23T11:22:56Z</time>
      </trkpt>
      <trkpt lat="62.635781031302" lon="17.978941980266">
        <ele>204.6</ele>
        <time>2017-12-23T11:22:57Z</time>
      </trkpt>
      <trkpt lat="62.635815397092" lon="17.978942315542">
        <ele>204.4</ele>
        <time>2017-12-23T11:22:58Z</time>
      </trkpt>
      <trkpt lat="62.635839704602" lon="17.978950194528">
        <ele>204.2</ele>
        <time>2017-12-23T11:22:59Z</time>
      </trkpt>
      <trkpt lat="62.635870717632" lon="17.978958911704">
        <ele>204.2</ele>
        <time>2017-12-23T11:23:00Z</time>
      </trkpt>
      <trkpt lat="62.635893767857" lon="17.97896427612">
        <ele>204.2</ele>
        <time>2017-12-23T11:23:01Z</time>
      </trkpt>
      <trkpt lat="62.635909861105" lon="17.978964443758">
        <ele>204.2</ele>
        <time>2017-12-23T11:23:02Z</time>
      </trkpt>
      <trkpt lat="62.635933162787" lon="17.978976429875">
        <ele>204.2</ele>
        <time>2017-12-23T11:23:03Z</time>
      </trkpt>
      <trkpt lat="62.63594967513" lon="17.978989086544">
        <ele>204.2</ele>
        <time>2017-12-23T11:23:04Z</time>
      </trkpt>
      <trkpt lat="62.63596224798" lon="17.978994953874">
        <ele>204.2</ele>
        <time>2017-12-23T11:23:05Z</time>
      </trkpt>
      <trkpt lat="62.635975742839" lon="17.979001240299">
        <ele>204.4</ele>
        <time>2017-12-23T11:23:06Z</time>
      </trkpt>
      <trkpt lat="62.635983370368" lon="17.979006772353">
        <ele>204.4</ele>
        <time>2017-12-23T11:23:07Z</time>
      </trkpt>
      <trkpt lat="62.635990830259" lon="17.979013896968">
        <ele>204.6</ele>
        <time>2017-12-23T11:23:08Z</time>
      </trkpt>
      <trkpt lat="62.635999463616" lon="17.979018926108">
        <ele>204.8</ele>
        <time>2017-12-23T11:23:09Z</time>
      </trkpt>
      <trkpt lat="62.636010192448" lon="17.97902797856">
        <ele>205</ele>
        <time>2017-12-23T11:23:10Z</time>
      </trkpt>
      <trkpt lat="62.636015221588" lon="17.979037450107">
        <ele>205</ele>
        <time>2017-12-23T11:23:11Z</time>
      </trkpt>
      <trkpt lat="62.636020418366" lon="17.979052369889">
        <ele>205</ele>
        <time>2017-12-23T11:23:12Z</time>
      </trkpt>
      <trkpt lat="62.636022513841" lon="17.979063350178">
        <ele>205</ele>
        <time>2017-12-23T11:23:13Z</time>
      </trkpt>
      <trkpt lat="62.636022765298" lon="17.979064439825">
        <ele>204.8</ele>
        <time>2017-12-23T11:23:14Z</time>
      </trkpt>
      <trkpt lat="62.636019663995" lon="17.979072570268">
        <ele>204.8</ele>
        <time>2017-12-23T11:23:15Z</time>
      </trkpt>
      <trkpt lat="62.636013545208" lon="17.979548913645">
        <ele>204.8</ele>
        <time>2017-12-23T11:23:36Z</time>
      </trkpt>
      <trkpt lat="62.636008180792" lon="17.979669529186">
        <ele>204.6</ele>
        <time>2017-12-23T11:23:37Z</time>
      </trkpt>
      <trkpt lat="62.636005330946" lon="17.979825348707">
        <ele>204.2</ele>
        <time>2017-12-23T11:23:38Z</time>
      </trkpt>
      <trkpt lat="62.636005666222" lon="17.979964488247">
        <ele>203.4</ele>
        <time>2017-12-23T11:23:39Z</time>
      </trkpt>
      <trkpt lat="62.636008935163" lon="17.980064316676">
        <ele>202.6</ele>
        <time>2017-12-23T11:23:40Z</time>
      </trkpt>
      <trkpt lat="62.636018574348" lon="17.980186524778">
        <ele>201.2</ele>
        <time>2017-12-23T11:23:41Z</time>
      </trkpt>
      <trkpt lat="62.636026034239" lon="17.980313007649">
        <ele>200.2</ele>
        <time>2017-12-23T11:23:42Z</time>
      </trkpt>
      <trkpt lat="62.6360360087" lon="17.980427588222">
        <ele>199.6</ele>
        <time>2017-12-23T11:23:43Z</time>
      </trkpt>
      <trkpt lat="62.636053275414" lon="17.980552227075">
        <ele>199.2</ele>
        <time>2017-12-23T11:23:44Z</time>
      </trkpt>
      <trkpt lat="62.636058472192" lon="17.980677620299">
        <ele>198.8</ele>
        <time>2017-12-23T11:23:45Z</time>
      </trkpt>
      <trkpt lat="62.636060064753" lon="17.980804438446">
        <ele>198.6</ele>
        <time>2017-12-23T11:23:46Z</time>
      </trkpt>
      <trkpt lat="62.636056711993" lon="17.980961347614">
        <ele>198.4</ele>
        <time>2017-12-23T11:23:47Z</time>
      </trkpt>
      <trkpt lat="62.63605361069" lon="17.981095290376">
        <ele>198.2</ele>
        <time>2017-12-23T11:23:48Z</time>
      </trkpt>
      <trkpt lat="62.636054281242" lon="17.981195034986">
        <ele>198</ele>
        <time>2017-12-23T11:23:49Z</time>
      </trkpt>
      <trkpt lat="62.6360695363" lon="17.981279943633">
        <ele>197.8</ele>
        <time>2017-12-23T11:23:50Z</time>
      </trkpt>
      <trkpt lat="62.636080516589" lon="17.981364097909">
        <ele>197.8</ele>
        <time>2017-12-23T11:23:51Z</time>
      </trkpt>
      <trkpt lat="62.636096106923" lon="17.981448168366">
        <ele>197.6</ele>
        <time>2017-12-23T11:23:52Z</time>
      </trkpt>
      <trkpt lat="62.636117564587" lon="17.981542883836">
        <ele>197.4</ele>
        <time>2017-12-23T11:23:53Z</time>
      </trkpt>
      <trkpt lat="62.636137597328" lon="17.981616476918">
        <ele>197.4</ele>
        <time>2017-12-23T11:23:54Z</time>
      </trkpt>
      <trkpt lat="62.636154109671" lon="17.981692165475">
        <ele>197.6</ele>
        <time>2017-12-23T11:23:55Z</time>
      </trkpt>
      <trkpt lat="62.636163916494" lon="17.981756873743">
        <ele>197.8</ele>
        <time>2017-12-23T11:23:56Z</time>
      </trkpt>
      <trkpt lat="62.636176237887" lon="17.981844967512">
        <ele>198</ele>
        <time>2017-12-23T11:23:57Z</time>
      </trkpt>
      <trkpt lat="62.636194175153" lon="17.981929373245">
        <ele>198.2</ele>
        <time>2017-12-23T11:23:58Z</time>
      </trkpt>
      <trkpt lat="62.636210855134" lon="17.982013527521">
        <ele>198.4</ele>
        <time>2017-12-23T11:23:59Z</time>
      </trkpt>
      <trkpt lat="62.636221332509" lon="17.982098184711">
        <ele>198.4</ele>
        <time>2017-12-23T11:24:00Z</time>
      </trkpt>
      <trkpt lat="62.636237509576" lon="17.982171107241">
        <ele>198.4</ele>
        <time>2017-12-23T11:24:01Z</time>
      </trkpt>
      <trkpt lat="62.636248154589" lon="17.982246041427">
        <ele>198.4</ele>
        <time>2017-12-23T11:24:02Z</time>
      </trkpt>
      <trkpt lat="62.636253016091" lon="17.982327010581">
        <ele>198.4</ele>
        <time>2017-12-23T11:24:03Z</time>
      </trkpt>
      <trkpt lat="62.636256620308" lon="17.982398256731">
        <ele>198.4</ele>
        <time>2017-12-23T11:24:04Z</time>
      </trkpt>
      <trkpt lat="62.636259051059" lon="17.982485177034">
        <ele>198.4</ele>
        <time>2017-12-23T11:24:05Z</time>
      </trkpt>
      <trkpt lat="62.636259134878" lon="17.982559105392">
        <ele>198.4</ele>
        <time>2017-12-23T11:24:06Z</time>
      </trkpt>
      <trkpt lat="62.636262990552" lon="17.982632530836">
        <ele>198.6</ele>
        <time>2017-12-23T11:24:07Z</time>
      </trkpt>
      <trkpt lat="62.636264080199" lon="17.982712326524">
        <ele>198.6</ele>
        <time>2017-12-23T11:24:08Z</time>
      </trkpt>
      <trkpt lat="62.636265588941" lon="17.982783488855">
        <ele>198.6</ele>
        <time>2017-12-23T11:24:09Z</time>
      </trkpt>
      <trkpt lat="62.636265505122" lon="17.982848029485">
        <ele>198.8</ele>
        <time>2017-12-23T11:24:10Z</time>
      </trkpt>
      <trkpt lat="62.636261733267" lon="17.982919275635">
        <ele>198.8</ele>
        <time>2017-12-23T11:24:11Z</time>
      </trkpt>
      <trkpt lat="62.636262487638" lon="17.98299848459">
        <ele>198.8</ele>
        <time>2017-12-23T11:24:12Z</time>
      </trkpt>
      <trkpt lat="62.636264583113" lon="17.983074256966">
        <ele>199.2</ele>
        <time>2017-12-23T11:24:13Z</time>
      </trkpt>
      <trkpt lat="62.636267181502" lon="17.98314265327">
        <ele>199.2</ele>
        <time>2017-12-23T11:24:14Z</time>
      </trkpt>
      <trkpt lat="62.636274138479" lon="17.983204260235">
        <ele>199.2</ele>
        <time>2017-12-23T11:24:15Z</time>
      </trkpt>
      <trkpt lat="62.636274389936" lon="17.983260335146">
        <ele>199.2</ele>
        <time>2017-12-23T11:24:16Z</time>
      </trkpt>
      <trkpt lat="62.636270785719" lon="17.983336610436">
        <ele>199.2</ele>
        <time>2017-12-23T11:24:17Z</time>
      </trkpt>
      <trkpt lat="62.636267097683" lon="17.98339578665">
        <ele>198.8</ele>
        <time>2017-12-23T11:24:18Z</time>
      </trkpt>
      <trkpt lat="62.636258631964" lon="17.983461584565">
        <ele>198.8</ele>
        <time>2017-12-23T11:24:19Z</time>
      </trkpt>
      <trkpt lat="62.636251926444" lon="17.98352989705">
        <ele>199</ele>
        <time>2017-12-23T11:24:20Z</time>
      </trkpt>
      <trkpt lat="62.636248657503" lon="17.983587145427">
        <ele>199</ele>
        <time>2017-12-23T11:24:21Z</time>
      </trkpt>
      <trkpt lat="62.636248992779" lon="17.983641041044">
        <ele>199.2</ele>
        <time>2017-12-23T11:24:22Z</time>
      </trkpt>
      <trkpt lat="62.636246813485" lon="17.983703737656">
        <ele>199.4</ele>
        <time>2017-12-23T11:24:23Z</time>
      </trkpt>
      <trkpt lat="62.636241616707" lon="17.983752687952">
        <ele>199.4</ele>
        <time>2017-12-23T11:24:24Z</time>
      </trkpt>
      <trkpt lat="62.6362371743" lon="17.983796609108">
        <ele>199.4</ele>
        <time>2017-12-23T11:24:25Z</time>
      </trkpt>
      <trkpt lat="62.636229043857" lon="17.983842206644">
        <ele>199.8</ele>
        <time>2017-12-23T11:24:26Z</time>
      </trkpt>
      <trkpt lat="62.636213453523" lon="17.983904484161">
        <ele>199.8</ele>
        <time>2017-12-23T11:24:27Z</time>
      </trkpt>
      <trkpt lat="62.636204233433" lon="17.983949578783">
        <ele>200</ele>
        <time>2017-12-23T11:24:28Z</time>
      </trkpt>
      <trkpt lat="62.63619694118" lon="17.984009928463">
        <ele>200</ele>
        <time>2017-12-23T11:24:29Z</time>
      </trkpt>
      <trkpt lat="62.636191828221" lon="17.984070026686">
        <ele>200.2</ele>
        <time>2017-12-23T11:24:30Z</time>
      </trkpt>
      <trkpt lat="62.636187888728" lon="17.984121407733">
        <ele>200.2</ele>
        <time>2017-12-23T11:24:31Z</time>
      </trkpt>
      <trkpt lat="62.636186212348" lon="17.984182930879">
        <ele>200</ele>
        <time>2017-12-23T11:24:32Z</time>
      </trkpt>
      <trkpt lat="62.636185038882" lon="17.984235066297">
        <ele>200.2</ele>
        <time>2017-12-23T11:24:33Z</time>
      </trkpt>
      <trkpt lat="62.636186631443" lon="17.984280999109">
        <ele>200.2</ele>
        <time>2017-12-23T11:24:34Z</time>
      </trkpt>
      <trkpt lat="62.636189565108" lon="17.984337157839">
        <ele>200.2</ele>
        <time>2017-12-23T11:24:35Z</time>
      </trkpt>
      <trkpt lat="62.636191157669" lon="17.984390801999">
        <ele>200.2</ele>
        <time>2017-12-23T11:24:36Z</time>
      </trkpt>
      <trkpt lat="62.636187134357" lon="17.984458360113">
        <ele>200.2</ele>
        <time>2017-12-23T11:24:37Z</time>
      </trkpt>
      <trkpt lat="62.636184703606" lon="17.984522397829">
        <ele>200.4</ele>
        <time>2017-12-23T11:24:38Z</time>
      </trkpt>
      <trkpt lat="62.636182775769" lon="17.984580652034">
        <ele>200.4</ele>
        <time>2017-12-23T11:24:39Z</time>
      </trkpt>
      <trkpt lat="62.636180009742" lon="17.984632200719">
        <ele>200.6</ele>
        <time>2017-12-23T11:24:40Z</time>
      </trkpt>
      <trkpt lat="62.636177914267" lon="17.98468073192">
        <ele>200.8</ele>
        <time>2017-12-23T11:24:41Z</time>
      </trkpt>
      <trkpt lat="62.636175483516" lon="17.984740159591">
        <ele>200.8</ele>
        <time>2017-12-23T11:24:42Z</time>
      </trkpt>
      <trkpt lat="62.636170202919" lon="17.984800425452">
        <ele>201</ele>
        <time>2017-12-23T11:24:43Z</time>
      </trkpt>
      <trkpt lat="62.636165006141" lon="17.984856165087">
        <ele>201.2</ele>
        <time>2017-12-23T11:24:44Z</time>
      </trkpt>
      <trkpt lat="62.63616676634" lon="17.984924142296">
        <ele>201.4</ele>
        <time>2017-12-23T11:24:45Z</time>
      </trkpt>
      <trkpt lat="62.636167772168" lon="17.984973679325">
        <ele>201.6</ele>
        <time>2017-12-23T11:24:46Z</time>
      </trkpt>
      <trkpt lat="62.636167520711" lon="17.985047775321">
        <ele>201.8</ele>
        <time>2017-12-23T11:24:47Z</time>
      </trkpt>
      <trkpt lat="62.63616592815" lon="17.985108879372">
        <ele>201.8</ele>
        <time>2017-12-23T11:24:48Z</time>
      </trkpt>
      <trkpt lat="62.636162910666" lon="17.985169983423">
        <ele>201.8</ele>
        <time>2017-12-23T11:24:49Z</time>
      </trkpt>
      <trkpt lat="62.636158635897" lon="17.985228824361">
        <ele>202</ele>
        <time>2017-12-23T11:24:50Z</time>
      </trkpt>
      <trkpt lat="62.636160144639" lon="17.98529512519">
        <ele>202</ele>
        <time>2017-12-23T11:24:51Z</time>
      </trkpt>
      <trkpt lat="62.636161066648" lon="17.985354133766">
        <ele>202.2</ele>
        <time>2017-12-23T11:24:52Z</time>
      </trkpt>
      <trkpt lat="62.636152433291" lon="17.985408532297">
        <ele>202.2</ele>
        <time>2017-12-23T11:24:53Z</time>
      </trkpt>
      <trkpt lat="62.636141788278" lon="17.985463266104">
        <ele>202.4</ele>
        <time>2017-12-23T11:24:54Z</time>
      </trkpt>
      <trkpt lat="62.636131729998" lon="17.985514311875">
        <ele>202.4</ele>
        <time>2017-12-23T11:24:55Z</time>
      </trkpt>
      <trkpt lat="62.636116894035" lon="17.985558233031">
        <ele>202.4</ele>
        <time>2017-12-23T11:24:56Z</time>
      </trkpt>
      <trkpt lat="62.636110691429" lon="17.985629563">
        <ele>202.4</ele>
        <time>2017-12-23T11:24:57Z</time>
      </trkpt>
      <trkpt lat="62.636104405004" lon="17.985687649567">
        <ele>202.6</ele>
        <time>2017-12-23T11:24:58Z</time>
      </trkpt>
      <trkpt lat="62.636095855466" lon="17.985742048098">
        <ele>202.6</ele>
        <time>2017-12-23T11:24:59Z</time>
      </trkpt>
      <trkpt lat="62.636082779702" lon="17.985802984511">
        <ele>202.6</ele>
        <time>2017-12-23T11:25:00Z</time>
      </trkpt>
      <trkpt lat="62.636076996191" lon="17.985851767169">
        <ele>202.6</ele>
        <time>2017-12-23T11:25:01Z</time>
      </trkpt>
      <trkpt lat="62.636058723649" lon="17.985899292542">
        <ele>202.6</ele>
        <time>2017-12-23T11:25:02Z</time>
      </trkpt>
      <trkpt lat="62.636044055324" lon="17.985944470983">
        <ele>202.6</ele>
        <time>2017-12-23T11:25:03Z</time>
      </trkpt>
      <trkpt lat="62.636026872429" lon="17.985979172049">
        <ele>203</ele>
        <time>2017-12-23T11:25:04Z</time>
      </trkpt>
      <trkpt lat="62.636000637082" lon="17.986009514527">
        <ele>203</ele>
        <time>2017-12-23T11:25:05Z</time>
      </trkpt>
      <trkpt lat="62.635982029264" lon="17.986030720734">
        <ele>203.2</ele>
        <time>2017-12-23T11:25:06Z</time>
      </trkpt>
      <trkpt lat="62.635961828885" lon="17.986052429855">
        <ele>203.2</ele>
        <time>2017-12-23T11:25:07Z</time>
      </trkpt>
      <trkpt lat="62.635941209411" lon="17.986073636062">
        <ele>203.2</ele>
        <time>2017-12-23T11:25:08Z</time>
      </trkpt>
      <trkpt lat="62.635920841394" lon="17.986094255536">
        <ele>203.2</ele>
        <time>2017-12-23T11:25:09Z</time>
      </trkpt>
      <trkpt lat="62.635897874988" lon="17.986102972712">
        <ele>203.2</ele>
        <time>2017-12-23T11:25:10Z</time>
      </trkpt>
      <trkpt lat="62.635877423152" lon="17.986121915806">
        <ele>203.4</ele>
        <time>2017-12-23T11:25:11Z</time>
      </trkpt>
      <trkpt lat="62.635854708203" lon="17.986149659895">
        <ele>203.4</ele>
        <time>2017-12-23T11:25:12Z</time>
      </trkpt>
      <trkpt lat="62.635835010738" lon="17.986175727604">
        <ele>203.4</ele>
        <time>2017-12-23T11:25:13Z</time>
      </trkpt>
      <trkpt lat="62.63581640292" lon="17.986207159729">
        <ele>203.4</ele>
        <time>2017-12-23T11:25:14Z</time>
      </trkpt>
      <trkpt lat="62.635794945256" lon="17.986248482496">
        <ele>203.4</ele>
        <time>2017-12-23T11:25:15Z</time>
      </trkpt>
      <trkpt lat="62.6357761698" lon="17.986280333716">
        <ele>203.6</ele>
        <time>2017-12-23T11:25:16Z</time>
      </trkpt>
      <trkpt lat="62.635756723792" lon="17.986313106945">
        <ele>203.6</ele>
        <time>2017-12-23T11:25:17Z</time>
      </trkpt>
      <trkpt lat="62.635740714363" lon="17.986338587921">
        <ele>203.6</ele>
        <time>2017-12-23T11:25:18Z</time>
      </trkpt>
      <trkpt lat="62.635728476789" lon="17.98637136115">
        <ele>203.8</ele>
        <time>2017-12-23T11:25:19Z</time>
      </trkpt>
      <trkpt lat="62.635714059921" lon="17.986405810759">
        <ele>203.8</ele>
        <time>2017-12-23T11:25:20Z</time>
      </trkpt>
      <trkpt lat="62.635701403252" lon="17.98644763644">
        <ele>204.2</ele>
        <time>2017-12-23T11:25:21Z</time>
      </trkpt>
      <trkpt lat="62.635683382167" lon="17.986484768257">
        <ele>204.4</ele>
        <time>2017-12-23T11:25:22Z</time>
      </trkpt>
      <trkpt lat="62.635669049118" lon="17.986539082969">
        <ele>204.6</ele>
        <time>2017-12-23T11:25:23Z</time>
      </trkpt>
      <trkpt lat="62.635653458784" lon="17.986575292777">
        <ele>205</ele>
        <time>2017-12-23T11:25:24Z</time>
      </trkpt>
      <trkpt lat="62.635638203726" lon="17.986619633028">
        <ele>205.2</ele>
        <time>2017-12-23T11:25:25Z</time>
      </trkpt>
      <trkpt lat="62.635622110478" lon="17.986658525044">
        <ele>205.4</ele>
        <time>2017-12-23T11:25:26Z</time>
      </trkpt>
      <trkpt lat="62.635607945067" lon="17.986712169204">
        <ele>205.4</ele>
        <time>2017-12-23T11:25:27Z</time>
      </trkpt>
      <trkpt lat="62.635590510715" lon="17.986747121727">
        <ele>205.4</ele>
        <time>2017-12-23T11:25:28Z</time>
      </trkpt>
      <trkpt lat="62.635569053051" lon="17.986784421182">
        <ele>205.4</ele>
        <time>2017-12-23T11:25:29Z</time>
      </trkpt>
      <trkpt lat="62.635556480201" lon="17.986825827768">
        <ele>205.6</ele>
        <time>2017-12-23T11:25:30Z</time>
      </trkpt>
      <trkpt lat="62.635540973686" lon="17.98686002592">
        <ele>205.6</ele>
        <time>2017-12-23T11:25:31Z</time>
      </trkpt>
      <trkpt lat="62.6355247128" lon="17.986898163565">
        <ele>205.8</ele>
        <time>2017-12-23T11:25:32Z</time>
      </trkpt>
      <trkpt lat="62.635508116638" lon="17.986934960106">
        <ele>206</ele>
        <time>2017-12-23T11:25:33Z</time>
      </trkpt>
      <trkpt lat="62.635492945399" lon="17.986973684484">
        <ele>206</ele>
        <time>2017-12-23T11:25:34Z</time>
      </trkpt>
      <trkpt lat="62.635470901002" lon="17.98701760564">
        <ele>206.2</ele>
        <time>2017-12-23T11:25:35Z</time>
      </trkpt>
      <trkpt lat="62.635452041727" lon="17.987059263683">
        <ele>206.2</ele>
        <time>2017-12-23T11:25:36Z</time>
      </trkpt>
      <trkpt lat="62.635434104461" lon="17.987101340821">
        <ele>206.2</ele>
        <time>2017-12-23T11:25:37Z</time>
      </trkpt>
      <trkpt lat="62.635418933222" lon="17.987140568113">
        <ele>206.4</ele>
        <time>2017-12-23T11:25:38Z</time>
      </trkpt>
      <trkpt lat="62.635400576861" lon="17.987172922247">
        <ele>206.6</ele>
        <time>2017-12-23T11:25:39Z</time>
      </trkpt>
      <trkpt lat="62.635383645423" lon="17.987199576689">
        <ele>206.6</ele>
        <time>2017-12-23T11:25:40Z</time>
      </trkpt>
      <trkpt lat="62.635371743125" lon="17.987233439565">
        <ele>206.8</ele>
        <time>2017-12-23T11:25:41Z</time>
      </trkpt>
      <trkpt lat="62.635353889678" lon="17.987274594694">
        <ele>206.8</ele>
        <time>2017-12-23T11:25:42Z</time>
      </trkpt>
      <trkpt lat="62.635333521661" lon="17.987305775362">
        <ele>207</ele>
        <time>2017-12-23T11:25:43Z</time>
      </trkpt>
      <trkpt lat="62.635314662386" lon="17.987337710401">
        <ele>207.2</ele>
        <time>2017-12-23T11:25:44Z</time>
      </trkpt>
      <trkpt lat="62.635293623817" lon="17.987374926037">
        <ele>207.4</ele>
        <time>2017-12-23T11:25:45Z</time>
      </trkpt>
      <trkpt lat="62.635277865845" lon="17.987408453637">
        <ele>207.6</ele>
        <time>2017-12-23T11:25:46Z</time>
      </trkpt>
      <trkpt lat="62.635255737629" lon="17.987457403933">
        <ele>207.6</ele>
        <time>2017-12-23T11:25:47Z</time>
      </trkpt>
      <trkpt lat="62.635240901666" lon="17.987501408908">
        <ele>207.6</ele>
        <time>2017-12-23T11:25:48Z</time>
      </trkpt>
      <trkpt lat="62.63522128802" lon="17.987534433594">
        <ele>207.6</ele>
        <time>2017-12-23T11:25:49Z</time>
      </trkpt>
      <trkpt lat="62.635202428745" lon="17.987568883203">
        <ele>207.8</ele>
        <time>2017-12-23T11:25:50Z</time>
      </trkpt>
      <trkpt lat="62.635180887262" lon="17.987596375835">
        <ele>207.6</ele>
        <time>2017-12-23T11:25:51Z</time>
      </trkpt>
      <trkpt lat="62.635163955824" lon="17.98762529339">
        <ele>207.6</ele>
        <time>2017-12-23T11:25:52Z</time>
      </trkpt>
      <trkpt lat="62.635142749617" lon="17.987654210945">
        <ele>207.6</ele>
        <time>2017-12-23T11:25:53Z</time>
      </trkpt>
      <trkpt lat="62.63512489617" lon="17.987696371902">
        <ele>207.6</ele>
        <time>2017-12-23T11:25:54Z</time>
      </trkpt>
      <trkpt lat="62.635104109058" lon="17.987731324425">
        <ele>207.6</ele>
        <time>2017-12-23T11:25:55Z</time>
      </trkpt>
      <trkpt lat="62.635086590887" lon="17.987761247808">
        <ele>207.6</ele>
        <time>2017-12-23T11:25:56Z</time>
      </trkpt>
      <trkpt lat="62.635067731612" lon="17.987793937218">
        <ele>207.8</ele>
        <time>2017-12-23T11:25:57Z</time>
      </trkpt>
      <trkpt lat="62.63504945907" lon="17.987827800094">
        <ele>208</ele>
        <time>2017-12-23T11:25:58Z</time>
      </trkpt>
      <trkpt lat="62.635034539288" lon="17.98786333935">
        <ele>208</ele>
        <time>2017-12-23T11:25:59Z</time>
      </trkpt>
      <trkpt lat="62.635014758004" lon="17.987902399004">
        <ele>208.2</ele>
        <time>2017-12-23T11:26:00Z</time>
      </trkpt>
      <trkpt lat="62.634998748575" lon="17.987936345699">
        <ele>208.2</ele>
        <time>2017-12-23T11:26:01Z</time>
      </trkpt>
      <trkpt lat="62.634978967291" lon="17.987967694005">
        <ele>208.2</ele>
        <time>2017-12-23T11:26:02Z</time>
      </trkpt>
      <trkpt lat="62.634967987002" lon="17.988003736175">
        <ele>208.2</ele>
        <time>2017-12-23T11:26:03Z</time>
      </trkpt>
      <trkpt lat="62.63495222903" lon="17.988040029802">
        <ele>208.4</ele>
        <time>2017-12-23T11:26:04Z</time>
      </trkpt>
      <trkpt lat="62.634936471058" lon="17.988078418904">
        <ele>208.4</ele>
        <time>2017-12-23T11:26:05Z</time>
      </trkpt>
      <trkpt lat="62.634925574588" lon="17.988105408622">
        <ele>208.4</ele>
        <time>2017-12-23T11:26:06Z</time>
      </trkpt>
      <trkpt lat="62.634907385865" lon="17.988135164367">
        <ele>208.6</ele>
        <time>2017-12-23T11:26:07Z</time>
      </trkpt>
      <trkpt lat="62.634884503278" lon="17.988154945651">
        <ele>208.8</ele>
        <time>2017-12-23T11:26:08Z</time>
      </trkpt>
      <trkpt lat="62.634862123605" lon="17.988179672256">
        <ele>209</ele>
        <time>2017-12-23T11:26:09Z</time>
      </trkpt>
      <trkpt lat="62.634843431968" lon="17.988211607295">
        <ele>209</ele>
        <time>2017-12-23T11:26:10Z</time>
      </trkpt>
      <trkpt lat="62.634815939336" lon="17.988203141576">
        <ele>209.2</ele>
        <time>2017-12-23T11:26:11Z</time>
      </trkpt>
      <trkpt lat="62.634792553835" lon="17.98820951182">
        <ele>209.2</ele>
        <time>2017-12-23T11:26:12Z</time>
      </trkpt>
      <trkpt lat="62.634772185818" lon="17.988223425774">
        <ele>209.4</ele>
        <time>2017-12-23T11:26:13Z</time>
      </trkpt>
      <trkpt lat="62.634749554688" lon="17.988228622552">
        <ele>209.6</ele>
        <time>2017-12-23T11:26:14Z</time>
      </trkpt>
      <trkpt lat="62.634720134219" lon="17.988233484054">
        <ele>209.8</ele>
        <time>2017-12-23T11:26:15Z</time>
      </trkpt>
      <trkpt lat="62.634695910528" lon="17.988237591185">
        <ele>210</ele>
        <time>2017-12-23T11:26:16Z</time>
      </trkpt>
      <trkpt lat="62.63466892081" lon="17.988237255909">
        <ele>210.2</ele>
        <time>2017-12-23T11:26:17Z</time>
      </trkpt>
      <trkpt lat="62.634647714603" lon="17.98824806856">
        <ele>210.4</ele>
        <time>2017-12-23T11:26:18Z</time>
      </trkpt>
      <trkpt lat="62.634626927491" lon="17.988258378297">
        <ele>210.6</ele>
        <time>2017-12-23T11:26:19Z</time>
      </trkpt>
      <trkpt lat="62.634606810931" lon="17.988271034966">
        <ele>210.6</ele>
        <time>2017-12-23T11:26:20Z</time>
      </trkpt>
      <trkpt lat="62.634582838697" lon="17.988278327219">
        <ele>210.6</ele>
        <time>2017-12-23T11:26:21Z</time>
      </trkpt>
      <trkpt lat="62.634556519531" lon="17.988277824305">
        <ele>210.8</ele>
        <time>2017-12-23T11:26:22Z</time>
      </trkpt>
      <trkpt lat="62.634534307496" lon="17.988272292251">
        <ele>210.8</ele>
        <time>2017-12-23T11:26:23Z</time>
      </trkpt>
      <trkpt lat="62.634511005814" lon="17.9882698615">
        <ele>210.8</ele>
        <time>2017-12-23T11:26:24Z</time>
      </trkpt>
      <trkpt lat="62.63448954815" lon="17.988278327219">
        <ele>210.8</ele>
        <time>2017-12-23T11:26:25Z</time>
      </trkpt>
      <trkpt lat="62.634467922848" lon="17.988288050223">
        <ele>210.8</ele>
        <time>2017-12-23T11:26:26Z</time>
      </trkpt>
      <trkpt lat="62.634442693329" lon="17.988290983888">
        <ele>210.8</ele>
        <time>2017-12-23T11:26:27Z</time>
      </trkpt>
      <trkpt lat="62.634418469638" lon="17.988289558965">
        <ele>211</ele>
        <time>2017-12-23T11:26:28Z</time>
      </trkpt>
      <trkpt lat="62.634392988662" lon="17.98829081625">
        <ele>211.2</ele>
        <time>2017-12-23T11:26:29Z</time>
      </trkpt>
      <trkpt lat="62.63436298146" lon="17.988290145698">
        <ele>211.4</ele>
        <time>2017-12-23T11:26:30Z</time>
      </trkpt>
      <trkpt lat="62.634336494656" lon="17.988284613644">
        <ele>211.4</ele>
        <time>2017-12-23T11:26:31Z</time>
      </trkpt>
      <trkpt lat="62.634308331472" lon="17.988281177065">
        <ele>211.4</ele>
        <time>2017-12-23T11:26:32Z</time>
      </trkpt>
      <trkpt lat="62.634277402261" lon="17.988286373843">
        <ele>211.4</ele>
        <time>2017-12-23T11:26:33Z</time>
      </trkpt>
      <trkpt lat="62.634249155258" lon="17.988286541481">
        <ele>211.2</ele>
        <time>2017-12-23T11:26:34Z</time>
      </trkpt>
      <trkpt lat="62.634222249359" lon="17.988282266712">
        <ele>211.2</ele>
        <time>2017-12-23T11:26:35Z</time>
      </trkpt>
      <trkpt lat="62.63419450527" lon="17.988269442405">
        <ele>211.2</ele>
        <time>2017-12-23T11:26:36Z</time>
      </trkpt>
      <trkpt lat="62.634160307118" lon="17.988251086044">
        <ele>211.4</ele>
        <time>2017-12-23T11:26:37Z</time>
      </trkpt>
      <trkpt lat="62.634132898305" lon="17.988239435203">
        <ele>211.2</ele>
        <time>2017-12-23T11:26:38Z</time>
      </trkpt>
      <trkpt lat="62.634109931899" lon="17.988223006679">
        <ele>211.2</ele>
        <time>2017-12-23T11:26:39Z</time>
      </trkpt>
      <trkpt lat="62.634078583593" lon="17.988203895947">
        <ele>211.4</ele>
        <time>2017-12-23T11:26:40Z</time>
      </trkpt>
      <trkpt lat="62.634049330762" lon="17.988189562898">
        <ele>211.4</ele>
        <time>2017-12-23T11:26:41Z</time>
      </trkpt>
      <trkpt lat="62.634018904465" lon="17.988168021415">
        <ele>211.4</ele>
        <time>2017-12-23T11:26:42Z</time>
      </trkpt>
      <trkpt lat="62.63399417786" lon="17.988155113289">
        <ele>211.4</ele>
        <time>2017-12-23T11:26:43Z</time>
      </trkpt>
      <trkpt lat="62.63397154673" lon="17.988134577634">
        <ele>211.6</ele>
        <time>2017-12-23T11:26:44Z</time>
      </trkpt>
      <trkpt lat="62.633944054098" lon="17.988104821889">
        <ele>211.6</ele>
        <time>2017-12-23T11:26:45Z</time>
      </trkpt>
      <trkpt lat="62.633923434624" lon="17.98809048884">
        <ele>211.8</ele>
        <time>2017-12-23T11:26:46Z</time>
      </trkpt>
      <trkpt lat="62.633894265612" lon="17.988066097511">
        <ele>212</ele>
        <time>2017-12-23T11:26:47Z</time>
      </trkpt>
      <trkpt lat="62.633869119912" lon="17.98805025572">
        <ele>212</ele>
        <time>2017-12-23T11:26:48Z</time>
      </trkpt>
      <trkpt lat="62.633847159334" lon="17.988023182183">
        <ele>212.4</ele>
        <time>2017-12-23T11:26:49Z</time>
      </trkpt>
      <trkpt lat="62.633826623679" lon="17.987999042311">
        <ele>212.6</ele>
        <time>2017-12-23T11:26:50Z</time>
      </trkpt>
      <trkpt lat="62.633805417472" lon="17.987973226059">
        <ele>212.8</ele>
        <time>2017-12-23T11:26:51Z</time>
      </trkpt>
      <trkpt lat="62.633779685039" lon="17.987942715943">
        <ele>212.8</ele>
        <time>2017-12-23T11:26:52Z</time>
      </trkpt>
      <trkpt lat="62.633747163267" lon="17.98792285084">
        <ele>212.8</ele>
        <time>2017-12-23T11:26:53Z</time>
      </trkpt>
      <trkpt lat="62.633719754454" lon="17.987897453683">
        <ele>212.8</ele>
        <time>2017-12-23T11:26:54Z</time>
      </trkpt>
      <trkpt lat="62.633698464428" lon="17.987870715422">
        <ele>213</ele>
        <time>2017-12-23T11:26:55Z</time>
      </trkpt>
      <trkpt lat="62.633676000936" lon="17.987854705993">
        <ele>213</ele>
        <time>2017-12-23T11:26:56Z</time>
      </trkpt>
      <trkpt lat="62.633649514132" lon="17.987834254157">
        <ele>213.2</ele>
        <time>2017-12-23T11:26:57Z</time>
      </trkpt>
      <trkpt lat="62.633626380088" lon="17.98780801881">
        <ele>213.4</ele>
        <time>2017-12-23T11:26:58Z</time>
      </trkpt>
      <trkpt lat="62.63360106675" lon="17.987778765979">
        <ele>213.6</ele>
        <time>2017-12-23T11:26:59Z</time>
      </trkpt>
      <trkpt lat="62.633572652109" lon="17.987745657474">
        <ele>214</ele>
        <time>2017-12-23T11:27:00Z</time>
      </trkpt>
      <trkpt lat="62.633544488925" lon="17.987723696896">
        <ele>214</ele>
        <time>2017-12-23T11:27:01Z</time>
      </trkpt>
      <trkpt lat="62.633511799515" lon="17.987690336934">
        <ele>214.2</ele>
        <time>2017-12-23T11:27:02Z</time>
      </trkpt>
      <trkpt lat="62.633491012403" lon="17.987659156266">
        <ele>214.2</ele>
        <time>2017-12-23T11:27:03Z</time>
      </trkpt>
      <trkpt lat="62.633472656042" lon="17.987626466856">
        <ele>214.4</ele>
        <time>2017-12-23T11:27:04Z</time>
      </trkpt>
      <trkpt lat="62.633449438179" lon="17.987594028903">
        <ele>214.6</ele>
        <time>2017-12-23T11:27:05Z</time>
      </trkpt>
      <trkpt lat="62.633428567248" lon="17.987564440796">
        <ele>214.6</ele>
        <time>2017-12-23T11:27:06Z</time>
      </trkpt>
      <trkpt lat="62.633407277222" lon="17.987526722246">
        <ele>214.8</ele>
        <time>2017-12-23T11:27:07Z</time>
      </trkpt>
      <trkpt lat="62.633392189802" lon="17.987488500782">
        <ele>215.2</ele>
        <time>2017-12-23T11:27:08Z</time>
      </trkpt>
      <trkpt lat="62.633374252536" lon="17.987441897418">
        <ele>215.4</ele>
        <time>2017-12-23T11:27:09Z</time>
      </trkpt>
      <trkpt lat="62.633354387433" lon="17.987389426724">
        <ele>215.6</ele>
        <time>2017-12-23T11:27:10Z</time>
      </trkpt>
      <trkpt lat="62.633330499018" lon="17.987322958257">
        <ele>216</ele>
        <time>2017-12-23T11:27:11Z</time>
      </trkpt>
      <trkpt lat="62.633309544268" lon="17.987255400143">
        <ele>216</ele>
        <time>2017-12-23T11:27:12Z</time>
      </trkpt>
      <trkpt lat="62.633290349717" lon="17.987169066573">
        <ele>215.8</ele>
        <time>2017-12-23T11:27:13Z</time>
      </trkpt>
      <trkpt lat="62.633272747727" lon="17.987073512913">
        <ele>215.4</ele>
        <time>2017-12-23T11:27:14Z</time>
      </trkpt>
      <trkpt lat="62.633251206244" lon="17.986961782186">
        <ele>214.4</ele>
        <time>2017-12-23T11:27:15Z</time>
      </trkpt>
      <trkpt lat="62.633236035005" lon="17.98688936257">
        <ele>213.8</ele>
        <time>2017-12-23T11:27:16Z</time>
      </trkpt>
      <trkpt lat="62.633226647277" lon="17.986804034828">
        <ele>212.8</ele>
        <time>2017-12-23T11:27:17Z</time>
      </trkpt>
      <trkpt lat="62.633214996436" lon="17.986709822272">
        <ele>212</ele>
        <time>2017-12-23T11:27:18Z</time>
      </trkpt>
      <trkpt lat="62.633201417758" lon="17.986609742386">
        <ele>211.6</ele>
        <time>2017-12-23T11:27:19Z</time>
      </trkpt>
      <trkpt lat="62.633183061397" lon="17.986498598392">
        <ele>211.6</ele>
        <time>2017-12-23T11:27:20Z</time>
      </trkpt>
      <trkpt lat="62.633166297597" lon="17.986411175175">
        <ele>211.8</ele>
        <time>2017-12-23T11:27:21Z</time>
      </trkpt>
      <trkpt lat="62.633156658412" lon="17.986310340918">
        <ele>212</ele>
        <time>2017-12-23T11:27:22Z</time>
      </trkpt>
      <trkpt lat="62.633149366159" lon="17.98618528297">
        <ele>212.2</ele>
        <time>2017-12-23T11:27:23Z</time>
      </trkpt>
      <trkpt lat="62.633145510485" lon="17.98606123085">
        <ele>212</ele>
        <time>2017-12-23T11:27:24Z</time>
      </trkpt>
      <trkpt lat="62.633146013399" lon="17.985941034404">
        <ele>211.4</ele>
        <time>2017-12-23T11:27:25Z</time>
      </trkpt>
      <trkpt lat="62.633148025055" lon="17.985837685577">
        <ele>211</ele>
        <time>2017-12-23T11:27:26Z</time>
      </trkpt>
      <trkpt lat="62.633159759715" lon="17.985715142199">
        <ele>210.4</ele>
        <time>2017-12-23T11:27:27Z</time>
      </trkpt>
      <trkpt lat="62.633177529343" lon="17.985608021517">
        <ele>209.8</ele>
        <time>2017-12-23T11:27:28Z</time>
      </trkpt>
      <trkpt lat="62.633185073053" lon="17.985494362953">
        <ele>209.4</ele>
        <time>2017-12-23T11:27:29Z</time>
      </trkpt>
      <trkpt lat="62.633185575967" lon="17.985373998869">
        <ele>209</ele>
        <time>2017-12-23T11:27:30Z</time>
      </trkpt>
      <trkpt lat="62.633198567912" lon="17.985246007256">
        <ele>209.6</ele>
        <time>2017-12-23T11:27:31Z</time>
      </trkpt>
      <trkpt lat="62.633213320056" lon="17.985092869943">
        <ele>209.2</ele>
        <time>2017-12-23T11:27:32Z</time>
      </trkpt>
      <trkpt lat="62.633231676417" lon="17.984959011">
        <ele>208.8</ele>
        <time>2017-12-23T11:27:33Z</time>
      </trkpt>
      <trkpt lat="62.633253636995" lon="17.984843089323">
        <ele>208.4</ele>
        <time>2017-12-23T11:27:34Z</time>
      </trkpt>
      <trkpt lat="62.633276268125" lon="17.98472347961">
        <ele>207.4</ele>
        <time>2017-12-23T11:27:35Z</time>
      </trkpt>
      <trkpt lat="62.633296468504" lon="17.984623735">
        <ele>206.4</ele>
        <time>2017-12-23T11:27:36Z</time>
      </trkpt>
      <trkpt lat="62.633314908684" lon="17.984517955422">
        <ele>206.2</ele>
        <time>2017-12-23T11:27:37Z</time>
      </trkpt>
      <trkpt lat="62.633336785443" lon="17.984432376223">
        <ele>206</ele>
        <time>2017-12-23T11:27:38Z</time>
      </trkpt>
      <trkpt lat="62.633362434057" lon="17.984348389585">
        <ele>206</ele>
        <time>2017-12-23T11:27:39Z</time>
      </trkpt>
      <trkpt lat="62.633380036047" lon="17.984270354096">
        <ele>206</ele>
        <time>2017-12-23T11:27:40Z</time>
      </trkpt>
      <trkpt lat="62.633394201458" lon="17.984193659711">
        <ele>206.2</ele>
        <time>2017-12-23T11:27:41Z</time>
      </trkpt>
      <trkpt lat="62.633398140951" lon="17.984107326141">
        <ele>206.6</ele>
        <time>2017-12-23T11:27:42Z</time>
      </trkpt>
      <trkpt lat="62.633400906978" lon="17.984030967032">
        <ele>207</ele>
        <time>2017-12-23T11:27:43Z</time>
      </trkpt>
      <trkpt lat="62.633406690489" lon="17.983954272647">
        <ele>207.2</ele>
        <time>2017-12-23T11:27:44Z</time>
      </trkpt>
      <trkpt lat="62.633413479828" lon="17.983883445592">
        <ele>207.4</ele>
        <time>2017-12-23T11:27:45Z</time>
      </trkpt>
      <trkpt lat="62.633419430977" lon="17.983823095912">
        <ele>207.8</ele>
        <time>2017-12-23T11:27:46Z</time>
      </trkpt>
      <trkpt lat="62.633429070162" lon="17.983745228061">
        <ele>207.8</ele>
        <time>2017-12-23T11:27:47Z</time>
      </trkpt>
      <trkpt lat="62.633437452062" lon="17.983683453458">
        <ele>208</ele>
        <time>2017-12-23T11:27:48Z</time>
      </trkpt>
      <trkpt lat="62.633449521998" lon="17.983611452937">
        <ele>208</ele>
        <time>2017-12-23T11:27:49Z</time>
      </trkpt>
      <trkpt lat="62.633470895843" lon="17.983544397737">
        <ele>208</ele>
        <time>2017-12-23T11:27:50Z</time>
      </trkpt>
      <trkpt lat="62.63348874929" lon="17.983490669758">
        <ele>208</ele>
        <time>2017-12-23T11:27:51Z</time>
      </trkpt>
      <trkpt lat="62.633504926357" lon="17.983420597074">
        <ele>208</ele>
        <time>2017-12-23T11:27:52Z</time>
      </trkpt>
      <trkpt lat="62.633517163931" lon="17.98334046611">
        <ele>207.8</ele>
        <time>2017-12-23T11:27:53Z</time>
      </trkpt>
      <trkpt lat="62.633521773976" lon="17.983268130313">
        <ele>207.6</ele>
        <time>2017-12-23T11:27:54Z</time>
      </trkpt>
      <trkpt lat="62.633532167532" lon="17.983196045973">
        <ele>207.8</ele>
        <time>2017-12-23T11:27:55Z</time>
      </trkpt>
      <trkpt lat="62.633547925504" lon="17.98313678594">
        <ele>207.8</ele>
        <time>2017-12-23T11:27:56Z</time>
      </trkpt>
      <trkpt lat="62.633567203874" lon="17.98307727445">
        <ele>207.8</ele>
        <time>2017-12-23T11:27:57Z</time>
      </trkpt>
      <trkpt lat="62.633584470588" lon="17.983018433512">
        <ele>207.8</ele>
        <time>2017-12-23T11:27:58Z</time>
      </trkpt>
      <trkpt lat="62.633599306551" lon="17.982950204846">
        <ele>208</ele>
        <time>2017-12-23T11:27:59Z</time>
      </trkpt>
      <trkpt lat="62.633609029555" lon="17.982878874877">
        <ele>207.8</ele>
        <time>2017-12-23T11:28:00Z</time>
      </trkpt>
      <trkpt lat="62.633621434767" lon="17.982808718374">
        <ele>208</ele>
        <time>2017-12-23T11:28:01Z</time>
      </trkpt>
      <trkpt lat="62.633643143888" lon="17.982743004278">
        <ele>208</ele>
        <time>2017-12-23T11:28:02Z</time>
      </trkpt>
      <trkpt lat="62.633662673715" lon="17.982683073693">
        <ele>208</ele>
        <time>2017-12-23T11:28:03Z</time>
      </trkpt>
      <trkpt lat="62.633678599325" lon="17.982622640194">
        <ele>208.2</ele>
        <time>2017-12-23T11:28:04Z</time>
      </trkpt>
      <trkpt lat="62.633683879922" lon="17.982545610533">
        <ele>208</ele>
        <time>2017-12-23T11:28:05Z</time>
      </trkpt>
      <trkpt lat="62.6336890767" lon="17.982472771822">
        <ele>208</ele>
        <time>2017-12-23T11:28:06Z</time>
      </trkpt>
      <trkpt lat="62.633700559903" lon="17.9823941496">
        <ele>208</ele>
        <time>2017-12-23T11:28:07Z</time>
      </trkpt>
      <trkpt lat="62.633700392265" lon="17.982326423848">
        <ele>208</ele>
        <time>2017-12-23T11:28:08Z</time>
      </trkpt>
      <trkpt lat="62.633703996482" lon="17.982263308141">
        <ele>208</ele>
        <time>2017-12-23T11:28:09Z</time>
      </trkpt>
      <trkpt lat="62.633701230455" lon="17.982194828018">
        <ele>208</ele>
        <time>2017-12-23T11:28:10Z</time>
      </trkpt>
      <trkpt lat="62.633703828844" lon="17.982131209397">
        <ele>208.2</ele>
        <time>2017-12-23T11:28:11Z</time>
      </trkpt>
      <trkpt lat="62.633713468029" lon="17.982062813093">
        <ele>208.4</ele>
        <time>2017-12-23T11:28:12Z</time>
      </trkpt>
      <trkpt lat="62.633715395866" lon="17.981997853368">
        <ele>208.4</ele>
        <time>2017-12-23T11:28:13Z</time>
      </trkpt>
      <trkpt lat="62.63371841335" lon="17.981942784285">
        <ele>208.2</ele>
        <time>2017-12-23T11:28:14Z</time>
      </trkpt>
      <trkpt lat="62.633722771938" lon="17.981876064361">
        <ele>208.4</ele>
        <time>2017-12-23T11:28:15Z</time>
      </trkpt>
      <trkpt lat="62.633728974544" lon="17.981824683314">
        <ele>208.2</ele>
        <time>2017-12-23T11:28:16Z</time>
      </trkpt>
      <trkpt lat="62.633739703376" lon="17.981753856259">
        <ele>208.2</ele>
        <time>2017-12-23T11:28:17Z</time>
      </trkpt>
      <trkpt lat="62.633745151611" lon="17.981688645077">
        <ele>208.4</ele>
        <time>2017-12-23T11:28:18Z</time>
      </trkpt>
      <trkpt lat="62.633749929294" lon="17.981631731976">
        <ele>208.4</ele>
        <time>2017-12-23T11:28:19Z</time>
      </trkpt>
      <trkpt lat="62.633757389185" lon="17.981561994568">
        <ele>208.4</ele>
        <time>2017-12-23T11:28:20Z</time>
      </trkpt>
      <trkpt lat="62.633766441637" lon="17.981495945196">
        <ele>208.4</ele>
        <time>2017-12-23T11:28:21Z</time>
      </trkpt>
      <trkpt lat="62.633775326451" lon="17.981435008783">
        <ele>208.4</ele>
        <time>2017-12-23T11:28:22Z</time>
      </trkpt>
      <trkpt lat="62.633784965636" lon="17.981358482036">
        <ele>208.2</ele>
        <time>2017-12-23T11:28:23Z</time>
      </trkpt>
      <trkpt lat="62.633800053056" lon="17.981286481515">
        <ele>208.2</ele>
        <time>2017-12-23T11:28:24Z</time>
      </trkpt>
      <trkpt lat="62.633815475752" lon="17.981213894261">
        <ele>208.4</ele>
        <time>2017-12-23T11:28:25Z</time>
      </trkpt>
      <trkpt lat="62.633832071914" lon="17.981152119658">
        <ele>208.2</ele>
        <time>2017-12-23T11:28:26Z</time>
      </trkpt>
      <trkpt lat="62.633850931189" lon="17.981097888765">
        <ele>208.2</ele>
        <time>2017-12-23T11:28:27Z</time>
      </trkpt>
      <trkpt lat="62.633868868455" lon="17.981052291229">
        <ele>208.4</ele>
        <time>2017-12-23T11:28:28Z</time>
      </trkpt>
      <trkpt lat="62.633881357486" lon="17.981001496915">
        <ele>208.4</ele>
        <time>2017-12-23T11:28:29Z</time>
      </trkpt>
      <trkpt lat="62.63388940411" lon="17.980949445316">
        <ele>208.4</ele>
        <time>2017-12-23T11:28:30Z</time>
      </trkpt>
      <trkpt lat="62.633901641684" lon="17.980901752305">
        <ele>208.6</ele>
        <time>2017-12-23T11:28:31Z</time>
      </trkpt>
      <trkpt lat="62.633922009701" lon="17.980845425937">
        <ele>208.6</ele>
        <time>2017-12-23T11:28:32Z</time>
      </trkpt>
      <trkpt lat="62.633941455709" lon="17.980785579171">
        <ele>208.8</ele>
        <time>2017-12-23T11:28:33Z</time>
      </trkpt>
      <trkpt lat="62.633958554785" lon="17.980735036314">
        <ele>208.8</ele>
        <time>2017-12-23T11:28:34Z</time>
      </trkpt>
      <trkpt lat="62.63397238492" lon="17.980672004426">
        <ele>208.8</ele>
        <time>2017-12-23T11:28:35Z</time>
      </trkpt>
      <trkpt lat="62.633984873951" lon="17.980608721081">
        <ele>208.8</ele>
        <time>2017-12-23T11:28:36Z</time>
      </trkpt>
      <trkpt lat="62.634006499253" lon="17.980552981446">
        <ele>208.8</ele>
        <time>2017-12-23T11:28:37Z</time>
      </trkpt>
      <trkpt lat="62.634027286365" lon="17.98050319296">
        <ele>208.8</ele>
        <time>2017-12-23T11:28:38Z</time>
      </trkpt>
      <trkpt lat="62.634048492572" lon="17.980451392818">
        <ele>209.2</ele>
        <time>2017-12-23T11:28:39Z</time>
      </trkpt>
      <trkpt lat="62.634072380987" lon="17.980404454178">
        <ele>209.2</ele>
        <time>2017-12-23T11:28:40Z</time>
      </trkpt>
      <trkpt lat="62.634095934126" lon="17.980353073131">
        <ele>209.2</ele>
        <time>2017-12-23T11:28:41Z</time>
      </trkpt>
      <trkpt lat="62.63411822998" lon="17.980289370691">
        <ele>209.4</ele>
        <time>2017-12-23T11:28:42Z</time>
      </trkpt>
      <trkpt lat="62.634141531662" lon="17.980233547237">
        <ele>209.4</ele>
        <time>2017-12-23T11:28:43Z</time>
      </trkpt>
      <trkpt lat="62.634166761181" lon="17.980192811203">
        <ele>209.4</ele>
        <time>2017-12-23T11:28:44Z</time>
      </trkpt>
      <trkpt lat="62.634196600745" lon="17.98014277126">
        <ele>209.6</ele>
        <time>2017-12-23T11:28:45Z</time>
      </trkpt>
      <trkpt lat="62.634219986246" lon="17.980102286683">
        <ele>209.6</ele>
        <time>2017-12-23T11:28:46Z</time>
      </trkpt>
      <trkpt lat="62.634243707023" lon="17.980041517908">
        <ele>209.6</ele>
        <time>2017-12-23T11:28:47Z</time>
      </trkpt>
      <trkpt lat="62.634271032017" lon="17.979980330038">
        <ele>209.8</ele>
        <time>2017-12-23T11:28:48Z</time>
      </trkpt>
      <trkpt lat="62.634296848269" lon="17.979915454132">
        <ele>210</ele>
        <time>2017-12-23T11:28:49Z</time>
      </trkpt>
      <trkpt lat="62.634320569046" lon="17.979860468868">
        <ele>209.8</ele>
        <time>2017-12-23T11:28:50Z</time>
      </trkpt>
      <trkpt lat="62.634336494656" lon="17.979798442808">
        <ele>209.8</ele>
        <time>2017-12-23T11:28:51Z</time>
      </trkpt>
      <trkpt lat="62.634349654239" lon="17.979736332929">
        <ele>209.8</ele>
        <time>2017-12-23T11:28:52Z</time>
      </trkpt>
      <trkpt lat="62.634363903469" lon="17.979675228878">
        <ele>209.8</ele>
        <time>2017-12-23T11:28:53Z</time>
      </trkpt>
      <trkpt lat="62.634383181839" lon="17.97960884423">
        <ele>209.6</ele>
        <time>2017-12-23T11:28:54Z</time>
      </trkpt>
      <trkpt lat="62.634400867648" lon="17.979543633048">
        <ele>209.6</ele>
        <time>2017-12-23T11:28:55Z</time>
      </trkpt>
      <trkpt lat="62.634413440498" lon="17.979487725775">
        <ele>209.6</ele>
        <time>2017-12-23T11:28:56Z</time>
      </trkpt>
      <trkpt lat="62.634424588425" lon="17.979411282847">
        <ele>209.6</ele>
        <time>2017-12-23T11:28:57Z</time>
      </trkpt>
      <trkpt lat="62.634435652533" lon="17.979344311466">
        <ele>209.6</ele>
        <time>2017-12-23T11:28:58Z</time>
      </trkpt>
      <trkpt lat="62.634444956442" lon="17.979279267922">
        <ele>209.8</ele>
        <time>2017-12-23T11:28:59Z</time>
      </trkpt>
      <trkpt lat="62.63445602055" lon="17.979208943781">
        <ele>209.8</ele>
        <time>2017-12-23T11:29:00Z</time>
      </trkpt>
      <trkpt lat="62.634472868169" lon="17.979152701232">
        <ele>210</ele>
        <time>2017-12-23T11:29:01Z</time>
      </trkpt>
      <trkpt lat="62.634480160422" lon="17.979090675172">
        <ele>210</ele>
        <time>2017-12-23T11:29:02Z</time>
      </trkpt>
      <trkpt lat="62.634486363028" lon="17.979024877257">
        <ele>210.2</ele>
        <time>2017-12-23T11:29:03Z</time>
      </trkpt>
      <trkpt lat="62.634513268927" lon="17.978896298911">
        <ele>210.4</ele>
        <time>2017-12-23T11:29:05Z</time>
      </trkpt>
      <trkpt lat="62.634523327207" lon="17.978841397466">
        <ele>210.4</ele>
        <time>2017-12-23T11:29:06Z</time>
      </trkpt>
      <trkpt lat="62.634531625288" lon="17.978774090809">
        <ele>210.6</ele>
        <time>2017-12-23T11:29:07Z</time>
      </trkpt>
      <trkpt lat="62.634535816238" lon="17.978702425564">
        <ele>210.6</ele>
        <time>2017-12-23T11:29:08Z</time>
      </trkpt>
      <trkpt lat="62.634547215622" lon="17.97863989659">
        <ele>210.4</ele>
        <time>2017-12-23T11:29:09Z</time>
      </trkpt>
      <trkpt lat="62.634560626662" lon="17.97857703234">
        <ele>210</ele>
        <time>2017-12-23T11:29:10Z</time>
      </trkpt>
      <trkpt lat="62.634570517304" lon="17.978508384579">
        <ele>209.8</ele>
        <time>2017-12-23T11:29:11Z</time>
      </trkpt>
      <trkpt lat="62.634581078498" lon="17.978429678538">
        <ele>209.6</ele>
        <time>2017-12-23T11:29:12Z</time>
      </trkpt>
      <trkpt lat="62.63459599828" lon="17.97835323561">
        <ele>209.4</ele>
        <time>2017-12-23T11:29:13Z</time>
      </trkpt>
      <trkpt lat="62.634611337157" lon="17.978277630872">
        <ele>209.2</ele>
        <time>2017-12-23T11:29:14Z</time>
      </trkpt>
      <trkpt lat="62.63462868769" lon="17.978207055274">
        <ele>209</ele>
        <time>2017-12-23T11:29:15Z</time>
      </trkpt>
      <trkpt lat="62.634647630784" lon="17.978137569323">
        <ele>208.6</ele>
        <time>2017-12-23T11:29:16Z</time>
      </trkpt>
      <trkpt lat="62.634662299109" lon="17.978057941273">
        <ele>208.4</ele>
        <time>2017-12-23T11:29:17Z</time>
      </trkpt>
      <trkpt lat="62.634670345733" lon="17.977973116445">
        <ele>208.2</ele>
        <time>2017-12-23T11:29:18Z</time>
      </trkpt>
      <trkpt lat="62.634673614674" lon="17.977897763164">
        <ele>208</ele>
        <time>2017-12-23T11:29:19Z</time>
      </trkpt>
      <trkpt lat="62.634674704321" lon="17.977831546154">
        <ele>207.8</ele>
        <time>2017-12-23T11:29:21Z</time>
      </trkpt>
      <trkpt lat="62.63469239013" lon="17.977724006377">
        <ele>207.6</ele>
        <time>2017-12-23T11:29:22Z</time>
      </trkpt>
      <trkpt lat="62.634705884989" lon="17.977626776337">
        <ele>207.6</ele>
        <time>2017-12-23T11:29:23Z</time>
      </trkpt>
      <trkpt lat="62.634718206382" lon="17.977543041156">
        <ele>207.4</ele>
        <time>2017-12-23T11:29:24Z</time>
      </trkpt>
      <trkpt lat="62.634738658218" lon="17.977391496404">
        <ele>207.4</ele>
        <time>2017-12-23T11:29:25Z</time>
      </trkpt>
      <trkpt lat="62.634746118109" lon="17.977342797565">
        <ele>207.4</ele>
        <time>2017-12-23T11:29:26Z</time>
      </trkpt>
      <trkpt lat="62.634769587429" lon="17.977226372974">
        <ele>207.4</ele>
        <time>2017-12-23T11:29:27Z</time>
      </trkpt>
      <trkpt lat="62.634782830831" lon="17.977133836798">
        <ele>207.4</ele>
        <time>2017-12-23T11:29:28Z</time>
      </trkpt>
      <trkpt lat="62.634797918251" lon="17.977077342792">
        <ele>207.8</ele>
        <time>2017-12-23T11:29:29Z</time>
      </trkpt>
      <trkpt lat="62.634820381743" lon="17.976980196571">
        <ele>208.2</ele>
        <time>2017-12-23T11:29:30Z</time>
      </trkpt>
      <trkpt lat="62.634831362032" lon="17.976906268213">
        <ele>208.4</ele>
        <time>2017-12-23T11:29:31Z</time>
      </trkpt>
      <trkpt lat="62.634849299298" lon="17.976823035946">
        <ele>208.6</ele>
        <time>2017-12-23T11:29:32Z</time>
      </trkpt>
      <trkpt lat="62.634869583496" lon="17.976749861959">
        <ele>208.6</ele>
        <time>2017-12-23T11:29:33Z</time>
      </trkpt>
      <trkpt lat="62.634887604581" lon="17.976675598325">
        <ele>208.4</ele>
        <time>2017-12-23T11:29:34Z</time>
      </trkpt>
      <trkpt lat="62.634904619838" lon="17.976603849261">
        <ele>208.4</ele>
        <time>2017-12-23T11:29:35Z</time>
      </trkpt>
      <trkpt lat="62.634924065846" lon="17.976513911474">
        <ele>208</ele>
        <time>2017-12-23T11:29:36Z</time>
      </trkpt>
      <trkpt lat="62.634940745827" lon="17.976472756345">
        <ele>208</ele>
        <time>2017-12-23T11:29:37Z</time>
      </trkpt>
      <trkpt lat="62.634973351418" lon="17.97639690015">
        <ele>207.8</ele>
        <time>2017-12-23T11:29:38Z</time>
      </trkpt>
      <trkpt lat="62.63500168224" lon="17.976322636516">
        <ele>207.6</ele>
        <time>2017-12-23T11:29:39Z</time>
      </trkpt>
      <trkpt lat="62.635028420501" lon="17.976238566059">
        <ele>207.6</ele>
        <time>2017-12-23T11:29:40Z</time>
      </trkpt>
      <trkpt lat="62.635051051631" lon="17.976195147817">
        <ele>207.4</ele>
        <time>2017-12-23T11:29:41Z</time>
      </trkpt>
      <trkpt lat="62.635074772408" lon="17.976090290248">
        <ele>207.2</ele>
        <time>2017-12-23T11:29:42Z</time>
      </trkpt>
      <trkpt lat="62.635089608371" lon="17.976009572551">
        <ele>207</ele>
        <time>2017-12-23T11:29:43Z</time>
      </trkpt>
      <trkpt lat="62.635103773782" lon="17.975925753551">
        <ele>206.6</ele>
        <time>2017-12-23T11:29:44Z</time>
      </trkpt>
      <trkpt lat="62.635123303609" lon="17.975864314224">
        <ele>206.4</ele>
        <time>2017-12-23T11:29:45Z</time>
      </trkpt>
      <trkpt lat="62.635137636658" lon="17.975767670917">
        <ele>206.2</ele>
        <time>2017-12-23T11:29:46Z</time>
      </trkpt>
      <trkpt lat="62.635156663571" lon="17.975712266558">
        <ele>206</ele>
        <time>2017-12-23T11:29:47Z</time>
      </trkpt>
      <trkpt lat="62.635176361036" lon="17.975653593258">
        <ele>206</ele>
        <time>2017-12-23T11:29:48Z</time>
      </trkpt>
      <trkpt lat="62.635195807044" lon="17.975596009605">
        <ele>205.8</ele>
        <time>2017-12-23T11:29:49Z</time>
      </trkpt>
      <trkpt lat="62.635217683803" lon="17.975540689065">
        <ele>206</ele>
        <time>2017-12-23T11:29:50Z</time>
      </trkpt>
      <trkpt lat="62.63522380259" lon="17.975451840925">
        <ele>206</ele>
        <time>2017-12-23T11:29:51Z</time>
      </trkpt>
      <trkpt lat="62.635229083187" lon="17.975352263953">
        <ele>206.2</ele>
        <time>2017-12-23T11:29:52Z</time>
      </trkpt>
      <trkpt lat="62.635233693232" lon="17.975263834908">
        <ele>206.2</ele>
        <time>2017-12-23T11:29:53Z</time>
      </trkpt>
      <trkpt lat="62.63521877345" lon="17.975161743366">
        <ele>206.4</ele>
        <time>2017-12-23T11:29:54Z</time>
      </trkpt>
      <trkpt lat="62.635202596383" lon="17.975107093378">
        <ele>206.2</ele>
        <time>2017-12-23T11:29:55Z</time>
      </trkpt>
      <trkpt lat="62.6351810549" lon="17.975021346541">
        <ele>205.8</ele>
        <time>2017-12-23T11:29:56Z</time>
      </trkpt>
      <trkpt lat="62.635165464566" lon="17.974937108446">
        <ele>205.6</ele>
        <time>2017-12-23T11:29:57Z</time>
      </trkpt>
      <trkpt lat="62.635135708821" lon="17.974850691057">
        <ele>205.4</ele>
        <time>2017-12-23T11:29:58Z</time>
      </trkpt>
      <trkpt lat="62.635122297781" lon="17.974799812924">
        <ele>205.2</ele>
        <time>2017-12-23T11:29:59Z</time>
      </trkpt>
      <trkpt lat="62.63509304495" lon="17.97469621264">
        <ele>204.8</ele>
        <time>2017-12-23T11:30:00Z</time>
      </trkpt>
      <trkpt lat="62.635079214815" lon="17.97461993735">
        <ele>205</ele>
        <time>2017-12-23T11:30:01Z</time>
      </trkpt>
      <trkpt lat="62.635054991124" lon="17.974524467509">
        <ele>204.4</ele>
        <time>2017-12-23T11:30:02Z</time>
      </trkpt>
      <trkpt lat="62.635028671958" lon="17.97445816668">
        <ele>204.2</ele>
        <time>2017-12-23T11:30:03Z</time>
      </trkpt>
      <trkpt lat="62.635008639217" lon="17.974377197526">
        <ele>204</ele>
        <time>2017-12-23T11:30:04Z</time>
      </trkpt>
      <trkpt lat="62.634988438838" lon="17.974315171466">
        <ele>203.6</ele>
        <time>2017-12-23T11:30:05Z</time>
      </trkpt>
      <trkpt lat="62.634960778568" lon="17.974235962511">
        <ele>203.4</ele>
        <time>2017-12-23T11:30:06Z</time>
      </trkpt>
      <trkpt lat="62.63494803808" lon="17.974198830694">
        <ele>203.4</ele>
        <time>2017-12-23T11:30:07Z</time>
      </trkpt>
      <trkpt lat="62.634929514081" lon="17.974114341142">
        <ele>203.2</ele>
        <time>2017-12-23T11:30:08Z</time>
      </trkpt>
      <trkpt lat="62.634915767765" lon="17.974035467463">
        <ele>203.2</ele>
        <time>2017-12-23T11:30:09Z</time>
      </trkpt>
      <trkpt lat="62.634891376436" lon="17.973909236049">
        <ele>203</ele>
        <time>2017-12-23T11:30:10Z</time>
      </trkpt>
      <trkpt lat="62.634859776673" lon="17.973841091202">
        <ele>203</ele>
        <time>2017-12-23T11:30:11Z</time>
      </trkpt>
      <trkpt lat="62.634834630973" lon="17.973779484237">
        <ele>203</ele>
        <time>2017-12-23T11:30:12Z</time>
      </trkpt>
      <trkpt lat="62.63480806035" lon="17.973693066848">
        <ele>202.8</ele>
        <time>2017-12-23T11:30:13Z</time>
      </trkpt>
      <trkpt lat="62.634795990414" lon="17.973637243394">
        <ele>202.6</ele>
        <time>2017-12-23T11:30:14Z</time>
      </trkpt>
      <trkpt lat="62.63477704732" lon="17.973562560665">
        <ele>202.6</ele>
        <time>2017-12-23T11:30:15Z</time>
      </trkpt>
      <trkpt lat="62.634764809746" lon="17.973466671729">
        <ele>202.4</ele>
        <time>2017-12-23T11:30:16Z</time>
      </trkpt>
      <trkpt lat="62.634741591883" lon="17.973385199661">
        <ele>202.4</ele>
        <time>2017-12-23T11:30:17Z</time>
      </trkpt>
      <trkpt lat="62.634737065657" lon="17.973295010417">
        <ele>202.4</ele>
        <time>2017-12-23T11:30:18Z</time>
      </trkpt>
      <trkpt lat="62.634731114508" lon="17.973189482296">
        <ele>202.4</ele>
        <time>2017-12-23T11:30:19Z</time>
      </trkpt>
      <trkpt lat="62.634736646562" lon="17.973103484002">
        <ele>202.4</ele>
        <time>2017-12-23T11:30:20Z</time>
      </trkpt>
      <trkpt lat="62.634750309059" lon="17.973012540387">
        <ele>202.4</ele>
        <time>2017-12-23T11:30:21Z</time>
      </trkpt>
      <trkpt lat="62.634764977384" lon="17.972944646997">
        <ele>202.4</ele>
        <time>2017-12-23T11:30:22Z</time>
      </trkpt>
      <trkpt lat="62.63477788551" lon="17.972869209897">
        <ele>202.2</ele>
        <time>2017-12-23T11:30:23Z</time>
      </trkpt>
      <trkpt lat="62.634811580748" lon="17.972770554934">
        <ele>202</ele>
        <time>2017-12-23T11:30:24Z</time>
      </trkpt>
      <trkpt lat="62.634833541326" lon="17.97268204207">
        <ele>201.6</ele>
        <time>2017-12-23T11:30:25Z</time>
      </trkpt>
      <trkpt lat="62.634854244619" lon="17.972636193077">
        <ele>201.4</ele>
        <time>2017-12-23T11:30:26Z</time>
      </trkpt>
      <trkpt lat="62.63487427736" lon="17.972543405444">
        <ele>201.4</ele>
        <time>2017-12-23T11:30:27Z</time>
      </trkpt>
      <trkpt lat="62.634905877123" lon="17.972487246714">
        <ele>201.2</ele>
        <time>2017-12-23T11:30:28Z</time>
      </trkpt>
      <trkpt lat="62.63493127428" lon="17.972409546501">
        <ele>201.2</ele>
        <time>2017-12-23T11:30:29Z</time>
      </trkpt>
      <trkpt lat="62.634974441065" lon="17.972337043066">
        <ele>201.4</ele>
        <time>2017-12-23T11:30:30Z</time>
      </trkpt>
      <trkpt lat="62.634980811309" lon="17.972273675902">
        <ele>201.4</ele>
        <time>2017-12-23T11:30:31Z</time>
      </trkpt>
      <trkpt lat="62.635012662529" lon="17.972193544938">
        <ele>201.4</ele>
        <time>2017-12-23T11:30:32Z</time>
      </trkpt>
      <trkpt lat="62.635038981695" lon="17.97213638038">
        <ele>201.4</ele>
        <time>2017-12-23T11:30:33Z</time>
      </trkpt>
      <trkpt lat="62.635058930617" lon="17.972067900257">
        <ele>201</ele>
        <time>2017-12-23T11:30:34Z</time>
      </trkpt>
      <trkpt lat="62.635087596715" lon="17.971970754036">
        <ele>200.6</ele>
        <time>2017-12-23T11:30:35Z</time>
      </trkpt>
      <trkpt lat="62.635107880913" lon="17.971871679978">
        <ele>200.2</ele>
        <time>2017-12-23T11:30:36Z</time>
      </trkpt>
      <trkpt lat="62.635125482903" lon="17.971747627858">
        <ele>199.6</ele>
        <time>2017-12-23T11:30:37Z</time>
      </trkpt>
      <trkpt lat="62.63514585092" lon="17.971623072824">
        <ele>199</ele>
        <time>2017-12-23T11:30:38Z</time>
      </trkpt>
      <trkpt lat="62.635158088494" lon="17.971501199998">
        <ele>198</ele>
        <time>2017-12-23T11:30:39Z</time>
      </trkpt>
      <trkpt lat="62.635169152602" lon="17.971396761524">
        <ele>196.8</ele>
        <time>2017-12-23T11:30:40Z</time>
      </trkpt>
      <trkpt lat="62.635180132891" lon="17.971293245059">
        <ele>196.4</ele>
        <time>2017-12-23T11:30:41Z</time>
      </trkpt>
      <trkpt lat="62.635192202827" lon="17.971185705282">
        <ele>196</ele>
        <time>2017-12-23T11:30:42Z</time>
      </trkpt>
      <trkpt lat="62.635207457885" lon="17.97106936451">
        <ele>195.6</ele>
        <time>2017-12-23T11:30:43Z</time>
      </trkpt>
      <trkpt lat="62.635219527821" lon="17.97096039981">
        <ele>195.2</ele>
        <time>2017-12-23T11:30:44Z</time>
      </trkpt>
      <trkpt lat="62.635230424291" lon="17.970852189481">
        <ele>195</ele>
        <time>2017-12-23T11:30:45Z</time>
      </trkpt>
      <trkpt lat="62.635241572218" lon="17.970743727695">
        <ele>194.6</ele>
        <time>2017-12-23T11:30:46Z</time>
      </trkpt>
      <trkpt lat="62.635249283566" lon="17.970647252026">
        <ele>194.2</ele>
        <time>2017-12-23T11:30:47Z</time>
      </trkpt>
      <trkpt lat="62.635263532796" lon="17.970553961479">
        <ele>193.8</ele>
        <time>2017-12-23T11:30:48Z</time>
      </trkpt>
      <trkpt lat="62.635268059022" lon="17.97043401649">
        <ele>193.6</ele>
        <time>2017-12-23T11:30:49Z</time>
      </trkpt>
      <trkpt lat="62.63527828494" lon="17.970323794505">
        <ele>193.6</ele>
        <time>2017-12-23T11:30:50Z</time>
      </trkpt>
      <trkpt lat="62.635293037084" lon="17.97021860166">
        <ele>193.4</ele>
        <time>2017-12-23T11:30:51Z</time>
      </trkpt>
      <trkpt lat="62.635304352649" lon="17.970125311113">
        <ele>193.2</ele>
        <time>2017-12-23T11:30:52Z</time>
      </trkpt>
      <trkpt lat="62.635318853336" lon="17.970019615354">
        <ele>193</ele>
        <time>2017-12-23T11:30:53Z</time>
      </trkpt>
      <trkpt lat="62.635345088683" lon="17.969892126655">
        <ele>192.8</ele>
        <time>2017-12-23T11:30:54Z</time>
      </trkpt>
      <trkpt lat="62.635368725641" lon="17.96978525743">
        <ele>192.2</ele>
        <time>2017-12-23T11:30:55Z</time>
      </trkpt>
      <trkpt lat="62.635399571033" lon="17.969689536132">
        <ele>191.6</ele>
        <time>2017-12-23T11:30:56Z</time>
      </trkpt>
      <trkpt lat="62.635421112516" lon="17.969590545893">
        <ele>190.8</ele>
        <time>2017-12-23T11:30:57Z</time>
      </trkpt>
      <trkpt lat="62.635446677311" lon="17.969487867618">
        <ele>190.2</ele>
        <time>2017-12-23T11:30:58Z</time>
      </trkpt>
      <trkpt lat="62.63547190683" lon="17.969379741108">
        <ele>189.4</ele>
        <time>2017-12-23T11:30:59Z</time>
      </trkpt>
      <trkpt lat="62.635496968711" lon="17.969278739213">
        <ele>189.2</ele>
        <time>2017-12-23T11:31:00Z</time>
      </trkpt>
      <trkpt lat="62.635522030592" lon="17.969183017915">
        <ele>189</ele>
        <time>2017-12-23T11:31:01Z</time>
      </trkpt>
      <trkpt lat="62.635547595387" lon="17.969082183658">
        <ele>188.6</ele>
        <time>2017-12-23T11:31:02Z</time>
      </trkpt>
      <trkpt lat="62.63557332782" lon="17.968991659138">
        <ele>188.4</ele>
        <time>2017-12-23T11:31:03Z</time>
      </trkpt>
      <trkpt lat="62.63559763533" lon="17.968905912301">
        <ele>188</ele>
        <time>2017-12-23T11:31:04Z</time>
      </trkpt>
      <trkpt lat="62.635621607564" lon="17.968836258712">
        <ele>187.4</ele>
        <time>2017-12-23T11:31:05Z</time>
      </trkpt>
      <trkpt lat="62.635645328341" lon="17.968760653974">
        <ele>186.8</ele>
        <time>2017-12-23T11:31:06Z</time>
      </trkpt>
      <trkpt lat="62.635668294747" lon="17.968695358973">
        <ele>185.8</ele>
        <time>2017-12-23T11:31:07Z</time>
      </trkpt>
      <trkpt lat="62.635694446275" lon="17.96862771704">
        <ele>185.2</ele>
        <time>2017-12-23T11:31:08Z</time>
      </trkpt>
      <trkpt lat="62.635721855088" lon="17.968571893586">
        <ele>185</ele>
        <time>2017-12-23T11:31:09Z</time>
      </trkpt>
      <trkpt lat="62.635748844806" lon="17.968519758168">
        <ele>184.8</ele>
        <time>2017-12-23T11:31:10Z</time>
      </trkpt>
      <trkpt lat="62.635785222252" lon="17.968496624124">
        <ele>184.4</ele>
        <time>2017-12-23T11:31:11Z</time>
      </trkpt>
      <trkpt lat="62.635819504223" lon="17.968457648289">
        <ele>184.4</ele>
        <time>2017-12-23T11:31:12Z</time>
      </trkpt>
      <trkpt lat="62.635853199461" lon="17.968427305811">
        <ele>184.2</ele>
        <time>2017-12-23T11:31:13Z</time>
      </trkpt>
      <trkpt lat="62.635892762029" lon="17.96840978764">
        <ele>184</ele>
        <time>2017-12-23T11:31:14Z</time>
      </trkpt>
      <trkpt lat="62.635931570226" lon="17.968403333577">
        <ele>183.2</ele>
        <time>2017-12-23T11:31:15Z</time>
      </trkpt>
      <trkpt lat="62.635964259636" lon="17.968398220618">
        <ele>183</ele>
        <time>2017-12-23T11:31:16Z</time>
      </trkpt>
    </trkseg>
  </trk>
</gpx>